# Wetter Temperatur Luftdruck Luftfeuchtigkeit Sichtweite Windgeschwindigkeit Windrichtung Zeit
1 Clear 11 1021 90 0 10.07 285 06:51 11.07.2020
2 Clear 11 1021 91 0 10.24 285 06:20 11.07.2020
3 Clear 9 1020 90 0 1.34 270 05:20 11.07.2020
4 Clear 10 1020 90 0 10.57 286 04:54 11.07.2020
5 Clear 10 1020 90 0 10.57 286 04:31 11.07.2020
6 Clear 10 1019 89 0 10.85 285 02:59 11.07.2020
7 Clear 11 1019 89 0 11.21 284 02:36 11.07.2020
8 Clouds 11 1018 89 0 11.29 284 01:32 11.07.2020
9 Clouds 12 1017 89 0 11.08 286 00:59 11.07.2020
10 Clouds 12 1017 89 0 11.08 286 00:40 11.07.2020
11 Clouds 12 1017 89 0 11.1 287 00:21 11.07.2020
12 Clouds 12 1017 89 0 11.1 287 23:57 10.07.2020
13 Clouds 11 1017 88 0 11.1 287 23:39 10.07.2020
14 Clouds 11 1016 88 0 10.99 289 23:18 10.07.2020
15 Clouds 12 1016 88 0 0.45 270 22:43 10.07.2020
16 Clouds 12 1016 87 0 0.45 270 22:20 10.07.2020
17 Clouds 12 1016 86 0 10.67 289 21:55 10.07.2020
18 Clouds 12 1016 85 0 0.45 292 21:36 10.07.2020
19 Clouds 13 1015 85 0 0.45 292 21:18 10.07.2020
20 Clouds 13 1015 85 0 0.45 292 21:18 10.07.2020
21 Clouds 13 1015 83 0 0.89 315 20:41 10.07.2020
22 Clouds 14 1015 82 0 0.45 315 20:22 10.07.2020
23 Clouds 14 1014 83 0 2.24 270 19:57 10.07.2020
24 Clouds 14 1014 83 0 0.45 292 19:39 10.07.2020
25 Clouds 14 1014 83 0 10.5 318 19:20 10.07.2020
26 Clouds 15 1013 84 0 0.45 22 18:42 10.07.2020
27 Rain 13 1007 87 0 11.96 333 18:21 10.07.2020
28 Rain 13 1007 87 0 11.96 333 17:58 10.07.2020
29 Rain 13 1007 87 0 11.96 333 17:40 10.07.2020
30 Rain 14 1007 90 0 12.01 345 17:21 10.07.2020
31 Rain 14 1007 90 0 12.01 345 16:44 10.07.2020
32 Rain 14 1006 92 0 9.74 11 16:21 10.07.2020
33 Rain 14 1006 92 0 9.74 11 15:57 10.07.2020
34 Rain 18 1008 80 0 1.79 315 15:39 10.07.2020
35 Rain 15 1006 94 0 5.61 42 15:18 10.07.2020
36 Rain 19 1008 90 0 0.89 157 14:41 10.07.2020
37 Rain 19 1008 90 0 0.45 180 14:22 10.07.2020
38 Rain 18 1008 91 0 0.89 157 13:58 10.07.2020
39 Rain 17 1008 92 0 0.45 135 13:39 10.07.2020
40 Rain 17 1008 91 0 0.89 157 13:21 10.07.2020
41 Rain 16 1009 91 0 8.46 102 12:58 10.07.2020
42 Rain 16 1009 91 0 0.89 157 12:40 10.07.2020
43 Rain 15 1009 91 0 0.89 135 12:21 10.07.2020
44 Rain 14 1010 91 0 0.45 135 11:42 10.07.2020
45 Clouds 14 1010 91 0 6.91 103 11:22 10.07.2020
46 Clouds 14 1010 91 0 6.91 103 10:58 10.07.2020
47 Clouds 14 1010 91 0 6.91 103 10:40 10.07.2020
48 Clouds 14 1011 91 0 5.44 102 10:21 10.07.2020
49 Clouds 14 1011 90 0 5.44 102 09:55 10.07.2020
50 Clouds 14 1012 90 0 5.44 102 09:36 10.07.2020
51 Rain 14 1011 90 0 4.8 94 09:18 10.07.2020
52 Rain 14 1012 89 0 4.8 94 08:43 10.07.2020
53 Rain 14 1012 89 0 3.91 88 08:25 10.07.2020
54 Rain 14 1012 88 0 3.91 88 07:59 10.07.2020
55 Rain 14 1012 88 0 3.91 88 07:41 10.07.2020
56 Rain 14 1012 88 0 2.65 87 07:20 10.07.2020
57 Rain 14 1012 87 0 2.65 87 06:45 10.07.2020
58 Clouds 14 1013 87 0 3 78 05:54 10.07.2020
59 Clouds 14 1013 87 0 2.49 52 04:31 10.07.2020
60 Clouds 14 1013 87 0 1.67 35 03:26 10.07.2020
61 Clouds 14 1014 88 0 1.67 35 02:48 10.07.2020
62 Clouds 14 1014 88 0 2.08 351 01:47 10.07.2020
63 Clouds 13 1014 89 0 0.45 22 00:45 10.07.2020
64 Clouds 13 1014 90 0 0.45 45 00:18 10.07.2020
65 Clouds 13 1013 90 0 0.45 22 23:45 09.07.2020
66 Rain 13 1013 91 0 1.34 45 23:21 09.07.2020
67 Rain 14 1013 91 0 1.79 22 22:58 09.07.2020
68 Rain 14 1013 91 0 1.79 22 22:39 09.07.2020
69 Rain 14 1013 92 0 0.45 22 22:21 09.07.2020
70 Rain 14 1012 92 0 5.74 41 21:56 09.07.2020
71 Rain 14 1012 92 0 0.89 45 21:37 09.07.2020
72 Rain 14 1012 92 0 0.89 45 21:37 09.07.2020
73 Rain 14 1012 92 0 0.89 45 21:18 09.07.2020
74 Rain 15 1012 91 0 0.45 22 20:43 09.07.2020
75 Rain 15 1012 91 0 0.45 22 20:25 09.07.2020
76 Rain 15 1012 90 0 4.96 38 19:58 09.07.2020
77 Rain 16 1012 90 0 4.96 38 19:40 09.07.2020
78 Rain 16 1012 90 0 5.3 33 19:20 09.07.2020
79 Rain 15 1013 89 0 5.3 33 18:42 09.07.2020
80 Rain 15 1013 89 0 5.3 40 18:21 09.07.2020
81 Rain 15 1013 88 0 5.3 40 17:55 09.07.2020
82 Rain 15 1013 87 0 5.3 40 17:37 09.07.2020
83 Rain 15 1014 87 0 4.69 48 17:18 09.07.2020
84 Rain 16 1014 86 0 4.69 48 16:55 09.07.2020
85 Rain 16 1014 86 0 4.69 48 16:37 09.07.2020
86 Rain 16 1015 86 0 3.77 50 16:18 09.07.2020
87 Rain 15 1015 85 0 3.77 50 15:54 09.07.2020
88 Rain 15 1015 83 0 3.77 50 15:36 09.07.2020
89 Rain 15 1016 82 0 2.75 34 15:18 09.07.2020
90 Rain 16 1016 80 0 2.75 34 14:54 09.07.2020
91 Rain 16 1016 78 0 2.75 34 14:36 09.07.2020
92 Rain 16 1016 78 0 0.45 157 14:18 09.07.2020
93 Rain 17 1017 75 0 0.43 186 13:41 09.07.2020
94 Rain 17 1017 75 0 1.13 241 13:21 09.07.2020
95 Rain 17 1017 72 0 1.13 241 12:59 09.07.2020
96 Rain 18 1017 69 0 0.45 157 12:39 09.07.2020
97 Clouds 18 1017 69 0 0.45 157 12:20 09.07.2020
98 Clouds 15 1014 67 0 2.29 233 11:55 09.07.2020
99 Clouds 15 1014 67 0 2.29 233 11:37 09.07.2020
100 Clouds 15 1015 65 0 2.81 213 11:18 09.07.2020
101 Clouds 18 1018 65 0 2.81 213 10:42 09.07.2020
102 Clouds 18 1018 65 0 2.5 214 10:24 09.07.2020
103 Clouds 18 1018 69 0 2.5 214 09:59 09.07.2020
104 Clouds 17 1018 68 0 2.5 214 09:41 09.07.2020
105 Clouds 14 1015 71 0 2.59 220 09:21 09.07.2020
106 Clouds 15 1018 80 0 3.31 224 08:45 09.07.2020
107 Clouds 14 1018 81 0 3.47 239 08:25 09.07.2020
108 Clouds 14 1019 82 0 3.47 239 07:47 09.07.2020
109 Clouds 13 1018 83 0 3.71 253 07:26 09.07.2020
110 Clouds 12 1018 82 0 3.71 253 06:57 09.07.2020
111 Clouds 11 1018 81 0 4.01 254 06:20 09.07.2020
112 Clouds 11 1018 81 0 4.01 254 05:47 09.07.2020
113 Clouds 10 1018 80 0 4.53 273 04:28 09.07.2020
114 Clouds 11 1018 79 0 5.46 280 02:37 09.07.2020
115 Clouds 11 1018 78 0 6.71 284 01:54 09.07.2020
116 Clouds 11 1018 76 0 7.34 284 00:56 09.07.2020
117 Clouds 11 1019 75 0 7.34 284 00:38 09.07.2020
118 Clouds 11 1019 75 0 7.07 287 00:19 09.07.2020
119 Clouds 12 1018 73 0 7.07 287 23:43 08.07.2020
120 Clouds 12 1018 73 0 7.22 289 23:24 08.07.2020
121 Clouds 13 1018 72 0 7.22 289 22:55 08.07.2020
122 Clouds 13 1018 72 0 7.22 289 22:36 08.07.2020
123 Clear 13 1018 71 0 7.34 286 22:18 08.07.2020
124 Clear 14 1018 68 0 7.34 286 21:40 08.07.2020
125 Clear 14 1018 67 0 7.81 288 21:22 08.07.2020
126 Clear 16 1018 64 0 1.34 315 20:59 08.07.2020
127 Clear 16 1017 62 0 0.89 315 20:41 08.07.2020
128 Clear 17 1017 61 0 0.45 292 20:23 08.07.2020
129 Clear 18 1017 59 0 0.89 292 19:54 08.07.2020
130 Clear 18 1017 58 0 8.25 282 19:36 08.07.2020
131 Clear 18 1017 57 0 0.45 0 19:18 08.07.2020
132 Clear 18 1017 59 0 0.45 292 18:40 08.07.2020
133 Clear 18 1017 58 0 0.89 292 18:21 08.07.2020
134 Clear 18 1017 58 0 0.89 292 17:57 08.07.2020
135 Clear 19 1017 56 0 0.45 292 17:38 08.07.2020
136 Clear 18 1017 59 0 1.34 315 17:20 08.07.2020
137 Clear 17 1017 60 0 0.45 270 16:57 08.07.2020
138 Clear 18 1017 58 0 1.34 292 16:38 08.07.2020
139 Clear 18 1017 60 0 0.89 315 16:18 08.07.2020
140 Clear 17 1017 61 0 2.24 337 15:58 08.07.2020
141 Clear 18 1017 61 0 8.49 275 15:38 08.07.2020
142 Clear 18 1017 59 0 8.52 273 15:19 08.07.2020
143 Clear 17 1017 61 0 2.24 315 14:44 08.07.2020
144 Clear 17 1017 65 0 1.34 292 14:25 08.07.2020
145 Clear 17 1017 65 0 2.24 292 13:58 08.07.2020
146 Clear 17 1017 67 0 0.45 292 13:40 08.07.2020
147 Clouds 17 1016 70 0 0.45 337 13:18 08.07.2020
148 Clouds 14 1017 77 0 1.34 0 12:41 08.07.2020
149 Clouds 14 1017 77 0 1.34 315 12:20 08.07.2020
150 Clouds 13 1016 76 0 0.89 315 11:56 08.07.2020
151 Clouds 14 1016 77 0 8.89 276 11:37 08.07.2020
152 Rain 14 1016 75 0 0.89 22 11:19 08.07.2020
153 Rain 15 1016 71 0 1.79 270 10:43 08.07.2020
154 Rain 15 1016 71 0 0.89 292 10:24 08.07.2020
155 Rain 15 1016 78 0 0.89 202 09:46 08.07.2020
156 Rain 14 1016 80 0 8.24 278 09:25 08.07.2020
157 Rain 14 1016 83 0 8.54 278 08:57 08.07.2020
158 Rain 14 1016 85 0 0.89 292 08:38 08.07.2020
159 Rain 13 1016 86 0 8.28 280 08:19 08.07.2020
160 Rain 12 1016 88 0 8.28 280 07:43 08.07.2020
161 Rain 12 1015 88 0 0.45 292 07:22 08.07.2020
162 Rain 11 1015 89 0 8.23 282 06:46 08.07.2020
163 Rain 11 1016 89 0 8.12 284 06:27 08.07.2020
164 Rain 11 1016 88 0 8.12 284 05:48 08.07.2020
165 Rain 11 1016 88 0 8.19 285 04:50 08.07.2020
166 Rain 11 1016 89 0 8.45 285 04:19 08.07.2020
167 Rain 12 1016 89 0 9.14 292 02:20 08.07.2020
168 Rain 12 1016 88 0 9.14 292 01:39 08.07.2020
169 Rain 12 1016 87 0 9.88 289 00:56 08.07.2020
170 Rain 12 1016 87 0 9.3 283 00:22 08.07.2020
171 Rain 13 1016 84 0 9.3 283 23:44 07.07.2020
172 Rain 12 1016 84 0 8.23 276 23:24 07.07.2020
173 Rain 13 1016 83 0 8.23 276 22:58 07.07.2020
174 Rain 13 1016 82 0 8.23 276 22:40 07.07.2020
175 Rain 13 1016 82 0 9.08 258 22:20 07.07.2020
176 Rain 13 1016 82 0 9.08 258 21:58 07.07.2020
177 Rain 13 1016 82 0 9.08 258 21:38 07.07.2020
178 Rain 13 1017 83 0 10.16 257 21:19 07.07.2020
179 Rain 13 1017 83 0 10.16 257 20:56 07.07.2020
180 Rain 13 1017 82 0 0.89 292 20:37 07.07.2020
181 Rain 13 1017 80 0 0.45 270 20:19 07.07.2020
182 Rain 15 1012 81 0 11.17 246 19:39 07.07.2020
183 Rain 15 1012 81 0 11.17 246 19:39 07.07.2020
184 Rain 18 1016 56 0 10.46 246 19:21 07.07.2020
185 Rain 18 1017 52 0 0.45 292 18:56 07.07.2020
186 Rain 18 1017 52 0 0.45 292 18:38 07.07.2020
187 Rain 19 1017 51 0 0.45 315 18:19 07.07.2020
188 Rain 19 1017 50 0 13.25 265 17:57 07.07.2020
189 Rain 19 1017 48 0 13.25 265 17:38 07.07.2020
190 Clouds 20 1018 46 0 0.89 292 17:20 07.07.2020
191 Clouds 20 1018 47 0 10.16 256 16:43 07.07.2020
192 Clear 20 1018 48 0 0.45 292 16:24 07.07.2020
193 Clear 20 1018 47 0 0.89 270 15:58 07.07.2020
194 Clear 20 1018 47 0 0.89 270 15:58 07.07.2020
195 Clear 20 1018 49 0 1.34 315 15:39 07.07.2020
196 Clear 19 1018 47 0 0.89 292 15:20 07.07.2020
197 Clear 19 1018 51 0 0.89 315 14:47 07.07.2020
198 Clouds 19 1019 51 0 0.45 247 14:26 07.07.2020
199 Clouds 19 1019 52 0 0.45 270 13:59 07.07.2020
200 Clouds 19 1019 53 0 0.89 247 13:38 07.07.2020
201 Clouds 19 1019 53 0 1.79 315 13:18 07.07.2020
202 Clouds 17 1019 61 0 2.24 292 12:40 07.07.2020
203 Clouds 18 1019 60 0 0.45 315 12:22 07.07.2020
204 Clouds 18 1019 62 0 10.21 264 11:56 07.07.2020
205 Clouds 17 1019 62 0 0.45 315 11:38 07.07.2020
206 Clouds 18 1019 58 0 2.68 315 11:20 07.07.2020
207 Clouds 17 1019 59 0 1.79 315 10:55 07.07.2020
208 Clouds 17 1019 63 0 0.89 315 10:37 07.07.2020
209 Clouds 16 1019 68 0 0.89 292 10:18 07.07.2020
210 Clouds 16 1019 70 0 0.45 270 09:39 07.07.2020
211 Clouds 15 1019 75 0 0.89 315 09:20 07.07.2020
212 Clouds 13 1019 78 0 9.55 285 08:42 07.07.2020
213 Clouds 13 1019 78 0 0.89 292 08:23 07.07.2020
214 Clouds 12 1019 83 0 1.34 292 07:47 07.07.2020
215 Clouds 12 1019 85 0 0.45 225 07:24 07.07.2020
216 Clouds 11 1019 87 0 9.93 294 06:49 07.07.2020
217 Clouds 11 1018 89 0 9.93 294 06:31 07.07.2020
218 Clouds 11 1018 88 0 0.45 315 05:54 07.07.2020
219 Clouds 11 1018 88 0 0.89 292 05:23 07.07.2020
220 Clouds 11 1017 87 0 0.89 292 04:42 07.07.2020
221 Clouds 11 1017 86 0 0.45 292 03:41 07.07.2020
222 Clouds 11 1017 83 0 0.45 315 02:28 07.07.2020
223 Clouds 12 1016 83 0 0.45 292 01:25 07.07.2020
224 Clouds 12 1016 82 0 0.45 270 00:54 07.07.2020
225 Clouds 12 1016 82 0 0.89 225 00:36 07.07.2020
226 Clouds 12 1016 82 0 13.86 290 00:18 07.07.2020
227 Clouds 12 1015 83 0 0.45 270 23:41 06.07.2020
228 Clouds 12 1015 82 0 13.44 288 23:22 06.07.2020
229 Clouds 13 1015 80 0 0.45 292 22:55 06.07.2020
230 Clouds 13 1014 79 0 0.45 292 22:37 06.07.2020
231 Clear 13 1014 77 0 1.79 292 22:18 06.07.2020
232 Clear 14 1014 74 0 0.89 292 21:54 06.07.2020
233 Clear 14 1014 73 0 0.45 270 21:36 06.07.2020
234 Rain 15 1014 72 0 0.45 270 21:18 06.07.2020
235 Clear 16 1013 68 0 1.79 315 20:39 06.07.2020
236 Rain 17 1013 64 0 2.24 315 20:20 06.07.2020
237 Rain 18 1013 61 0 1.34 292 19:58 06.07.2020
238 Rain 18 1013 61 0 1.34 292 19:58 06.07.2020
239 Rain 17 1012 60 0 2.24 292 19:39 06.07.2020
240 Rain 18 1012 59 0 0.89 315 19:21 06.07.2020
241 Rain 19 1012 58 0 0.45 292 18:57 06.07.2020
242 Rain 19 1012 60 0 14.23 272 18:39 06.07.2020
243 Clouds 18 1012 66 0 2.68 292 18:21 06.07.2020
244 Clouds 19 1012 58 0 14.07 266 17:44 06.07.2020
245 Clouds 19 1011 63 0 0.45 292 17:24 06.07.2020
246 Clouds 19 1011 60 0 13.76 265 16:59 06.07.2020
247 Clouds 18 1011 61 0 1.34 247 16:41 06.07.2020
248 Clouds 20 1011 55 0 1.34 315 16:21 06.07.2020
249 Clouds 20 1010 55 0 1.34 270 15:43 06.07.2020
250 Clear 20 1010 58 0 1.79 315 15:25 06.07.2020
251 Clear 19 1010 64 0 1.34 270 14:57 06.07.2020
252 Clear 18 1010 65 0 2.68 292 14:38 06.07.2020
253 Clear 18 1010 65 0 2.68 292 14:38 06.07.2020
254 Clear 18 1010 65 0 1.79 247 14:20 06.07.2020
255 Clear 17 1010 74 0 14.37 260 13:56 06.07.2020
256 Clear 16 1010 78 0 1.34 270 13:38 06.07.2020
257 Rain 15 1010 82 0 1.34 315 13:19 06.07.2020
258 Rain 15 1010 82 0 1.34 315 13:19 06.07.2020
259 Rain 18 1009 63 0 0.45 292 12:42 06.07.2020
260 Rain 18 1009 61 0 1.79 292 12:19 06.07.2020
261 Rain 18 1009 61 0 1.79 292 12:19 06.07.2020
262 Rain 19 1009 61 0 0.89 315 11:58 06.07.2020
263 Rain 18 1009 64 0 0.89 270 11:39 06.07.2020
264 Rain 17 1009 70 0 0.89 225 11:20 06.07.2020
265 Rain 19 1009 60 0 0.89 225 10:56 06.07.2020
266 Rain 18 1009 61 0 0.89 270 10:38 06.07.2020
267 Rain 18 1009 63 0 0.45 0 10:18 06.07.2020
268 Rain 18 1009 65 0 0.89 225 09:42 06.07.2020
269 Rain 17 1009 66 0 0.45 315 09:22 06.07.2020
270 Rain 16 1009 73 0 0.45 270 08:58 06.07.2020
271 Rain 16 1009 73 0 0.45 247 08:38 06.07.2020
272 Rain 16 1008 73 0 0.45 315 08:20 06.07.2020
273 Rain 15 1008 77 0 12.39 248 07:47 06.07.2020
274 Rain 15 1008 79 0 10.89 241 07:28 06.07.2020
275 Rain 14 1008 81 0 10.89 241 06:42 06.07.2020
276 Rain 14 1009 81 0 9.99 244 06:24 06.07.2020
277 Rain 13 1008 80 0 9.99 244 05:44 06.07.2020
278 Rain 13 1008 80 0 9.27 240 05:22 06.07.2020
279 Clouds 13 1009 78 0 8.79 230 03:52 06.07.2020
280 Clouds 14 1009 75 0 0.45 270 02:24 06.07.2020
281 Clouds 16 1009 76 0 11.09 244 01:42 06.07.2020
282 Clouds 16 1010 81 0 0.89 292 00:39 06.07.2020
283 Clouds 16 1010 81 0 0.45 270 00:21 06.07.2020
284 Clouds 16 1009 78 0 11.63 259 23:45 05.07.2020
285 Clouds 17 1010 77 0 11.42 260 23:27 05.07.2020
286 Clouds 17 1010 76 0 11.42 260 22:59 05.07.2020
287 Clouds 18 1010 76 0 11.42 260 22:41 05.07.2020
288 Clouds 18 1010 76 0 11.42 260 22:41 05.07.2020
289 Clouds 18 1009 76 0 0.89 292 22:20 05.07.2020
290 Clouds 18 1009 73 0 0.89 292 21:58 05.07.2020
291 Clouds 18 1009 72 0 0.45 270 21:40 05.07.2020
292 Clouds 19 1009 72 0 0.89 225 21:19 05.07.2020
293 Clouds 20 1009 69 0 1.79 315 20:58 05.07.2020
294 Clouds 21 1009 68 0 2.24 292 20:39 05.07.2020
295 Clouds 22 1009 68 0 0.89 315 20:21 05.07.2020
296 Clouds 18 1004 80 0 11.22 250 19:55 05.07.2020
297 Clouds 18 1004 80 0 11.22 250 19:37 05.07.2020
298 Rain 18 1004 81 0 11.52 250 19:19 05.07.2020
299 Rain 22 1008 73 0 0.45 292 18:42 05.07.2020
300 Rain 22 1009 71 0 0.45 0 18:22 05.07.2020
301 Rain 22 1009 71 0 0.45 0 18:22 05.07.2020
302 Rain 22 1009 77 0 1.79 315 17:56 05.07.2020
303 Rain 22 1009 76 0 0.89 270 17:38 05.07.2020
304 Rain 22 1009 78 0 0.45 315 17:19 05.07.2020
305 Rain 22 1009 85 0 12.65 241 16:44 05.07.2020
306 Rain 21 1009 86 0 12.33 241 16:25 05.07.2020
307 Rain 20 1009 87 0 12.33 241 15:58 05.07.2020
308 Rain 20 1009 88 0 12.33 241 15:38 05.07.2020
309 Clouds 19 1009 88 0 0.45 292 15:19 05.07.2020
310 Clouds 19 1009 87 0 12.16 238 14:42 05.07.2020
311 Clouds 19 1009 86 0 0.89 247 14:23 05.07.2020
312 Clouds 21 1009 78 0 0.45 292 13:55 05.07.2020
313 Clouds 19 1004 83 0 11.96 235 13:37 05.07.2020
314 Clouds 23 1008 71 0 0.45 225 13:19 05.07.2020
315 Clouds 24 1008 75 0 11.73 231 12:39 05.07.2020
316 Clouds 19 1005 83 0 10.84 228 12:20 05.07.2020
317 Clouds 23 1008 76 0 0.45 247 11:55 05.07.2020
318 Clouds 19 1005 83 0 10.84 228 11:36 05.07.2020
319 Clouds 18 1005 89 0 10.7 231 11:18 05.07.2020
320 Clouds 20 1009 88 0 0.89 202 10:42 05.07.2020
321 Rain 20 1009 88 0 1.34 202 10:20 05.07.2020
322 Rain 19 1009 89 0 10 228 09:59 05.07.2020
323 Rain 19 1009 89 0 0.89 202 09:41 05.07.2020
324 Rain 19 1010 90 0 9.83 225 09:20 05.07.2020
325 Clouds 18 1009 90 0 10.11 223 08:55 05.07.2020
326 Clouds 18 1010 90 0 0.89 202 08:36 05.07.2020
327 Rain 18 1010 89 0 0.45 202 07:51 05.07.2020
328 Rain 18 1010 90 0 0.45 202 07:30 05.07.2020
329 Rain 18 1010 89 0 0.45 202 06:55 05.07.2020
330 Clouds 17 1010 89 0 9.21 221 06:25 05.07.2020
331 Clouds 17 1011 87 0 9.16 231 03:55 05.07.2020
332 Rain 17 1012 87 0 9.42 233 02:59 05.07.2020
333 Rain 17 1012 86 0 9.42 233 02:36 05.07.2020
334 Rain 17 1012 86 0 10.64 234 01:43 05.07.2020
335 Clouds 17 1012 86 0 11.03 237 01:22 05.07.2020
336 Clouds 17 1013 86 0 11.03 237 00:50 05.07.2020
337 Clouds 17 1013 86 0 11.29 239 00:28 05.07.2020
338 Clouds 17 1013 85 0 11.29 239 23:56 04.07.2020
339 Clouds 17 1013 84 0 11.29 239 23:32 04.07.2020
340 Clouds 17 1013 84 0 11.14 235 22:59 04.07.2020
341 Clouds 18 1013 83 0 11.14 235 22:41 04.07.2020
342 Clouds 18 1013 83 0 11.47 236 22:23 04.07.2020
343 Clouds 18 1013 83 0 11.47 236 21:58 04.07.2020
344 Clouds 18 1013 83 0 11.47 236 21:40 04.07.2020
345 Rain 18 1013 83 0 11.48 228 21:22 04.07.2020
346 Rain 18 1013 82 0 0.45 225 20:43 04.07.2020
347 Rain 18 1014 81 0 12.01 230 20:22 04.07.2020
348 Rain 18 1013 80 0 0.45 180 19:58 04.07.2020
349 Rain 18 1013 80 0 0.89 202 19:39 04.07.2020
350 Rain 18 1014 79 0 11.81 225 19:21 04.07.2020
351 Rain 18 1014 79 0 11.81 225 19:21 04.07.2020
352 Rain 19 1014 72 0 11.81 225 18:46 04.07.2020
353 Rain 20 1014 71 0 11.24 225 18:24 04.07.2020
354 Rain 16 1010 89 0 11.24 225 17:59 04.07.2020
355 Rain 16 1010 89 0 11.24 225 17:41 04.07.2020
356 Rain 17 1010 86 0 11.44 229 17:22 04.07.2020
357 Rain 17 1010 86 0 11.44 229 16:56 04.07.2020
358 Rain 17 1010 86 0 11.44 229 16:37 04.07.2020
359 Rain 21 1014 63 0 10.68 228 16:18 04.07.2020
360 Rain 17 1011 85 0 10.68 228 15:42 04.07.2020
361 Rain 16 1011 84 0 11.44 229 15:24 04.07.2020
362 Rain 16 1011 84 0 11.44 229 14:58 04.07.2020
363 Rain 16 1011 84 0 11.44 229 14:37 04.07.2020
364 Clouds 17 1011 82 0 11.99 230 14:19 04.07.2020
365 Clouds 17 1011 82 0 11.99 230 13:56 04.07.2020
366 Clouds 17 1011 82 0 11.99 230 13:37 04.07.2020
367 Clouds 16 1011 83 0 11 230 13:18 04.07.2020
368 Clouds 16 1011 83 0 11 230 12:41 04.07.2020
369 Rain 16 1011 86 0 11.71 231 12:20 04.07.2020
370 Rain 19 1015 69 0 11.71 231 11:46 04.07.2020
371 Rain 19 1015 69 0 12.01 229 11:25 04.07.2020
372 Rain 19 1015 69 0 0.89 337 10:59 04.07.2020
373 Rain 19 1015 70 0 12.01 229 10:39 04.07.2020
374 Clouds 19 1015 67 0 11.68 227 10:21 04.07.2020
375 Clouds 19 1015 69 0 11.68 227 09:56 04.07.2020
376 Clouds 19 1015 69 0 0.45 270 09:36 04.07.2020
377 Clouds 19 1015 69 0 0.45 247 09:18 04.07.2020
378 Clouds 19 1015 70 0 11.27 229 08:46 04.07.2020
379 Rain 19 1015 72 0 0.89 225 08:27 04.07.2020
380 Rain 18 1015 74 0 11.83 234 07:46 04.07.2020
381 Clouds 18 1015 75 0 0.45 202 07:26 04.07.2020
382 Clouds 18 1015 76 0 0.45 202 06:53 04.07.2020
383 Clouds 17 1015 77 0 0.45 202 06:22 04.07.2020
384 Clouds 17 1015 78 0 0.45 202 05:34 04.07.2020
385 Clouds 17 1015 79 0 0.45 202 04:43 04.07.2020
386 Clouds 17 1016 79 0 8.77 226 02:51 04.07.2020
387 Rain 17 1016 80 0 8.1 226 02:23 04.07.2020
388 Clouds 17 1017 80 0 9.38 233 01:31 04.07.2020
389 Clouds 17 1017 79 0 8.46 235 00:44 04.07.2020
390 Clouds 17 1017 79 0 8.63 235 00:24 04.07.2020
391 Clouds 17 1017 78 0 8.63 235 23:40 03.07.2020
392 Clouds 17 1017 77 0 7.45 218 23:19 03.07.2020
393 Clouds 17 1017 76 0 0.45 202 22:58 03.07.2020
394 Clouds 18 1017 76 0 7.45 218 22:39 03.07.2020
395 Clouds 18 1017 75 0 5.46 221 22:21 03.07.2020
396 Clouds 18 1017 73 0 5.46 221 21:43 03.07.2020
397 Clouds 17 1017 73 0 4.95 229 21:20 03.07.2020
398 Clouds 19 1018 69 0 4.95 229 20:58 03.07.2020
399 Clouds 19 1017 66 0 0.45 270 20:39 03.07.2020
400 Clouds 20 1017 67 0 4.83 234 20:21 03.07.2020
401 Clouds 21 1017 64 0 4.83 234 19:42 03.07.2020
402 Clouds 21 1017 63 0 4 237 19:21 03.07.2020
403 Clouds 21 1017 62 0 4 237 18:57 03.07.2020
404 Clouds 21 1017 63 0 4 237 18:39 03.07.2020
405 Clouds 21 1017 61 0 0.89 292 18:20 03.07.2020
406 Clouds 22 1017 59 0 3.44 252 17:44 03.07.2020
407 Clouds 17 1013 68 0 3.26 254 17:22 03.07.2020
408 Clouds 21 1017 62 0 3.26 254 16:47 03.07.2020
409 Clouds 21 1017 65 0 4.29 257 16:29 03.07.2020
410 Clouds 21 1017 65 0 4.29 257 15:57 03.07.2020
411 Clouds 20 1017 65 0 4.29 257 15:39 03.07.2020
412 Clouds 20 1017 66 0 4.4 266 15:20 03.07.2020
413 Clouds 20 1017 65 0 0.45 337 14:55 03.07.2020
414 Clouds 20 1017 66 0 0.45 0 14:36 03.07.2020
415 Clouds 20 1017 66 0 0.45 0 14:36 03.07.2020
416 Clouds 21 1017 63 0 4.39 279 14:18 03.07.2020
417 Clouds 21 1017 67 0 0.89 315 13:41 03.07.2020
418 Clouds 20 1017 67 0 0.45 337 13:22 03.07.2020
419 Clouds 19 1017 67 0 4.13 283 12:43 03.07.2020
420 Clear 21 1017 66 0 0.45 0 12:22 03.07.2020
421 Clear 19 1017 69 0 0.45 22 11:56 03.07.2020
422 Clear 19 1017 71 0 4.39 286 11:38 03.07.2020
423 Clouds 19 1016 69 0 0.45 315 11:19 03.07.2020
424 Clouds 20 1016 70 0 3.76 295 10:54 03.07.2020
425 Clouds 19 1016 73 0 3.76 295 10:36 03.07.2020
426 Clouds 19 1016 74 0 0.45 337 10:18 03.07.2020
427 Clouds 19 1016 77 0 0.45 337 09:40 03.07.2020
428 Clouds 18 1016 80 0 4.38 347 09:22 03.07.2020
429 Clouds 18 1016 87 0 0.89 315 08:58 03.07.2020
430 Clouds 17 1016 90 0 0.89 337 08:38 03.07.2020
431 Clouds 17 1015 90 0 0.45 337 08:18 03.07.2020
432 Clouds 17 1015 91 0 0.45 292 07:47 03.07.2020
433 Rain 16 1015 91 0 0.45 315 07:23 03.07.2020
434 Rain 16 1015 91 0 5.67 333 06:40 03.07.2020
435 Rain 15 1014 91 0 5.35 339 05:56 03.07.2020
436 Rain 15 1014 88 0 4.21 336 04:35 03.07.2020
437 Rain 16 1013 87 0 2.09 300 02:57 03.07.2020
438 Rain 16 1013 87 0 0.89 292 02:36 03.07.2020
439 Rain 16 1013 86 0 1.12 315 01:54 03.07.2020
440 Clouds 16 1014 85 0 1.16 318 01:23 03.07.2020
441 Clouds 16 1013 82 0 1.16 318 00:44 03.07.2020
442 Clouds 17 1013 81 0 1.62 260 00:21 03.07.2020
443 Clouds 17 1013 81 0 1.62 260 23:43 02.07.2020
444 Clouds 17 1013 81 0 2.16 262 23:20 02.07.2020
445 Clouds 17 1013 80 0 2.16 262 22:57 02.07.2020
446 Clouds 18 1013 80 0 2.16 262 22:39 02.07.2020
447 Clear 18 1013 80 0 2.24 263 22:20 02.07.2020
448 Clear 18 1013 80 0 2.24 263 21:54 02.07.2020
449 Clear 18 1013 80 0 2.24 263 21:36 02.07.2020
450 Clouds 18 1013 80 0 2.33 275 21:18 02.07.2020
451 Clouds 19 1013 77 0 2.33 275 20:57 02.07.2020
452 Clouds 19 1013 76 0 2.33 275 20:39 02.07.2020
453 Clouds 20 1012 72 0 2.82 281 20:18 02.07.2020
454 Clouds 21 1013 67 0 2.82 281 19:41 02.07.2020
455 Clear 22 1012 65 0 3.81 279 19:22 02.07.2020
456 Clear 22 1012 65 0 3.81 279 18:57 02.07.2020
457 Clear 22 1012 63 0 3.81 279 18:39 02.07.2020
458 Clear 23 1012 62 0 0.89 22 18:21 02.07.2020
459 Clear 23 1012 62 0 0.89 22 18:21 02.07.2020
460 Clear 22 1012 63 0 4.31 271 17:54 02.07.2020
461 Clear 22 1012 64 0 0.45 45 17:36 02.07.2020
462 Clear 17 1008 80 0 4.77 263 17:18 02.07.2020
463 Clear 23 1012 61 0 4.77 263 16:40 02.07.2020
464 Clear 23 1012 61 0 0.89 0 16:20 02.07.2020
465 Clear 17 1008 81 0 5.1 260 15:55 02.07.2020
466 Clear 23 1012 59 0 5.1 260 15:36 02.07.2020
467 Clouds 21 1012 69 0 1.79 337 15:18 02.07.2020
468 Clouds 22 1012 66 0 0.45 315 14:44 02.07.2020
469 Clouds 22 1012 66 0 0.45 315 14:44 02.07.2020
470 Clouds 21 1012 71 0 1.79 0 14:22 02.07.2020
471 Clouds 20 1012 70 0 1.79 337 13:57 02.07.2020
472 Clouds 21 1012 70 0 0.89 337 13:38 02.07.2020
473 Clouds 21 1012 68 0 0.89 337 13:18 02.07.2020
474 Clouds 21 1012 69 0 0.45 270 12:41 02.07.2020
475 Clouds 21 1012 68 0 8.47 259 12:22 02.07.2020
476 Clouds 21 1011 65 0 0.89 292 11:59 02.07.2020
477 Clouds 22 1011 66 0 0.45 90 11:40 02.07.2020
478 Clouds 21 1011 66 0 8.99 254 11:22 02.07.2020
479 Clouds 20 1011 71 0 0.89 292 10:43 02.07.2020
480 Clouds 19 1011 72 0 8.69 260 10:25 02.07.2020
481 Clouds 19 1011 76 0 0.45 292 09:56 02.07.2020
482 Clouds 18 1011 76 0 0.45 315 09:37 02.07.2020
483 Clouds 16 1007 83 0 7.44 276 09:18 02.07.2020
484 Clouds 18 1010 83 0 1.34 337 08:42 02.07.2020
485 Clouds 17 1010 84 0 8.1 272 08:22 02.07.2020
486 Clouds 16 1010 88 0 0.89 292 07:43 02.07.2020
487 Clouds 16 1010 88 0 0.45 292 07:25 02.07.2020
488 Clouds 16 1009 89 0 9.15 264 06:58 02.07.2020
489 Clouds 15 1009 89 0 9.15 264 06:39 02.07.2020
490 Clouds 15 1009 89 0 9.63 258 06:19 02.07.2020
491 Clouds 14 1009 89 0 9.63 258 05:42 02.07.2020
492 Clouds 16 1008 89 0 10.9 251 03:35 02.07.2020
493 Clouds 17 1008 86 0 10.05 249 02:38 02.07.2020
494 Rain 17 1007 84 0 8.54 242 00:47 02.07.2020
495 Clouds 17 1007 84 0 8.98 235 00:23 02.07.2020
496 Clouds 17 1007 82 0 8.98 235 23:46 01.07.2020
497 Rain 18 1007 83 0 9.93 233 23:27 01.07.2020
498 Rain 18 1007 83 0 9.93 233 22:57 01.07.2020
499 Rain 18 1007 83 0 0.45 180 22:38 01.07.2020
500 Rain 18 1007 82 0 0.45 180 22:19 01.07.2020
501 Rain 19 1007 82 0 0.45 180 21:58 01.07.2020
502 Rain 19 1007 80 0 8.65 225 21:40 01.07.2020
503 Rain 19 1007 79 0 0.45 157 21:21 01.07.2020
504 Rain 19 1007 79 0 0.45 157 21:21 01.07.2020
505 Rain 20 1008 76 0 8.01 237 20:56 01.07.2020
506 Rain 21 1007 73 0 0.45 180 20:38 01.07.2020
507 Rain 22 1008 68 0 4.65 220 20:19 01.07.2020
508 Rain 18 1003 85 0 4.65 220 19:43 01.07.2020
509 Rain 17 1003 81 0 2.9 232 19:24 01.07.2020
510 Rain 17 1003 81 0 2.9 232 18:59 01.07.2020
511 Rain 17 1003 81 0 2.9 232 18:40 01.07.2020
512 Clear 17 1004 79 0 2.14 247 18:21 01.07.2020
513 Clear 17 1004 79 0 2.14 247 17:56 01.07.2020
514 Clear 17 1004 79 0 2.14 247 17:37 01.07.2020
515 Clear 17 1004 77 0 2.81 265 17:18 01.07.2020
516 Clear 17 1004 77 0 2.81 265 16:44 01.07.2020
517 Clear 17 1005 74 0 4.23 270 16:26 01.07.2020
518 Clear 23 1008 59 0 4.23 270 15:55 01.07.2020
519 Clear 23 1008 59 0 4.23 270 15:37 01.07.2020
520 Clear 23 1008 58 0 1.79 247 15:18 01.07.2020
521 Clear 22 1009 58 0 0.89 292 14:42 01.07.2020
522 Clouds 23 1009 56 0 1.34 315 14:21 01.07.2020
523 Clouds 22 1009 60 0 0.45 202 13:57 01.07.2020
524 Clouds 21 1009 59 0 5.49 237 13:38 01.07.2020
525 Clouds 22 1009 58 0 0.45 247 13:20 01.07.2020
526 Clouds 20 1009 65 0 6.99 254 12:57 01.07.2020
527 Clouds 20 1009 67 0 0.45 270 12:38 01.07.2020
528 Clouds 20 1009 65 0 0.45 270 12:20 01.07.2020
529 Clouds 19 1009 67 0 0.45 270 11:42 01.07.2020
530 Clouds 19 1009 68 0 8.39 253 11:23 01.07.2020
531 Clouds 20 1009 68 0 8.39 253 10:58 01.07.2020
532 Clouds 19 1009 68 0 0.45 270 10:40 01.07.2020
533 Clear 19 1009 70 0 0.45 315 10:21 01.07.2020
534 Clear 18 1008 73 0 8.78 251 09:54 01.07.2020
535 Clear 18 1008 75 0 0.45 292 09:36 01.07.2020
536 Clear 17 1008 78 0 0.45 292 09:18 01.07.2020
537 Clouds 17 1008 80 0 0.45 292 08:41 01.07.2020
538 Clouds 17 1008 81 0 0.89 315 08:22 01.07.2020
539 Clouds 16 1008 86 0 0.89 292 07:58 01.07.2020
540 Clouds 15 1008 88 0 9.12 258 07:38 01.07.2020
541 Clouds 15 1008 89 0 9.21 256 07:20 01.07.2020
542 Clouds 14 1008 90 0 9.21 256 06:49 01.07.2020
543 Clouds 14 1008 89 0 9.08 252 06:27 01.07.2020
544 Clouds 14 1007 85 0 9.64 249 04:32 01.07.2020
545 Rain 14 1007 85 0 10.55 248 03:47 01.07.2020
546 Clouds 14 1007 83 0 0.45 292 03:27 01.07.2020
547 Clouds 14 1007 80 0 10.88 248 02:41 01.07.2020
548 Clouds 14 1008 77 0 12.08 247 01:47 01.07.2020
549 Clouds 14 1008 78 0 0.45 315 00:43 01.07.2020
550 Rain 15 1008 78 0 13.45 250 00:24 01.07.2020
551 Rain 15 1008 78 0 13.45 250 23:42 30.06.2020
552 Rain 15 1008 78 0 13.41 251 23:22 30.06.2020
553 Rain 16 1009 76 0 13.41 251 22:59 30.06.2020
554 Rain 16 1009 76 0 13.41 251 22:40 30.06.2020
555 Rain 16 1009 76 0 13.68 250 22:18 30.06.2020
556 Rain 16 1008 76 0 13.68 250 21:41 30.06.2020
557 Rain 16 1008 75 0 0.45 202 21:19 30.06.2020
558 Rain 18 1008 66 0 13.54 247 20:55 30.06.2020
559 Rain 18 1008 66 0 0.45 247 20:37 30.06.2020
560 Rain 18 1008 66 0 13.44 245 20:19 30.06.2020
561 Rain 18 1008 66 0 0.45 225 19:42 30.06.2020
562 Rain 18 1008 65 0 0.89 202 19:19 30.06.2020
563 Rain 18 1008 65 0 0.89 202 19:19 30.06.2020
564 Rain 19 1009 65 0 0.45 292 18:46 30.06.2020
565 Clouds 18 1009 64 0 0.45 247 18:21 30.06.2020
566 Clouds 17 1003 75 0 13.66 242 17:59 30.06.2020
567 Clouds 19 1009 66 0 1.79 315 17:38 30.06.2020
568 Rain 19 1009 67 0 14.34 243 17:19 30.06.2020
569 Rain 19 1009 67 0 14.34 243 17:19 30.06.2020
570 Rain 18 1009 66 0 0.89 225 16:54 30.06.2020
571 Rain 19 1009 66 0 0.45 225 16:36 30.06.2020
572 Rain 18 1009 71 0 14.21 242 16:18 30.06.2020
573 Rain 18 1009 71 0 0.45 247 15:41 30.06.2020
574 Rain 18 1009 67 0 13.29 239 15:22 30.06.2020
575 Rain 18 1009 66 0 13.29 239 14:56 30.06.2020
576 Rain 19 1009 63 0 0.45 225 14:38 30.06.2020
577 Clouds 17 1004 76 0 13.14 235 14:18 30.06.2020
578 Clouds 17 1004 76 0 13.14 235 14:18 30.06.2020
579 Clouds 19 1009 61 0 13.14 235 13:41 30.06.2020
580 Clouds 20 1009 62 0 12.98 234 13:21 30.06.2020
581 Clouds 19 1009 61 0 12.98 234 12:59 30.06.2020
582 Clouds 16 1004 77 0 12.98 234 12:40 30.06.2020
583 Clouds 16 1004 77 0 12.8 234 12:21 30.06.2020
584 Clouds 16 1004 77 0 12.8 234 11:59 30.06.2020
585 Clouds 16 1004 77 0 12.8 234 11:39 30.06.2020
586 Rain 16 1004 79 0 12.81 235 11:20 30.06.2020
587 Rain 16 1004 79 0 12.81 235 10:59 30.06.2020
588 Clouds 19 1014 83 0 0.89 292 16:44 28.06.2020
589 Clouds 19 1014 81 0 0.89 292 16:26 28.06.2020
590 Clouds 23 1014 74 0 3.58 292 15:57 28.06.2020
591 Clouds 26 1013 69 0 7.84 287 15:38 28.06.2020
592 Rain 26 1013 66 0 7.53 269 15:19 28.06.2020
593 Rain 20 1010 83 0 7.53 269 14:46 28.06.2020
594 Rain 27 1013 64 0 0.45 247 14:28 28.06.2020
595 Rain 24 1013 69 0 2.63 268 13:59 28.06.2020
596 Rain 24 1013 70 0 2.63 268 13:38 28.06.2020
597 Rain 24 1013 70 0 2.63 268 13:38 28.06.2020
598 Rain 24 1013 70 0 2.63 268 13:38 28.06.2020
599 Rain 24 1013 68 0 1.95 234 13:20 28.06.2020
600 Rain 24 1013 68 0 1.95 234 13:20 28.06.2020
601 Rain 26 1013 63 0 1.95 234 12:56 28.06.2020
602 Rain 26 1014 64 0 1.95 234 12:37 28.06.2020
603 Rain 26 1014 64 0 1.95 234 12:37 28.06.2020
604 Rain 26 1014 64 0 1.03 256 12:19 28.06.2020
605 Rain 26 1014 62 0 0.45 45 11:57 28.06.2020
606 Rain 26 1014 62 0 0.45 45 11:57 28.06.2020
607 Rain 27 1014 60 0 1.03 256 11:39 28.06.2020
608 Clouds 20 1010 84 0 1.27 250 11:20 28.06.2020
609 Clouds 26 1013 61 0 1.27 250 10:56 28.06.2020
610 Clouds 26 1013 60 0 0.45 292 10:38 28.06.2020
611 Clouds 27 1013 62 0 2.7 245 10:19 28.06.2020
612 Clouds 25 1013 70 0 2.7 245 09:40 28.06.2020
613 Clouds 19 1010 86 0 3.2 244 09:21 28.06.2020
614 Clouds 23 1013 75 0 4.79 258 08:51 28.06.2020
615 Clouds 23 1013 78 0 1.34 292 08:32 28.06.2020
616 Clouds 22 1013 82 0 0.45 292 07:53 28.06.2020
617 Clouds 21 1013 83 0 0.89 292 07:30 28.06.2020
618 Clouds 21 1013 83 0 5.64 249 06:53 28.06.2020
619 Clouds 20 1013 85 0 5.64 249 06:31 28.06.2020
620 Clouds 18 1012 82 0 5.18 222 05:27 28.06.2020
621 Clouds 19 1012 82 0 5.02 203 03:52 28.06.2020
622 Rain 20 1012 80 0 5.71 202 02:51 28.06.2020
623 Clouds 20 1012 80 0 4.04 207 02:19 28.06.2020
624 Clouds 21 1012 78 0 3.16 175 01:27 28.06.2020
625 Clouds 21 1012 78 0 3.16 175 00:53 28.06.2020
626 Clouds 21 1011 78 0 0.45 135 00:29 28.06.2020
627 Clouds 21 1012 77 0 3.05 158 23:45 27.06.2020
628 Clouds 21 1012 77 0 4.44 150 23:24 27.06.2020
629 Clouds 22 1012 77 0 4.44 150 22:59 27.06.2020
630 Clouds 22 1012 77 0 4.44 150 22:41 27.06.2020
631 Clouds 22 1012 75 0 0.45 22 22:23 27.06.2020
632 Clouds 22 1012 74 0 5.84 136 21:58 27.06.2020
633 Clouds 22 1012 73 0 5.84 136 21:40 27.06.2020
634 Rain 22 1011 73 0 0.89 135 21:20 27.06.2020
635 Rain 22 1011 73 0 0.89 135 21:20 27.06.2020
636 Rain 23 1011 68 0 6.1 129 20:55 27.06.2020
637 Rain 24 1011 68 0 6.1 129 20:37 27.06.2020
638 Rain 24 1011 66 0 6.02 121 20:18 27.06.2020
639 Rain 20 1008 78 0 6.02 121 19:37 27.06.2020
640 Rain 21 1008 77 0 6.22 109 19:19 27.06.2020
641 Rain 21 1008 77 0 6.22 109 18:57 27.06.2020
642 Rain 21 1008 77 0 6.22 109 18:37 27.06.2020
643 Rain 22 1008 74 0 5.84 105 18:19 27.06.2020
644 Rain 29 1011 60 0 5.84 105 17:41 27.06.2020
645 Clouds 28 1011 62 0 5.73 107 17:20 27.06.2020
646 Clouds 26 1012 69 0 5.73 107 16:57 27.06.2020
647 Clouds 26 1012 67 0 5.73 107 16:38 27.06.2020
648 Clear 26 1012 66 0 5.47 100 16:19 27.06.2020
649 Clear 28 1012 60 0 0.45 22 15:43 27.06.2020
650 Clear 22 1009 68 0 4.59 97 15:24 27.06.2020
651 Clear 22 1009 68 0 4.59 97 14:58 27.06.2020
652 Clear 22 1009 68 0 4.59 97 14:39 27.06.2020
653 Clear 22 1010 69 0 3.51 100 14:20 27.06.2020
654 Clouds 22 1010 68 0 3.6 97 13:54 27.06.2020
655 Clouds 22 1010 68 0 3.6 97 13:36 27.06.2020
656 Clouds 22 1010 70 0 2.73 110 13:18 27.06.2020
657 Clouds 28 1013 59 0 1.34 157 12:41 27.06.2020
658 Clouds 21 1010 73 0 2.53 116 12:22 27.06.2020
659 Clouds 27 1013 65 0 1.34 135 11:59 27.06.2020
660 Clouds 27 1013 65 0 1.34 135 11:59 27.06.2020
661 Clouds 26 1013 67 0 2.53 116 11:40 27.06.2020
662 Clouds 24 1013 72 0 0.45 157 11:22 27.06.2020
663 Clouds 24 1013 72 0 0.45 157 11:22 27.06.2020
664 Clouds 22 1013 80 0 0.89 22 10:42 27.06.2020
665 Clear 22 1014 82 0 2.55 129 10:20 27.06.2020
666 Clear 21 1014 83 0 0.89 22 09:59 27.06.2020
667 Clear 21 1014 81 0 0.45 22 09:39 27.06.2020
668 Clear 21 1014 81 0 0.45 22 09:21 27.06.2020
669 Clear 20 1014 84 0 3.35 145 08:44 27.06.2020
670 Clouds 20 1014 85 0 0.45 135 08:23 27.06.2020
671 Clouds 19 1014 86 0 3.79 141 07:48 27.06.2020
672 Clouds 19 1014 86 0 0.45 157 07:27 27.06.2020
673 Clouds 19 1014 86 0 3.91 141 06:53 27.06.2020
674 Clouds 19 1014 86 0 0.45 135 06:33 27.06.2020
675 Clouds 18 1014 84 0 3.93 139 05:31 27.06.2020
676 Clouds 18 1014 84 0 4.25 112 04:19 27.06.2020
677 Clouds 18 1015 84 0 0.45 157 03:51 27.06.2020
678 Clear 19 1015 84 0 4.24 119 02:45 27.06.2020
679 Clouds 19 1015 84 0 4.71 117 02:26 27.06.2020
680 Clouds 19 1015 83 0 3.84 108 01:37 27.06.2020
681 Clouds 19 1015 83 0 3.54 111 00:49 27.06.2020
682 Rain 19 1016 82 0 4.27 108 23:57 26.06.2020
683 Rain 19 1016 82 0 4.27 108 23:38 26.06.2020
684 Rain 19 1016 81 0 5.09 99 23:20 26.06.2020
685 Rain 19 1016 81 0 5.09 99 22:43 26.06.2020
686 Clouds 20 1016 80 0 5.79 94 22:24 26.06.2020
687 Clouds 21 1016 79 0 5.79 94 21:58 26.06.2020
688 Clouds 21 1016 80 0 5.79 94 21:40 26.06.2020
689 Clouds 21 1016 80 0 5.79 94 21:40 26.06.2020
690 Clouds 21 1016 80 0 6.31 84 21:21 26.06.2020
691 Clouds 21 1016 79 0 0.45 45 20:59 26.06.2020
692 Clouds 21 1016 78 0 0.45 67 20:40 26.06.2020
693 Clear 22 1016 73 0 6.88 85 20:18 26.06.2020
694 Clear 23 1017 68 0 6.88 85 19:41 26.06.2020
695 Clear 23 1017 67 0 0.45 135 19:23 26.06.2020
696 Clear 23 1017 67 0 7.23 84 18:44 26.06.2020
697 Clouds 23 1017 67 0 6.9 82 18:25 26.06.2020
698 Clouds 23 1017 66 0 6.9 82 17:58 26.06.2020
699 Clouds 24 1017 66 0 6.9 82 17:40 26.06.2020
700 Clouds 24 1017 66 0 6.78 81 17:21 26.06.2020
701 Clouds 28 1018 58 0 1.79 22 16:43 26.06.2020
702 Clouds 28 1018 57 0 0.89 45 16:23 26.06.2020
703 Clouds 26 1018 66 0 0.45 45 15:54 26.06.2020
704 Clouds 26 1018 68 0 6.74 84 15:36 26.06.2020
705 Clouds 25 1019 69 0 0.45 22 15:18 26.06.2020
706 Clouds 24 1019 73 0 0.89 67 14:40 26.06.2020
707 Clouds 24 1019 72 0 0.45 45 14:22 26.06.2020
708 Clouds 24 1020 71 0 2.24 22 13:57 26.06.2020
709 Clouds 25 1020 73 0 1.79 45 13:38 26.06.2020
710 Clear 24 1020 73 0 0.45 22 13:18 26.06.2020
711 Clear 24 1020 76 0 5.1 102 12:41 26.06.2020
712 Clear 24 1020 76 0 5.1 102 12:41 26.06.2020
713 Clear 23 1020 76 0 5.07 106 12:23 26.06.2020
714 Clear 23 1020 76 0 5.07 106 12:23 26.06.2020
715 Clear 23 1021 75 0 0.89 22 11:59 26.06.2020
716 Clear 24 1021 71 0 5.07 106 11:39 26.06.2020
717 Clear 26 1021 69 0 0.89 45 11:21 26.06.2020
718 Clear 27 1021 65 0 0.45 45 10:58 26.06.2020
719 Clear 27 1021 65 0 0.89 22 10:38 26.06.2020
720 Clouds 27 1021 64 0 0.89 157 10:19 26.06.2020
721 Clouds 26 1022 67 0 0.45 135 09:44 26.06.2020
722 Clear 20 1020 83 0 4.46 115 09:25 26.06.2020
723 Clear 24 1022 76 0 0.45 135 08:57 26.06.2020
724 Clear 23 1022 78 0 0.45 135 08:37 26.06.2020
725 Clouds 22 1022 81 0 0.45 157 08:19 26.06.2020
726 Clear 21 1022 86 0 0.89 135 07:44 26.06.2020
727 Clouds 20 1022 86 0 0.45 135 07:22 26.06.2020
728 Clouds 19 1023 86 0 0.45 135 06:44 26.06.2020
729 Clouds 19 1022 85 0 0.45 135 06:26 26.06.2020
730 Clear 19 1022 84 0 0.45 135 05:49 26.06.2020
731 Clouds 19 1023 82 0 4.55 133 04:42 26.06.2020
732 Clouds 19 1023 81 0 0.45 135 02:22 26.06.2020
733 Clouds 19 1024 81 0 0.45 135 01:25 26.06.2020
734 Clouds 19 1024 80 0 0.45 135 00:42 26.06.2020
735 Clouds 19 1024 80 0 0.89 135 00:20 26.06.2020
736 Clouds 20 1024 77 0 0.45 135 23:46 25.06.2020
737 Clouds 21 1024 76 0 0.45 135 23:21 25.06.2020
738 Clouds 21 1024 73 0 0.45 135 22:57 25.06.2020
739 Clouds 21 1024 72 0 5.78 102 22:38 25.06.2020
740 Clouds 21 1024 71 0 6.23 95 22:20 25.06.2020
741 Clouds 22 1024 68 0 6.23 95 21:57 25.06.2020
742 Clouds 22 1024 67 0 6.23 95 21:39 25.06.2020
743 Clouds 23 1024 66 0 6.68 90 21:20 25.06.2020
744 Clouds 24 1024 63 0 0.45 112 20:56 25.06.2020
745 Clouds 24 1024 61 0 0.45 135 20:37 25.06.2020
746 Clouds 19 1022 82 0 7.01 85 20:19 25.06.2020
747 Clouds 19 1022 82 0 7.01 85 19:41 25.06.2020
748 Clouds 19 1022 81 0 7.29 85 19:20 25.06.2020
749 Clouds 19 1022 81 0 7.29 85 18:59 25.06.2020
750 Clouds 19 1022 81 0 7.29 85 18:39 25.06.2020
751 Clouds 19 1022 80 0 7.14 82 18:20 25.06.2020
752 Clouds 25 1025 69 0 7.14 82 17:44 25.06.2020
753 Clear 24 1025 68 0 7.06 85 17:20 25.06.2020
754 Clear 24 1025 68 0 7.06 85 17:20 25.06.2020
755 Clear 24 1025 69 0 7.06 85 16:58 25.06.2020
756 Clear 24 1026 69 0 7.06 85 16:37 25.06.2020
757 Clear 24 1026 68 0 0.45 135 16:19 25.06.2020
758 Clear 23 1026 74 0 7.51 81 15:43 25.06.2020
759 Clear 23 1026 73 0 0.45 22 15:25 25.06.2020
760 Clear 23 1026 72 0 7.77 76 14:55 25.06.2020
761 Clear 24 1026 68 0 0.45 45 14:37 25.06.2020
762 Clear 24 1026 68 0 8.02 72 14:18 25.06.2020
763 Clear 24 1027 68 0 0.45 22 13:42 25.06.2020
764 Clear 24 1027 67 0 0.45 22 13:20 25.06.2020
765 Clear 24 1027 64 0 7.7 75 12:59 25.06.2020
766 Clear 24 1027 64 0 7.7 75 12:40 25.06.2020
767 Clear 24 1027 65 0 7.46 73 12:20 25.06.2020
768 Clear 23 1027 66 0 0.45 45 11:43 25.06.2020
769 Clear 23 1027 67 0 7.43 70 11:22 25.06.2020
770 Clear 23 1027 68 0 7.43 70 10:45 25.06.2020
771 Clear 22 1027 68 0 0.45 67 10:26 25.06.2020
772 -273 0 0 0 0 0 09:59 25.06.2020
773 Clear 22 1027 70 0 7.37 72 09:40 25.06.2020
774 Clear 21 1027 71 0 6.84 80 09:20 25.06.2020
775 Clear 19 1028 76 0 6.84 80 08:43 25.06.2020
776 Clouds 19 1027 76 0 0.45 112 08:19 25.06.2020
777 Clouds 18 1027 79 0 7.05 80 07:45 25.06.2020
778 Clouds 18 1027 80 0 6.78 77 07:26 25.06.2020
779 Clouds 18 1027 80 0 6.78 77 06:48 25.06.2020
780 Clouds 18 1027 81 0 6.28 72 06:26 25.06.2020
781 Clouds 18 1027 81 0 0.45 67 05:51 25.06.2020
782 Clouds 16 1028 79 0 5.48 71 03:57 25.06.2020
783 Clouds 16 1028 76 0 5.32 78 03:29 25.06.2020
784 Clouds 16 1028 74 0 5.32 78 02:42 25.06.2020
785 Clouds 16 1028 74 0 5.1 67 01:55 25.06.2020
786 Clouds 17 1029 73 0 4.72 79 01:20 25.06.2020
787 Clouds 17 1029 72 0 4.72 79 00:43 25.06.2020
788 Clouds 17 1029 72 0 4.83 86 00:20 25.06.2020
789 Clouds 18 1029 73 0 4.83 86 23:44 24.06.2020
790 Clouds 18 1029 73 0 0.45 45 23:25 24.06.2020
791 Clouds 18 1029 72 0 4.8 82 22:58 24.06.2020
792 Clouds 18 1029 72 0 4.8 82 22:40 24.06.2020
793 Clouds 18 1029 73 0 0.45 45 22:20 24.06.2020
794 Clouds 19 1029 73 0 4.96 77 21:55 24.06.2020
795 Clouds 19 1029 72 0 4.96 77 21:36 24.06.2020
796 Clouds 19 1029 71 0 4.1 65 21:18 24.06.2020
797 Clouds 20 1029 66 0 0.45 45 20:57 24.06.2020
798 Clouds 20 1029 66 0 0.45 45 20:38 24.06.2020
799 Clouds 21 1029 64 0 0.45 45 20:20 24.06.2020
800 Clouds 21 1029 61 0 0.45 45 19:55 24.06.2020
801 Clouds 22 1029 61 0 0.45 45 19:36 24.06.2020
802 Clouds 22 1029 61 0 0.89 45 19:18 24.06.2020
803 Clouds 22 1029 60 0 0.45 45 18:57 24.06.2020
804 Clouds 22 1029 58 0 4.27 62 18:38 24.06.2020
805 Clouds 22 1029 60 0 0.45 45 18:19 24.06.2020
806 Clouds 22 1029 59 0 1.34 22 17:43 24.06.2020
807 Clouds 22 1029 60 0 0.45 45 17:21 24.06.2020
808 Clouds 23 1029 57 0 4.21 54 16:59 24.06.2020
809 Clouds 23 1029 52 0 0.45 22 16:41 24.06.2020
810 Clouds 23 1029 54 0 4.06 55 16:22 24.06.2020
811 Clouds 23 1029 60 0 4.06 55 15:59 24.06.2020
812 Clouds 22 1029 70 0 4.06 55 15:39 24.06.2020
813 Clouds 21 1029 74 0 0.45 45 15:20 24.06.2020
814 Clouds 22 1029 72 0 0.89 45 14:58 24.06.2020
815 Clouds 22 1029 73 0 3.87 51 14:40 24.06.2020
816 Clouds 22 1029 73 0 3.87 51 14:40 24.06.2020
817 Clouds 22 1029 71 0 0.89 45 14:21 24.06.2020
818 Clouds 22 1029 72 0 3.41 37 13:42 24.06.2020
819 Clouds 22 1029 70 0 0.45 22 13:21 24.06.2020
820 Clouds 22 1029 70 0 0.45 22 13:21 24.06.2020
821 Clouds 21 1029 72 0 2.94 41 12:44 24.06.2020
822 Clouds 22 1029 70 0 2.68 37 12:21 24.06.2020
823 Clouds 22 1029 70 0 0.89 45 11:58 24.06.2020
824 Clouds 21 1029 71 0 0.45 45 11:40 24.06.2020
825 Clouds 21 1029 72 0 2.71 35 11:21 24.06.2020
826 Clouds 21 1029 73 0 0.89 45 10:47 24.06.2020
827 Clouds 20 1029 73 0 2.75 30 10:20 24.06.2020
828 Clouds 20 1029 72 0 2.75 30 09:57 24.06.2020
829 Clouds 20 1029 72 0 0.45 45 09:39 24.06.2020
830 Clouds 19 1029 72 0 2.73 16 09:20 24.06.2020
831 Clouds 19 1029 75 0 0.45 22 08:40 24.06.2020
832 Clear 18 1029 76 0 3.19 21 08:19 24.06.2020
833 Clear 18 1029 78 0 3.19 21 07:50 24.06.2020
834 Clear 18 1029 79 0 3.5 11 07:26 24.06.2020
835 Clear 17 1029 82 0 3.5 11 06:46 24.06.2020
836 Clear 16 1029 81 0 3.55 9 06:24 24.06.2020
837 Clear 14 1029 80 0 3.55 9 05:46 24.06.2020
838 Clear 13 1028 79 0 3.42 4 04:41 24.06.2020
839 Clear 14 1029 79 0 3.33 3 03:41 24.06.2020
840 Clear 14 1028 79 0 2.89 10 03:19 24.06.2020
841 Clear 14 1028 77 0 2.89 10 02:41 24.06.2020
842 Clear 15 1029 72 0 3.3 343 01:19 24.06.2020
843 Clear 16 1028 70 0 3.3 343 00:41 24.06.2020
844 Clear 16 1028 69 0 3.18 347 00:21 24.06.2020
845 Clear 17 1026 75 0 3.18 347 23:41 23.06.2020
846 Clear 17 1028 66 0 3.08 352 23:19 23.06.2020
847 Clear 17 1025 76 0 3.08 352 22:41 23.06.2020
848 Clear 19 1028 62 0 3.36 341 22:19 23.06.2020
849 Clear 17 1025 76 0 3.36 341 21:59 23.06.2020
850 Clear 17 1025 76 0 3.36 341 21:39 23.06.2020
851 Clear 20 1028 59 0 4.49 318 21:19 23.06.2020
852 Clear 21 1028 57 0 4.49 318 20:55 23.06.2020
853 Clear 17 1025 76 0 4.49 318 20:37 23.06.2020
854 Clear 18 1025 76 0 4.72 307 20:18 23.06.2020
855 Clear 18 1025 76 0 4.72 307 19:44 23.06.2020
856 Clear 17 1025 76 0 4.98 299 19:26 23.06.2020
857 Clear 17 1025 76 0 4.98 299 18:42 23.06.2020
858 Clear 17 1024 75 0 5.5 293 18:19 23.06.2020
859 Clear 17 1024 75 0 5.5 293 17:58 23.06.2020
860 Clear 17 1024 75 0 5.5 293 17:39 23.06.2020
861 Clear 17 1024 75 0 5.53 293 17:20 23.06.2020
862 Clear 17 1024 75 0 5.53 293 16:55 23.06.2020
863 Clear 17 1024 75 0 5.53 293 16:37 23.06.2020
864 Clear 17 1024 75 0 5.53 293 16:37 23.06.2020
865 Clear 23 1028 53 0 0.45 0 16:18 23.06.2020
866 Clear 22 1028 48 0 0.45 0 15:45 23.06.2020
867 Clear 17 1025 76 0 5.79 291 15:25 23.06.2020
868 Clear 17 1025 76 0 5.79 291 14:58 23.06.2020
869 Clear 22 1028 47 0 0.45 0 14:40 23.06.2020
870 Clear 22 1028 47 0 0.45 45 14:18 23.06.2020
871 Clear 22 1028 47 0 0.45 45 14:18 23.06.2020
872 Clear 22 1028 46 0 5.68 288 13:55 23.06.2020
873 Clear 22 1028 44 0 0.45 22 13:37 23.06.2020
874 Clear 22 1028 45 0 0.45 22 13:19 23.06.2020
875 Clear 21 1028 48 0 0.45 315 12:41 23.06.2020
876 Clear 21 1028 49 0 0.45 0 12:22 23.06.2020
877 Clear 20 1028 52 0 0.89 292 11:55 23.06.2020
878 Clear 20 1028 52 0 1.34 292 11:37 23.06.2020
879 Clear 20 1028 55 0 0.89 337 11:19 23.06.2020
880 Clear 19 1028 59 0 0.89 292 10:55 23.06.2020
881 Clear 19 1028 63 0 1.34 337 10:37 23.06.2020
882 Clear 18 1028 65 0 0.45 337 10:19 23.06.2020
883 Clear 17 1028 71 0 1.34 337 09:41 23.06.2020
884 Clouds 17 1028 70 0 0.45 0 09:20 23.06.2020
885 Clouds 17 1028 81 0 1.34 292 08:48 23.06.2020
886 Clouds 16 1028 85 0 0.45 337 08:29 23.06.2020
887 Clear 14 1027 87 0 0.89 315 07:59 23.06.2020
888 Clear 14 1027 86 0 0.45 315 07:39 23.06.2020
889 Clear 14 1027 87 0 0.89 315 07:21 23.06.2020
890 Clear 14 1027 88 0 0.45 315 06:48 23.06.2020
891 Clear 14 1027 88 0 0.45 292 06:30 23.06.2020
892 Clear 13 1027 87 0 6.46 318 05:39 23.06.2020
893 Clear 13 1026 81 0 6.52 318 03:39 23.06.2020
894 Clear 13 1027 80 0 6.7 320 02:56 23.06.2020
895 Clear 13 1027 80 0 6.7 320 02:37 23.06.2020
896 Clear 13 1026 79 0 6.96 314 02:19 23.06.2020
897 Clear 14 1026 77 0 6.96 314 01:37 23.06.2020
898 Clear 14 1026 77 0 7.42 313 01:18 23.06.2020
899 Clear 14 1026 75 0 8.02 312 00:24 23.06.2020
900 Clear 15 1026 73 0 8.02 312 23:57 22.06.2020
901 Clear 16 1026 72 0 8.02 312 23:39 22.06.2020
902 Clear 16 1026 72 0 0.45 270 23:19 22.06.2020
903 Clear 16 1026 72 0 1.34 292 22:57 22.06.2020
904 Clear 17 1026 72 0 0.45 292 22:39 22.06.2020
905 Clear 17 1026 72 0 7.4 310 22:20 22.06.2020
906 Clear 18 1026 71 0 7.4 310 21:57 22.06.2020
907 Clear 18 1026 70 0 0.45 292 21:38 22.06.2020
908 Clear 19 1025 69 0 0.45 292 21:20 22.06.2020
909 Clear 21 1025 65 0 0.45 315 20:44 22.06.2020
910 Clear 21 1025 62 0 0.45 292 20:25 22.06.2020
911 Clear 22 1025 58 0 0.45 0 19:59 22.06.2020
912 Clear 22 1025 58 0 1.79 337 19:41 22.06.2020
913 Clear 22 1025 58 0 1.34 337 19:19 22.06.2020
914 Clear 23 1025 55 0 1.79 315 18:42 22.06.2020
915 Clear 23 1025 54 0 0.89 315 18:24 22.06.2020
916 Clear 23 1025 55 0 1.34 337 17:57 22.06.2020
917 Clear 23 1025 55 0 0.89 292 17:39 22.06.2020
918 Clear 23 1025 56 0 0.89 270 17:21 22.06.2020
919 Clear 23 1025 54 0 6.15 300 16:59 22.06.2020
920 Clear 23 1025 55 0 1.79 315 16:41 22.06.2020
921 Clear 23 1025 58 0 0.45 292 16:18 22.06.2020
922 Clear 23 1025 63 0 0.89 337 15:55 22.06.2020
923 Clear 23 1025 63 0 0.89 337 15:37 22.06.2020
924 Clear 23 1025 64 0 0.89 315 15:19 22.06.2020
925 Clear 22 1025 66 0 0.89 0 14:39 22.06.2020
926 Clouds 22 1025 67 0 0.45 0 14:20 22.06.2020
927 Clouds 23 1024 68 0 0.45 0 13:56 22.06.2020
928 Clouds 23 1024 66 0 0.45 0 13:37 22.06.2020
929 Clouds 22 1024 69 0 0.45 0 13:19 22.06.2020
930 Clouds 21 1023 74 0 5.77 280 12:42 22.06.2020
931 Clouds 21 1023 74 0 5.77 280 12:42 22.06.2020
932 Clouds 21 1024 74 0 0.45 337 12:23 22.06.2020
933 Clouds 21 1023 73 0 1.34 292 11:58 22.06.2020
934 Clouds 22 1023 72 0 5.65 276 11:37 22.06.2020
935 Clear 22 1023 72 0 0.45 0 11:18 22.06.2020
936 Clear 21 1023 71 0 0.89 315 10:54 22.06.2020
937 Clear 21 1023 71 0 0.89 315 10:54 22.06.2020
938 Clear 21 1023 69 0 0.89 45 10:36 22.06.2020
939 Clear 21 1023 71 0 3.99 295 10:18 22.06.2020
940 Clear 19 1022 73 0 3.99 295 09:42 22.06.2020
941 Clouds 19 1022 78 0 0.89 0 09:22 22.06.2020
942 Clouds 18 1022 76 0 0.45 0 08:59 22.06.2020
943 Clouds 18 1022 78 0 0.45 315 08:39 22.06.2020
944 Clouds 18 1022 80 0 0.45 337 08:20 22.06.2020
945 Clouds 16 1022 85 0 1.34 292 07:53 22.06.2020
946 Clouds 16 1022 89 0 1.34 315 07:33 22.06.2020
947 Clouds 14 1022 89 0 6.18 296 06:47 22.06.2020
948 Clouds 13 1021 88 0 5.66 290 06:27 22.06.2020
949 Clouds 13 1021 87 0 5.66 290 05:58 22.06.2020
950 Clouds 13 1022 87 0 5.66 290 05:31 22.06.2020
951 Clear 14 1021 86 0 4.63 303 02:56 22.06.2020
952 Clouds 14 1021 85 0 4.51 312 01:37 22.06.2020
953 Clouds 16 1021 84 0 4.55 311 00:41 22.06.2020
954 Clouds 16 1021 83 0 4.57 309 00:18 22.06.2020
955 Clouds 17 1021 83 0 4.57 309 23:54 21.06.2020
956 Clouds 17 1022 83 0 4.57 309 23:36 21.06.2020
957 Clouds 17 1021 83 0 4.08 319 23:18 21.06.2020
958 Clouds 17 1021 82 0 4.08 319 22:54 21.06.2020
959 Clouds 17 1021 82 0 4.08 319 22:36 21.06.2020
960 Clouds 17 1021 82 0 0.45 292 22:18 21.06.2020
961 Clouds 18 1021 81 0 0.45 292 21:42 21.06.2020
962 Clear 18 1021 81 0 0.45 292 21:22 21.06.2020
963 Clear 19 1021 80 0 4.27 304 20:59 21.06.2020
964 Clear 19 1021 80 0 4.27 304 20:39 21.06.2020
965 Clouds 19 1021 80 0 4.04 303 20:19 21.06.2020
966 Clouds 19 1021 79 0 4.04 303 19:59 21.06.2020
967 Clouds 19 1021 79 0 0.45 315 19:40 21.06.2020
968 Clouds 19 1021 79 0 4.48 304 19:20 21.06.2020
969 Clouds 19 1021 79 0 4.48 304 18:55 21.06.2020
970 Clouds 19 1021 78 0 4.48 304 18:37 21.06.2020
971 Clouds 19 1021 78 0 4.77 310 18:19 21.06.2020
972 Clouds 19 1021 78 0 0.45 315 17:41 21.06.2020
973 Clouds 19 1021 78 0 5.29 308 17:21 21.06.2020
974 Clouds 19 1021 80 0 5.29 308 16:57 21.06.2020
975 Clouds 19 1021 81 0 0.45 315 16:39 21.06.2020
976 Clouds 18 1021 81 0 0.45 292 16:21 21.06.2020
977 Clouds 18 1021 81 0 0.45 0 15:41 21.06.2020
978 Clouds 18 1021 81 0 0.45 0 15:23 21.06.2020
979 Clouds 18 1021 81 0 0.45 337 14:58 21.06.2020
980 Clouds 18 1021 82 0 1.79 337 14:37 21.06.2020
981 Rain 18 1021 83 0 0.89 315 14:19 21.06.2020
982 Rain 17 1021 85 0 0.89 337 13:55 21.06.2020
983 Rain 17 1021 86 0 0.89 337 13:37 21.06.2020
984 Clouds 16 1021 88 0 0.45 315 13:18 21.06.2020
985 Clouds 16 1021 88 0 0.89 315 12:43 21.06.2020
986 Clouds 16 1021 89 0 0.45 315 12:24 21.06.2020
987 Clouds 16 1021 89 0 0.45 247 11:54 21.06.2020
988 Clouds 16 1021 89 0 0.89 22 11:36 21.06.2020
989 Clouds 16 1021 89 0 0.45 315 11:18 21.06.2020
990 Clouds 16 1021 89 0 6.94 313 10:54 21.06.2020
991 Clouds 16 1021 89 0 1.34 292 10:36 21.06.2020
992 Rain 16 1021 89 0 0.89 315 10:18 21.06.2020
993 Rain 16 1020 91 0 0.89 337 09:40 21.06.2020
994 Clouds 16 1020 91 0 0.89 292 09:19 21.06.2020
995 Clouds 16 1020 92 0 1.34 315 08:55 21.06.2020
996 Clouds 16 1020 92 0 0.45 337 08:37 21.06.2020
997 Clouds 16 1020 91 0 0.45 315 08:19 21.06.2020
998 Clouds 16 1020 91 0 0.45 22 07:41 21.06.2020
999 Clouds 16 1020 91 0 0.45 292 07:22 21.06.2020
1000 Clouds 16 1020 90 0 7.7 322 06:49 21.06.2020
1001 Clouds 16 1020 90 0 8.23 322 05:59 21.06.2020
1002 Clouds 16 1020 90 0 8.23 322 05:31 21.06.2020
1003 Clouds 16 1020 88 0 0.45 315 03:40 21.06.2020
1004 Clouds 16 1020 88 0 8.98 320 03:18 21.06.2020
1005 Clouds 16 1020 88 0 0.89 270 02:20 21.06.2020
1006 Clouds 16 1020 88 0 8.51 318 01:32 21.06.2020
1007 Clouds 16 1020 89 0 8.32 317 00:57 21.06.2020
1008 Clouds 16 1020 89 0 8.32 317 00:38 21.06.2020
1009 Clouds 16 1020 90 0 0.45 337 00:19 21.06.2020
1010 Clouds 16 1020 91 0 8.06 314 23:45 20.06.2020
1011 Clouds 16 1019 91 0 8.37 315 23:22 20.06.2020
1012 Clouds 16 1020 91 0 0.45 337 22:56 20.06.2020
1013 Clouds 16 1020 92 0 8.37 315 22:38 20.06.2020
1014 Clouds 16 1020 92 0 0.45 292 22:19 20.06.2020
1015 Clouds 16 1020 92 0 0.45 337 21:56 20.06.2020
1016 Clouds 16 1020 92 0 8.62 317 21:38 20.06.2020
1017 Clouds 16 1020 92 0 9.01 313 21:20 20.06.2020
1018 Clouds 16 1019 92 0 9.01 313 20:57 20.06.2020
1019 Clouds 16 1019 92 0 1.79 337 20:39 20.06.2020
1020 Clouds 16 1019 93 0 0.89 270 20:20 20.06.2020
1021 Clouds 16 1019 93 0 0.89 315 19:44 20.06.2020
1022 Clouds 16 1018 93 0 2.24 247 19:25 20.06.2020
1023 Clouds 16 1019 93 0 10.53 307 18:59 20.06.2020
1024 Clouds 16 1018 93 0 1.34 292 18:40 20.06.2020
1025 Clouds 16 1019 93 0 2.24 315 18:20 20.06.2020
1026 Clouds 16 1018 93 0 2.24 337 17:57 20.06.2020
1027 Clouds 16 1018 93 0 1.79 292 17:39 20.06.2020
1028 Clouds 16 1018 93 0 3.58 292 17:20 20.06.2020
1029 Clouds 17 1018 93 0 2.24 337 16:42 20.06.2020
1030 Clouds 17 1018 94 0 0.45 292 16:19 20.06.2020
1031 Clouds 17 1018 93 0 2.68 337 15:57 20.06.2020
1032 Clouds 17 1018 93 0 1.79 315 15:39 20.06.2020
1033 Rain 17 1018 92 0 1.34 315 15:18 20.06.2020
1034 Rain 17 1018 92 0 0.89 315 14:42 20.06.2020
1035 Rain 17 1018 91 0 1.79 315 14:21 20.06.2020
1036 Rain 17 1018 92 0 1.79 315 13:42 20.06.2020
1037 Rain 17 1018 92 0 1.79 292 13:23 20.06.2020
1038 Rain 17 1018 93 0 2.24 292 12:57 20.06.2020
1039 Rain 17 1018 93 0 2.24 292 12:38 20.06.2020
1040 Rain 17 1018 93 0 1.34 315 12:19 20.06.2020
1041 Rain 17 1017 93 0 0.89 315 11:55 20.06.2020
1042 Rain 17 1017 93 0 0.89 292 11:36 20.06.2020
1043 Rain 17 1017 93 0 0.45 292 11:18 20.06.2020
1044 Rain 17 1017 93 0 0.89 315 10:42 20.06.2020
1045 Rain 17 1017 93 0 1.79 0 10:20 20.06.2020
1046 Rain 17 1017 92 0 0.89 315 09:54 20.06.2020
1047 Rain 17 1017 92 0 0.89 292 09:36 20.06.2020
1048 Clouds 17 1016 92 0 4.98 320 09:18 20.06.2020
1049 Clouds 17 1016 92 0 4.98 320 08:44 20.06.2020
1050 Rain 17 1016 92 0 4.96 329 08:26 20.06.2020
1051 Rain 17 1016 92 0 4.96 329 07:51 20.06.2020
1052 Rain 17 1016 92 0 0.45 22 07:27 20.06.2020
1053 Rain 17 1016 92 0 5.54 324 06:54 20.06.2020
1054 Rain 17 1016 92 0 5.84 316 06:23 20.06.2020
1055 Rain 17 1016 92 0 5.84 316 05:52 20.06.2020
1056 Rain 16 1015 91 0 5.43 313 04:52 20.06.2020
1057 Clouds 16 1016 91 0 4.44 311 02:27 20.06.2020
1058 Clouds 16 1016 91 0 4.44 311 01:48 20.06.2020
1059 Clouds 16 1016 91 0 4.34 309 00:55 20.06.2020
1060 Clouds 16 1016 91 0 3.89 313 00:21 20.06.2020
1061 Clouds 16 1016 91 0 3.89 313 23:56 19.06.2020
1062 Clouds 16 1016 91 0 3.89 313 23:37 19.06.2020
1063 Clouds 16 1016 91 0 3.68 313 23:18 19.06.2020
1064 Clouds 16 1016 90 0 3.68 313 22:41 19.06.2020
1065 Clouds 16 1016 90 0 2.57 308 22:22 19.06.2020
1066 Clouds 16 1016 90 0 0.45 315 21:59 19.06.2020
1067 Clouds 16 1016 90 0 0.45 315 21:38 19.06.2020
1068 Clouds 16 1016 90 0 0.89 315 21:18 19.06.2020
1069 Clouds 16 1015 89 0 0.45 292 20:58 19.06.2020
1070 Clouds 16 1015 89 0 0.89 292 20:40 19.06.2020
1071 Clouds 16 1015 89 0 1.34 315 20:21 19.06.2020
1072 Clouds 16 1015 89 0 1.34 315 20:21 19.06.2020
1073 Clouds 16 1015 88 0 2.6 299 19:57 19.06.2020
1074 Clouds 16 1015 88 0 2.6 299 19:39 19.06.2020
1075 Clouds 17 1015 87 0 0.89 270 19:21 19.06.2020
1076 Clouds 17 1015 87 0 3.24 296 18:56 19.06.2020
1077 Clouds 17 1015 87 0 0.45 292 18:38 19.06.2020
1078 Clouds 17 1015 87 0 3.54 294 18:20 19.06.2020
1079 Clouds 17 1015 87 0 3.54 294 17:41 19.06.2020
1080 Clouds 17 1015 86 0 3.23 296 17:23 19.06.2020
1081 Clouds 18 1015 85 0 0.45 292 16:57 19.06.2020
1082 Clouds 18 1015 84 0 3.23 296 16:38 19.06.2020
1083 Clouds 18 1015 83 0 2.64 309 16:20 19.06.2020
1084 Clouds 18 1015 81 0 2.64 309 15:44 19.06.2020
1085 Clouds 18 1014 81 0 2.64 322 15:25 19.06.2020
1086 Clouds 18 1014 82 0 0.89 315 14:57 19.06.2020
1087 Clouds 18 1014 84 0 0.89 292 14:39 19.06.2020
1088 Clouds 18 1014 84 0 0.89 315 14:20 19.06.2020
1089 Clouds 17 1014 85 0 0.45 292 13:57 19.06.2020
1090 Clouds 18 1014 85 0 3.96 337 13:39 19.06.2020
1091 Clouds 18 1014 83 0 0.89 292 13:19 19.06.2020
1092 Clouds 18 1014 83 0 3.96 346 12:43 19.06.2020
1093 Clouds 18 1014 84 0 4.1 357 12:20 19.06.2020
1094 Clouds 17 1014 84 0 4.1 357 11:41 19.06.2020
1095 -273 0 0 0 0 0 11:19 19.06.2020
1096 Rain 17 1014 84 0 4.06 2 10:59 19.06.2020
1097 Rain 17 1014 84 0 4.06 2 10:41 19.06.2020
1098 Rain 17 1013 84 0 3.72 12 10:21 19.06.2020
1099 Rain 17 1013 86 0 3.72 12 09:54 19.06.2020
1100 Rain 17 1013 85 0 4.02 5 09:36 19.06.2020
1101 Rain 17 1013 85 0 4.16 15 09:18 19.06.2020
1102 Rain 17 1013 85 0 4.16 15 08:39 19.06.2020
1103 Rain 17 1013 85 0 4.42 17 08:20 19.06.2020
1104 Rain 17 1013 85 0 4.42 17 07:41 19.06.2020
1105 Rain 17 1013 85 0 4.29 13 07:22 19.06.2020
1106 Rain 16 1013 85 0 4.29 13 06:50 19.06.2020
1107 Rain 16 1013 85 0 4.14 16 06:22 19.06.2020
1108 Rain 16 1013 85 0 4.53 16 05:29 19.06.2020
1109 Clouds 16 1013 85 0 5.49 16 03:50 19.06.2020
1110 Rain 16 1014 85 0 5.88 24 02:22 19.06.2020
1111 Clouds 17 1014 84 0 0.45 45 00:45 19.06.2020
1112 Clouds 17 1014 84 0 0.45 22 00:22 19.06.2020
1113 Clouds 17 1014 84 0 0.45 22 00:22 19.06.2020
1114 Clouds 17 1014 85 0 5.59 22 23:58 18.06.2020
1115 Clouds 17 1014 85 0 1.34 22 23:39 18.06.2020
1116 Clouds 17 1014 84 0 5.12 30 23:21 18.06.2020
1117 Clouds 17 1014 80 0 5.12 30 22:41 18.06.2020
1118 Clouds 17 1014 79 0 4.71 32 22:21 18.06.2020
1119 Clouds 17 1014 78 0 4.71 32 21:58 18.06.2020
1120 Clouds 17 1014 78 0 4.71 32 21:38 18.06.2020
1121 Clouds 17 1014 78 0 4.64 39 21:19 18.06.2020
1122 Clouds 17 1014 76 0 5.61 41 20:44 18.06.2020
1123 Clouds 17 1014 76 0 0.45 67 20:22 18.06.2020
1124 Clouds 17 1014 76 0 0.45 45 19:58 18.06.2020
1125 Clouds 17 1014 76 0 0.89 45 19:40 18.06.2020
1126 Clouds 17 1014 76 0 0.45 67 19:20 18.06.2020
1127 Clouds 17 1014 80 0 0.45 45 18:56 18.06.2020
1128 Clouds 16 1014 81 0 5.6 49 18:36 18.06.2020
1129 Clouds 16 1014 81 0 5.41 49 18:18 18.06.2020
1130 Clouds 16 1014 80 0 5.41 49 17:43 18.06.2020
1131 Clouds 16 1014 80 0 1.34 45 17:24 18.06.2020
1132 Clouds 16 1014 79 0 0.89 45 16:55 18.06.2020
1133 Clouds 17 1014 80 0 0.45 45 16:37 18.06.2020
1134 Clouds 16 1015 81 0 0.45 45 16:18 18.06.2020
1135 Clouds 17 1015 83 0 0.89 45 15:40 18.06.2020
1136 Clouds 17 1015 83 0 5.97 54 15:20 18.06.2020
1137 Clouds 17 1015 82 0 5.97 54 14:58 18.06.2020
1138 Clouds 17 1015 82 0 5.97 54 14:39 18.06.2020
1139 Clouds 17 1015 80 0 6.02 57 14:21 18.06.2020
1140 Clouds 17 1015 78 0 0.45 112 13:55 18.06.2020
1141 Clouds 17 1015 78 0 0.45 45 13:37 18.06.2020
1142 Clouds 18 1015 76 0 0.45 45 13:18 18.06.2020
1143 Clouds 18 1015 75 0 0.45 67 12:54 18.06.2020
1144 Clouds 18 1015 74 0 6.01 63 12:36 18.06.2020
1145 Clouds 19 1015 70 0 6.32 68 12:18 18.06.2020
1146 Clouds 19 1015 70 0 0.45 22 11:44 18.06.2020
1147 Clouds 19 1015 68 0 6.39 70 11:21 18.06.2020
1148 Clouds 19 1015 64 0 6.39 70 10:41 18.06.2020
1149 Clouds 19 1015 65 0 6.38 71 10:20 18.06.2020
1150 Clouds 19 1015 69 0 6.38 71 09:57 18.06.2020
1151 Clouds 19 1015 70 0 6.38 71 09:39 18.06.2020
1152 Clouds 18 1015 71 0 0.45 135 09:21 18.06.2020
1153 Clouds 18 1015 78 0 0.45 112 08:40 18.06.2020
1154 Clouds 17 1015 82 0 6.75 75 08:22 18.06.2020
1155 Clouds 16 1014 83 0 6.75 75 07:57 18.06.2020
1156 Clouds 16 1014 83 0 0.45 112 07:37 18.06.2020
1157 Clouds 16 1015 83 0 6.8 75 07:19 18.06.2020
1158 Clear 16 1014 85 0 6.79 73 06:22 18.06.2020
1159 Clear 15 1014 86 0 0.45 90 04:26 18.06.2020
1160 Clear 15 1015 87 0 5.36 73 02:51 18.06.2020
1161 Clear 16 1016 85 0 4.62 73 01:30 18.06.2020
1162 Clear 16 1016 86 0 4.8 78 00:59 18.06.2020
1163 Clear 16 1015 86 0 0.45 22 00:39 18.06.2020
1164 Clear 16 1015 85 0 0.45 45 00:21 18.06.2020
1165 Clear 16 1015 80 0 4.93 76 23:45 17.06.2020
1166 Clear 16 1015 78 0 4.67 78 23:22 17.06.2020
1167 Clear 16 1016 76 0 4.67 78 22:59 17.06.2020
1168 Clear 16 1015 76 0 4.67 78 22:40 17.06.2020
1169 Clear 17 1015 75 0 4.88 85 22:21 17.06.2020
1170 Clear 17 1015 75 0 4.88 85 22:21 17.06.2020
1171 Clear 17 1015 75 0 4.88 85 22:21 17.06.2020
1172 Clear 17 1015 75 0 4.88 85 22:21 17.06.2020
1173 Clear 17 1015 73 0 4.88 85 21:57 17.06.2020
1174 Clear 18 1015 72 0 4.88 85 21:39 17.06.2020
1175 Clear 18 1015 71 0 5.23 86 21:20 17.06.2020
1176 Clear 19 1015 69 0 5.01 96 20:39 17.06.2020
1177 Clouds 20 1015 68 0 0.45 135 20:20 17.06.2020
1178 Clouds 20 1015 68 0 0.45 135 20:20 17.06.2020
1179 Clouds 21 1015 67 0 5.24 93 19:59 17.06.2020
1180 Clouds 21 1015 67 0 5.24 93 19:59 17.06.2020
1181 Clouds 21 1015 67 0 5.24 93 19:39 17.06.2020
1182 Clouds 20 1015 70 0 0.45 0 19:19 17.06.2020
1183 Clouds 20 1015 73 0 0.45 67 18:45 17.06.2020
1184 Clouds 20 1015 74 0 5.12 84 18:27 17.06.2020
1185 Clouds 20 1015 74 0 5.12 84 18:27 17.06.2020
1186 Clouds 21 1015 74 0 1.34 45 17:47 17.06.2020
1187 Clouds 21 1015 73 0 0.45 67 17:23 17.06.2020
1188 Clouds 22 1016 70 0 0.89 45 16:59 17.06.2020
1189 Clouds 22 1015 69 0 0.45 45 16:40 17.06.2020
1190 Clouds 22 1016 68 0 0.45 45 16:21 17.06.2020
1191 Clouds 23 1016 67 0 0.45 45 15:59 17.06.2020
1192 Clouds 23 1016 66 0 1.79 22 15:39 17.06.2020
1193 Clouds 23 1016 67 0 0.89 45 15:21 17.06.2020
1194 Clouds 23 1016 67 0 0.89 45 15:21 17.06.2020
1195 Clouds 23 1015 67 0 2.96 69 14:58 17.06.2020
1196 Clouds 23 1015 65 0 2.96 69 14:40 17.06.2020
1197 Clouds 23 1015 65 0 0.45 0 14:19 17.06.2020
1198 Clouds 24 1015 58 0 1.79 22 13:58 17.06.2020
1199 Clouds 24 1016 60 0 1.85 325 13:40 17.06.2020
1200 Clouds 24 1016 58 0 0.45 45 13:21 17.06.2020
1201 Clouds 24 1016 60 0 2.42 318 12:55 17.06.2020
1202 Clouds 24 1016 57 0 2.42 318 12:36 17.06.2020
1203 Clouds 24 1016 56 0 2.56 302 12:18 17.06.2020
1204 Clouds 23 1016 57 0 2.56 302 11:44 17.06.2020
1205 Clouds 23 1016 59 0 2.24 272 11:24 17.06.2020
1206 Clouds 22 1016 60 0 0.45 45 10:39 17.06.2020
1207 Clouds 22 1016 61 0 2.31 253 10:20 17.06.2020
1208 Clouds 21 1016 63 0 2.31 253 09:59 17.06.2020
1209 Clouds 17 1013 78 0 2.31 253 09:41 17.06.2020
1210 Clouds 16 1013 75 0 2.94 243 09:21 17.06.2020
1211 Clouds 16 1013 75 0 2.94 243 08:56 17.06.2020
1212 Clouds 20 1016 64 0 0.45 0 08:38 17.06.2020
1213 Clouds 18 1016 66 0 3.1 242 08:19 17.06.2020
1214 Clouds 17 1016 70 0 3.1 242 07:43 17.06.2020
1215 Clouds 17 1016 72 0 3.45 242 07:21 17.06.2020
1216 Clouds 16 1016 74 0 3.45 242 06:56 17.06.2020
1217 Clouds 15 1016 73 0 3.45 242 06:37 17.06.2020
1218 Clear 14 1016 73 0 3.57 242 06:19 17.06.2020
1219 Clear 13 1015 71 0 3.21 241 05:29 17.06.2020
1220 Clear 14 1016 68 0 2.89 237 03:28 17.06.2020
1221 Clouds 16 1016 67 0 3.31 255 01:54 17.06.2020
1222 Clouds 16 1013 78 0 3.21 259 00:47 17.06.2020
1223 Clouds 17 1016 65 0 3.24 257 00:25 17.06.2020
1224 Clouds 17 1016 64 0 3.24 257 23:57 16.06.2020
1225 Clouds 17 1016 64 0 3.24 257 23:38 16.06.2020
1226 Clouds 18 1016 63 0 3.08 255 23:20 16.06.2020
1227 Clouds 18 1016 61 0 3.08 255 22:56 16.06.2020
1228 Clouds 17 1013 76 0 3.08 255 22:37 16.06.2020
1229 Clouds 19 1016 59 0 2.85 265 22:19 16.06.2020
1230 Clouds 16 1013 76 0 2.85 265 21:54 16.06.2020
1231 Clouds 16 1013 76 0 2.85 265 21:36 16.06.2020
1232 Clear 22 1016 55 0 3.36 265 21:18 16.06.2020
1233 Clear 17 1012 76 0 3.36 265 20:42 16.06.2020
1234 Clear 17 1012 76 0 3.87 264 20:19 16.06.2020
1235 Clear 17 1012 76 0 3.87 264 20:19 16.06.2020
1236 Clear 17 1012 76 0 3.87 264 19:58 16.06.2020
1237 Clear 17 1012 76 0 3.87 264 19:58 16.06.2020
1238 Clear 17 1012 76 0 3.87 264 19:39 16.06.2020
1239 Clear 17 1012 76 0 4.37 268 19:21 16.06.2020
1240 Clear 17 1012 76 0 4.37 268 18:56 16.06.2020
1241 Clear 17 1012 76 0 4.37 268 18:38 16.06.2020
1242 Clear 17 1012 76 0 4.87 262 18:20 16.06.2020
1243 Clear 17 1012 76 0 4.87 262 17:56 16.06.2020
1244 Clear 17 1012 76 0 4.87 262 17:37 16.06.2020
1245 Clear 16 1013 78 0 4.63 263 17:19 16.06.2020
1246 Clear 16 1013 78 0 4.63 263 16:55 16.06.2020
1247 Clear 16 1013 78 0 4.63 263 16:37 16.06.2020
1248 Clear 16 1013 81 0 4.62 264 16:18 16.06.2020
1249 Clear 16 1013 81 0 4.62 264 15:56 16.06.2020
1250 Clear 16 1013 81 0 4.62 264 15:37 16.06.2020
1251 Clear 16 1014 82 0 4.75 274 15:19 16.06.2020
1252 Clear 26 1016 44 0 4.75 274 14:42 16.06.2020
1253 Clouds 16 1014 77 0 5.08 278 14:23 16.06.2020
1254 Clouds 26 1016 42 0 5.08 278 13:55 16.06.2020
1255 Clouds 26 1016 43 0 0.45 292 13:37 16.06.2020
1256 Clouds 25 1016 43 0 0.89 0 13:18 16.06.2020
1257 Clouds 24 1017 42 0 5.52 272 12:41 16.06.2020
1258 Clouds 16 1014 76 0 5.49 275 12:21 16.06.2020
1259 Clouds 16 1014 76 0 5.49 275 11:55 16.06.2020
1260 Clouds 23 1017 47 0 0.45 337 11:37 16.06.2020
1261 Clouds 23 1017 47 0 0.45 337 11:37 16.06.2020
1262 Clouds 23 1017 49 0 0.45 337 11:19 16.06.2020
1263 Clouds 22 1017 54 0 0.89 315 10:43 16.06.2020
1264 Clouds 22 1017 55 0 0.45 292 10:21 16.06.2020
1265 Clouds 21 1018 58 0 1.34 292 09:59 16.06.2020
1266 Clouds 21 1018 58 0 0.45 292 09:41 16.06.2020
1267 Clouds 15 1016 74 0 4.67 282 09:21 16.06.2020
1268 Clouds 19 1018 65 0 1.34 315 08:48 16.06.2020
1269 Clouds 18 1018 67 0 0.45 315 08:30 16.06.2020
1270 Clouds 17 1018 72 0 0.45 292 07:51 16.06.2020
1271 Clouds 16 1018 76 0 4.17 286 07:28 16.06.2020
1272 Clouds 14 1018 80 0 4.17 286 06:55 16.06.2020
1273 Clear 13 1018 81 0 4.05 281 06:29 16.06.2020
1274 Clear 12 1018 77 0 4.05 281 05:47 16.06.2020
1275 Clear 13 1018 76 0 3.34 294 04:42 16.06.2020
1276 Clear 13 1018 75 0 3.27 306 03:48 16.06.2020
1277 Clouds 14 1018 75 0 4.32 308 02:28 16.06.2020
1278 Clouds 13 1019 73 0 4.32 308 01:32 16.06.2020
1279 Clouds 14 1019 72 0 4.66 292 00:52 16.06.2020
1280 Clouds 14 1019 71 0 4.39 286 00:22 16.06.2020
1281 Clouds 14 1019 69 0 4.39 286 23:43 15.06.2020
1282 Clouds 15 1019 69 0 3.58 287 23:24 15.06.2020
1283 Clouds 16 1019 68 0 3.58 287 22:59 15.06.2020
1284 Clouds 16 1016 64 0 3.58 287 22:41 15.06.2020
1285 Clouds 16 1016 64 0 3.58 287 22:41 15.06.2020
1286 Clouds 17 1019 64 0 3.05 275 22:22 15.06.2020
1287 Clouds 16 1016 64 0 3.05 275 21:58 15.06.2020
1288 Clouds 16 1016 64 0 3.05 275 21:58 15.06.2020
1289 Clouds 16 1016 64 0 3.05 275 21:38 15.06.2020
1290 Clouds 15 1016 67 0 2.64 272 21:20 15.06.2020
1291 Clouds 15 1016 67 0 2.64 272 20:57 15.06.2020
1292 Clouds 15 1016 67 0 2.64 272 20:38 15.06.2020
1293 Clouds 16 1016 69 0 1.95 285 20:19 15.06.2020
1294 Clouds 16 1016 69 0 1.95 285 19:57 15.06.2020
1295 Clouds 16 1016 69 0 1.95 285 19:39 15.06.2020
1296 Clouds 16 1016 71 0 1.15 325 19:20 15.06.2020
1297 Clouds 16 1016 71 0 1.15 325 18:56 15.06.2020
1298 Clouds 16 1016 71 0 1.15 325 18:38 15.06.2020
1299 Clouds 21 1019 60 0 1.06 6 18:19 15.06.2020
1300 Clouds 21 1019 59 0 1.06 6 17:56 15.06.2020
1301 Clouds 21 1019 60 0 1.06 6 17:37 15.06.2020
1302 Clouds 21 1019 63 0 1.66 26 17:18 15.06.2020
1303 Clouds 21 1019 62 0 1.66 26 16:41 15.06.2020
1304 Clouds 21 1019 65 0 1.34 45 16:19 15.06.2020
1305 Clouds 20 1019 64 0 0.45 45 15:57 15.06.2020
1306 Clouds 20 1019 64 0 0.89 45 15:39 15.06.2020
1307 Clear 20 1019 62 0 0.45 22 15:19 15.06.2020
1308 Clear 20 1019 63 0 0.45 45 14:55 15.06.2020
1309 Clear 19 1019 66 0 3.51 43 14:36 15.06.2020
1310 Clear 19 1020 67 0 0.45 67 14:18 15.06.2020
1311 Clear 19 1019 69 0 3.84 36 13:42 15.06.2020
1312 Clear 19 1019 67 0 3.74 38 13:24 15.06.2020
1313 Clear 19 1019 69 0 3.74 38 12:59 15.06.2020
1314 Clear 19 1019 68 0 0.45 0 12:40 15.06.2020
1315 Clear 19 1020 68 0 0.45 45 12:21 15.06.2020
1316 Clear 19 1020 67 0 4.51 48 11:45 15.06.2020
1317 Clear 18 1020 72 0 0.45 45 11:26 15.06.2020
1318 Clear 18 1020 76 0 0.89 45 10:57 15.06.2020
1319 Clear 17 1020 78 0 0.45 45 10:38 15.06.2020
1320 Clear 17 1020 78 0 0.45 45 10:19 15.06.2020
1321 Clear 17 1020 78 0 0.45 45 10:19 15.06.2020
1322 Clear 17 1020 80 0 4.67 61 09:42 15.06.2020
1323 Clear 17 1020 80 0 4.37 68 09:22 15.06.2020
1324 Clear 16 1020 83 0 1.79 45 08:45 15.06.2020
1325 Clear 16 1020 84 0 0.89 22 08:26 15.06.2020
1326 Clear 16 1019 86 0 4.96 70 07:52 15.06.2020
1327 Clear 15 1019 87 0 4.96 70 07:34 15.06.2020
1328 Clear 14 1019 88 0 5.48 59 06:58 15.06.2020
1329 Clear 14 1019 89 0 5.52 55 06:27 15.06.2020
1330 Clear 13 1019 88 0 5.52 55 05:51 15.06.2020
1331 Clear 13 1019 88 0 5.69 58 05:29 15.06.2020
1332 Clear 12 1019 83 0 5.46 63 04:22 15.06.2020
1333 Clear 12 1018 81 0 5.46 63 03:48 15.06.2020
1334 Clear 13 1018 81 0 5.67 67 02:56 15.06.2020
1335 Clear 13 1019 80 0 5.89 67 02:26 15.06.2020
1336 Clear 13 1019 79 0 5.77 70 01:47 15.06.2020
1337 Clear 13 1019 78 0 6.38 72 01:24 15.06.2020
1338 Clear 14 1019 76 0 6.38 72 00:45 15.06.2020
1339 Clear 14 1019 76 0 7.43 73 00:23 15.06.2020
1340 Clear 14 1019 75 0 7.43 73 23:58 14.06.2020
1341 Clear 14 1019 75 0 7.43 73 23:40 14.06.2020
1342 Clear 14 1019 74 0 8 74 23:22 14.06.2020
1343 Clear 15 1019 72 0 8 74 22:57 14.06.2020
1344 Clear 15 1019 71 0 8 74 22:38 14.06.2020
1345 Clear 16 1019 71 0 8.43 75 22:18 14.06.2020
1346 Clear 16 1019 70 0 8.43 75 21:56 14.06.2020
1347 Clear 16 1019 70 0 8.43 75 21:38 14.06.2020
1348 Clear 17 1018 68 0 0.45 135 21:19 14.06.2020
1349 Clear 17 1018 68 0 0.45 135 21:19 14.06.2020
1350 Clear 17 1018 68 0 9.12 73 20:57 14.06.2020
1351 Clear 17 1019 67 0 9.12 73 20:38 14.06.2020
1352 Clear 19 1018 63 0 0.45 135 20:19 14.06.2020
1353 Clear 19 1018 62 0 9.47 72 19:56 14.06.2020
1354 Clear 19 1018 61 0 9.47 72 19:37 14.06.2020
1355 Clear 20 1018 61 0 0.45 22 19:19 14.06.2020
1356 Clear 20 1018 61 0 9.53 70 18:56 14.06.2020
1357 Clear 20 1018 61 0 9.53 70 18:37 14.06.2020
1358 Clear 20 1018 61 0 9.46 70 18:19 14.06.2020
1359 Clear 20 1018 60 0 9.46 70 17:56 14.06.2020
1360 Clear 21 1018 59 0 0.89 112 17:38 14.06.2020
1361 Clear 21 1018 59 0 0.45 45 17:19 14.06.2020
1362 Clear 21 1019 58 0 0.45 22 16:40 14.06.2020
1363 Clear 21 1019 58 0 0.45 45 16:20 14.06.2020
1364 Clear 21 1019 58 0 10.12 72 15:58 14.06.2020
1365 Clear 21 1019 59 0 0.89 45 15:40 14.06.2020
1366 Clear 22 1019 59 0 0.89 45 15:18 14.06.2020
1367 Clear 21 1019 63 0 0.45 45 14:58 14.06.2020
1368 Clear 21 1019 63 0 0.45 45 14:58 14.06.2020
1369 Clear 21 1019 66 0 0.45 45 14:40 14.06.2020
1370 Clear 21 1019 65 0 0.45 45 14:19 14.06.2020
1371 Clear 21 1019 65 0 0.45 67 13:55 14.06.2020
1372 Clear 21 1019 63 0 0.45 67 13:36 14.06.2020
1373 Clear 22 1019 61 0 9.56 78 13:18 14.06.2020
1374 Clear 15 1017 79 0 9.56 78 12:54 14.06.2020
1375 Clear 22 1019 63 0 9.56 78 12:36 14.06.2020
1376 Clear 21 1018 66 0 0.45 112 12:18 14.06.2020
1377 Clear 21 1018 69 0 0.89 45 11:55 14.06.2020
1378 Clear 21 1019 70 0 9.3 82 11:37 14.06.2020
1379 Clear 21 1019 73 0 9.13 86 11:18 14.06.2020
1380 Clear 21 1018 71 0 0.45 135 10:41 14.06.2020
1381 Clear 21 1018 74 0 8.94 87 10:19 14.06.2020
1382 Clear 20 1018 77 0 1.79 135 09:45 14.06.2020
1383 Clear 19 1018 78 0 8.74 85 09:24 14.06.2020
1384 Clear 18 1018 83 0 1.34 135 08:44 14.06.2020
1385 Clouds 18 1018 84 0 8.84 86 08:22 14.06.2020
1386 Clouds 17 1018 86 0 1.34 112 07:59 14.06.2020
1387 Clouds 16 1018 87 0 0.89 135 07:41 14.06.2020
1388 Clouds 16 1018 88 0 8.98 85 07:23 14.06.2020
1389 Clouds 16 1018 90 0 0.45 135 06:25 14.06.2020
1390 Clouds 14 1018 90 0 9.32 84 05:39 14.06.2020
1391 Clouds 14 1018 90 0 9.61 85 04:53 14.06.2020
1392 Clouds 14 1018 90 0 9.71 87 04:28 14.06.2020
1393 Clouds 15 1017 89 0 9.97 86 02:53 14.06.2020
1394 Clouds 15 1017 89 0 10.37 82 02:23 14.06.2020
1395 Clouds 16 1018 89 0 10.69 82 01:36 14.06.2020
1396 Clouds 15 1018 89 0 10.54 81 00:52 14.06.2020
1397 Clouds 15 1018 88 0 10.54 81 00:34 14.06.2020
1398 Clouds 15 1018 87 0 10.93 81 23:59 13.06.2020
1399 Clouds 15 1018 87 0 0.45 67 23:41 13.06.2020
1400 Clouds 16 1018 87 0 11.84 78 23:22 13.06.2020
1401 Clouds 16 1018 86 0 0.45 157 22:56 13.06.2020
1402 Clouds 16 1018 86 0 0.45 157 22:36 13.06.2020
1403 Clouds 16 1018 86 0 12.21 79 22:18 13.06.2020
1404 Clouds 16 1017 85 0 12.21 79 21:43 13.06.2020
1405 Clouds 16 1017 85 0 13.02 77 21:24 13.06.2020
1406 Clouds 16 1017 84 0 13.02 77 20:59 13.06.2020
1407 Clouds 16 1017 84 0 13.02 77 20:41 13.06.2020
1408 Clouds 17 1017 84 0 13.5 76 20:19 13.06.2020
1409 Clouds 17 1017 84 0 1.34 90 19:42 13.06.2020
1410 Clouds 17 1017 85 0 14 73 19:21 13.06.2020
1411 Clouds 17 1017 85 0 14 73 19:21 13.06.2020
1412 Clouds 17 1017 85 0 0.89 45 18:59 13.06.2020
1413 Clouds 17 1017 85 0 14 73 18:41 13.06.2020
1414 Clouds 17 1017 85 0 0.45 22 18:21 13.06.2020
1415 Clouds 17 1017 85 0 0.45 22 18:21 13.06.2020
1416 Clouds 17 1017 85 0 0.45 90 17:59 13.06.2020
1417 Clouds 17 1017 84 0 0.45 90 17:41 13.06.2020
1418 Clouds 17 1017 84 0 0.45 22 17:22 13.06.2020
1419 Clouds 18 1017 82 0 0.89 45 16:56 13.06.2020
1420 Clouds 18 1017 81 0 13.86 71 16:38 13.06.2020
1421 Clouds 19 1017 77 0 1.79 45 16:19 13.06.2020
1422 Clouds 20 1017 76 0 0.89 22 15:45 13.06.2020
1423 Clouds 21 1017 77 0 11.81 73 15:27 13.06.2020
1424 Clouds 22 1017 74 0 0.89 45 14:59 13.06.2020
1425 Clouds 21 1016 75 0 0.45 315 14:41 13.06.2020
1426 Clouds 21 1016 78 0 11.5 73 14:20 13.06.2020
1427 Clouds 21 1017 79 0 1.79 45 13:44 13.06.2020
1428 Clouds 21 1017 79 0 0.45 45 13:26 13.06.2020
1429 Clouds 21 1017 80 0 10.81 74 12:57 13.06.2020
1430 Clouds 21 1017 80 0 10.81 74 12:37 13.06.2020
1431 Clouds 16 1014 94 0 10.18 75 12:19 13.06.2020
1432 Clouds 16 1014 94 0 10.18 75 12:19 13.06.2020
1433 Clouds 16 1014 94 0 10.18 75 11:40 13.06.2020
1434 Rain 16 1014 94 0 9.19 74 11:19 13.06.2020
1435 Rain 16 1014 94 0 9.19 74 10:58 13.06.2020
1436 Rain 16 1014 94 0 9.19 74 10:40 13.06.2020
1437 Rain 16 1014 95 0 8.27 76 10:22 13.06.2020
1438 Rain 16 1014 95 0 8.27 76 09:54 13.06.2020
1439 Rain 16 1014 94 0 8.75 72 09:36 13.06.2020
1440 Clouds 15 1015 95 0 8.5 73 09:18 13.06.2020
1441 Clouds 15 1015 95 0 8.5 73 08:42 13.06.2020
1442 Clouds 15 1015 95 0 8.64 72 08:24 13.06.2020
1443 Clouds 15 1015 95 0 8.64 72 07:43 13.06.2020
1444 Clouds 15 1014 96 0 8.55 74 07:25 13.06.2020
1445 Clouds 15 1014 96 0 8.55 74 06:44 13.06.2020
1446 Clouds 15 1013 95 0 8.69 69 06:25 13.06.2020
1447 Rain 14 1014 95 0 7.95 70 05:28 13.06.2020
1448 Rain 14 1014 95 0 7.95 70 04:37 13.06.2020
1449 Rain 14 1014 94 0 7.7 73 03:33 13.06.2020
1450 Rain 14 1014 93 0 7.71 72 02:39 13.06.2020
1451 Clouds 14 1014 93 0 7.81 69 01:49 13.06.2020
1452 Clouds 14 1014 93 0 8.06 71 01:23 13.06.2020
1453 Clouds 14 1014 93 0 8.06 71 00:54 13.06.2020
1454 Clouds 14 1014 93 0 8.45 71 00:27 13.06.2020
1455 Clouds 14 1014 93 0 8.45 71 23:59 12.06.2020
1456 Clouds 14 1014 93 0 8.45 71 23:38 12.06.2020
1457 Clouds 15 1014 94 0 9.02 72 23:18 12.06.2020
1458 Clouds 15 1014 94 0 9.02 72 22:54 12.06.2020
1459 Clouds 15 1014 94 0 9.02 72 22:36 12.06.2020
1460 Clouds 15 1014 94 0 9.28 72 22:18 12.06.2020
1461 Clouds 15 1014 94 0 9.28 72 21:42 12.06.2020
1462 Clouds 15 1014 94 0 9.03 68 21:23 12.06.2020
1463 Clouds 15 1014 95 0 9.05 70 20:57 12.06.2020
1464 Clouds 15 1014 95 0 9.05 70 20:37 12.06.2020
1465 Clouds 15 1014 95 0 8.66 67 20:19 12.06.2020
1466 Clouds 15 1014 95 0 8.66 67 19:42 12.06.2020
1467 Clouds 15 1013 95 0 7.93 65 19:21 12.06.2020
1468 Clouds 15 1013 95 0 7.93 65 18:58 12.06.2020
1469 Clouds 15 1013 95 0 7.93 65 18:37 12.06.2020
1470 Clouds 15 1013 95 0 7.41 65 18:18 12.06.2020
1471 Clouds 15 1013 95 0 7.41 65 17:43 12.06.2020
1472 Clouds 15 1013 95 0 7.14 66 17:25 12.06.2020
1473 Clouds 15 1013 95 0 7.14 66 16:47 12.06.2020
1474 Clouds 15 1014 95 0 7.22 68 16:23 12.06.2020
1475 Clouds 15 1014 95 0 7.22 68 15:56 12.06.2020
1476 Clouds 15 1014 95 0 7.22 68 15:37 12.06.2020
1477 Clouds 16 1014 95 0 7.55 69 15:18 12.06.2020
1478 Clouds 16 1014 95 0 7.55 69 14:41 12.06.2020
1479 Clouds 16 1014 95 0 7.12 68 14:22 12.06.2020
1480 Clouds 15 1014 94 0 8.36 68 13:57 12.06.2020
1481 Clouds 15 1014 94 0 8.36 68 13:39 12.06.2020
1482 Clouds 18 1017 85 0 7.85 69 13:18 12.06.2020
1483 Clouds 18 1017 87 0 7.85 69 12:40 12.06.2020
1484 Clouds 15 1014 94 0 7.64 68 12:19 12.06.2020
1485 Clouds 15 1014 94 0 7.64 68 11:49 12.06.2020
1486 Clouds 15 1014 93 0 6.77 73 11:23 12.06.2020
1487 Clouds 15 1014 93 0 6.77 73 10:58 12.06.2020
1488 Clouds 15 1014 93 0 6.77 73 10:40 12.06.2020
1489 Clouds 16 1017 92 0 6.83 76 10:21 12.06.2020
1490 Clouds 16 1016 93 0 6.83 76 09:44 12.06.2020
1491 Clouds 16 1016 93 0 6.09 78 09:21 12.06.2020
1492 Clouds 15 1016 93 0 6.09 78 08:43 12.06.2020
1493 Clouds 15 1016 93 0 6.06 80 08:24 12.06.2020
1494 Clouds 14 1016 93 0 6.06 80 07:43 12.06.2020
1495 Clouds 14 1016 93 0 6.24 77 07:24 12.06.2020
1496 Clouds 14 1015 94 0 6.24 77 06:55 12.06.2020
1497 Clouds 14 1016 94 0 6.68 76 06:25 12.06.2020
1498 Clouds 14 1016 94 0 6.68 76 05:50 12.06.2020
1499 Clouds 14 1016 93 0 7.18 76 05:28 12.06.2020
1500 Clouds 13 1015 93 0 7.18 76 04:41 12.06.2020
1501 Clouds 13 1016 93 0 7.44 69 02:55 12.06.2020
1502 Clouds 13 1016 93 0 8.13 69 01:52 12.06.2020
1503 Clouds 13 1016 93 0 8.46 70 01:25 12.06.2020
1504 Clouds 13 1016 93 0 8.46 70 00:42 12.06.2020
1505 Clouds 13 1016 93 0 8.93 71 00:24 12.06.2020
1506 Clouds 13 1016 93 0 8.93 71 23:59 11.06.2020
1507 Clouds 13 1016 93 0 8.93 71 23:40 11.06.2020
1508 Clouds 13 1016 93 0 9.58 69 23:21 11.06.2020
1509 Clouds 13 1016 93 0 9.58 69 22:57 11.06.2020
1510 Clouds 13 1016 93 0 9.58 69 22:38 11.06.2020
1511 Clouds 13 1016 93 0 9.77 65 22:19 11.06.2020
1512 Clouds 13 1016 93 0 9.77 65 21:55 11.06.2020
1513 Clouds 13 1016 93 0 9.77 65 21:37 11.06.2020
1514 Clouds 13 1016 93 0 9.96 64 21:19 11.06.2020
1515 Clouds 14 1016 93 0 9.97 66 20:43 11.06.2020
1516 Clouds 14 1016 93 0 1.79 67 20:21 11.06.2020
1517 Clouds 14 1016 93 0 0.45 45 19:55 11.06.2020
1518 Clouds 14 1016 93 0 0.89 45 19:36 11.06.2020
1519 Clouds 14 1016 92 0 0.45 45 19:18 11.06.2020
1520 Clouds 14 1016 92 0 9.93 60 18:41 11.06.2020
1521 Rain 14 1016 91 0 9.48 58 18:22 11.06.2020
1522 Rain 14 1016 90 0 0.89 67 17:57 11.06.2020
1523 Rain 14 1016 89 0 0.45 67 17:38 11.06.2020
1524 Rain 15 1016 89 0 0.45 45 17:19 11.06.2020
1525 Rain 15 1016 88 0 0.45 45 16:57 11.06.2020
1526 Rain 15 1016 88 0 9.81 61 16:38 11.06.2020
1527 Clouds 15 1016 88 0 9.59 60 16:20 11.06.2020
1528 Clouds 14 1016 88 0 9.59 60 15:43 11.06.2020
1529 Clouds 15 1013 86 0 8.81 57 15:25 11.06.2020
1530 Clouds 15 1013 86 0 8.81 57 14:58 11.06.2020
1531 Clouds 15 1016 87 0 6.71 52 14:39 11.06.2020
1532 Clouds 15 1016 87 0 6.71 52 14:39 11.06.2020
1533 Clouds 15 1016 87 0 9.17 60 14:20 11.06.2020
1534 Clouds 15 1016 87 0 9.17 60 13:56 11.06.2020
1535 Clouds 15 1016 87 0 9.17 60 13:37 11.06.2020
1536 Clouds 15 1016 84 0 6.71 58 13:18 11.06.2020
1537 Clouds 15 1016 85 0 9.58 59 12:55 11.06.2020
1538 Clouds 15 1016 84 0 1.34 45 12:37 11.06.2020
1539 Clouds 15 1016 85 0 0.45 45 12:18 11.06.2020
1540 Clouds 15 1016 84 0 9.91 63 11:56 11.06.2020
1541 Clouds 16 1016 84 0 9.91 63 11:37 11.06.2020
1542 Clouds 16 1016 84 0 10.27 61 11:19 11.06.2020
1543 Clouds 15 1016 86 0 0.45 67 10:54 11.06.2020
1544 Clouds 15 1016 88 0 0.45 90 10:36 11.06.2020
1545 Clouds 14 1016 88 0 9.91 61 10:18 11.06.2020
1546 Clouds 14 1016 89 0 9.91 61 09:40 11.06.2020
1547 Rain 14 1016 89 0 0.89 45 09:22 11.06.2020
1548 Rain 14 1016 89 0 9.42 70 08:43 11.06.2020
1549 Clouds 14 1016 89 0 9.48 68 08:19 11.06.2020
1550 Clouds 14 1016 90 0 9.48 68 07:42 11.06.2020
1551 Clouds 14 1016 91 0 9.12 65 07:24 11.06.2020
1552 Clouds 14 1016 91 0 0.45 45 06:40 11.06.2020
1553 Clouds 14 1016 92 0 9.12 63 06:21 11.06.2020
1554 Clouds 14 1016 92 0 0.45 22 05:28 11.06.2020
1555 Rain 14 1016 92 0 8.42 61 03:28 11.06.2020
1556 Rain 14 1017 90 0 0.45 45 02:50 11.06.2020
1557 Clouds 14 1017 89 0 8.46 56 02:32 11.06.2020
1558 Clouds 14 1017 89 0 8.09 52 01:46 11.06.2020
1559 Clouds 14 1017 89 0 7.7 56 01:22 11.06.2020
1560 Clouds 14 1017 89 0 7.7 56 00:45 11.06.2020
1561 Clouds 14 1017 88 0 7.23 59 00:26 11.06.2020
1562 Clouds 14 1017 87 0 0.89 45 23:44 10.06.2020
1563 Clouds 14 1017 87 0 6.59 61 23:25 10.06.2020
1564 Clouds 14 1018 86 0 6.59 61 22:56 10.06.2020
1565 Clouds 14 1018 86 0 6.59 61 22:37 10.06.2020
1566 Clouds 14 1018 84 0 6.27 60 22:19 10.06.2020
1567 Clouds 14 1018 83 0 6.27 60 21:56 10.06.2020
1568 Clouds 15 1018 83 0 6.27 60 21:38 10.06.2020
1569 Clouds 15 1018 82 0 6.05 54 21:18 10.06.2020
1570 Clouds 15 1018 82 0 6.05 54 21:18 10.06.2020
1571 Clouds 15 1017 80 0 0.45 45 20:56 10.06.2020
1572 Clouds 15 1017 80 0 6.05 54 20:38 10.06.2020
1573 Clouds 16 1017 77 0 6.1 50 20:20 10.06.2020
1574 Clouds 16 1017 75 0 6.1 50 19:41 10.06.2020
1575 Clouds 16 1017 74 0 6.23 49 19:20 10.06.2020
1576 Clouds 17 1018 72 0 6.23 49 18:58 10.06.2020
1577 Clouds 18 1018 69 0 0.45 22 18:40 10.06.2020
1578 Clouds 18 1018 68 0 0.45 45 18:19 10.06.2020
1579 Clouds 18 1018 67 0 0.89 45 17:56 10.06.2020
1580 Clouds 18 1018 67 0 6.55 46 17:37 10.06.2020
1581 Clouds 18 1018 66 0 0.45 45 17:19 10.06.2020
1582 Clouds 18 1018 66 0 0.89 45 16:57 10.06.2020
1583 Clouds 18 1018 66 0 0.45 45 16:39 10.06.2020
1584 Clouds 18 1019 65 0 0.89 45 16:20 10.06.2020
1585 Clouds 17 1019 67 0 0.45 45 15:55 10.06.2020
1586 Clouds 17 1019 67 0 0.45 45 15:36 10.06.2020
1587 Clouds 17 1019 65 0 5.78 38 15:18 10.06.2020
1588 Clouds 17 1019 63 0 0.45 22 14:40 10.06.2020
1589 Clouds 17 1019 63 0 1.34 22 14:21 10.06.2020
1590 Clouds 17 1019 65 0 5.9 38 13:43 10.06.2020
1591 Clouds 17 1019 65 0 5.39 36 13:22 10.06.2020
1592 Clouds 18 1019 65 0 5.39 36 12:58 10.06.2020
1593 Clouds 18 1019 67 0 5.39 36 12:39 10.06.2020
1594 Clouds 18 1020 62 0 0.45 45 12:18 10.06.2020
1595 Clouds 18 1020 60 0 5.11 39 11:44 10.06.2020
1596 Clouds 18 1020 61 0 0.45 22 11:20 10.06.2020
1597 Clouds 18 1020 62 0 0.89 45 10:58 10.06.2020
1598 Clouds 17 1020 63 0 3.94 40 10:40 10.06.2020
1599 Clouds 17 1020 68 0 3.41 44 10:21 10.06.2020
1600 Clouds 16 1020 72 0 3.41 44 09:44 10.06.2020
1601 Clouds 16 1020 73 0 2.97 56 09:25 10.06.2020
1602 Clouds 16 1021 76 0 3.48 60 08:59 10.06.2020
1603 Clouds 15 1021 76 0 3.48 60 08:41 10.06.2020
1604 Clouds 15 1020 76 0 3.38 65 08:22 10.06.2020
1605 Clouds 15 1021 78 0 0.45 22 07:42 10.06.2020
1606 Clouds 15 1021 80 0 2.8 60 07:23 10.06.2020
1607 Clouds 14 1020 81 0 2.8 60 06:52 10.06.2020
1608 Clouds 13 1020 81 0 2.8 60 06:33 10.06.2020
1609 Clouds 12 1020 80 0 2.33 42 05:59 10.06.2020
1610 Clouds 11 1020 80 0 2.33 42 05:31 10.06.2020
1611 Clouds 11 1020 78 0 2.31 33 04:48 10.06.2020
1612 Clouds 11 1020 78 0 2.28 36 04:28 10.06.2020
1613 Clouds 12 1020 74 0 3.28 27 02:24 10.06.2020
1614 Clouds 13 1021 75 0 3.28 27 01:41 10.06.2020
1615 Clouds 14 1018 81 0 3.05 33 00:55 10.06.2020
1616 Clouds 14 1018 81 0 3.05 33 00:36 10.06.2020
1617 Clouds 14 1019 79 0 3.03 34 00:18 10.06.2020
1618 Clouds 14 1019 79 0 3.03 34 23:41 09.06.2020
1619 Clear 14 1019 78 0 3.09 25 23:23 09.06.2020
1620 Clear 14 1019 78 0 3.09 25 22:57 09.06.2020
1621 Clear 14 1019 78 0 3.09 25 22:39 09.06.2020
1622 Clear 16 1021 69 0 2.95 18 22:20 09.06.2020
1623 Clear 16 1021 68 0 2.95 18 21:57 09.06.2020
1624 Clear 14 1018 78 0 2.95 18 21:39 09.06.2020
1625 Clear 17 1021 69 0 2.71 15 21:21 09.06.2020
1626 Clear 17 1021 69 0 2.37 9 20:57 09.06.2020
1627 Clear 17 1021 69 0 2.37 9 20:39 09.06.2020
1628 Clouds 18 1021 64 0 2.69 12 20:20 09.06.2020
1629 Clouds 15 1018 80 0 2.69 12 19:58 09.06.2020
1630 Clouds 15 1018 80 0 2.69 12 19:39 09.06.2020
1631 Clouds 15 1018 79 0 2.92 16 19:20 09.06.2020
1632 Clouds 19 1021 59 0 1.34 45 18:58 09.06.2020
1633 Clouds 19 1021 58 0 1.34 45 18:39 09.06.2020
1634 Clouds 20 1021 56 0 3.17 11 18:21 09.06.2020
1635 Clouds 20 1021 60 0 0.89 45 17:56 09.06.2020
1636 Clouds 20 1021 58 0 3.17 11 17:37 09.06.2020
1637 Clouds 20 1021 59 0 3.33 2 17:19 09.06.2020
1638 Clouds 20 1021 61 0 0.45 45 16:43 09.06.2020
1639 Clouds 21 1021 58 0 3.4 5 16:23 09.06.2020
1640 Clouds 20 1021 58 0 0.89 22 15:57 09.06.2020
1641 Clouds 19 1021 56 0 3.4 5 15:38 09.06.2020
1642 Clear 21 1021 52 0 0.89 22 15:20 09.06.2020
1643 Clear 21 1021 51 0 3.33 13 14:55 09.06.2020
1644 Clear 21 1021 49 0 0.45 45 14:37 09.06.2020
1645 Clear 21 1021 51 0 3.22 359 14:18 09.06.2020
1646 Clear 21 1021 50 0 0.89 67 13:43 09.06.2020
1647 Clear 21 1021 51 0 2.72 349 13:21 09.06.2020
1648 Clear 20 1021 51 0 0.45 45 12:59 09.06.2020
1649 Clear 20 1021 52 0 2.72 349 12:40 09.06.2020
1650 Clear 19 1021 54 0 2.49 337 12:19 09.06.2020
1651 Clear 19 1021 55 0 2.49 337 11:55 09.06.2020
1652 Clear 19 1021 57 0 0.45 22 11:37 09.06.2020
1653 Clear 18 1021 62 0 2.22 325 11:19 09.06.2020
1654 Clear 18 1021 64 0 0.89 45 10:45 09.06.2020
1655 Clear 18 1021 67 0 1.25 318 10:25 09.06.2020
1656 Clear 17 1021 67 0 1.25 318 09:57 09.06.2020
1657 Clear 17 1021 69 0 1.25 318 09:38 09.06.2020
1658 Clouds 17 1021 73 0 0.64 92 09:18 09.06.2020
1659 Clouds 16 1021 78 0 0.64 92 08:39 09.06.2020
1660 Clouds 14 1021 83 0 0.38 12 08:20 09.06.2020
1661 Clouds 12 1021 82 0 0.38 12 07:42 09.06.2020
1662 Clouds 12 1021 82 0 0.87 293 07:22 09.06.2020
1663 Clouds 11 1020 80 0 0.87 293 06:55 09.06.2020
1664 Clouds 9 1020 79 0 0.87 293 06:36 09.06.2020
1665 Clear 8 1020 78 0 1.79 278 05:48 09.06.2020
1666 Clear 9 1019 77 0 2.7 232 03:55 09.06.2020
1667 Clear 9 1019 76 0 2.75 213 02:47 09.06.2020
1668 Clouds 10 1020 74 0 2.61 205 01:38 09.06.2020
1669 Clouds 11 1020 74 0 2.74 192 01:19 09.06.2020
1670 Clouds 11 1019 74 0 2.74 192 00:44 09.06.2020
1671 Clouds 11 1019 73 0 1.77 189 00:19 09.06.2020
1672 Clouds 12 1019 72 0 1.77 189 23:42 08.06.2020
1673 Clouds 13 1019 72 0 1.34 210 23:22 08.06.2020
1674 Clouds 13 1019 72 0 1.34 210 22:59 08.06.2020
1675 Clouds 13 1019 72 0 1.34 210 22:59 08.06.2020
1676 Clouds 13 1019 72 0 1.34 210 22:39 08.06.2020
1677 Clouds 14 1019 70 0 1.05 248 22:20 08.06.2020
1678 Clouds 15 1019 67 0 1.05 248 21:56 08.06.2020
1679 Clouds 16 1018 66 0 1.05 248 21:38 08.06.2020
1680 Clear 17 1018 64 0 1.14 284 21:19 08.06.2020
1681 Clear 18 1018 62 0 1.14 284 20:55 08.06.2020
1682 Clear 13 1014 78 0 1.14 284 20:37 08.06.2020
1683 Clouds 13 1013 75 0 2.08 288 20:18 08.06.2020
1684 Clouds 13 1013 75 0 2.08 288 19:43 08.06.2020
1685 Clouds 13 1013 74 0 2.3 276 19:22 08.06.2020
1686 Clouds 13 1013 74 0 2.3 276 18:58 08.06.2020
1687 Clouds 13 1013 74 0 2.3 276 18:39 08.06.2020
1688 Clear 17 1017 64 0 2.38 271 18:18 08.06.2020
1689 Clear 17 1018 63 0 2.38 271 17:54 08.06.2020
1690 Clear 18 1017 62 0 2.38 271 17:36 08.06.2020
1691 Clear 18 1017 62 0 0.45 45 17:18 08.06.2020
1692 Clear 19 1017 61 0 2.83 274 16:42 08.06.2020
1693 Clear 18 1017 61 0 0.45 45 16:22 08.06.2020
1694 Clear 18 1017 60 0 0.45 22 15:44 08.06.2020
1695 Clear 18 1017 62 0 0.45 22 15:22 08.06.2020
1696 Clear 18 1017 59 0 4.19 274 14:59 08.06.2020
1697 Clear 19 1017 59 0 4.19 274 14:40 08.06.2020
1698 Clear 19 1017 59 0 0.45 0 14:20 08.06.2020
1699 Clear 18 1017 61 0 4.82 269 13:44 08.06.2020
1700 Clear 18 1017 60 0 0.45 45 13:26 08.06.2020
1701 Clear 19 1016 56 0 0.45 0 12:58 08.06.2020
1702 Clear 18 1017 59 0 4.88 261 12:40 08.06.2020
1703 Clear 18 1016 62 0 4.95 259 12:19 08.06.2020
1704 Clear 18 1016 66 0 4.95 259 11:42 08.06.2020
1705 Clear 17 1016 68 0 0.45 45 11:24 08.06.2020
1706 Clear 17 1016 68 0 4.63 262 10:59 08.06.2020
1707 Clear 17 1016 68 0 4.63 262 10:40 08.06.2020
1708 Clear 16 1016 70 0 4.39 263 10:21 08.06.2020
1709 Clear 16 1016 70 0 0.45 337 09:59 08.06.2020
1710 Clear 16 1016 72 0 0.89 337 09:41 08.06.2020
1711 Clear 12 1012 87 0 4.2 256 09:23 08.06.2020
1712 Clear 14 1016 77 0 0.45 337 08:48 08.06.2020
1713 Clouds 14 1016 79 0 0.89 337 08:23 08.06.2020
1714 Clouds 13 1015 82 0 4.38 250 07:48 08.06.2020
1715 Clouds 13 1015 82 0 4.38 250 07:48 08.06.2020
1716 Clouds 12 1015 83 0 0.89 270 07:28 08.06.2020
1717 Clouds 11 1015 82 0 4.37 241 06:58 08.06.2020
1718 Clouds 10 1015 79 0 4.37 241 06:36 08.06.2020
1719 Clouds 9 1014 78 0 4.53 242 05:54 08.06.2020
1720 Clouds 10 1013 79 0 4.56 249 04:36 08.06.2020
1721 Clouds 10 1013 79 0 4.56 249 04:36 08.06.2020
1722 Clouds 11 1013 78 0 4.16 258 02:56 08.06.2020
1723 Clouds 12 1013 77 0 0.45 292 02:25 08.06.2020
1724 Clouds 12 1013 76 0 0.45 315 01:40 08.06.2020
1725 Clouds 13 1013 75 0 0.45 292 00:45 08.06.2020
1726 Clouds 13 1013 74 0 4.33 218 00:23 08.06.2020
1727 Clouds 14 1013 74 0 4.33 218 23:38 07.06.2020
1728 Clouds 14 1013 74 0 2.75 195 23:18 07.06.2020
1729 Clouds 14 1013 76 0 2.75 195 22:56 07.06.2020
1730 Clouds 14 1012 75 0 0.45 292 22:36 07.06.2020
1731 Clouds 14 1012 74 0 2.13 193 22:18 07.06.2020
1732 Clouds 14 1012 73 0 2.13 193 21:57 07.06.2020
1733 Clouds 15 1011 71 0 2.13 193 21:36 07.06.2020
1734 Clouds 16 1011 70 0 3.05 172 21:18 07.06.2020
1735 Clouds 16 1011 69 0 3.32 174 20:39 07.06.2020
1736 Clouds 17 1011 69 0 2.4 138 20:20 07.06.2020
1737 Clouds 17 1011 68 0 2.4 138 19:57 07.06.2020
1738 Clouds 17 1011 68 0 2.4 138 19:38 07.06.2020
1739 Clouds 17 1011 67 0 0.45 157 19:20 07.06.2020
1740 Clouds 17 1011 66 0 0.45 157 18:59 07.06.2020
1741 Clouds 18 1011 64 0 0.45 180 18:38 07.06.2020
1742 Clouds 19 1011 58 0 1.27 49 18:19 07.06.2020
1743 Clouds 19 1010 57 0 0.45 180 17:57 07.06.2020
1744 Clouds 19 1010 57 0 0.89 180 17:38 07.06.2020
1745 Clouds 19 1010 57 0 0.45 157 17:20 07.06.2020
1746 Clouds 20 1010 54 0 0.89 180 16:43 07.06.2020
1747 Clouds 20 1010 55 0 0.45 157 16:21 07.06.2020
1748 Clouds 21 1010 51 0 0.89 157 15:44 07.06.2020
1749 Clouds 21 1010 51 0 0.89 157 15:44 07.06.2020
1750 Clouds 21 1010 50 0 0.89 180 15:22 07.06.2020
1751 Clouds 21 1010 51 0 0.89 180 14:41 07.06.2020
1752 Clouds 21 1010 49 0 0.45 180 14:22 07.06.2020
1753 Clouds 15 1006 70 0 0.74 294 13:55 07.06.2020
1754 Clouds 15 1006 71 0 1.52 223 13:23 07.06.2020
1755 Clouds 21 1009 52 0 1.79 180 12:59 07.06.2020
1756 Clouds 15 1006 71 0 1.52 223 12:40 07.06.2020
1757 Clouds 15 1006 73 0 1.8 193 12:22 07.06.2020
1758 Clouds 15 1006 73 0 1.8 193 11:55 07.06.2020
1759 Clouds 15 1006 73 0 1.8 193 11:37 07.06.2020
1760 Rain 19 1010 64 0 0.45 180 11:19 07.06.2020
1761 Rain 19 1010 64 0 0.45 180 11:19 07.06.2020
1762 Rain 18 1010 71 0 0.45 157 10:45 07.06.2020
1763 Rain 17 1010 74 0 0.45 157 10:22 07.06.2020
1764 Rain 15 1010 76 0 0.89 202 09:59 07.06.2020
1765 Rain 15 1009 76 0 0.45 180 09:40 07.06.2020
1766 Clouds 14 1009 78 0 0.45 157 09:21 07.06.2020
1767 Clouds 14 1009 80 0 0.89 157 08:58 07.06.2020
1768 Clouds 13 1009 80 0 0.45 157 08:40 07.06.2020
1769 Clouds 13 1009 81 0 0.89 157 08:21 07.06.2020
1770 Clouds 12 1009 83 0 0.45 157 07:41 07.06.2020
1771 Clouds 12 1009 83 0 0.45 157 07:41 07.06.2020
1772 Clouds 12 1009 83 0 0.45 157 07:41 07.06.2020
1773 Clear 11 1009 82 0 0.45 157 06:56 07.06.2020
1774 Clear 9 1008 80 0 0.45 135 05:57 07.06.2020
1775 Clear 9 1008 79 0 0.45 157 04:22 07.06.2020
1776 Clear 8 1008 77 0 6.87 190 03:50 07.06.2020
1777 Clear 8 1008 75 0 6.23 187 02:19 07.06.2020
1778 Clear 8 1008 74 0 5.86 182 01:39 07.06.2020
1779 Clear 9 1008 74 0 5.66 189 01:21 07.06.2020
1780 Clear 9 1007 74 0 5.66 189 00:39 07.06.2020
1781 Clear 9 1007 74 0 5.15 201 00:18 07.06.2020
1782 Clear 9 1007 73 0 5.15 201 23:55 06.06.2020
1783 Clear 9 1007 73 0 5.15 201 23:36 06.06.2020
1784 Clear 9 1007 73 0 4.85 204 23:18 06.06.2020
1785 Clear 10 1007 72 0 4.85 204 22:55 06.06.2020
1786 Clear 10 1007 72 0 4.85 204 22:36 06.06.2020
1787 Clear 11 1007 69 0 0.45 180 22:18 06.06.2020
1788 Clear 12 1007 67 0 0.45 180 21:42 06.06.2020
1789 Clear 13 1006 65 0 4.11 212 21:20 06.06.2020
1790 Clear 15 1006 61 0 4.11 212 20:41 06.06.2020
1791 Rain 16 1006 59 0 4.9 225 20:21 06.06.2020
1792 Rain 13 1001 77 0 4.9 225 19:59 06.06.2020
1793 Rain 13 1001 77 0 4.9 225 19:41 06.06.2020
1794 Rain 16 1005 56 0 0.45 180 19:22 06.06.2020
1795 Rain 17 1005 55 0 0.89 202 18:59 06.06.2020
1796 Rain 17 1005 53 0 0.89 180 18:41 06.06.2020
1797 Rain 18 1005 48 0 0.89 202 18:22 06.06.2020
1798 Rain 13 1000 72 0 5.49 220 17:44 06.06.2020
1799 Clear 13 1000 70 0 5.07 222 17:21 06.06.2020
1800 Clear 13 1000 70 0 5.07 222 16:58 06.06.2020
1801 Clear 13 1000 70 0 5.07 222 16:39 06.06.2020
1802 Clear 18 1004 49 0 0.45 292 16:21 06.06.2020
1803 Clear 18 1004 49 0 0.45 225 15:54 06.06.2020
1804 Clear 13 1000 70 0 5.02 234 15:36 06.06.2020
1805 Clear 13 1000 70 0 6.45 239 15:18 06.06.2020
1806 Clear 13 1000 70 0 6.45 239 14:39 06.06.2020
1807 Rain 18 1003 53 0 1.34 247 14:20 06.06.2020
1808 Rain 18 1003 54 0 0.45 225 13:54 06.06.2020
1809 Rain 17 1003 56 0 1.34 225 13:36 06.06.2020
1810 Rain 17 1003 58 0 0.89 225 13:18 06.06.2020
1811 Rain 12 998 71 0 10.15 238 12:41 06.06.2020
1812 Rain 12 998 71 0 10.12 233 12:22 06.06.2020
1813 Rain 15 1002 63 0 0.45 225 11:58 06.06.2020
1814 Rain 15 1002 63 0 0.45 225 11:38 06.06.2020
1815 Clouds 14 1002 67 0 1.79 202 11:19 06.06.2020
1816 Clouds 13 1002 69 0 0.45 225 10:57 06.06.2020
1817 Clouds 13 1002 68 0 0.45 225 10:39 06.06.2020
1818 Clouds 13 1002 68 0 0.45 225 10:39 06.06.2020
1819 Clouds 12 1002 69 0 11.59 236 10:20 06.06.2020
1820 Clouds 13 1001 70 0 0.45 225 09:45 06.06.2020
1821 Clouds 10 996 77 0 12.92 235 09:27 06.06.2020
1822 Clouds 12 1001 72 0 0.89 225 08:56 06.06.2020
1823 Clouds 12 1001 74 0 0.45 225 08:38 06.06.2020
1824 Clouds 11 1000 77 0 0.89 225 08:19 06.06.2020
1825 Clouds 11 1000 79 0 0.89 225 07:45 06.06.2020
1826 Clouds 11 1000 79 0 0.89 225 07:45 06.06.2020
1827 Clouds 10 999 79 0 14.05 234 07:22 06.06.2020
1828 Clouds 9 999 81 0 0.45 225 06:46 06.06.2020
1829 Clouds 9 999 81 0 0.45 225 06:27 06.06.2020
1830 Clouds 9 998 81 0 14.26 233 05:53 06.06.2020
1831 Rain 9 998 82 0 0.45 225 05:27 06.06.2020
1832 Rain 9 998 82 0 14.38 238 04:43 06.06.2020
1833 Rain 11 996 82 0 0.45 225 02:49 06.06.2020
1834 Rain 11 995 81 0 0.45 202 01:54 06.06.2020
1835 Rain 11 995 82 0 1.34 225 01:18 06.06.2020
1836 Rain 12 995 78 0 0.45 202 00:45 06.06.2020
1837 Rain 12 995 77 0 1.79 180 00:27 06.06.2020
1838 Rain 13 995 73 0 1.79 180 23:55 05.06.2020
1839 Rain 13 994 73 0 0.89 157 23:36 05.06.2020
1840 Rain 13 995 72 0 0.89 157 23:18 05.06.2020
1841 Rain 13 995 70 0 0.45 135 22:41 05.06.2020
1842 Clouds 13 995 69 0 0.45 135 22:23 05.06.2020
1843 Clouds 14 995 67 0 0.45 135 21:59 05.06.2020
1844 Clouds 14 995 67 0 0.45 135 21:59 05.06.2020
1845 Clouds 14 996 65 0 0.45 135 21:40 05.06.2020
1846 Clouds 16 996 62 0 0.89 135 21:21 05.06.2020
1847 Clouds 16 996 60 0 0.89 157 20:57 05.06.2020
1848 Clouds 17 996 58 0 0.45 157 20:38 05.06.2020
1849 Clouds 18 996 53 0 0.45 180 20:20 05.06.2020
1850 Clouds 13 992 81 0 7.19 115 19:42 05.06.2020
1851 Clouds 13 992 78 0 6.29 113 19:23 05.06.2020
1852 Clouds 18 997 58 0 0.45 157 18:57 05.06.2020
1853 Clouds 18 997 56 0 0.45 180 18:38 05.06.2020
1854 Clouds 18 997 55 0 0.45 180 18:19 05.06.2020
1855 Clouds 13 993 73 0 4.67 102 17:57 05.06.2020
1856 Clouds 13 993 73 0 4.67 102 17:39 05.06.2020
1857 Clouds 13 993 69 0 2.14 72 17:19 05.06.2020
1858 Clouds 13 993 69 0 2.14 72 16:39 05.06.2020
1859 Clouds 13 993 69 0 2.14 72 16:39 05.06.2020
1860 Clouds 12 994 70 0 0.9 318 16:20 05.06.2020
1861 Clouds 12 994 70 0 0.9 318 15:55 05.06.2020
1862 Clouds 12 994 70 0 0.9 318 15:55 05.06.2020
1863 Clouds 12 994 70 0 0.9 318 15:36 05.06.2020
1864 Clear 12 994 70 0 3.37 270 15:18 05.06.2020
1865 Clear 12 994 70 0 3.37 270 14:41 05.06.2020
1866 Clouds 12 994 72 0 5.35 262 14:22 05.06.2020
1867 Clouds 12 994 72 0 5.35 262 13:59 05.06.2020
1868 Clouds 12 994 72 0 5.35 262 13:41 05.06.2020
1869 Clouds 18 997 60 0 6.58 259 13:22 05.06.2020
1870 Clouds 18 998 60 0 0.45 315 12:43 05.06.2020
1871 Clouds 16 997 64 0 0.89 315 12:20 05.06.2020
1872 Clouds 15 997 66 0 0.89 270 11:57 05.06.2020
1873 Clouds 16 997 65 0 0.45 315 11:39 05.06.2020
1874 Clouds 14 998 75 0 0.45 315 11:20 05.06.2020
1875 Clouds 14 998 75 0 0.45 315 10:55 05.06.2020
1876 Clouds 14 997 79 0 0.45 270 10:36 05.06.2020
1877 Clouds 13 997 81 0 0.89 270 10:18 05.06.2020
1878 Clouds 13 997 81 0 0.45 270 09:55 05.06.2020
1879 Clouds 13 997 81 0 8.27 257 09:36 05.06.2020
1880 Clouds 13 996 83 0 0.45 270 09:18 05.06.2020
1881 Clouds 13 996 83 0 0.45 270 09:18 05.06.2020
1882 Clouds 13 996 84 0 0.89 292 08:41 05.06.2020
1883 Clouds 13 996 85 0 0.45 292 08:20 05.06.2020
1884 Clouds 12 996 85 0 0.45 315 07:58 05.06.2020
1885 Clouds 12 996 86 0 0.89 315 07:39 05.06.2020
1886 Clouds 12 996 87 0 0.89 315 07:20 05.06.2020
1887 Clouds 12 995 87 0 0.45 315 05:58 05.06.2020
1888 Clouds 13 994 88 0 0.89 270 05:19 05.06.2020
1889 Rain 13 994 88 0 5.62 257 03:54 05.06.2020
1890 Rain 14 994 86 0 5.17 268 02:56 05.06.2020
1891 Rain 14 994 85 0 0.45 180 02:24 05.06.2020
1892 Rain 14 994 85 0 0.89 157 01:55 05.06.2020
1893 Rain 14 994 84 0 0.89 157 01:27 05.06.2020
1894 Rain 15 994 83 0 1.34 135 00:42 05.06.2020
1895 Rain 16 995 79 0 0.89 157 00:21 05.06.2020
1896 Rain 16 995 76 0 0.45 135 23:46 04.06.2020
1897 Rain 16 995 74 0 0.45 157 23:28 04.06.2020
1898 Rain 16 995 73 0 7.92 116 22:56 04.06.2020
1899 Rain 16 995 72 0 7.92 116 22:36 04.06.2020
1900 Rain 17 995 70 0 7.74 120 22:18 04.06.2020
1901 Rain 16 995 69 0 7.74 120 21:56 04.06.2020
1902 Rain 17 995 68 0 7.74 120 21:37 04.06.2020
1903 Rain 17 996 65 0 8.46 130 21:19 04.06.2020
1904 Clouds 17 995 65 0 10.16 105 20:55 04.06.2020
1905 Clouds 17 996 65 0 10.16 105 20:36 04.06.2020
1906 Clouds 18 996 63 0 10.6 103 20:18 04.06.2020
1907 Clouds 18 996 61 0 0.89 135 19:40 04.06.2020
1908 Clouds 18 996 60 0 0.45 135 19:21 04.06.2020
1909 Clouds 18 996 60 0 0.45 135 19:21 04.06.2020
1910 Clouds 19 996 59 0 11.22 104 18:56 04.06.2020
1911 Clouds 19 996 59 0 0.45 135 18:38 04.06.2020
1912 Clouds 19 997 58 0 11 104 18:20 04.06.2020
1913 Clouds 20 997 57 0 11 104 17:43 04.06.2020
1914 Clouds 20 997 57 0 0.89 112 17:22 04.06.2020
1915 Clouds 21 997 56 0 1.34 135 16:57 04.06.2020
1916 Clouds 21 998 55 0 10.01 108 16:39 04.06.2020
1917 Clouds 22 998 53 0 9.86 108 16:19 04.06.2020
1918 Clouds 23 998 50 0 0.89 112 15:43 04.06.2020
1919 Clouds 16 996 72 0 10.58 107 15:25 04.06.2020
1920 Clouds 16 996 72 0 10.58 107 14:42 04.06.2020
1921 Clouds 16 996 73 0 9.29 109 14:22 04.06.2020
1922 Clouds 16 996 72 0 9.8 111 13:58 04.06.2020
1923 Clouds 16 996 72 0 9.8 111 13:40 04.06.2020
1924 Clouds 16 997 73 0 8.64 114 13:20 04.06.2020
1925 Clouds 16 997 73 0 8.64 114 12:59 04.06.2020
1926 Clouds 23 1000 48 0 1.34 157 12:40 04.06.2020
1927 Clouds 15 997 74 0 8.22 118 12:22 04.06.2020
1928 Clouds 15 997 74 0 8.22 118 11:54 04.06.2020
1929 Clouds 15 997 74 0 8.22 118 11:36 04.06.2020
1930 Clouds 15 998 77 0 8.38 118 11:18 04.06.2020
1931 Clouds 21 1001 57 0 0.89 135 10:41 04.06.2020
1932 Clouds 19 1001 58 0 1.34 112 10:22 04.06.2020
1933 Clouds 19 1001 59 0 1.34 135 09:57 04.06.2020
1934 Clouds 19 1001 61 0 0.89 135 09:38 04.06.2020
1935 Clouds 14 999 80 0 8.38 119 09:20 04.06.2020
1936 Clouds 14 999 80 0 8.38 119 08:42 04.06.2020
1937 Clouds 13 999 81 0 7.59 121 08:24 04.06.2020
1938 Clouds 16 1002 73 0 0.89 135 07:46 04.06.2020
1939 Clouds 15 1002 74 0 0.89 157 07:22 04.06.2020
1940 Clouds 13 1002 76 0 0.45 135 06:42 04.06.2020
1941 Clouds 13 1002 76 0 7.25 125 06:23 04.06.2020
1942 Clouds 11 1003 76 0 0.45 135 05:34 04.06.2020
1943 Clouds 11 1003 76 0 7.79 98 03:55 04.06.2020
1944 Clouds 11 1004 76 0 7.5 96 03:23 04.06.2020
1945 Clouds 12 1005 72 0 7.69 97 01:56 04.06.2020
1946 Clouds 13 1006 70 0 7.68 97 01:19 04.06.2020
1947 Clouds 13 1006 69 0 7.68 97 00:40 04.06.2020
1948 Clouds 13 1007 68 0 7.78 99 23:44 03.06.2020
1949 Clouds 13 1007 67 0 7.58 100 23:21 03.06.2020
1950 Clouds 13 1007 66 0 7.58 100 22:59 03.06.2020
1951 Clouds 13 1007 65 0 7.58 100 22:39 03.06.2020
1952 Clouds 14 1008 63 0 7.43 99 22:19 03.06.2020
1953 Clouds 14 1008 63 0 0.45 90 21:57 03.06.2020
1954 Clouds 14 1008 62 0 7.43 99 21:38 03.06.2020
1955 Clouds 15 1008 59 0 7.36 99 21:20 03.06.2020
1956 Clouds 16 1008 57 0 0.45 135 20:55 03.06.2020
1957 Clouds 13 1005 76 0 7.36 99 20:37 03.06.2020
1958 Clouds 13 1005 76 0 7.08 91 20:19 03.06.2020
1959 Clouds 13 1005 76 0 7.08 91 19:55 03.06.2020
1960 Clouds 13 1005 76 0 7.08 91 19:36 03.06.2020
1961 Clouds 14 1005 73 0 6.71 90 19:18 03.06.2020
1962 Clouds 14 1005 73 0 6.71 90 18:41 03.06.2020
1963 Clouds 19 1009 50 0 7.21 88 18:22 03.06.2020
1964 Clouds 18 1009 56 0 7.21 88 17:57 03.06.2020
1965 Clouds 18 1009 60 0 7.21 88 17:37 03.06.2020
1966 Clouds 18 1009 60 0 1.34 67 17:19 03.06.2020
1967 Clouds 18 1009 59 0 7.05 89 16:42 03.06.2020
1968 Clouds 18 1010 60 0 0.89 22 16:21 03.06.2020
1969 Clouds 18 1010 62 0 1.34 22 15:59 03.06.2020
1970 Clouds 18 1010 64 0 0.45 22 15:41 03.06.2020
1971 Clouds 18 1010 62 0 1.34 45 15:20 03.06.2020
1972 Clouds 18 1011 63 0 0.89 67 14:48 03.06.2020
1973 Clouds 18 1010 62 0 0.89 45 14:26 03.06.2020
1974 Clear 18 1011 63 0 0.45 22 13:59 03.06.2020
1975 Clear 18 1011 62 0 0.89 67 13:38 03.06.2020
1976 Clear 18 1011 62 0 0.45 45 13:18 03.06.2020
1977 Clear 18 1011 60 0 0.89 45 12:43 03.06.2020
1978 Clear 19 1011 56 0 0.45 67 12:21 03.06.2020
1979 Clear 14 1008 66 0 5.51 101 11:47 03.06.2020
1980 Clear 13 1009 69 0 5.44 99 11:27 03.06.2020
1981 Clear 19 1012 48 0 5.44 99 10:58 03.06.2020
1982 Clear 19 1012 49 0 1.34 112 10:39 03.06.2020
1983 Clear 18 1012 53 0 5.14 95 10:21 03.06.2020
1984 Clear 17 1012 56 0 5.14 95 09:44 03.06.2020
1985 Clear 13 1009 72 0 4.5 101 09:20 03.06.2020
1986 Clear 16 1012 63 0 4.5 101 08:56 03.06.2020
1987 Clear 16 1012 66 0 0.89 135 08:36 03.06.2020
1988 Clear 14 1013 71 0 3.75 110 08:18 03.06.2020
1989 Clear 13 1013 74 0 3.75 110 07:42 03.06.2020
1990 Clear 13 1013 76 0 3.45 123 07:20 03.06.2020
1991 Clear 12 1013 76 0 3.45 123 06:50 03.06.2020
1992 Clear 12 1010 74 0 3.45 123 06:30 03.06.2020
1993 Clear 11 1013 77 0 3.77 128 05:46 03.06.2020
1994 Clear 11 1013 75 0 4.53 125 04:56 03.06.2020
1995 Clear 11 1014 74 0 4.94 119 03:50 03.06.2020
1996 Clear 11 1014 74 0 5.03 118 02:57 03.06.2020
1997 Clouds 12 1014 74 0 5.33 114 01:52 03.06.2020
1998 Clouds 13 1015 73 0 4.5 109 00:43 03.06.2020
1999 Clouds 13 1015 73 0 2.43 71 00:25 03.06.2020
2000 Clouds 14 1016 73 0 2.43 71 23:51 02.06.2020
2001 Clouds 14 1016 71 0 3.06 29 23:28 02.06.2020
2002 Clouds 15 1016 70 0 3.06 29 22:57 02.06.2020
2003 Clouds 16 1016 69 0 3.06 29 22:38 02.06.2020
2004 Clouds 16 1016 69 0 5.12 9 22:19 02.06.2020
2005 Clouds 17 1016 68 0 5.12 9 21:56 02.06.2020
2006 Clouds 17 1016 67 0 5.12 9 21:38 02.06.2020
2007 Clouds 18 1016 67 0 5.16 350 21:19 02.06.2020
2008 Clouds 18 1016 68 0 5.16 350 20:58 02.06.2020
2009 Clouds 18 1016 68 0 5.16 350 20:58 02.06.2020
2010 Clouds 18 1016 69 0 5.16 350 20:39 02.06.2020
2011 Clouds 19 1016 67 0 0.45 45 20:20 02.06.2020
2012 Clouds 21 1016 59 0 4.44 350 19:44 02.06.2020
2013 Clouds 23 1016 53 0 2.24 45 19:25 02.06.2020
2014 Clouds 16 1014 73 0 4.47 354 18:58 02.06.2020
2015 Clouds 16 1014 73 0 4.47 354 18:40 02.06.2020
2016 Clear 17 1015 74 0 4.1 327 18:20 02.06.2020
2017 Clear 17 1015 74 0 4.1 327 17:55 02.06.2020
2018 Clear 17 1015 74 0 4.1 327 17:37 02.06.2020
2019 Clear 16 1015 74 0 4.12 312 17:19 02.06.2020
2020 Clear 16 1015 74 0 4.12 312 16:55 02.06.2020
2021 Clear 16 1015 74 0 4.12 312 16:37 02.06.2020
2022 Clear 16 1016 74 0 4.06 318 16:18 02.06.2020
2023 Clear 16 1016 74 0 4.06 318 15:40 02.06.2020
2024 Clear 16 1017 76 0 4.25 327 15:20 02.06.2020
2025 Clear 16 1017 76 0 4.25 327 14:47 02.06.2020
2026 Clear 16 1017 78 0 4.62 329 14:28 02.06.2020
2027 Clear 16 1017 76 0 5.08 325 13:55 02.06.2020
2028 Clear 16 1017 76 0 5.08 325 13:37 02.06.2020
2029 Clear 15 1018 77 0 5 326 13:18 02.06.2020
2030 Clear 15 1018 77 0 5 326 12:56 02.06.2020
2031 Clear 15 1018 77 0 5 326 12:38 02.06.2020
2032 Clear 15 1018 76 0 5.12 328 12:19 02.06.2020
2033 Clear 15 1018 76 0 5.12 328 11:41 02.06.2020
2034 Clear 22 1021 52 0 0.45 315 11:23 02.06.2020
2035 Clear 21 1022 56 0 0.45 315 10:59 02.06.2020
2036 Clear 21 1022 58 0 0.45 0 10:41 02.06.2020
2037 Clear 20 1022 61 0 0.89 337 10:21 02.06.2020
2038 Clear 18 1022 68 0 0.45 337 09:43 02.06.2020
2039 Clear 14 1020 71 0 5.49 319 09:21 02.06.2020
2040 Clear 18 1023 72 0 0.89 315 08:57 02.06.2020
2041 Clear 17 1023 76 0 0.89 0 08:29 02.06.2020
2042 Clear 15 1023 81 0 4.78 325 07:59 02.06.2020
2043 Clear 14 1023 83 0 0.89 337 07:39 02.06.2020
2044 Clear 13 1023 84 0 5.05 326 07:19 02.06.2020
2045 Clear 12 1023 81 0 0.45 337 06:43 02.06.2020
2046 Clear 10 1024 77 0 4.82 329 05:45 02.06.2020
2047 Clear 9 1024 76 0 4.61 338 04:52 02.06.2020
2048 Clear 11 1025 77 0 4.44 347 03:19 02.06.2020
2049 Clear 11 1025 74 0 5.03 344 02:19 02.06.2020
2050 Clear 11 1026 68 0 3.92 335 00:57 02.06.2020
2051 Clear 11 1026 67 0 2.84 338 00:23 02.06.2020
2052 Clear 12 1026 66 0 2.84 338 23:54 01.06.2020
2053 Clear 13 1027 65 0 2.84 338 23:36 01.06.2020
2054 Clear 13 1027 65 0 2.84 338 23:36 01.06.2020
2055 Clear 13 1026 64 0 2.89 339 23:18 01.06.2020
2056 Clear 14 1027 63 0 2.89 339 22:40 01.06.2020
2057 Clear 15 1027 61 0 2.67 338 22:20 01.06.2020
2058 Clear 15 1024 66 0 2.67 338 21:57 01.06.2020
2059 Clear 15 1024 66 0 2.67 338 21:37 01.06.2020
2060 Clear 17 1027 56 0 2.52 341 21:18 01.06.2020
2061 Clear 15 1024 67 0 2.52 341 20:55 01.06.2020
2062 Clear 15 1024 67 0 2.52 341 20:36 01.06.2020
2063 Clear 15 1024 67 0 2.52 341 20:36 01.06.2020
2064 Clear 15 1024 67 0 2.33 323 20:18 01.06.2020
2065 Clear 15 1024 67 0 2.33 323 19:43 01.06.2020
2066 Clear 15 1025 66 0 2.58 312 19:21 01.06.2020
2067 Clear 15 1025 66 0 2.58 312 18:59 01.06.2020
2068 Clear 15 1025 66 0 2.58 312 18:39 01.06.2020
2069 Clear 14 1025 68 0 1.99 323 18:20 01.06.2020
2070 Clear 14 1025 68 0 1.99 323 17:58 01.06.2020
2071 Clear 14 1025 68 0 1.99 323 17:40 01.06.2020
2072 Clear 14 1025 68 0 2.17 6 17:19 01.06.2020
2073 Clear 14 1025 68 0 2.17 6 16:42 01.06.2020
2074 Clear 14 1026 69 0 3.02 24 16:22 01.06.2020
2075 Clear 14 1026 69 0 3.02 24 15:56 01.06.2020
2076 Clear 19 1029 58 0 3.02 24 15:37 01.06.2020
2077 Clear 19 1029 64 0 2.24 45 15:19 01.06.2020
2078 Clear 18 1029 66 0 0.45 22 14:57 01.06.2020
2079 Clear 18 1029 65 0 0.45 45 14:38 01.06.2020
2080 Clear 18 1030 67 0 0.89 45 14:20 01.06.2020
2081 Clear 18 1030 67 0 0.45 45 13:44 01.06.2020
2082 Clear 18 1030 66 0 0.89 22 13:22 01.06.2020
2083 Clear 17 1030 66 0 0.45 45 12:59 01.06.2020
2084 Clear 17 1030 69 0 0.45 22 12:40 01.06.2020
2085 Clear 17 1030 68 0 0.89 22 12:22 01.06.2020
2086 Clear 17 1030 70 0 1.79 45 11:59 01.06.2020
2087 Clear 16 1030 71 0 5.28 45 11:38 01.06.2020
2088 Clear 16 1030 71 0 5.45 49 11:19 01.06.2020
2089 Clear 16 1030 70 0 0.89 45 10:56 01.06.2020
2090 Clear 16 1030 71 0 0.45 45 10:37 01.06.2020
2091 Clear 16 1030 72 0 0.89 45 10:18 01.06.2020
2092 Clear 15 1030 73 0 5.98 54 09:46 01.06.2020
2093 Clear 16 1030 73 0 0.45 45 09:27 01.06.2020
2094 Clear 14 1030 75 0 0.45 45 08:59 01.06.2020
2095 Clear 14 1030 76 0 0.45 45 08:40 01.06.2020
2096 Clear 14 1030 77 0 0.45 45 08:22 01.06.2020
2097 Clear 13 1030 78 0 0.89 67 07:42 01.06.2020
2098 Clear 13 1029 78 0 0.45 22 07:24 01.06.2020
2099 Clear 13 1029 79 0 7.15 64 06:51 01.06.2020
2100 Clear 12 1029 79 0 7.55 63 05:58 01.06.2020
2101 Clear 12 1029 79 0 0.45 45 05:22 01.06.2020
2102 Clear 12 1029 78 0 0.45 67 04:18 01.06.2020
2103 Clear 12 1029 77 0 0.45 22 03:44 01.06.2020
2104 Clear 12 1029 76 0 7.43 58 02:59 01.06.2020
2105 Clear 12 1029 74 0 7.54 63 01:47 01.06.2020
2106 Clear 12 1029 73 0 7.77 62 01:27 01.06.2020
2107 Clear 12 1029 72 0 7.77 62 00:57 01.06.2020
2108 Clear 12 1029 72 0 7.77 62 00:57 01.06.2020
2109 Clear 12 1029 72 0 7.77 62 00:38 01.06.2020
2110 Clear 13 1029 72 0 8.15 61 00:20 01.06.2020
2111 Clear 13 1029 72 0 8.15 61 23:54 31.05.2020
2112 Clear 13 1029 72 0 8.15 61 23:36 31.05.2020
2113 Clear 13 1029 72 0 8.48 61 23:18 31.05.2020
2114 Clear 13 1029 70 0 8.48 61 22:42 31.05.2020
2115 Clear 13 1029 70 0 0.45 45 22:24 31.05.2020
2116 Clear 13 1029 68 0 0.45 45 21:58 31.05.2020
2117 Clear 13 1029 68 0 0.45 45 21:39 31.05.2020
2118 Clear 14 1029 68 0 0.45 45 21:21 31.05.2020
2119 Clear 14 1029 68 0 0.45 45 21:21 31.05.2020
2120 Clear 14 1028 68 0 0.45 22 20:48 31.05.2020
2121 Clouds 14 1028 66 0 0.89 22 20:25 31.05.2020
2122 Clouds 16 1028 62 0 9.05 65 19:57 31.05.2020
2123 Clouds 16 1028 62 0 0.89 45 19:39 31.05.2020
2124 Clouds 17 1028 60 0 0.89 67 19:21 31.05.2020
2125 Clouds 17 1028 61 0 1.34 45 18:59 31.05.2020
2126 Clouds 17 1028 59 0 8.61 64 18:41 31.05.2020
2127 Clouds 17 1028 58 0 1.34 45 18:21 31.05.2020
2128 Clouds 17 1028 60 0 0.45 45 17:43 31.05.2020
2129 Clouds 17 1028 61 0 0.89 45 17:24 31.05.2020
2130 Clouds 17 1028 62 0 0.89 22 16:55 31.05.2020
2131 Clouds 17 1028 62 0 9.4 58 16:37 31.05.2020
2132 Clouds 18 1028 63 0 9.98 57 16:18 31.05.2020
2133 Clouds 17 1028 64 0 9.98 57 15:39 31.05.2020
2134 Clouds 16 1028 67 0 0.89 22 15:21 31.05.2020
2135 Clouds 17 1028 67 0 0.89 45 14:47 31.05.2020
2136 Clouds 17 1028 65 0 1.34 22 14:22 31.05.2020
2137 Clouds 17 1028 63 0 0.89 45 13:56 31.05.2020
2138 Clouds 17 1028 63 0 1.34 45 13:38 31.05.2020
2139 Clouds 17 1028 64 0 9.56 49 13:20 31.05.2020
2140 Clouds 17 1028 65 0 0.45 157 12:57 31.05.2020
2141 Clouds 17 1028 64 0 0.45 45 12:38 31.05.2020
2142 Clouds 17 1027 66 0 0.45 45 12:19 31.05.2020
2143 Clouds 17 1027 66 0 0.45 45 12:19 31.05.2020
2144 Clouds 16 1028 68 0 0.45 45 11:49 31.05.2020
2145 Clouds 17 1027 68 0 1.34 67 11:24 31.05.2020
2146 Clouds 16 1027 70 0 10.45 51 10:57 31.05.2020
2147 Clouds 16 1027 71 0 0.45 22 10:39 31.05.2020
2148 Clouds 16 1027 71 0 1.34 22 10:21 31.05.2020
2149 Clouds 15 1027 72 0 0.89 22 09:43 31.05.2020
2150 Clouds 14 1027 72 0 0.89 45 09:23 31.05.2020
2151 Clouds 14 1027 73 0 1.34 22 08:59 31.05.2020
2152 Clouds 14 1027 74 0 0.89 22 08:40 31.05.2020
2153 Clouds 14 1027 74 0 3.13 22 08:22 31.05.2020
2154 Clouds 13 1027 75 0 1.79 45 07:46 31.05.2020
2155 Clouds 13 1027 76 0 1.79 45 07:21 31.05.2020
2156 Clouds 13 1026 76 0 0.89 45 06:55 31.05.2020
2157 Clouds 13 1026 76 0 0.89 45 06:34 31.05.2020
2158 Clouds 13 1026 74 0 1.34 45 05:48 31.05.2020
2159 Clouds 13 1026 74 0 0.45 45 05:30 31.05.2020
2160 Clouds 13 1027 71 0 2.24 22 03:57 31.05.2020
2161 Clouds 13 1027 73 0 0.45 22 03:22 31.05.2020
2162 Clouds 13 1027 69 0 0.89 22 02:44 31.05.2020
2163 Clouds 13 1028 70 0 0.45 45 01:45 31.05.2020
2164 Clouds 13 1028 68 0 1.79 45 00:40 31.05.2020
2165 Clouds 13 1028 69 0 0.45 22 00:20 31.05.2020
2166 Clouds 13 1028 72 0 5.36 21 23:42 30.05.2020
2167 Clouds 13 1028 72 0 5.36 21 23:42 30.05.2020
2168 Clouds 13 1028 71 0 4.93 30 23:23 30.05.2020
2169 Clouds 13 1028 74 0 4.93 30 22:56 30.05.2020
2170 Clouds 13 1028 75 0 4.93 30 22:37 30.05.2020
2171 Clouds 13 1028 75 0 1.34 45 22:19 30.05.2020
2172 Clouds 13 1028 75 0 0.45 45 21:42 30.05.2020
2173 Clouds 13 1028 73 0 0.45 45 21:22 30.05.2020
2174 Clouds 14 1028 69 0 4.92 43 20:57 30.05.2020
2175 Clouds 14 1028 67 0 4.92 43 20:39 30.05.2020
2176 Clouds 14 1028 65 0 0.89 45 20:21 30.05.2020
2177 Clouds 13 1026 73 0 5.45 48 19:55 30.05.2020
2178 Clouds 15 1028 63 0 5.45 48 19:37 30.05.2020
2179 Clouds 15 1028 63 0 0.89 22 19:18 30.05.2020
2180 Clouds 16 1028 59 0 0.89 22 18:43 30.05.2020
2181 Clouds 16 1028 53 0 0.45 45 18:19 30.05.2020
2182 Clouds 17 1029 60 0 4.93 38 17:43 30.05.2020
2183 Clouds 17 1029 57 0 0.45 45 17:24 30.05.2020
2184 Clouds 17 1029 58 0 0.89 22 16:59 30.05.2020
2185 Clouds 17 1029 57 0 1.34 22 16:40 30.05.2020
2186 Clouds 17 1029 56 0 4.75 62 16:21 30.05.2020
2187 Clouds 17 1029 53 0 4.75 62 15:44 30.05.2020
2188 Clouds 17 1029 55 0 0.45 45 15:26 30.05.2020
2189 Clouds 17 1029 54 0 4.85 70 14:46 30.05.2020
2190 Clear 17 1029 56 0 6.38 66 14:27 30.05.2020
2191 Clear 17 1030 55 0 1.34 22 13:44 30.05.2020
2192 Clear 17 1030 54 0 0.89 45 13:26 30.05.2020
2193 Clear 17 1030 56 0 2.24 67 12:55 30.05.2020
2194 Clear 15 1030 61 0 0.89 67 12:36 30.05.2020
2195 Clear 15 1030 64 0 0.45 45 12:18 30.05.2020
2196 Clear 15 1030 58 0 1.34 67 11:41 30.05.2020
2197 Clear 16 1030 59 0 0.45 45 11:23 30.05.2020
2198 Clear 15 1030 60 0 4.28 55 10:58 30.05.2020
2199 Clear 15 1030 60 0 4.28 55 10:58 30.05.2020
2200 Clear 16 1030 60 0 0.89 45 10:38 30.05.2020
2201 Clear 15 1030 58 0 0.45 45 10:20 30.05.2020
2202 Clear 15 1030 56 0 0.89 22 09:44 30.05.2020
2203 Clear 15 1030 57 0 0.45 45 09:25 30.05.2020
2204 Clear 14 1030 64 0 0.45 45 08:45 30.05.2020
2205 Clouds 14 1030 67 0 0.89 45 08:27 30.05.2020
2206 Clouds 14 1030 66 0 0.45 45 07:41 30.05.2020
2207 Clouds 13 1030 65 0 2.82 3 07:20 30.05.2020
2208 Clouds 13 1030 67 0 2.82 3 06:31 30.05.2020
2209 Clouds 13 1030 68 0 1.76 1 05:52 30.05.2020
2210 Clouds 13 1030 70 0 0.92 38 05:20 30.05.2020
2211 Clouds 13 1028 71 0 0.72 85 03:35 30.05.2020
2212 Clouds 12 1028 75 0 1.51 96 02:29 30.05.2020
2213 Clouds 12 1031 75 0 1.89 100 01:40 30.05.2020
2214 Clouds 12 1031 74 0 1.76 98 00:37 30.05.2020
2215 Clouds 11 1031 73 0 1.72 73 00:18 30.05.2020
2216 Clouds 11 1031 73 0 1.72 73 23:41 29.05.2020
2217 Clouds 11 1031 74 0 2.17 36 23:21 29.05.2020
2218 Clouds 11 1031 73 0 2.17 36 22:58 29.05.2020
2219 Clouds 12 1031 73 0 2.17 36 22:39 29.05.2020
2220 Clouds 12 1031 69 0 2.82 23 22:19 29.05.2020
2221 Clouds 13 1031 69 0 2.82 23 21:55 29.05.2020
2222 Clouds 14 1031 68 0 3.96 7 21:36 29.05.2020
2223 Clouds 14 1031 68 0 3.97 344 21:18 29.05.2020
2224 Clouds 14 1031 68 0 3.97 344 20:44 29.05.2020
2225 Clouds 16 1031 69 0 4.1 326 20:20 29.05.2020
2226 Clouds 16 1031 67 0 4.1 326 19:58 29.05.2020
2227 Clouds 17 1031 64 0 4.1 326 19:38 29.05.2020
2228 Clouds 17 1031 62 0 4.37 317 19:19 29.05.2020
2229 Clouds 18 1031 61 0 4.37 317 18:46 29.05.2020
2230 Clouds 19 1031 56 0 1.34 22 18:19 29.05.2020
2231 Clouds 19 1031 56 0 1.34 22 18:19 29.05.2020
2232 Clouds 14 1028 72 0 4.39 308 17:56 29.05.2020
2233 Clouds 14 1028 72 0 4.39 308 17:38 29.05.2020
2234 Clouds 19 1031 48 0 4.08 311 17:19 29.05.2020
2235 Clouds 19 1031 49 0 4.08 311 16:43 29.05.2020
2236 Clouds 19 1031 49 0 0.45 22 16:25 29.05.2020
2237 Clouds 14 1029 66 0 3.4 316 15:57 29.05.2020
2238 Clouds 14 1029 66 0 3.4 316 15:38 29.05.2020
2239 Clear 19 1032 49 0 0.45 45 15:19 29.05.2020
2240 Clear 19 1032 49 0 3.3 322 14:50 29.05.2020
2241 Clear 19 1032 49 0 3.38 328 14:23 29.05.2020
2242 Clear 19 1033 53 0 3.15 320 13:58 29.05.2020
2243 Clear 19 1033 53 0 3.15 320 13:39 29.05.2020
2244 Clear 19 1033 58 0 2.95 325 13:18 29.05.2020
2245 Clear 18 1033 59 0 0.45 45 12:44 29.05.2020
2246 Clear 18 1033 61 0 2.81 332 12:25 29.05.2020
2247 Clear 18 1034 63 0 2.81 332 11:46 29.05.2020
2248 Clear 18 1034 62 0 2.87 342 11:27 29.05.2020
2249 -273 0 0 0 0 0 10:58 29.05.2020
2250 Clear 17 1034 65 0 0.89 22 10:40 29.05.2020
2251 Clear 16 1034 64 0 3.18 346 10:21 29.05.2020
2252 Clear 16 1034 65 0 0.45 0 09:55 29.05.2020
2253 Clear 16 1034 65 0 0.45 0 09:55 29.05.2020
2254 Clear 16 1034 67 0 0.45 315 09:37 29.05.2020
2255 Clear 15 1034 67 0 3.74 317 09:18 29.05.2020
2256 Clear 14 1034 69 0 0.45 45 08:44 29.05.2020
2257 Clear 13 1034 82 0 3.88 302 08:21 29.05.2020
2258 Clear 11 1034 85 0 0.45 315 07:46 29.05.2020
2259 Clear 11 1034 84 0 3.67 288 07:27 29.05.2020
2260 Clear 9 1034 80 0 3.67 288 06:49 29.05.2020
2261 Clear 8 1034 80 0 3.67 288 06:29 29.05.2020
2262 Clouds 7 1034 79 0 3.58 273 05:56 29.05.2020
2263 Clouds 7 1034 79 0 3.16 258 04:53 29.05.2020
2264 Clouds 8 1034 74 0 1.3 292 01:48 29.05.2020
2265 Clouds 8 1034 74 0 1.32 303 01:25 29.05.2020
2266 Clouds 9 1034 73 0 1.32 303 00:49 29.05.2020
2267 Clouds 9 1034 73 0 1.18 314 00:23 29.05.2020
2268 Clouds 10 1034 72 0 1.18 314 23:41 28.05.2020
2269 Clouds 11 1034 72 0 1.11 339 23:20 28.05.2020
2270 Clouds 12 1034 72 0 1.11 339 22:59 28.05.2020
2271 Clouds 12 1034 72 0 1.11 339 22:40 28.05.2020
2272 Clouds 12 1034 70 0 1.38 2 22:20 28.05.2020
2273 Clouds 13 1034 69 0 1.38 2 21:55 28.05.2020
2274 Clouds 14 1034 67 0 1.38 2 21:36 28.05.2020
2275 Clouds 14 1034 67 0 1.53 25 21:18 28.05.2020
2276 Clouds 14 1034 66 0 1.53 25 20:41 28.05.2020
2277 Clouds 16 1034 64 0 2.07 17 20:20 28.05.2020
2278 Clouds 16 1034 62 0 2.07 17 19:59 28.05.2020
2279 Clouds 13 1031 76 0 2.07 17 19:41 28.05.2020
2280 Clouds 17 1034 60 0 1.76 10 19:20 28.05.2020
2281 Clouds 13 1031 75 0 1.76 10 18:57 28.05.2020
2282 Clouds 13 1031 75 0 1.76 10 18:38 28.05.2020
2283 Clouds 17 1034 65 0 1.95 11 18:20 28.05.2020
2284 Clouds 17 1034 63 0 0.45 22 17:40 28.05.2020
2285 Clouds 17 1034 64 0 2.39 21 17:21 28.05.2020
2286 Clouds 17 1034 65 0 1.34 45 16:55 28.05.2020
2287 Clouds 17 1034 67 0 2.39 21 16:36 28.05.2020
2288 Clouds 17 1034 66 0 2.97 36 16:18 28.05.2020
2289 Clouds 17 1034 65 0 0.45 45 15:40 28.05.2020
2290 Clouds 12 1031 80 0 3.47 35 15:22 28.05.2020
2291 Clouds 17 1034 65 0 0.89 45 14:43 28.05.2020
2292 Clear 17 1034 64 0 0.89 22 14:23 28.05.2020
2293 Clear 17 1034 63 0 0.45 22 13:48 28.05.2020
2294 Clear 17 1034 63 0 3.58 21 13:30 28.05.2020
2295 Clear 17 1034 64 0 3.68 19 12:59 28.05.2020
2296 Clear 17 1034 65 0 0.45 45 12:38 28.05.2020
2297 Clear 17 1034 66 0 4.38 12 12:18 28.05.2020
2298 Clear 17 1034 67 0 0.45 45 11:42 28.05.2020
2299 Clear 16 1034 68 0 0.89 45 11:24 28.05.2020
2300 Clear 16 1034 68 0 0.45 45 10:57 28.05.2020
2301 Clear 16 1034 70 0 0.89 0 10:39 28.05.2020
2302 Clear 16 1034 70 0 0.45 45 10:18 28.05.2020
2303 Clear 15 1034 73 0 0.45 0 09:39 28.05.2020
2304 Clear 14 1033 74 0 0.45 45 09:20 28.05.2020
2305 Clear 14 1033 75 0 0.45 315 08:49 28.05.2020
2306 Clear 13 1033 77 0 8.37 338 08:26 28.05.2020
2307 Clear 12 1033 79 0 0.45 67 07:45 28.05.2020
2308 Clear 12 1033 80 0 8.73 335 07:26 28.05.2020
2309 Clear 12 1033 80 0 0.45 0 06:57 28.05.2020
2310 Clear 11 1033 80 0 0.45 22 06:37 28.05.2020
2311 Clear 11 1030 81 0 8.72 333 05:58 28.05.2020
2312 Clear 11 1033 79 0 8.72 333 05:36 28.05.2020
2313 Clear 12 1033 77 0 8.73 328 04:29 28.05.2020
2314 Clear 12 1033 73 0 0.45 112 03:46 28.05.2020
2315 Clear 13 1033 68 0 8.51 324 02:45 28.05.2020
2316 Clouds 13 1033 65 0 7.95 324 01:52 28.05.2020
2317 Clouds 13 1033 66 0 7.95 322 00:55 28.05.2020
2318 Clouds 13 1033 66 0 0.89 22 00:28 28.05.2020
2319 Clouds 13 1033 66 0 0.45 0 23:58 27.05.2020
2320 Clouds 13 1034 66 0 0.45 0 23:39 27.05.2020
2321 Clouds 13 1033 63 0 1.34 292 23:21 27.05.2020
2322 Clouds 13 1034 64 0 0.45 22 22:59 27.05.2020
2323 Clouds 13 1034 64 0 0.45 45 22:40 27.05.2020
2324 Clouds 13 1033 67 0 1.34 45 22:21 27.05.2020
2325 Clouds 14 1033 63 0 0.89 22 21:42 27.05.2020
2326 Clouds 14 1033 63 0 0.45 22 21:24 27.05.2020
2327 Clouds 14 1033 65 0 1.34 22 20:59 27.05.2020
2328 Clouds 15 1032 69 0 0.45 45 20:41 27.05.2020
2329 Clouds 16 1032 70 0 0.45 67 20:22 27.05.2020
2330 Clouds 16 1032 70 0 0.45 67 20:22 27.05.2020
2331 Clouds 16 1032 66 0 8 325 19:59 27.05.2020
2332 Clouds 17 1032 65 0 0.45 337 19:41 27.05.2020
2333 Clouds 18 1032 65 0 6.4 319 19:19 27.05.2020
2334 Clouds 18 1032 65 0 6.4 319 19:19 27.05.2020
2335 Clouds 18 1032 64 0 6.4 319 18:41 27.05.2020
2336 Clouds 19 1033 58 0 0.45 0 18:20 27.05.2020
2337 Clouds 19 1033 58 0 0.45 0 17:57 27.05.2020
2338 Clouds 18 1033 60 0 0.45 315 17:38 27.05.2020
2339 Clouds 18 1033 55 0 5.85 302 17:19 27.05.2020
2340 Clouds 19 1033 52 0 5.85 302 16:55 27.05.2020
2341 Clouds 13 1030 85 0 5.85 302 16:37 27.05.2020
2342 Clouds 13 1030 84 0 5.61 296 16:18 27.05.2020
2343 Clouds 13 1030 84 0 5.61 296 16:18 27.05.2020
2344 Clouds 13 1030 84 0 5.61 296 15:46 27.05.2020
2345 Clouds 21 1033 55 0 0.45 22 15:21 27.05.2020
2346 Clouds 21 1033 55 0 5.03 309 14:46 27.05.2020
2347 Clouds 21 1033 54 0 0.89 0 14:22 27.05.2020
2348 Clouds 19 1034 57 0 5.67 288 13:58 27.05.2020
2349 Clouds 19 1034 55 0 0.45 45 13:39 27.05.2020
2350 Clouds 21 1034 52 0 5.2 278 13:21 27.05.2020
2351 Clouds 20 1035 55 0 5.2 278 12:42 27.05.2020
2352 Clouds 19 1035 56 0 4.22 270 12:23 27.05.2020
2353 Clouds 13 1032 88 0 4.22 270 11:55 27.05.2020
2354 Clouds 19 1035 55 0 4.22 270 11:36 27.05.2020
2355 Clouds 19 1035 56 0 0.45 0 11:18 27.05.2020
2356 Clouds 18 1036 59 0 3.69 267 10:43 27.05.2020
2357 Clouds 18 1036 60 0 0.45 247 10:24 27.05.2020
2358 Clouds 18 1036 64 0 3.29 259 09:56 27.05.2020
2359 Clouds 18 1036 65 0 3.29 259 09:38 27.05.2020
2360 Clear 12 1032 85 0 3.44 258 09:20 27.05.2020
2361 Clear 15 1036 76 0 3.87 262 08:42 27.05.2020
2362 Clouds 13 1036 80 0 3.77 248 08:24 27.05.2020
2363 Clouds 12 1036 82 0 3.77 248 07:53 27.05.2020
2364 Clouds 11 1037 82 0 3.77 248 07:34 27.05.2020
2365 Clouds 9 1037 81 0 3.96 243 06:56 27.05.2020
2366 Clouds 8 1037 80 0 3.96 243 06:30 27.05.2020
2367 Clouds 7 1037 79 0 4.07 247 05:50 27.05.2020
2368 Clouds 7 1037 79 0 4.15 242 05:28 27.05.2020
2369 Clouds 7 1037 77 0 4.16 236 03:39 27.05.2020
2370 Clouds 8 1037 77 0 4.12 238 02:30 27.05.2020
2371 Clouds 9 1037 76 0 3.92 232 01:34 27.05.2020
2372 Clouds 8 1037 76 0 3.46 220 00:59 27.05.2020
2373 Clouds 8 1037 75 0 3.46 220 00:41 27.05.2020
2374 Clouds 9 1038 74 0 3.13 207 00:19 27.05.2020
2375 Clouds 9 1038 73 0 3.13 207 23:42 26.05.2020
2376 Clouds 9 1038 73 0 2.38 198 23:24 26.05.2020
2377 Clouds 10 1038 72 0 2.38 198 22:58 26.05.2020
2378 Clouds 10 1038 72 0 2.38 198 22:58 26.05.2020
2379 Clouds 11 1038 72 0 2.38 198 22:38 26.05.2020
2380 Clouds 12 1038 71 0 1.45 184 22:20 26.05.2020
2381 Clouds 12 1038 71 0 1.45 184 21:56 26.05.2020
2382 Clouds 13 1038 70 0 1.45 184 21:38 26.05.2020
2383 Clouds 14 1038 68 0 1.6 146 21:19 26.05.2020
2384 Clouds 16 1038 67 0 1.6 146 20:42 26.05.2020
2385 Clouds 16 1038 65 0 2.11 112 20:21 26.05.2020
2386 Clouds 17 1038 63 0 2.11 112 19:56 26.05.2020
2387 Clouds 17 1038 63 0 2.11 112 19:37 26.05.2020
2388 Clouds 17 1038 63 0 2.65 93 19:18 26.05.2020
2389 Clouds 17 1038 62 0 0.89 45 18:42 26.05.2020
2390 Clear 17 1038 60 0 2.67 75 18:22 26.05.2020
2391 Clear 17 1038 60 0 0.45 45 17:55 26.05.2020
2392 Clear 17 1038 61 0 2.67 75 17:37 26.05.2020
2393 Clear 18 1038 61 0 2.97 71 17:19 26.05.2020
2394 Clear 17 1038 57 0 2.97 71 16:41 26.05.2020
2395 Clear 17 1039 59 0 0.45 45 16:19 26.05.2020
2396 Clear 17 1039 59 0 0.45 45 16:19 26.05.2020
2397 Clear 17 1039 59 0 3.44 71 15:54 26.05.2020
2398 Clear 17 1039 58 0 3.44 71 15:36 26.05.2020
2399 Clear 17 1039 61 0 0.89 45 15:18 26.05.2020
2400 Clear 16 1039 68 0 0.89 45 14:43 26.05.2020
2401 Clear 16 1039 72 0 1.34 22 14:22 26.05.2020
2402 Clear 16 1039 73 0 0.45 22 13:56 26.05.2020
2403 Clear 16 1039 73 0 0.89 22 13:37 26.05.2020
2404 Clear 16 1039 74 0 3.25 83 13:18 26.05.2020
2405 Clear 16 1039 75 0 0.89 22 12:42 26.05.2020
2406 Clear 15 1039 77 0 2.93 87 12:20 26.05.2020
2407 Clear 14 1039 80 0 0.45 22 11:58 26.05.2020
2408 Clear 14 1039 80 0 0.45 22 11:40 26.05.2020
2409 Clear 14 1039 80 0 0.89 45 11:18 26.05.2020
2410 Clear 14 1039 81 0 2.42 97 10:42 26.05.2020
2411 Clear 13 1039 82 0 0.45 45 10:19 26.05.2020
2412 Clear 13 1039 83 0 1.61 98 09:40 26.05.2020
2413 Clear 12 1039 86 0 1.82 101 09:20 26.05.2020
2414 Clear 12 1038 88 0 1.82 101 08:44 26.05.2020
2415 Clear 11 1038 88 0 1.21 87 08:23 26.05.2020
2416 Clear 11 1038 87 0 1.21 87 07:58 26.05.2020
2417 Clear 11 1038 87 0 1.21 87 07:39 26.05.2020
2418 Clouds 9 1037 86 0 0.67 72 07:21 26.05.2020
2419 Clouds 8 1038 85 0 0.67 72 06:46 26.05.2020
2420 Clouds 8 1037 85 0 0.75 60 06:23 26.05.2020
2421 Clouds 7 1037 84 0 0.75 60 05:35 26.05.2020
2422 Clouds 8 1036 84 0 1.71 32 04:58 26.05.2020
2423 Clouds 8 1036 83 0 1.71 32 04:40 26.05.2020
2424 Clouds 7 1036 83 0 2.85 12 04:21 26.05.2020
2425 Clouds 9 1036 83 0 4.04 4 02:52 26.05.2020
2426 Clouds 9 1036 83 0 4.04 4 02:32 26.05.2020
2427 Clouds 9 1036 82 0 4.53 354 01:41 26.05.2020
2428 Clouds 10 1035 82 0 4.64 351 00:39 26.05.2020
2429 Clear 11 1035 82 0 4.53 337 00:20 26.05.2020
2430 Clear 11 1035 81 0 4.53 337 23:58 25.05.2020
2431 Clear 11 1035 81 0 4.53 337 23:38 25.05.2020
2432 Clear 11 1035 79 0 4.45 340 23:19 25.05.2020
2433 Clear 11 1035 79 0 4.45 340 22:56 25.05.2020
2434 Clear 11 1035 78 0 4.45 340 22:37 25.05.2020
2435 Clear 12 1035 77 0 3.76 345 22:19 25.05.2020
2436 Clear 12 1035 76 0 3.76 345 21:58 25.05.2020
2437 Clear 12 1034 76 0 3.76 345 21:38 25.05.2020
2438 Clear 13 1034 75 0 4.56 341 21:18 25.05.2020
2439 Clear 14 1034 75 0 4.56 341 20:58 25.05.2020
2440 Clear 14 1034 74 0 4.56 341 20:40 25.05.2020
2441 Clear 15 1033 72 0 3.99 334 20:20 25.05.2020
2442 Clear 16 1033 70 0 3.99 334 19:55 25.05.2020
2443 Clear 17 1033 69 0 3.99 334 19:37 25.05.2020
2444 Clear 17 1033 68 0 0.45 45 19:18 25.05.2020
2445 Clear 17 1033 68 0 3.39 337 18:42 25.05.2020
2446 Clear 17 1032 69 0 3.17 335 18:21 25.05.2020
2447 Clear 17 1032 71 0 3.17 335 17:55 25.05.2020
2448 Clear 16 1032 73 0 3.17 335 17:37 25.05.2020
2449 Clear 16 1032 74 0 0.45 337 17:18 25.05.2020
2450 Clear 16 1032 74 0 2.79 332 16:41 25.05.2020
2451 Clear 17 1032 72 0 2.79 331 16:22 25.05.2020
2452 Clear 16 1031 77 0 0.45 315 15:58 25.05.2020
2453 Clear 15 1031 78 0 2.79 331 15:40 25.05.2020
2454 Clear 14 1031 82 0 0.89 315 15:18 25.05.2020
2455 Clear 13 1031 83 0 0.45 0 14:43 25.05.2020
2456 Clouds 13 1031 84 0 4.44 312 14:24 25.05.2020
2457 Clouds 13 1030 84 0 0.45 315 13:57 25.05.2020
2458 Clouds 13 1030 84 0 0.45 22 13:38 25.05.2020
2459 Clouds 13 1030 87 0 4.75 308 13:19 25.05.2020
2460 Clouds 13 1030 88 0 0.89 337 12:54 25.05.2020
2461 Clouds 12 1030 89 0 0.45 315 12:36 25.05.2020
2462 Clouds 12 1029 88 0 0.89 315 12:18 25.05.2020
2463 Clouds 12 1029 87 0 1.34 0 11:39 25.05.2020
2464 Clouds 12 1029 86 0 1.79 337 11:19 25.05.2020
2465 Clouds 12 1029 86 0 1.79 337 11:19 25.05.2020
2466 Clouds 12 1029 87 0 5.83 319 10:54 25.05.2020
2467 Clouds 11 1028 87 0 0.89 315 10:36 25.05.2020
2468 Clouds 11 1028 88 0 0.45 292 10:18 25.05.2020
2469 Clouds 11 1028 89 0 0.45 292 09:42 25.05.2020
2470 Clouds 11 1028 89 0 0.89 315 09:20 25.05.2020
2471 Clouds 11 1028 89 0 0.89 315 09:20 25.05.2020
2472 Clouds 11 1028 89 0 0.89 292 08:59 25.05.2020
2473 Clouds 11 1028 88 0 7.16 318 08:38 25.05.2020
2474 Rain 11 1027 89 0 1.34 315 08:20 25.05.2020
2475 Rain 10 1027 90 0 7.56 316 07:47 25.05.2020
2476 Rain 10 1027 89 0 8.33 309 07:24 25.05.2020
2477 Rain 10 1026 90 0 1.34 292 06:56 25.05.2020
2478 Rain 10 1026 89 0 0.45 292 06:35 25.05.2020
2479 Rain 10 1025 88 0 0.89 315 05:20 25.05.2020
2480 Rain 10 1025 87 0 1.34 292 03:25 25.05.2020
2481 Rain 11 1025 85 0 1.34 292 02:46 25.05.2020
2482 Rain 10 1025 85 0 1.34 315 02:18 25.05.2020
2483 Rain 11 1025 85 0 0.45 247 01:41 25.05.2020
2484 Rain 11 1025 80 0 0.89 315 00:47 25.05.2020
2485 Clouds 12 1025 76 0 0.89 315 00:26 25.05.2020
2486 Clouds 11 1021 83 0 9.26 281 23:58 24.05.2020
2487 Clouds 11 1021 83 0 9.26 281 23:39 24.05.2020
2488 Clouds 11 1021 83 0 9.26 281 23:39 24.05.2020
2489 Rain 12 1024 74 0 2.68 315 23:20 24.05.2020
2490 Rain 12 1024 73 0 0.89 292 22:55 24.05.2020
2491 Rain 13 1025 72 0 0.45 270 22:37 24.05.2020
2492 Rain 13 1024 72 0 0.89 270 22:18 24.05.2020
2493 Rain 13 1025 72 0 1.34 337 21:54 24.05.2020
2494 Rain 13 1024 72 0 1.34 292 21:36 24.05.2020
2495 Rain 13 1024 71 0 1.79 292 21:18 24.05.2020
2496 Rain 13 1024 70 0 1.34 292 20:42 24.05.2020
2497 Rain 13 1024 69 0 2.24 292 20:21 24.05.2020
2498 Rain 14 1024 71 0 2.24 292 19:56 24.05.2020
2499 Rain 14 1024 70 0 0.89 292 19:37 24.05.2020
2500 Clouds 14 1024 68 0 0.89 292 19:18 24.05.2020
2501 Clouds 14 1024 67 0 1.79 315 18:42 24.05.2020
2502 Clouds 14 1024 66 0 1.79 337 18:23 24.05.2020
2503 Clouds 14 1024 66 0 3.13 315 17:58 24.05.2020
2504 Clouds 14 1024 64 0 0.89 270 17:40 24.05.2020
2505 Clouds 15 1024 62 0 3.13 315 17:21 24.05.2020
2506 Clouds 16 1024 59 0 1.34 270 16:56 24.05.2020
2507 Clouds 17 1024 57 0 2.24 292 16:38 24.05.2020
2508 Clouds 16 1023 60 0 0.45 22 16:19 24.05.2020
2509 Clouds 17 1023 61 0 2.24 315 15:55 24.05.2020
2510 Clouds 15 1023 62 0 3.13 292 15:37 24.05.2020
2511 Clouds 16 1023 65 0 2.24 315 15:18 24.05.2020
2512 Clouds 16 1023 65 0 2.24 315 15:18 24.05.2020
2513 Clouds 14 1023 67 0 2.68 292 14:44 24.05.2020
2514 Clouds 16 1023 65 0 1.34 315 14:24 24.05.2020
2515 Clouds 16 1023 73 0 1.34 292 13:57 24.05.2020
2516 Clouds 14 1023 80 0 0.45 247 13:39 24.05.2020
2517 Clouds 12 1023 75 0 0.45 292 13:21 24.05.2020
2518 Clouds 14 1024 69 0 2.68 270 12:58 24.05.2020
2519 Clouds 14 1024 69 0 2.68 270 12:58 24.05.2020
2520 Clouds 16 1023 63 0 0.89 292 12:40 24.05.2020
2521 Clouds 15 1023 69 0 0.45 292 12:22 24.05.2020
2522 Clouds 14 1023 66 0 0.89 315 11:59 24.05.2020
2523 Clouds 15 1023 67 0 0.45 270 11:41 24.05.2020
2524 Clouds 16 1024 68 0 0.45 225 11:22 24.05.2020
2525 Clouds 14 1024 77 0 0.45 202 10:56 24.05.2020
2526 Clouds 14 1024 79 0 11.29 256 10:37 24.05.2020
2527 Clouds 13 1024 81 0 10.75 252 10:19 24.05.2020
2528 Clouds 13 1024 80 0 0.89 292 09:41 24.05.2020
2529 Clouds 13 1024 81 0 10.27 246 09:18 24.05.2020
2530 Clouds 13 1024 80 0 0.45 225 08:56 24.05.2020
2531 Clouds 12 1023 81 0 0.45 225 08:38 24.05.2020
2532 Clouds 12 1023 81 0 0.45 225 08:38 24.05.2020
2533 Clouds 12 1023 82 0 10.03 245 08:19 24.05.2020
2534 Clouds 12 1023 83 0 0.45 225 07:44 24.05.2020
2535 Clouds 11 1023 84 0 0.45 247 07:25 24.05.2020
2536 Clouds 11 1023 85 0 10.09 244 06:57 24.05.2020
2537 Clouds 9 1023 85 0 0.45 225 06:36 24.05.2020
2538 Clouds 8 1023 83 0 0.45 270 04:54 24.05.2020
2539 Clear 9 1024 83 0 9.14 240 03:42 24.05.2020
2540 Clear 8 1024 81 0 8.36 239 02:46 24.05.2020
2541 Clouds 9 1024 80 0 8.55 241 01:50 24.05.2020
2542 Clouds 9 1024 80 0 8.03 246 00:41 24.05.2020
2543 Clear 10 1024 80 0 7.86 254 00:22 24.05.2020
2544 Clear 10 1024 80 0 7.86 254 00:22 24.05.2020
2545 Clear 10 1024 80 0 7.86 254 23:46 23.05.2020
2546 Clear 9 1024 79 0 8 263 23:26 23.05.2020
2547 Clear 10 1023 79 0 8 263 22:59 23.05.2020
2548 Clear 10 1023 77 0 8 263 22:39 23.05.2020
2549 Clear 11 1023 76 0 8.04 267 22:21 23.05.2020
2550 Clear 11 1023 76 0 8.04 267 21:59 23.05.2020
2551 Clear 12 1023 75 0 8.04 267 21:41 23.05.2020
2552 Clear 13 1023 75 0 6.72 267 21:20 23.05.2020
2553 Clear 13 1023 77 0 0.45 292 20:59 23.05.2020
2554 Clear 14 1022 79 0 0.45 292 20:39 23.05.2020
2555 Clouds 14 1022 80 0 7.11 271 20:19 23.05.2020
2556 Clouds 14 1022 79 0 7.11 271 19:55 23.05.2020
2557 Clouds 14 1021 78 0 7.11 271 19:37 23.05.2020
2558 Clouds 15 1022 78 0 7.83 274 19:18 23.05.2020
2559 Clouds 14 1021 79 0 7.83 274 18:41 23.05.2020
2560 Clouds 14 1021 79 0 8 268 18:22 23.05.2020
2561 Clouds 13 1021 78 0 8 268 17:58 23.05.2020
2562 Clouds 14 1021 77 0 0.89 292 17:39 23.05.2020
2563 Clouds 14 1021 80 0 0.89 247 17:19 23.05.2020
2564 -273 0 0 0 0 0 16:58 23.05.2020
2565 Clouds 14 1021 79 0 0.89 292 16:40 23.05.2020
2566 Clouds 15 1021 74 0 0.45 315 16:20 23.05.2020
2567 Clouds 17 1020 65 0 0.45 0 15:44 23.05.2020
2568 Clouds 18 1020 64 0 2.24 315 15:24 23.05.2020
2569 Clouds 20 1020 64 0 0.45 247 14:59 23.05.2020
2570 Clouds 20 1019 63 0 0.45 225 14:41 23.05.2020
2571 Clouds 19 1020 64 0 5.78 256 14:22 23.05.2020
2572 Clouds 19 1020 63 0 0.89 225 13:42 23.05.2020
2573 Clouds 19 1020 63 0 0.45 225 13:19 23.05.2020
2574 Clouds 12 1016 90 0 6.04 264 12:58 23.05.2020
2575 Clouds 19 1020 65 0 0.89 247 12:39 23.05.2020
2576 Clouds 19 1020 70 0 0.45 292 12:19 23.05.2020
2577 Clouds 20 1020 70 0 0.45 292 11:54 23.05.2020
2578 Clouds 19 1020 72 0 5.44 265 11:36 23.05.2020
2579 Clouds 19 1020 73 0 5.15 264 11:18 23.05.2020
2580 Clouds 19 1020 75 0 5.15 264 10:54 23.05.2020
2581 Clouds 18 1020 77 0 5.15 264 10:36 23.05.2020
2582 Clouds 18 1020 78 0 4.98 255 10:18 23.05.2020
2583 Clouds 17 1020 81 0 0.45 202 09:41 23.05.2020
2584 Clouds 16 1020 82 0 0.45 202 09:23 23.05.2020
2585 Clouds 14 1020 83 0 4.75 258 08:54 23.05.2020
2586 Clouds 13 1020 83 0 4.75 258 08:36 23.05.2020
2587 Clouds 13 1020 83 0 0.45 180 08:18 23.05.2020
2588 Clouds 12 1020 83 0 0.45 180 07:41 23.05.2020
2589 Clouds 11 1020 84 0 0.89 180 07:21 23.05.2020
2590 Clouds 10 1020 84 0 0.45 180 06:42 23.05.2020
2591 Clouds 9 1020 83 0 0.89 157 05:51 23.05.2020
2592 Rain 11 1020 77 0 1.79 157 03:52 23.05.2020
2593 Rain 11 1020 76 0 1.34 157 03:23 23.05.2020
2594 Rain 11 1021 73 0 0.89 157 02:31 23.05.2020
2595 Rain 12 1021 70 0 1.34 157 01:28 23.05.2020
2596 Rain 12 1021 65 0 0.89 157 00:53 23.05.2020
2597 Rain 13 1021 63 0 0.89 135 00:34 23.05.2020
2598 Clouds 13 1022 61 0 1.34 180 23:59 22.05.2020
2599 Clouds 14 1022 60 0 1.34 157 23:40 22.05.2020
2600 Clouds 15 1021 54 0 2.24 157 23:20 22.05.2020
2601 Clouds 15 1021 53 0 2.68 135 22:58 22.05.2020
2602 Clouds 15 1022 55 0 1.79 135 22:39 22.05.2020
2603 Rain 16 1022 52 0 1.34 157 22:20 22.05.2020
2604 Rain 16 1022 48 0 1.34 135 21:46 22.05.2020
2605 Clouds 16 1022 48 0 0.89 135 21:22 22.05.2020
2606 Clouds 17 1022 46 0 1.79 157 20:59 22.05.2020
2607 Clouds 17 1022 46 0 1.79 135 20:40 22.05.2020
2608 Clouds 17 1022 45 0 2.24 135 20:20 22.05.2020
2609 Clouds 17 1022 43 0 1.34 157 19:44 22.05.2020
2610 Clouds 17 1022 43 0 2.24 135 19:26 22.05.2020
2611 Clouds 18 1023 48 0 1.79 135 18:55 22.05.2020
2612 Clouds 18 1023 53 0 0.45 135 18:37 22.05.2020
2613 Clouds 17 1023 53 0 0.45 112 18:19 22.05.2020
2614 Clouds 17 1024 50 0 0.89 135 17:40 22.05.2020
2615 Clouds 18 1024 47 0 0.45 135 17:20 22.05.2020
2616 Clouds 18 1024 46 0 0.89 135 16:57 22.05.2020
2617 Clouds 18 1024 45 0 0.45 112 16:39 22.05.2020
2618 Clouds 19 1024 43 0 9.06 128 16:19 22.05.2020
2619 Clouds 19 1024 43 0 0.45 112 15:54 22.05.2020
2620 Clouds 21 1025 42 0 0.89 112 15:36 22.05.2020
2621 Clouds 21 1025 41 0 1.34 135 15:18 22.05.2020
2622 Clouds 21 1025 40 0 1.34 135 14:39 22.05.2020
2623 Clouds 21 1025 38 0 1.79 135 14:20 22.05.2020
2624 Clouds 15 1022 65 0 8.02 136 13:42 22.05.2020
2625 Clouds 15 1022 65 0 8.02 136 13:42 22.05.2020
2626 Clouds 15 1022 66 0 7.59 138 13:19 22.05.2020
2627 Clouds 15 1022 66 0 7.59 138 12:43 22.05.2020
2628 Clouds 14 1022 67 0 7.37 142 12:24 22.05.2020
2629 Clouds 14 1022 67 0 7.37 142 12:24 22.05.2020
2630 Clouds 14 1022 67 0 7.37 142 11:55 22.05.2020
2631 Clouds 14 1022 67 0 7.37 142 11:36 22.05.2020
2632 Clouds 14 1022 70 0 6.92 143 11:18 22.05.2020
2633 Clouds 19 1025 46 0 1.34 135 10:40 22.05.2020
2634 Clouds 19 1026 48 0 1.34 135 10:22 22.05.2020
2635 Clouds 18 1026 49 0 1.79 135 09:59 22.05.2020
2636 Clouds 18 1026 49 0 1.79 135 09:59 22.05.2020
2637 Clouds 18 1026 50 0 1.34 135 09:40 22.05.2020
2638 Clouds 12 1023 74 0 6.42 149 09:18 22.05.2020
2639 Clouds 12 1023 74 0 6.42 149 09:18 22.05.2020
2640 Clouds 15 1026 57 0 1.34 135 08:43 22.05.2020
2641 Clouds 15 1026 57 0 1.34 135 08:43 22.05.2020
2642 Clouds 14 1027 65 0 1.34 135 08:20 22.05.2020
2643 Clouds 13 1027 69 0 0.89 135 07:56 22.05.2020
2644 Clouds 12 1026 70 0 1.34 135 07:24 22.05.2020
2645 Clouds 11 1026 71 0 1.34 135 06:56 22.05.2020
2646 Clouds 10 1026 70 0 0.89 135 06:35 22.05.2020
2647 Clouds 9 1026 70 0 0.89 157 05:39 22.05.2020
2648 Clouds 10 1027 69 0 0.45 135 04:51 22.05.2020
2649 Clouds 10 1027 69 0 0.89 135 04:24 22.05.2020
2650 Clouds 10 1027 71 0 1.34 135 03:47 22.05.2020
2651 Clouds 11 1027 70 0 0.89 135 02:59 22.05.2020
2652 Clouds 11 1027 69 0 0.89 157 01:56 22.05.2020
2653 Clouds 11 1027 67 0 0.89 135 01:28 22.05.2020
2654 Clouds 12 1028 66 0 0.45 135 00:48 22.05.2020
2655 Clouds 12 1028 66 0 0.89 135 00:28 22.05.2020
2656 Clouds 12 1027 67 0 0.89 135 23:43 21.05.2020
2657 Clouds 12 1027 66 0 0.45 135 23:25 21.05.2020
2658 Clouds 12 1027 66 0 0.45 135 22:58 21.05.2020
2659 Clouds 12 1027 66 0 0.45 135 22:58 21.05.2020
2660 Clouds 12 1027 64 0 0.45 135 22:40 21.05.2020
2661 Clouds 12 1027 63 0 0.45 135 22:21 21.05.2020
2662 Clouds 13 1027 62 0 0.45 135 21:59 21.05.2020
2663 Clouds 13 1027 61 0 5.83 129 21:40 21.05.2020
2664 Clouds 13 1027 59 0 0.45 135 21:22 21.05.2020
2665 Clouds 14 1027 56 0 0.45 135 20:45 21.05.2020
2666 Clouds 16 1027 54 0 5.12 120 20:22 21.05.2020
2667 Clouds 17 1027 52 0 5.12 120 19:55 21.05.2020
2668 Clouds 18 1027 52 0 0.45 135 19:36 21.05.2020
2669 Clouds 18 1027 52 0 0.45 135 19:18 21.05.2020
2670 Clouds 19 1027 49 0 0.45 135 18:40 21.05.2020
2671 Clear 14 1024 69 0 3.6 113 18:20 21.05.2020
2672 Clear 14 1024 69 0 3.6 113 17:58 21.05.2020
2673 Clear 14 1024 69 0 3.6 113 17:40 21.05.2020
2674 Clear 14 1024 69 0 3.39 83 17:22 21.05.2020
2675 Clear 19 1027 55 0 3.39 83 16:47 21.05.2020
2676 Clouds 19 1027 55 0 3.39 58 16:24 21.05.2020
2677 Clouds 18 1027 61 0 3.39 58 15:54 21.05.2020
2678 Clouds 19 1028 53 0 1.34 45 15:36 21.05.2020
2679 Clouds 19 1028 52 0 0.45 45 15:18 21.05.2020
2680 Clouds 19 1028 50 0 2.75 41 14:39 21.05.2020
2681 Clear 19 1028 53 0 1.2 42 14:18 21.05.2020
2682 Clear 18 1028 57 0 1.2 42 13:41 21.05.2020
2683 Clear 17 1028 58 0 0.89 45 13:22 21.05.2020
2684 Clear 17 1028 61 0 0.61 164 12:58 21.05.2020
2685 Clear 13 1025 75 0 0.61 164 12:37 21.05.2020
2686 Clear 12 1025 75 0 1.67 183 12:19 21.05.2020
2687 Clear 12 1025 75 0 1.67 183 11:42 21.05.2020
2688 Clear 12 1025 74 0 2.5 179 11:23 21.05.2020
2689 Clear 17 1028 64 0 0.45 180 10:58 21.05.2020
2690 Clear 16 1029 66 0 2.5 179 10:39 21.05.2020
2691 Clear 16 1029 70 0 3.07 175 10:19 21.05.2020
2692 Clear 16 1029 68 0 3.07 175 09:55 21.05.2020
2693 Clouds 11 1026 76 0 2.77 180 09:36 21.05.2020
2694 Clouds 10 1025 77 0 3.2 177 09:18 21.05.2020
2695 Clouds 10 1025 77 0 3.2 177 08:45 21.05.2020
2696 Clouds 12 1029 82 0 3.34 178 08:26 21.05.2020
2697 Clouds 9 1029 82 0 3.34 178 07:47 21.05.2020
2698 Clouds 8 1028 80 0 3.25 177 07:27 21.05.2020
2699 Clouds 6 1028 79 0 3.25 177 06:52 21.05.2020
2700 Clouds 4 1028 78 0 3.5 169 05:58 21.05.2020
2701 Clouds 4 1028 77 0 3.5 169 05:34 21.05.2020
2702 Clouds 6 1028 76 0 3.18 152 03:22 21.05.2020
2703 Clouds 6 1028 76 0 3.18 152 03:22 21.05.2020
2704 Clouds 6 1028 76 0 3.18 152 03:22 21.05.2020
2705 Clouds 6 1028 75 0 3.18 152 02:45 21.05.2020
2706 Clouds 6 1028 75 0 3.03 158 02:26 21.05.2020
2707 Clouds 7 1028 74 0 3.21 173 01:45 21.05.2020
2708 Clouds 7 1028 74 0 3.09 171 01:21 21.05.2020
2709 Clouds 8 1027 74 0 3.09 171 00:52 21.05.2020
2710 Clouds 8 1028 75 0 2.72 163 00:23 21.05.2020
2711 Clouds 9 1027 75 0 2.72 163 23:44 20.05.2020
2712 Clouds 9 1027 72 0 2.28 152 23:21 20.05.2020
2713 Clouds 9 1027 69 0 2.28 152 22:58 20.05.2020
2714 Clouds 10 1027 68 0 2.28 152 22:39 20.05.2020
2715 Clouds 11 1027 67 0 1.59 151 22:21 20.05.2020
2716 Clouds 11 1024 81 0 1.59 151 21:41 20.05.2020
2717 Clouds 13 1027 63 0 1.27 164 21:23 20.05.2020
2718 Clouds 11 1024 79 0 1.27 164 20:55 20.05.2020
2719 Clouds 11 1024 79 0 1.27 164 20:37 20.05.2020
2720 Clouds 11 1023 75 0 0.58 237 20:19 20.05.2020
2721 Clouds 11 1023 75 0 0.58 237 19:39 20.05.2020
2722 Clouds 16 1026 57 0 0.89 22 19:20 20.05.2020
2723 Clouds 16 1026 56 0 1.5 296 18:57 20.05.2020
2724 Clouds 16 1026 57 0 1.5 296 18:38 20.05.2020
2725 Clouds 16 1026 58 0 1.92 300 18:20 20.05.2020
2726 Clouds 16 1026 58 0 1.92 300 17:38 20.05.2020
2727 Clouds 16 1026 61 0 0.45 45 17:19 20.05.2020
2728 Clouds 16 1026 61 0 0.45 45 16:42 20.05.2020
2729 Clouds 16 1026 59 0 0.45 45 16:23 20.05.2020
2730 Clouds 16 1026 61 0 2 306 15:58 20.05.2020
2731 Clouds 16 1026 60 0 0.45 45 15:40 20.05.2020
2732 Clear 17 1026 58 0 0.45 45 15:22 20.05.2020
2733 Clear 17 1026 57 0 0.89 22 14:43 20.05.2020
2734 Clouds 17 1026 58 0 0.45 22 14:21 20.05.2020
2735 Clouds 17 1026 58 0 2.49 308 13:41 20.05.2020
2736 Clouds 17 1026 60 0 0.45 22 13:20 20.05.2020
2737 Clouds 16 1026 60 0 0.45 0 12:58 20.05.2020
2738 Clouds 17 1026 58 0 0.89 45 12:39 20.05.2020
2739 Clouds 16 1026 60 0 0.45 22 12:19 20.05.2020
2740 Clouds 15 1026 64 0 0.45 337 11:36 20.05.2020
2741 Clouds 15 1026 64 0 0.45 337 11:36 20.05.2020
2742 Clouds 14 1026 67 0 3.81 331 11:18 20.05.2020
2743 Clouds 14 1026 67 0 3.81 331 11:18 20.05.2020
2744 Clouds 14 1026 72 0 3.81 331 10:43 20.05.2020
2745 Clear 14 1026 75 0 0.45 22 10:20 20.05.2020
2746 Clear 13 1026 78 0 0.45 45 09:46 20.05.2020
2747 Clear 13 1026 78 0 0.45 45 09:46 20.05.2020
2748 Clear 13 1026 81 0 0.45 315 09:22 20.05.2020
2749 Clear 13 1026 81 0 0.45 315 09:22 20.05.2020
2750 Clear 12 1026 82 0 0.45 315 08:59 20.05.2020
2751 Clear 12 1025 83 0 0.45 292 08:41 20.05.2020
2752 Clouds 11 1025 85 0 0.45 292 08:19 20.05.2020
2753 Clouds 10 1025 85 0 0.89 292 07:49 20.05.2020
2754 Clouds 8 1025 82 0 3.67 336 07:22 20.05.2020
2755 Clouds 6 1025 81 0 3.67 336 06:46 20.05.2020
2756 Clouds 6 1025 80 0 3.34 335 05:39 20.05.2020
2757 Clouds 6 1024 79 0 3.21 333 04:37 20.05.2020
2758 Clouds 6 1024 78 0 2.99 335 03:55 20.05.2020
2759 Clouds 6 1024 78 0 2.85 339 03:25 20.05.2020
2760 Clouds 8 1024 76 0 3.6 322 01:33 20.05.2020
2761 Clouds 8 1024 76 0 4.2 324 00:57 20.05.2020
2762 Clouds 8 1024 75 0 4.2 324 00:37 20.05.2020
2763 Clear 9 1024 75 0 4.69 322 00:19 20.05.2020
2764 Clear 10 1024 74 0 4.69 322 23:36 19.05.2020
2765 Clear 11 1024 75 0 5.43 318 23:18 19.05.2020
2766 Clear 11 1024 74 0 5.43 318 22:54 19.05.2020
2767 Clear 12 1023 74 0 5.43 318 22:36 19.05.2020
2768 Clear 12 1023 72 0 5.94 316 22:18 19.05.2020
2769 Clear 12 1023 72 0 5.94 316 21:54 19.05.2020
2770 Clear 13 1023 70 0 4.96 312 21:36 19.05.2020
2771 Clear 14 1023 70 0 0.45 315 21:18 19.05.2020
2772 Clear 14 1022 68 0 0.45 315 20:54 19.05.2020
2773 Clear 16 1022 66 0 5.18 314 20:36 19.05.2020
2774 Clear 16 1022 64 0 0.45 315 20:18 19.05.2020
2775 Clear 17 1022 63 0 1.34 22 19:37 19.05.2020
2776 Clear 17 1022 63 0 0.89 315 19:19 19.05.2020
2777 Clear 17 1022 64 0 6.25 310 18:44 19.05.2020
2778 Clear 18 1022 62 0 0.89 292 18:22 19.05.2020
2779 Clear 18 1021 63 0 0.45 337 17:57 19.05.2020
2780 Clear 18 1021 62 0 0.89 292 17:39 19.05.2020
2781 Clear 18 1021 59 0 6.19 302 17:20 19.05.2020
2782 Clear 18 1021 58 0 0.45 315 16:41 19.05.2020
2783 Clear 18 1021 61 0 1.34 292 16:23 19.05.2020
2784 Clear 12 1018 74 0 6.55 299 15:58 19.05.2020
2785 Clear 18 1021 63 0 0.45 292 15:39 19.05.2020
2786 Clear 18 1021 65 0 0.89 337 15:20 19.05.2020
2787 Clear 17 1021 65 0 1.34 315 14:54 19.05.2020
2788 Clear 17 1021 71 0 0.89 292 14:36 19.05.2020
2789 Clouds 16 1021 74 0 2.24 315 14:18 19.05.2020
2790 Clouds 15 1021 81 0 2.24 292 13:55 19.05.2020
2791 Clouds 14 1021 78 0 1.79 315 13:36 19.05.2020
2792 Rain 14 1021 80 0 2.24 292 13:18 19.05.2020
2793 Rain 13 1021 82 0 1.34 292 12:55 19.05.2020
2794 Rain 14 1021 82 0 1.79 292 12:36 19.05.2020
2795 Rain 14 1021 82 0 1.79 337 12:18 19.05.2020
2796 Rain 14 1020 81 0 1.79 292 11:41 19.05.2020
2797 Rain 14 1020 79 0 1.34 292 11:22 19.05.2020
2798 Rain 14 1020 79 0 1.34 292 11:22 19.05.2020
2799 Rain 14 1020 79 0 1.34 292 11:22 19.05.2020
2800 Rain 14 1020 81 0 1.34 315 10:56 19.05.2020
2801 Rain 14 1020 81 0 1.79 315 10:38 19.05.2020
2802 Clouds 13 1020 85 0 1.79 292 10:18 19.05.2020
2803 Clouds 13 1020 87 0 1.79 292 09:43 19.05.2020
2804 Clouds 12 1020 88 0 0.45 292 09:24 19.05.2020
2805 Clouds 12 1020 89 0 0.45 292 08:47 19.05.2020
2806 Clouds 12 1020 89 0 0.89 247 08:25 19.05.2020
2807 Clouds 11 1020 90 0 0.89 292 07:48 19.05.2020
2808 Clouds 11 1020 90 0 0.45 292 07:27 19.05.2020
2809 Clouds 11 1020 91 0 0.89 270 06:55 19.05.2020
2810 Clouds 11 1020 91 0 0.45 292 06:31 19.05.2020
2811 Clouds 11 1020 91 0 0.89 225 05:43 19.05.2020
2812 Clouds 11 1020 90 0 9.97 268 05:23 19.05.2020
2813 Clouds 11 1020 90 0 1.34 270 04:36 19.05.2020
2814 Clouds 12 1020 86 0 0.45 292 02:50 19.05.2020
2815 Clouds 12 1021 84 0 0.45 315 00:49 19.05.2020
2816 Clouds 12 1021 84 0 0.45 292 00:31 19.05.2020
2817 Clouds 12 1021 84 0 0.89 315 23:59 18.05.2020
2818 Clouds 12 1021 84 0 9.58 265 23:40 18.05.2020
2819 Clouds 13 1021 83 0 0.45 292 23:20 18.05.2020
2820 Clouds 13 1021 83 0 0.45 292 22:56 18.05.2020
2821 Clouds 13 1021 83 0 0.45 292 22:38 18.05.2020
2822 Clouds 13 1021 84 0 0.89 315 22:19 18.05.2020
2823 Clouds 13 1021 85 0 0.45 292 21:42 18.05.2020
2824 Clouds 13 1021 85 0 9.81 270 21:21 18.05.2020
2825 Clouds 13 1021 85 0 0.45 292 20:57 18.05.2020
2826 Clouds 13 1021 85 0 0.45 292 20:37 18.05.2020
2827 Clouds 13 1021 85 0 10.06 267 20:19 18.05.2020
2828 Clouds 13 1021 85 0 10.06 267 20:19 18.05.2020
2829 Clouds 13 1021 85 0 0.89 247 19:55 18.05.2020
2830 Clouds 13 1021 86 0 0.89 315 19:37 18.05.2020
2831 Clouds 13 1021 87 0 0.89 292 19:18 18.05.2020
2832 Clouds 13 1021 86 0 0.89 315 18:43 18.05.2020
2833 Rain 13 1021 84 0 0.45 270 18:21 18.05.2020
2834 Rain 13 1021 85 0 9.3 251 17:39 18.05.2020
2835 Rain 13 1022 85 0 9.37 249 17:18 18.05.2020
2836 Rain 13 1022 85 0 9.37 249 16:56 18.05.2020
2837 Rain 13 1022 86 0 9.37 249 16:37 18.05.2020
2838 Rain 13 1022 86 0 0.45 270 16:18 18.05.2020
2839 Rain 13 1022 85 0 0.45 270 15:55 18.05.2020
2840 Rain 13 1022 83 0 0.45 270 15:37 18.05.2020
2841 Rain 13 1022 83 0 0.45 315 15:18 18.05.2020
2842 Rain 13 1022 83 0 2.24 315 14:43 18.05.2020
2843 Rain 14 1022 82 0 8.35 247 14:24 18.05.2020
2844 Rain 13 1022 82 0 8.93 250 13:57 18.05.2020
2845 Rain 13 1022 80 0 1.79 315 13:39 18.05.2020
2846 Rain 14 1022 75 0 0.89 292 13:19 18.05.2020
2847 Rain 14 1022 72 0 8.7 250 12:56 18.05.2020
2848 Rain 10 1018 94 0 8.7 250 12:37 18.05.2020
2849 Rain 10 1018 93 0 8.64 253 12:18 18.05.2020
2850 Rain 10 1018 93 0 8.64 253 11:47 18.05.2020
2851 Rain 14 1022 72 0 0.45 292 11:27 18.05.2020
2852 Rain 14 1022 73 0 0.89 292 10:58 18.05.2020
2853 Rain 14 1022 73 0 0.89 315 10:40 18.05.2020
2854 Rain 13 1022 78 0 0.45 292 10:22 18.05.2020
2855 Rain 12 1022 83 0 0.45 247 09:44 18.05.2020
2856 Clouds 12 1023 83 0 0.45 247 09:25 18.05.2020
2857 Clouds 11 1022 86 0 9.74 262 08:45 18.05.2020
2858 Clouds 11 1022 86 0 10.24 265 08:27 18.05.2020
2859 Clouds 11 1022 84 0 10.24 265 07:58 18.05.2020
2860 Clouds 11 1022 83 0 0.45 292 07:38 18.05.2020
2861 Clouds 11 1022 81 0 0.89 292 07:18 18.05.2020
2862 Clouds 11 1022 81 0 0.45 292 06:43 18.05.2020
2863 Rain 11 1022 80 0 2.24 270 05:49 18.05.2020
2864 Clouds 11 1022 79 0 0.89 315 05:25 18.05.2020
2865 Clouds 11 1021 75 0 0.89 270 03:34 18.05.2020
2866 Clouds 11 1021 73 0 0.89 292 02:30 18.05.2020
2867 Clouds 12 1021 72 0 1.34 292 01:23 18.05.2020
2868 Clouds 12 1021 70 0 1.79 292 00:27 18.05.2020
2869 Clouds 12 1021 68 0 1.79 270 23:58 17.05.2020
2870 Clouds 12 1021 68 0 2.24 292 23:40 17.05.2020
2871 Clouds 12 1021 68 0 0.89 292 23:20 17.05.2020
2872 Clouds 13 1021 67 0 1.79 270 22:57 17.05.2020
2873 Clouds 13 1021 65 0 0.89 292 22:38 17.05.2020
2874 Clouds 13 1021 60 0 0.89 315 22:20 17.05.2020
2875 Clouds 14 1021 59 0 0.45 292 21:57 17.05.2020
2876 Clouds 14 1021 58 0 2.24 315 21:39 17.05.2020
2877 Clouds 14 1021 57 0 1.79 292 21:19 17.05.2020
2878 Clouds 14 1021 56 0 0.45 247 20:42 17.05.2020
2879 Clouds 14 1021 57 0 0.45 292 20:22 17.05.2020
2880 Clouds 14 1021 58 0 0.89 292 19:58 17.05.2020
2881 Clouds 14 1021 57 0 1.34 292 19:40 17.05.2020
2882 Clouds 15 1021 55 0 1.34 292 19:21 17.05.2020
2883 Clouds 15 1021 54 0 2.24 292 18:55 17.05.2020
2884 Clouds 16 1021 51 0 2.68 315 18:37 17.05.2020
2885 Clouds 16 1021 48 0 1.79 292 18:19 17.05.2020
2886 Clouds 17 1021 46 0 1.79 270 17:40 17.05.2020
2887 Clouds 12 1017 74 0 11.58 263 17:21 17.05.2020
2888 Clouds 12 1017 74 0 11.58 263 16:55 17.05.2020
2889 Clouds 12 1017 74 0 11.58 263 16:37 17.05.2020
2890 Clouds 17 1021 48 0 0.45 270 16:19 17.05.2020
2891 Clouds 16 1022 51 0 0.45 292 15:41 17.05.2020
2892 Clouds 17 1022 50 0 0.89 270 15:23 17.05.2020
2893 Clouds 11 1017 74 0 11.72 260 14:57 17.05.2020
2894 Clouds 11 1017 74 0 11.72 260 14:38 17.05.2020
2895 Clear 17 1022 53 0 2.68 337 14:19 17.05.2020
2896 Clear 17 1022 53 0 2.68 337 14:19 17.05.2020
2897 Clear 16 1023 57 0 1.79 315 13:41 17.05.2020
2898 Clear 16 1022 60 0 1.34 292 13:20 17.05.2020
2899 Clouds 7 1021 82 0 0.45 292 05:22 17.05.2020
2900 Clouds 9 1021 76 0 0.45 292 03:31 17.05.2020
2901 Clouds 9 1020 77 0 9.78 280 02:26 17.05.2020
2902 Clouds 9 1020 77 0 0.89 292 01:54 17.05.2020
2903 Clouds 8 1020 75 0 8.93 277 00:48 17.05.2020
2904 Clouds 9 1020 75 0 8.93 277 00:30 17.05.2020
2905 Clouds 9 1020 73 0 8.24 275 23:56 16.05.2020
2906 Clouds 10 1021 73 0 8.24 275 23:38 16.05.2020
2907 Clouds 10 1021 73 0 7.6 271 23:18 16.05.2020
2908 Clouds 10 1021 71 0 7.6 271 22:42 16.05.2020
2909 Clouds 11 1021 70 0 7.33 269 22:22 16.05.2020
2910 Clouds 11 1021 69 0 7.33 269 21:58 16.05.2020
2911 Clouds 11 1021 68 0 7.33 269 21:39 16.05.2020
2912 Clear 12 1021 65 0 0.45 292 21:21 16.05.2020
2913 Clear 12 1020 64 0 8.34 270 20:56 16.05.2020
2914 Clear 12 1021 61 0 8.34 270 20:38 16.05.2020
2915 Clouds 13 1020 60 0 9.51 266 20:19 16.05.2020
2916 Clouds 13 1021 58 0 0.45 292 19:43 16.05.2020
2917 Clouds 13 1020 56 0 1.34 315 19:23 16.05.2020
2918 Clouds 14 1021 56 0 0.89 315 18:59 16.05.2020
2919 Clouds 14 1021 56 0 1.34 292 18:41 16.05.2020
2920 Clouds 14 1021 56 0 0.89 292 18:22 16.05.2020
2921 Clouds 14 1021 54 0 1.79 292 17:42 16.05.2020
2922 Clouds 13 1021 56 0 1.34 270 17:22 16.05.2020
2923 Clouds 13 1021 54 0 3.13 315 16:59 16.05.2020
2924 Clouds 13 1021 53 0 3.13 292 16:39 16.05.2020
2925 Clouds 14 1021 54 0 0.89 292 16:19 16.05.2020
2926 Clouds 15 1021 53 0 2.24 292 15:55 16.05.2020
2927 Clouds 13 1021 58 0 1.79 270 15:37 16.05.2020
2928 Clouds 13 1021 58 0 0.89 292 15:18 16.05.2020
2929 Clouds 14 1021 55 0 2.68 292 14:42 16.05.2020
2930 Clouds 15 1021 55 0 1.34 292 14:20 16.05.2020
2931 Clouds 14 1021 54 0 1.79 315 13:57 16.05.2020
2932 Clouds 11 1017 76 0 13.05 264 13:38 16.05.2020
2933 Clouds 15 1021 55 0 2.24 315 13:20 16.05.2020
2934 Clouds 15 1021 56 0 0.89 292 12:44 16.05.2020
2935 Clouds 10 1016 75 0 13.02 262 12:20 16.05.2020
2936 Clouds 10 1016 75 0 13.02 262 11:56 16.05.2020
2937 Clouds 13 1021 61 0 2.24 247 11:38 16.05.2020
2938 Clouds 13 1021 64 0 2.24 315 11:19 16.05.2020
2939 Clouds 12 1021 67 0 0.45 292 10:55 16.05.2020
2940 Clouds 12 1021 68 0 1.79 292 10:36 16.05.2020
2941 Clouds 12 1022 69 0 1.34 247 10:18 16.05.2020
2942 Clouds 11 1022 74 0 1.34 270 09:43 16.05.2020
2943 Rain 11 1022 75 0 1.34 315 09:25 16.05.2020
2944 Rain 9 1022 82 0 0.89 270 08:43 16.05.2020
2945 Rain 8 1022 85 0 0.45 247 08:21 16.05.2020
2946 Rain 8 1022 86 0 1.34 292 07:46 16.05.2020
2947 Rain 7 1021 87 0 1.79 292 07:27 16.05.2020
2948 Rain 7 1022 88 0 0.45 292 06:59 16.05.2020
2949 Rain 6 1021 88 0 1.34 315 06:41 16.05.2020
2950 Rain 6 1021 88 0 1.34 315 06:18 16.05.2020
2951 Rain 6 1021 88 0 12.49 272 05:38 16.05.2020
2952 Rain 6 1021 86 0 0.45 225 03:58 16.05.2020
2953 Clouds 7 1021 85 0 0.45 270 02:59 16.05.2020
2954 Clouds 7 1021 84 0 11.34 283 02:22 16.05.2020
2955 Clouds 8 1021 83 0 0.89 225 01:54 16.05.2020
2956 Clouds 7 1021 83 0 0.89 292 01:27 16.05.2020
2957 Clouds 8 1021 78 0 11.61 286 00:51 16.05.2020
2958 Clouds 8 1021 77 0 0.45 247 00:23 16.05.2020
2959 Clouds 8 1021 76 0 11.57 287 23:56 15.05.2020
2960 Clouds 9 1021 75 0 11.57 287 23:37 15.05.2020
2961 Clouds 9 1021 75 0 10.16 286 23:18 15.05.2020
2962 Clouds 9 1020 74 0 10.16 286 22:40 15.05.2020
2963 Clouds 9 1020 74 0 9.99 287 22:20 15.05.2020
2964 Clouds 10 1020 72 0 0.45 315 21:40 15.05.2020
2965 Clouds 10 1020 70 0 1.79 315 21:22 15.05.2020
2966 Clouds 10 1020 70 0 1.34 292 20:59 15.05.2020
2967 Clouds 10 1020 70 0 1.34 292 20:59 15.05.2020
2968 Clouds 10 1020 69 0 0.89 270 20:41 15.05.2020
2969 Clouds 11 1020 70 0 0.45 270 20:23 15.05.2020
2970 Clouds 11 1020 70 0 0.89 292 19:59 15.05.2020
2971 Clouds 11 1020 70 0 1.34 315 19:41 15.05.2020
2972 Clouds 11 1020 69 0 0.45 292 19:22 15.05.2020
2973 Clouds 11 1020 67 0 0.45 292 18:47 15.05.2020
2974 Clouds 11 1020 67 0 0.89 292 18:27 15.05.2020
2975 Clouds 11 1020 65 0 1.34 292 17:57 15.05.2020
2976 Clouds 11 1020 63 0 0.89 315 17:36 15.05.2020
2977 Clouds 11 1020 63 0 0.89 315 17:18 15.05.2020
2978 Clouds 12 1020 61 0 2.24 292 16:54 15.05.2020
2979 Clouds 13 1019 53 0 1.34 292 16:36 15.05.2020
2980 Clouds 14 1020 54 0 2.68 292 16:18 15.05.2020
2981 Clouds 14 1019 53 0 0.45 337 15:40 15.05.2020
2982 Clouds 13 1019 54 0 1.79 315 15:20 15.05.2020
2983 Clouds 10 1016 73 0 10.59 262 14:56 15.05.2020
2984 Clouds 13 1020 61 0 11.13 263 14:38 15.05.2020
2985 Clouds 12 1020 62 0 11 261 14:19 15.05.2020
2986 Clouds 13 1020 59 0 0.45 270 13:42 15.05.2020
2987 Clouds 13 1020 60 0 0.89 292 13:22 15.05.2020
2988 Clouds 12 1020 57 0 0.45 292 12:56 15.05.2020
2989 Clouds 13 1020 53 0 0.89 315 12:36 15.05.2020
2990 Clouds 9 1016 77 0 10.61 255 12:18 15.05.2020
2991 Clouds 13 1020 52 0 1.34 292 11:56 15.05.2020
2992 Clouds 13 1020 53 0 0.45 337 11:37 15.05.2020
2993 Rain 12 1021 53 0 0.89 225 11:18 15.05.2020
2994 Rain 12 1021 55 0 0.89 337 10:54 15.05.2020
2995 Rain 11 1021 58 0 1.34 315 10:36 15.05.2020
2996 Rain 11 1021 59 0 2.68 292 10:18 15.05.2020
2997 Rain 11 1021 65 0 0.45 315 09:39 15.05.2020
2998 Clear 10 1022 71 0 0.89 292 09:19 15.05.2020
2999 Clear 9 1022 73 0 0.89 270 08:58 15.05.2020
3000 Clear 9 1022 80 0 8.71 262 08:37 15.05.2020
3001 Clear 8 1022 82 0 8.64 269 08:19 15.05.2020
3002 Clear 7 1022 83 0 8.64 269 07:44 15.05.2020
3003 Clear 6 1022 83 0 0.45 292 07:25 15.05.2020
3004 Clear 4 1022 81 0 8.25 271 06:56 15.05.2020
3005 Clear 3 1021 77 0 7.44 273 05:53 15.05.2020
3006 Clear 3 1021 76 0 6.72 284 04:29 15.05.2020
3007 Clear 3 1021 75 0 6.72 284 03:48 15.05.2020
3008 Clear 3 1022 72 0 6.22 289 02:40 15.05.2020
3009 Clear 3 1022 71 0 6.41 286 01:31 15.05.2020
3010 Clear 4 1022 70 0 5.4 287 00:57 15.05.2020
3011 Clear 4 1022 69 0 5.4 287 00:38 15.05.2020
3012 Clear 4 1022 69 0 5.09 293 00:20 15.05.2020
3013 Clear 4 1022 67 0 5.09 293 23:40 14.05.2020
3014 Clear 4 1022 67 0 5.09 293 23:40 14.05.2020
3015 Clear 5 1022 66 0 5.39 300 23:18 14.05.2020
3016 Clear 6 1022 65 0 5.39 300 22:41 14.05.2020
3017 Clear 6 1022 64 0 5.87 299 22:21 14.05.2020
3018 Clear 7 1022 63 0 5.87 299 21:58 14.05.2020
3019 Clear 7 1022 63 0 5.87 299 21:40 14.05.2020
3020 Clear 8 1022 59 0 5.81 291 21:19 14.05.2020
3021 Clear 9 1021 57 0 5.81 291 20:56 14.05.2020
3022 Clear 11 1021 53 0 0.45 292 20:38 14.05.2020
3023 Clear 11 1022 51 0 6.37 292 20:18 14.05.2020
3024 Clear 9 1018 68 0 6.37 292 19:55 14.05.2020
3025 Clear 9 1018 68 0 6.37 292 19:37 14.05.2020
3026 Clear 9 1018 64 0 7.01 294 19:19 14.05.2020
3027 Clear 9 1018 64 0 7.01 294 18:54 14.05.2020
3028 Clear 9 1018 64 0 7.01 294 18:36 14.05.2020
3029 Clear 9 1018 63 0 7.37 297 18:18 14.05.2020
3030 Clear 9 1018 63 0 7.37 297 17:55 14.05.2020
3031 Clear 13 1022 51 0 7.37 297 17:36 14.05.2020
3032 Clear 12 1022 48 0 1.79 315 17:18 14.05.2020
3033 Clear 13 1022 49 0 0.89 315 16:39 14.05.2020
3034 Clear 13 1022 48 0 1.34 292 16:20 14.05.2020
3035 Clear 13 1022 50 0 1.34 0 15:57 14.05.2020
3036 Clear 12 1022 51 0 1.79 292 15:39 14.05.2020
3037 Clear 12 1022 52 0 1.34 315 15:19 14.05.2020
3038 Clear 12 1022 50 0 1.79 315 14:56 14.05.2020
3039 Clear 12 1022 52 0 8.53 297 14:38 14.05.2020
3040 Clear 12 1022 51 0 1.79 292 14:19 14.05.2020
3041 Clear 12 1022 51 0 1.79 0 13:55 14.05.2020
3042 Clear 12 1022 52 0 0.89 292 13:37 14.05.2020
3043 Clear 12 1022 52 0 0.45 292 13:18 14.05.2020
3044 Clear 13 1022 52 0 0.89 337 12:56 14.05.2020
3045 Clear 12 1022 54 0 0.45 337 12:37 14.05.2020
3046 Clear 11 1021 61 0 0.45 315 12:18 14.05.2020
3047 Clear 11 1021 60 0 0.89 0 11:55 14.05.2020
3048 Clear 11 1021 61 0 0.89 337 11:37 14.05.2020
3049 Clear 11 1021 61 0 6.57 300 11:19 14.05.2020
3050 Clear 11 1021 62 0 6.57 300 10:41 14.05.2020
3051 Clear 11 1021 62 0 6.57 300 10:41 14.05.2020
3052 Clear 11 1021 66 0 6.6 305 10:22 14.05.2020
3053 Clear 11 1021 64 0 1.34 315 09:45 14.05.2020
3054 Clear 7 1016 64 0 6.09 314 09:25 14.05.2020
3055 Clear 9 1021 66 0 0.89 292 08:59 14.05.2020
3056 Clear 9 1020 68 0 0.45 0 08:37 14.05.2020
3057 Clear 8 1020 72 0 6.2 315 08:18 14.05.2020
3058 Clear 8 1020 76 0 0.45 292 07:44 14.05.2020
3059 Clear 7 1020 73 0 4.66 317 07:21 14.05.2020
3060 Clear 7 1019 69 0 4.66 317 06:43 14.05.2020
3061 Clear 7 1019 69 0 3.67 337 06:24 14.05.2020
3062 Clear 6 1019 69 0 3.67 337 05:42 14.05.2020
3063 Clear 6 1018 68 0 0.45 45 04:46 14.05.2020
3064 Clear 6 1018 74 0 4.46 12 03:43 14.05.2020
3065 Clear 5 1018 80 0 4.89 20 03:20 14.05.2020
3066 Clear 4 1018 83 0 4.89 20 02:36 14.05.2020
3067 Clouds 6 1017 83 0 5.37 18 01:52 14.05.2020
3068 Clouds 6 1017 83 0 4.91 24 00:54 14.05.2020
3069 Clouds 6 1017 83 0 3.68 24 00:28 14.05.2020
3070 Clouds 6 1017 83 0 3.68 24 23:55 13.05.2020
3071 Clouds 7 1017 82 0 3.68 24 23:37 13.05.2020
3072 Clouds 7 1017 82 0 2.77 31 23:18 13.05.2020
3073 Clouds 7 1017 81 0 2.77 31 22:41 13.05.2020
3074 Clouds 7 1017 81 0 2.84 34 22:22 13.05.2020
3075 Clouds 8 1017 80 0 2.84 34 21:59 13.05.2020
3076 Clouds 8 1017 80 0 2.84 34 21:40 13.05.2020
3077 Clouds 8 1017 80 0 2.98 41 21:19 13.05.2020
3078 Clear 8 1017 80 0 3.43 13 20:56 13.05.2020
3079 Clear 8 1016 79 0 3.43 13 20:38 13.05.2020
3080 Clouds 8 1016 80 0 3.28 21 20:19 13.05.2020
3081 Clouds 9 1016 79 0 3.28 21 19:42 13.05.2020
3082 Clouds 9 1016 78 0 3.44 30 19:24 13.05.2020
3083 Clouds 9 1016 77 0 3.44 30 18:45 13.05.2020
3084 Clouds 8 1016 80 0 2.83 27 18:22 13.05.2020
3085 Clouds 8 1016 80 0 2.83 27 17:59 13.05.2020
3086 Clouds 8 1016 79 0 2.83 27 17:38 13.05.2020
3087 Clouds 9 1016 78 0 2.49 21 17:18 13.05.2020
3088 Clouds 9 1016 78 0 2.49 21 17:18 13.05.2020
3089 Clouds 9 1016 74 0 2.49 21 16:41 13.05.2020
3090 Clouds 11 1017 73 0 2.68 18 16:20 13.05.2020
3091 Clouds 11 1017 73 0 2.68 18 15:59 13.05.2020
3092 Clouds 11 1016 74 0 2.68 18 15:41 13.05.2020
3093 Clouds 10 1017 76 0 0.45 157 15:18 13.05.2020
3094 Clouds 10 1017 74 0 1.34 67 14:56 13.05.2020
3095 Clouds 10 1017 74 0 3.09 10 14:38 13.05.2020
3096 Clouds 10 1017 72 0 2.95 40 14:19 13.05.2020
3097 Clouds 11 1017 70 0 2.95 40 13:55 13.05.2020
3098 Clouds 11 1016 69 0 2.95 40 13:37 13.05.2020
3099 Clouds 11 1016 67 0 5.94 35 13:19 13.05.2020
3100 Clouds 10 1017 70 0 5.94 35 12:42 13.05.2020
3101 Rain 11 1017 73 0 6.96 21 12:21 13.05.2020
3102 Rain 9 1017 75 0 6.96 21 11:57 13.05.2020
3103 Rain 9 1017 75 0 6.96 21 11:57 13.05.2020
3104 Rain 8 1016 78 0 6.96 21 11:38 13.05.2020
3105 Rain 8 1016 78 0 0.45 45 11:20 13.05.2020
3106 Rain 8 1016 78 0 1.79 45 10:59 13.05.2020
3107 Rain 9 1016 81 0 2.89 326 10:38 13.05.2020
3108 Rain 9 1016 77 0 2.61 266 10:20 13.05.2020
3109 Rain 9 1016 77 0 0.45 0 09:57 13.05.2020
3110 Rain 8 1016 80 0 0.45 292 09:38 13.05.2020
3111 Rain 8 1016 81 0 0.45 270 09:20 13.05.2020
3112 Rain 7 1015 84 0 0.45 292 08:40 13.05.2020
3113 Clouds 7 1015 85 0 2.72 276 08:21 13.05.2020
3114 Clouds 6 1015 87 0 0.45 315 07:58 13.05.2020
3115 Clouds 6 1015 88 0 0.89 270 07:36 13.05.2020
3116 Clouds 6 1015 88 0 0.89 270 06:58 13.05.2020
3117 Clouds 6 1015 88 0 3.79 289 06:40 13.05.2020
3118 Clouds 6 1015 87 0 5.05 294 05:50 13.05.2020
3119 Clouds 6 1015 86 0 6.21 292 04:22 13.05.2020
3120 Clouds 6 1015 86 0 0.89 270 02:58 13.05.2020
3121 Clouds 6 1015 85 0 7.58 293 01:47 13.05.2020
3122 Clouds 6 1015 85 0 7.68 295 01:21 13.05.2020
3123 Clouds 6 1015 84 0 7.68 295 00:39 13.05.2020
3124 Clouds 6 1016 85 0 7.64 294 00:18 13.05.2020
3125 Clouds 6 1015 83 0 7.64 294 23:39 12.05.2020
3126 Clouds 6 1015 84 0 7.86 294 23:20 12.05.2020
3127 Clouds 6 1016 84 0 0.89 292 22:55 12.05.2020
3128 Clouds 7 1015 82 0 1.79 315 22:36 12.05.2020
3129 Rain 7 1016 80 0 0.45 292 22:18 12.05.2020
3130 Rain 7 1016 78 0 0.89 270 21:54 12.05.2020
3131 Clouds 7 1015 74 0 0.89 225 21:36 12.05.2020
3132 Rain 7 1015 73 0 0.89 225 21:18 12.05.2020
3133 Rain 8 1015 73 0 0.89 292 20:55 12.05.2020
3134 Rain 8 1015 73 0 7.82 297 20:36 12.05.2020
3135 Rain 8 1015 73 0 0.89 225 20:18 12.05.2020
3136 Rain 8 1015 73 0 11.52 295 19:54 12.05.2020
3137 Rain 8 1015 72 0 1.34 292 19:36 12.05.2020
3138 Rain 9 1015 72 0 10.45 278 19:18 12.05.2020
3139 Rain 9 1015 73 0 0.89 247 18:41 12.05.2020
3140 Rain 8 1015 74 0 0.45 292 18:23 12.05.2020
3141 Rain 8 1015 71 0 0.45 270 17:54 12.05.2020
3142 Rain 10 1015 60 0 0.89 292 17:36 12.05.2020
3143 Clouds 10 1015 56 0 10.96 254 17:18 12.05.2020
3144 Clouds 11 1015 54 0 1.34 337 16:42 12.05.2020
3145 Clouds 13 1015 49 0 10.15 257 16:21 12.05.2020
3146 Clouds 9 1011 67 0 10.15 257 15:55 12.05.2020
3147 Clouds 9 1011 67 0 10.15 257 15:36 12.05.2020
3148 Clouds 12 1016 54 0 10.06 257 15:18 12.05.2020
3149 Clouds 9 1011 65 0 10.06 257 14:55 12.05.2020
3150 Clouds 10 1017 63 0 0.89 292 14:36 12.05.2020
3151 Clouds 10 1017 63 0 1.79 0 14:18 12.05.2020
3152 Clouds 9 1017 64 0 1.79 292 13:55 12.05.2020
3153 Clouds 9 1017 63 0 3.13 292 13:37 12.05.2020
3154 Clouds 11 1017 63 0 1.34 292 13:18 12.05.2020
3155 Clouds 9 1017 70 0 1.79 315 12:56 12.05.2020
3156 Clouds 8 1018 72 0 3.13 292 12:37 12.05.2020
3157 Clouds 8 1018 74 0 1.34 292 12:19 12.05.2020
3158 Clouds 8 1018 72 0 1.34 292 11:56 12.05.2020
3159 Clouds 7 1018 79 0 0.89 292 11:37 12.05.2020
3160 Clouds 8 1018 72 0 0.89 315 11:19 12.05.2020
3161 Clouds 8 1017 77 0 0.89 292 10:55 12.05.2020
3162 Clouds 8 1017 77 0 0.89 292 10:55 12.05.2020
3163 Clouds 7 1018 76 0 0.89 22 10:36 12.05.2020
3164 Clouds 7 1018 77 0 0.45 315 10:18 12.05.2020
3165 Clouds 6 1018 77 0 2.24 315 09:55 12.05.2020
3166 Clouds 8 1017 68 0 0.89 292 09:37 12.05.2020
3167 Clear 7 1013 69 0 9.63 284 09:19 12.05.2020
3168 Clear 8 1017 70 0 9.46 284 08:39 12.05.2020
3169 Clear 6 1017 75 0 1.79 247 08:21 12.05.2020
3170 Clear 5 1017 75 0 0.89 292 07:45 12.05.2020
3171 Clear 4 1017 75 0 8.55 280 07:27 12.05.2020
3172 Clear 3 1017 74 0 8.55 280 06:56 12.05.2020
3173 Clear 2 1017 72 0 0.45 270 06:37 12.05.2020
3174 Clear 2 1017 71 0 7.69 279 06:19 12.05.2020
3175 Clear 1 1017 70 0 7.69 279 05:45 12.05.2020
3176 Clear 3 1016 68 0 6.38 311 03:55 12.05.2020
3177 Clear 3 1016 67 0 0.45 292 03:18 12.05.2020
3178 Clear 7 1012 56 0 7.52 330 02:27 12.05.2020
3179 Clear 7 1012 56 0 7.52 330 02:27 12.05.2020
3180 Clear 7 1012 56 0 7.98 329 01:35 12.05.2020
3181 Clear 8 1012 56 0 8.69 332 00:58 12.05.2020
3182 Clear 7 1014 59 0 0.45 337 00:24 12.05.2020
3183 Clear 8 1011 56 0 9.02 337 23:57 11.05.2020
3184 Clear 7 1014 56 0 1.79 22 23:37 11.05.2020
3185 Clear 7 1014 56 0 0.89 45 23:19 11.05.2020
3186 Clear 7 1014 57 0 0.89 45 22:56 11.05.2020
3187 Clear 7 1014 57 0 0.89 45 22:56 11.05.2020
3188 Clear 7 1013 55 0 0.45 337 22:38 11.05.2020
3189 Clear 7 1013 54 0 1.34 22 22:19 11.05.2020
3190 Clear 7 1013 54 0 0.45 292 21:55 11.05.2020
3191 Clear 7 1013 54 0 1.34 22 21:36 11.05.2020
3192 Clear 8 1013 55 0 1.79 22 21:18 11.05.2020
3193 Clear 8 1013 55 0 0.45 45 20:54 11.05.2020
3194 Clear 8 1013 53 0 10.84 343 20:36 11.05.2020
3195 Clear 9 1013 51 0 0.89 45 20:18 11.05.2020
3196 Clear 10 1013 46 0 0.45 0 19:41 11.05.2020
3197 Clear 11 1012 43 0 0.89 292 19:22 11.05.2020
3198 Clear 8 1009 57 0 11.37 345 18:58 11.05.2020
3199 Clear 11 1012 43 0 0.45 0 18:39 11.05.2020
3200 Clouds 11 1012 45 0 0.45 45 18:20 11.05.2020
3201 Clouds 10 1012 49 0 0.89 45 17:58 11.05.2020
3202 Clouds 10 1012 53 0 11.38 344 17:40 11.05.2020
3203 Clouds 10 1012 53 0 11.38 344 17:40 11.05.2020
3204 Clouds 9 1013 53 0 0.89 45 17:21 11.05.2020
3205 Clouds 9 1013 53 0 0.45 0 16:58 11.05.2020
3206 Clouds 8 1013 57 0 10.96 346 16:38 11.05.2020
3207 Clouds 8 1013 55 0 1.34 22 16:20 11.05.2020
3208 Clouds 8 1013 59 0 0.89 0 15:54 11.05.2020
3209 Clouds 8 1013 65 0 0.89 22 15:36 11.05.2020
3210 Clouds 8 1013 65 0 0.89 22 15:18 11.05.2020
3211 Clouds 7 1013 70 0 1.79 22 14:41 11.05.2020
3212 Clouds 7 1013 71 0 0.89 67 14:22 11.05.2020
3213 Clouds 7 1013 73 0 1.79 45 13:59 11.05.2020
3214 Clouds 7 1012 74 0 0.45 22 13:40 11.05.2020
3215 Clouds 7 1013 75 0 0.89 22 13:18 11.05.2020
3216 Clouds 7 1013 75 0 0.89 22 13:18 11.05.2020
3217 Clouds 7 1013 75 0 0.89 22 13:18 11.05.2020
3218 Clouds 7 1013 75 0 0.89 22 13:18 11.05.2020
3219 Clouds 7 1012 78 0 2.24 45 12:56 11.05.2020
3220 Clouds 7 1012 78 0 2.24 45 12:56 11.05.2020
3221 Clouds 7 1012 80 0 0.89 22 12:38 11.05.2020
3222 Clouds 7 1011 80 0 2.24 22 12:19 11.05.2020
3223 Clouds 7 1011 81 0 0.89 22 11:55 11.05.2020
3224 Clouds 7 1011 83 0 0.89 67 11:37 11.05.2020
3225 Clouds 7 1011 83 0 0.45 22 11:18 11.05.2020
3226 Clouds 7 1011 83 0 0.89 22 10:54 11.05.2020
3227 Clouds 7 1011 81 0 0.89 0 10:36 11.05.2020
3228 Clouds 7 1011 80 0 0.45 45 10:18 11.05.2020
3229 Clouds 7 1011 78 0 10.79 10 09:42 11.05.2020
3230 Clouds 7 1011 80 0 10.58 358 09:22 11.05.2020
3231 Clouds 7 1010 81 0 0.45 22 08:59 11.05.2020
3232 Clouds 7 1010 81 0 0.45 22 08:39 11.05.2020
3233 Clouds 7 1010 79 0 0.89 22 08:19 11.05.2020
3234 Clouds 7 1010 76 0 0.89 0 07:50 11.05.2020
3235 Clouds 8 1010 76 0 0.89 67 07:32 11.05.2020
3236 Clouds 9 1009 77 0 0.45 45 06:53 11.05.2020
3237 Clouds 9 1009 77 0 0.89 0 06:26 11.05.2020
3238 Clouds 9 1009 77 0 0.45 337 05:30 11.05.2020
3239 Clouds 9 1009 74 0 9.68 341 04:44 11.05.2020
3240 Clouds 9 1008 73 0 0.45 45 03:46 11.05.2020
3241 Clouds 9 1008 68 0 0.45 0 02:35 11.05.2020
3242 Clouds 9 1009 72 0 1.34 22 01:47 11.05.2020
3243 Clouds 10 1008 75 0 0.45 22 00:54 11.05.2020
3244 Clouds 11 1008 75 0 10.77 338 00:27 11.05.2020
3245 Clouds 11 1008 77 0 10.77 338 23:56 10.05.2020
3246 Clouds 11 1008 78 0 0.89 22 23:36 10.05.2020
3247 Clouds 12 1008 79 0 1.34 0 23:18 10.05.2020
3248 Clouds 12 1008 79 0 0.89 45 22:42 10.05.2020
3249 Rain 14 1007 78 0 1.34 45 22:24 10.05.2020
3250 Rain 16 1007 71 0 10.23 354 21:55 10.05.2020
3251 Rain 17 1007 70 0 10.23 354 21:37 10.05.2020
3252 Clouds 17 1007 69 0 11.23 350 21:18 10.05.2020
3253 Clouds 18 1007 62 0 11.23 350 20:42 10.05.2020
3254 Rain 19 1007 57 0 0.89 180 20:23 10.05.2020
3255 Rain 19 1007 55 0 1.34 180 19:56 10.05.2020
3256 Rain 20 1006 52 0 12.23 350 19:38 10.05.2020
3257 Rain 20 1006 51 0 6.91 339 19:20 10.05.2020
3258 Rain 20 1006 51 0 6.91 339 19:20 10.05.2020
3259 Rain 20 1006 53 0 6.91 339 18:55 10.05.2020
3260 Rain 22 1006 47 0 6.91 339 18:36 10.05.2020
3261 Rain 22 1006 47 0 6.91 339 18:36 10.05.2020
3262 Rain 22 1006 48 0 4.66 337 18:18 10.05.2020
3263 Rain 21 1006 53 0 4.66 337 17:57 10.05.2020
3264 Rain 21 1007 54 0 0.45 45 17:39 10.05.2020
3265 Rain 22 1007 51 0 0.45 45 17:20 10.05.2020
3266 Rain 23 1007 47 0 3.4 344 16:44 10.05.2020
3267 Clouds 24 1007 40 0 1.19 339 16:21 10.05.2020
3268 Clouds 15 1004 72 0 1.19 339 15:58 10.05.2020
3269 Clouds 15 1004 72 0 1.19 339 15:39 10.05.2020
3270 Clouds 15 1005 73 0 0.98 188 15:21 10.05.2020
3271 Clouds 15 1005 73 0 0.98 188 14:56 10.05.2020
3272 Clouds 15 1005 73 0 0.98 188 14:37 10.05.2020
3273 Clouds 15 1005 75 0 1.05 184 14:19 10.05.2020
3274 Clouds 15 1005 75 0 1.05 184 14:19 10.05.2020
3275 Clouds 15 1005 75 0 1.05 184 13:58 10.05.2020
3276 Clouds 15 1005 75 0 1.05 184 13:37 10.05.2020
3277 Clouds 15 1006 76 0 1.81 185 13:19 10.05.2020
3278 Clouds 15 1006 76 0 1.81 185 12:56 10.05.2020
3279 Clouds 15 1006 76 0 1.81 185 12:37 10.05.2020
3280 Clouds 15 1007 77 0 2.83 184 12:19 10.05.2020
3281 Clouds 15 1007 77 0 2.83 184 11:54 10.05.2020
3282 Clouds 15 1007 77 0 2.83 184 11:36 10.05.2020
3283 Clouds 14 1007 80 0 3.41 180 11:18 10.05.2020
3284 Clouds 14 1007 80 0 3.41 180 10:42 10.05.2020
3285 Clouds 21 1011 53 0 0.89 180 10:24 10.05.2020
3286 Clouds 20 1011 57 0 1.79 180 09:56 10.05.2020
3287 Clouds 13 1008 82 0 3.55 179 09:38 10.05.2020
3288 Clouds 12 1009 83 0 4.28 175 09:19 10.05.2020
3289 Clouds 12 1009 83 0 4.28 175 08:44 10.05.2020
3290 Clouds 14 1012 81 0 0.89 135 08:23 10.05.2020
3291 Clouds 13 1012 84 0 0.89 157 07:44 10.05.2020
3292 Clouds 12 1012 84 0 0.89 157 07:19 10.05.2020
3293 Clouds 11 1013 84 0 0.45 135 06:52 10.05.2020
3294 Clouds 11 1012 84 0 0.89 135 06:30 10.05.2020
3295 Clouds 10 1013 82 0 0.89 135 05:48 10.05.2020
3296 Clouds 10 1014 81 0 0.45 135 04:50 10.05.2020
3297 Clouds 10 1014 81 0 0.45 135 04:31 10.05.2020
3298 Clouds 10 1014 82 0 5.55 161 03:54 10.05.2020
3299 Clouds 10 1014 82 0 0.89 135 03:35 10.05.2020
3300 Clear 10 1015 82 0 5.62 156 02:41 10.05.2020
3301 Clear 10 1015 82 0 0.45 135 02:19 10.05.2020
3302 Clear 10 1015 83 0 5.09 157 01:41 10.05.2020
3303 Clear 10 1015 82 0 5.21 148 01:19 10.05.2020
3304 Clear 10 1015 82 0 0.45 135 00:54 10.05.2020
3305 Clear 11 1016 81 0 0.45 135 00:24 10.05.2020
3306 Clear 10 1016 79 0 0.45 135 23:59 09.05.2020
3307 Clear 11 1016 79 0 4.82 140 23:39 09.05.2020
3308 Clear 11 1016 78 0 4.28 135 23:20 09.05.2020
3309 Clear 11 1016 77 0 4.28 135 22:43 09.05.2020
3310 Clear 12 1016 76 0 3.84 129 22:24 09.05.2020
3311 Clear 12 1016 76 0 3.84 129 21:59 09.05.2020
3312 Clear 13 1017 74 0 0.45 112 21:41 09.05.2020
3313 Clouds 14 1017 72 0 3.11 112 21:21 09.05.2020
3314 Clear 14 1017 71 0 2.83 117 20:58 09.05.2020
3315 Clear 16 1017 71 0 2.83 117 20:38 09.05.2020
3316 Clear 16 1017 72 0 1.62 104 20:20 09.05.2020
3317 Clear 16 1017 70 0 1.62 104 19:56 09.05.2020
3318 Clear 19 1017 60 0 1.34 45 19:38 09.05.2020
3319 Clear 19 1017 59 0 0.56 42 19:19 09.05.2020
3320 Clear 19 1017 57 0 0.56 42 18:44 09.05.2020
3321 Clear 19 1017 56 0 1.3 328 18:26 09.05.2020
3322 Clear 19 1017 56 0 1.3 328 18:26 09.05.2020
3323 Clear 19 1017 55 0 0.45 45 17:56 09.05.2020
3324 Clear 19 1017 57 0 1.3 328 17:36 09.05.2020
3325 Clear 19 1018 60 0 1.93 311 17:18 09.05.2020
3326 Clear 18 1018 63 0 0.89 22 16:41 09.05.2020
3327 Clear 18 1018 64 0 2.66 302 16:20 09.05.2020
3328 Clear 17 1018 69 0 0.89 45 15:45 09.05.2020
3329 Clear 16 1019 71 0 0.45 45 15:27 09.05.2020
3330 Clear 16 1019 71 0 2.61 289 14:59 09.05.2020
3331 Clear 16 1019 75 0 2.61 289 14:40 09.05.2020
3332 Clouds 16 1019 75 0 2.66 274 14:19 09.05.2020
3333 Clouds 16 1019 75 0 2.53 268 13:58 09.05.2020
3334 Clouds 16 1019 73 0 2.53 268 13:40 09.05.2020
3335 Clouds 16 1019 71 0 2.34 262 13:20 09.05.2020
3336 Clouds 16 1019 68 0 2.34 262 12:42 09.05.2020
3337 Clouds 17 1020 67 0 1.67 262 12:22 09.05.2020
3338 Clouds 17 1019 67 0 1.67 262 11:58 09.05.2020
3339 Clouds 17 1020 65 0 0.89 337 11:40 09.05.2020
3340 Clouds 18 1020 65 0 1.12 283 11:18 09.05.2020
3341 Clouds 18 1020 63 0 1.12 283 10:47 09.05.2020
3342 Clouds 18 1020 63 0 1.29 295 10:25 09.05.2020
3343 Clouds 17 1020 67 0 1.29 295 09:58 09.05.2020
3344 Clouds 16 1020 68 0 0.45 247 09:39 09.05.2020
3345 Clouds 11 1017 87 0 2.5 275 09:19 09.05.2020
3346 Clouds 14 1020 74 0 2.5 275 08:51 09.05.2020
3347 Clouds 13 1020 74 0 0.45 315 08:33 09.05.2020
3348 Clouds 11 1020 78 0 0.45 292 07:54 09.05.2020
3349 Clouds 10 1020 77 0 2.26 276 07:36 09.05.2020
3350 Clouds 9 1020 77 0 2.53 283 07:18 09.05.2020
3351 Clouds 8 1020 76 0 2.83 289 06:26 09.05.2020
3352 Clouds 7 1020 74 0 2.83 289 05:49 09.05.2020
3353 Clouds 7 1019 73 0 3.18 296 04:53 09.05.2020
3354 Clouds 8 1019 71 0 3.99 297 03:39 09.05.2020
3355 Clouds 8 1020 70 0 4.7 289 02:50 09.05.2020
3356 Clouds 8 1020 69 0 5.25 289 02:23 09.05.2020
3357 Clouds 8 1020 68 0 5.65 278 01:47 09.05.2020
3358 Clouds 9 1020 67 0 6.08 281 01:20 09.05.2020
3359 Clouds 9 1020 66 0 6.08 281 00:40 09.05.2020
3360 Clouds 9 1020 65 0 6.64 278 00:18 09.05.2020
3361 Clouds 9 1020 64 0 6.64 278 23:43 08.05.2020
3362 Clouds 9 1020 64 0 6.99 275 23:24 08.05.2020
3363 Clouds 10 1020 62 0 6.99 275 22:55 08.05.2020
3364 Clouds 11 1020 61 0 6.99 275 22:37 08.05.2020
3365 Clouds 12 1020 59 0 7.28 271 22:18 08.05.2020
3366 Clouds 12 1020 59 0 7.28 271 21:54 08.05.2020
3367 Clouds 13 1020 57 0 7.28 271 21:36 08.05.2020
3368 Clear 14 1020 55 0 7.94 264 21:18 08.05.2020
3369 Clear 15 1020 53 0 7.94 264 20:55 08.05.2020
3370 Clear 17 1020 50 0 7.94 264 20:36 08.05.2020
3371 Clear 17 1020 50 0 7.94 264 20:36 08.05.2020
3372 Clear 17 1020 49 0 7.98 259 20:18 08.05.2020
3373 Clear 11 1016 78 0 7.98 259 19:41 08.05.2020
3374 Clear 11 1016 75 0 7.78 254 19:21 08.05.2020
3375 Clear 11 1016 75 0 7.78 254 18:46 08.05.2020
3376 Clear 11 1016 75 0 7.78 254 18:46 08.05.2020
3377 Clear 11 1016 74 0 7.4 255 18:28 08.05.2020
3378 Clear 11 1016 74 0 7.4 255 17:43 08.05.2020
3379 Clear 11 1016 73 0 7.05 257 17:20 08.05.2020
3380 Clear 11 1016 73 0 7.05 257 16:58 08.05.2020
3381 Clear 11 1016 73 0 7.05 257 16:39 08.05.2020
3382 Clear 10 1016 74 0 7.36 260 16:21 08.05.2020
3383 Clear 10 1016 74 0 7.36 260 15:54 08.05.2020
3384 Clear 10 1016 74 0 7.36 260 15:36 08.05.2020
3385 Clear 10 1017 74 0 7.72 264 15:18 08.05.2020
3386 Clear 18 1020 49 0 7.72 264 14:40 08.05.2020
3387 Clear 17 1021 51 0 0.89 0 14:20 08.05.2020
3388 Clear 17 1021 54 0 0.45 337 13:57 08.05.2020
3389 Clear 16 1021 53 0 0.45 0 13:39 08.05.2020
3390 Clear 16 1021 55 0 1.34 22 13:19 08.05.2020
3391 Clear 15 1021 58 0 0.45 22 12:45 08.05.2020
3392 Clear 9 1017 78 0 7.13 263 12:24 08.05.2020
3393 Clear 14 1021 60 0 7.13 263 11:55 08.05.2020
3394 Clear 14 1021 60 0 0.45 315 11:37 08.05.2020
3395 Clear 14 1021 60 0 0.45 315 11:37 08.05.2020
3396 Clear 14 1021 63 0 1.34 315 11:18 08.05.2020
3397 Clear 13 1021 65 0 0.45 292 10:54 08.05.2020
3398 Clear 13 1021 70 0 0.45 270 10:36 08.05.2020
3399 Clear 12 1021 74 0 6.21 271 10:18 08.05.2020
3400 Clear 11 1022 76 0 6.21 271 09:41 08.05.2020
3401 Clear 10 1022 79 0 1.34 315 09:19 08.05.2020
3402 Clear 9 1022 82 0 0.89 292 08:51 08.05.2020
3403 Clouds 9 1022 83 0 1.34 315 08:25 08.05.2020
3404 Clouds 9 1022 83 0 1.34 315 08:25 08.05.2020
3405 Clouds 8 1022 84 0 0.45 292 07:55 08.05.2020
3406 Clouds 8 1022 86 0 0.89 292 07:37 08.05.2020
3407 Clouds 8 1021 86 0 0.89 292 07:19 08.05.2020
3408 Clouds 8 1021 86 0 0.89 292 07:19 08.05.2020
3409 Clouds 7 1022 82 0 0.45 292 06:39 08.05.2020
3410 Clouds 6 1021 80 0 5.76 277 06:20 08.05.2020
3411 Clouds 4 1022 78 0 5.76 277 05:32 08.05.2020
3412 Clouds 6 1022 77 0 5.87 286 03:23 08.05.2020
3413 Clouds 7 1022 78 0 5.87 286 02:29 08.05.2020
3414 Clouds 7 1022 77 0 6.71 287 01:41 08.05.2020
3415 Clouds 7 1022 74 0 6.9 284 01:21 08.05.2020
3416 Clouds 7 1022 73 0 6.9 284 00:48 08.05.2020
3417 Clouds 7 1022 72 0 7.23 281 00:27 08.05.2020
3418 Clouds 7 1022 71 0 7.23 281 23:57 07.05.2020
3419 Clouds 8 1022 71 0 7.23 281 23:38 07.05.2020
3420 Clouds 8 1022 70 0 7.34 273 23:20 07.05.2020
3421 Clouds 9 1023 70 0 7.34 273 22:42 07.05.2020
3422 Clouds 9 1023 70 0 7.34 273 22:42 07.05.2020
3423 Clouds 9 1023 69 0 6.84 266 22:20 07.05.2020
3424 Clouds 10 1023 69 0 6.84 266 21:57 07.05.2020
3425 Clouds 10 1023 68 0 6.84 266 21:39 07.05.2020
3426 Clear 11 1023 66 0 6.85 264 21:20 07.05.2020
3427 Clear 11 1023 62 0 6.85 264 20:58 07.05.2020
3428 Clear 12 1023 60 0 6.85 264 20:40 07.05.2020
3429 Clear 14 1023 55 0 6.92 262 20:20 07.05.2020
3430 Clear 14 1023 55 0 6.92 262 20:20 07.05.2020
3431 Clear 10 1019 83 0 6.92 262 19:48 07.05.2020
3432 Clear 10 1019 83 0 7.38 261 19:23 07.05.2020
3433 Clear 10 1019 83 0 7.38 261 18:57 07.05.2020
3434 Clear 10 1019 83 0 7.38 261 18:38 07.05.2020
3435 Clear 10 1019 83 0 7.38 261 18:38 07.05.2020
3436 Clear 10 1019 85 0 7.36 261 18:20 07.05.2020
3437 Clear 10 1019 85 0 7.36 261 17:42 07.05.2020
3438 Clear 10 1020 84 0 5.7 262 17:21 07.05.2020
3439 Clear 10 1020 84 0 5.7 262 16:43 07.05.2020
3440 Clouds 15 1024 59 0 0.89 337 16:20 07.05.2020
3441 Clouds 15 1024 59 0 1.34 315 15:58 07.05.2020
3442 Clouds 15 1024 59 0 1.34 315 15:58 07.05.2020
3443 Clouds 10 1020 83 0 5.82 272 15:39 07.05.2020
3444 Clouds 10 1021 82 0 6.9 270 15:19 07.05.2020
3445 Clouds 10 1021 82 0 6.9 270 14:59 07.05.2020
3446 Clouds 10 1021 82 0 6.9 270 14:41 07.05.2020
3447 Clouds 10 1021 82 0 6.43 274 14:19 07.05.2020
3448 Clouds 14 1025 62 0 1.34 315 13:43 07.05.2020
3449 Clouds 14 1024 63 0 1.79 315 13:25 07.05.2020
3450 Clouds 14 1024 63 0 1.79 315 13:25 07.05.2020
3451 Clouds 13 1025 66 0 1.79 315 12:44 07.05.2020
3452 Clouds 9 1020 81 0 6.34 282 12:20 07.05.2020
3453 Clouds 9 1020 81 0 6.34 282 11:59 07.05.2020
3454 Clouds 9 1020 81 0 6.34 282 11:39 07.05.2020
3455 Clouds 9 1020 81 0 6.66 284 11:20 07.05.2020
3456 Clouds 12 1024 70 0 1.79 315 10:42 07.05.2020
3457 Clouds 11 1024 72 0 0.89 315 10:23 07.05.2020
3458 Clouds 11 1024 75 0 1.34 292 09:41 07.05.2020
3459 Clouds 11 1024 75 0 1.34 292 09:41 07.05.2020
3460 Clouds 10 1023 76 0 0.89 292 09:20 07.05.2020
3461 Clouds 10 1024 76 0 0.45 270 08:57 07.05.2020
3462 Clouds 9 1023 77 0 1.79 292 08:38 07.05.2020
3463 Clouds 9 1023 78 0 1.34 292 08:20 07.05.2020
3464 Clouds 9 1023 79 0 1.79 292 07:46 07.05.2020
3465 Clouds 9 1023 79 0 1.34 292 07:28 07.05.2020
3466 Clouds 9 1023 80 0 1.34 315 06:56 07.05.2020
3467 Clouds 8 1019 82 0 8.09 308 06:35 07.05.2020
3468 Clouds 8 1022 79 0 0.89 292 05:38 07.05.2020
3469 Clouds 9 1023 76 0 8.83 310 04:26 07.05.2020
3470 Clouds 9 1022 78 0 1.34 0 03:29 07.05.2020
3471 Clouds 9 1022 77 0 1.34 292 02:55 07.05.2020
3472 Clouds 9 1022 77 0 1.34 0 02:19 07.05.2020
3473 Clouds 9 1022 80 0 1.34 292 01:24 07.05.2020
3474 Clouds 8 1022 81 0 1.34 292 00:50 07.05.2020
3475 Clouds 8 1022 81 0 2.68 315 00:29 07.05.2020
3476 Clouds 9 1022 79 0 1.79 292 23:58 06.05.2020
3477 Clouds 9 1022 79 0 1.34 315 23:38 06.05.2020
3478 Clouds 9 1022 79 0 1.79 292 23:19 06.05.2020
3479 Clouds 9 1022 78 0 2.24 292 22:54 06.05.2020
3480 Clouds 9 1022 77 0 1.79 315 22:36 06.05.2020
3481 Clouds 9 1022 76 0 0.45 315 22:18 06.05.2020
3482 Clouds 10 1022 72 0 1.79 315 21:42 06.05.2020
3483 Clouds 10 1022 69 0 2.24 337 21:22 06.05.2020
3484 Clouds 11 1023 67 0 0.89 270 20:57 06.05.2020
3485 Clouds 11 1022 65 0 0.45 292 20:38 06.05.2020
3486 Clouds 11 1022 63 0 2.24 0 20:20 06.05.2020
3487 Clouds 12 1022 61 0 1.34 292 19:56 06.05.2020
3488 Clouds 13 1023 56 0 2.24 292 19:37 06.05.2020
3489 Clouds 13 1023 56 0 2.24 292 19:37 06.05.2020
3490 Clouds 14 1022 56 0 1.34 315 19:18 06.05.2020
3491 Clouds 14 1022 56 0 2.24 270 18:55 06.05.2020
3492 Clouds 14 1023 55 0 1.34 292 18:37 06.05.2020
3493 Clouds 14 1023 54 0 1.79 315 18:18 06.05.2020
3494 Clouds 10 1019 78 0 8.55 281 17:55 06.05.2020
3495 Clouds 14 1023 50 0 2.24 0 17:36 06.05.2020
3496 Clouds 10 1019 77 0 8.9 276 17:18 06.05.2020
3497 Clouds 10 1019 77 0 8.9 276 16:57 06.05.2020
3498 Clouds 14 1023 51 0 1.79 315 16:39 06.05.2020
3499 Clouds 10 1020 75 0 8.28 276 16:19 06.05.2020
3500 Clouds 10 1020 75 0 8.28 276 15:47 06.05.2020
3501 Clouds 14 1024 43 0 1.79 315 15:23 06.05.2020
3502 Clouds 15 1024 42 0 2.68 337 14:59 06.05.2020
3503 Clouds 15 1024 41 0 2.24 315 14:39 06.05.2020
3504 Clouds 15 1025 40 0 1.79 292 14:19 06.05.2020
3505 Clouds 15 1025 40 0 1.79 292 14:19 06.05.2020
3506 Clouds 15 1025 39 0 0.89 292 13:58 06.05.2020
3507 Clouds 15 1025 40 0 8.87 281 13:39 06.05.2020
3508 Clouds 9 1021 67 0 9.1 283 13:19 06.05.2020
3509 Clouds 14 1025 44 0 9.1 283 12:43 06.05.2020
3510 Clouds 9 1021 65 0 8.48 286 12:25 06.05.2020
3511 Clouds 14 1026 43 0 0.45 45 11:55 06.05.2020
3512 Clouds 13 1025 47 0 0.89 337 11:36 06.05.2020
3513 Clouds 13 1026 45 0 7.6 294 11:18 06.05.2020
3514 Clouds 12 1026 48 0 0.45 292 10:55 06.05.2020
3515 Clouds 12 1026 56 0 0.89 337 10:36 06.05.2020
3516 Clouds 12 1026 62 0 0.45 337 10:18 06.05.2020
3517 Clouds 11 1026 69 0 0.45 315 09:39 06.05.2020
3518 Clouds 11 1026 71 0 0.89 337 09:20 06.05.2020
3519 Clouds 11 1026 72 0 0.89 315 08:44 06.05.2020
3520 Clear 9 1026 78 0 0.45 45 08:21 06.05.2020
3521 Clear 9 1026 78 0 0.45 45 08:21 06.05.2020
3522 Clear 9 1026 79 0 0.45 337 07:57 06.05.2020
3523 Clear 9 1025 81 0 7.68 317 07:39 06.05.2020
3524 Clear 8 1025 83 0 7.72 328 07:19 06.05.2020
3525 Clear 8 1025 84 0 0.45 292 06:49 06.05.2020
3526 Clouds 8 1025 85 0 0.89 0 06:21 06.05.2020
3527 Clouds 8 1025 84 0 8.18 336 05:50 06.05.2020
3528 Clouds 8 1025 83 0 8.18 336 05:32 06.05.2020
3529 Clear 8 1024 83 0 0.89 45 04:22 06.05.2020
3530 Clear 8 1024 82 0 0.45 22 03:36 06.05.2020
3531 Clear 8 1024 82 0 0.89 337 02:58 06.05.2020
3532 Clear 9 1021 79 0 9.06 347 02:28 06.05.2020
3533 Clear 9 1021 79 0 9.06 347 01:53 06.05.2020
3534 Clear 9 1024 80 0 0.45 45 01:28 06.05.2020
3535 Clear 9 1024 77 0 9.58 347 00:46 06.05.2020
3536 Clear 9 1020 78 0 9.33 340 00:23 06.05.2020
3537 Clear 9 1020 78 0 9.33 340 23:43 05.05.2020
3538 Clouds 9 1020 78 0 8.47 337 23:21 05.05.2020
3539 Clouds 9 1020 78 0 8.47 337 22:59 05.05.2020
3540 Clouds 9 1020 78 0 8.47 337 22:41 05.05.2020
3541 Clouds 8 1023 73 0 7.63 335 22:19 05.05.2020
3542 Clouds 8 1023 73 0 7.63 335 21:56 05.05.2020
3543 Clouds 9 1023 73 0 7.63 335 21:38 05.05.2020
3544 Clouds 9 1023 73 0 6.95 338 21:19 05.05.2020
3545 Clouds 9 1023 72 0 6.95 338 20:56 05.05.2020
3546 Clouds 10 1023 65 0 6.95 338 20:38 05.05.2020
3547 Clouds 10 1023 64 0 0.45 0 20:18 05.05.2020
3548 Clouds 10 1023 64 0 0.89 45 19:43 05.05.2020
3549 Clouds 10 1023 63 0 0.45 45 19:25 05.05.2020
3550 Clouds 11 1023 65 0 0.89 45 18:58 05.05.2020
3551 Clouds 11 1023 63 0 0.45 22 18:40 05.05.2020
3552 Clouds 11 1022 64 0 0.45 0 18:20 05.05.2020
3553 Clouds 11 1023 63 0 0.45 45 17:58 05.05.2020
3554 Clouds 11 1023 63 0 0.89 22 17:40 05.05.2020
3555 Clouds 11 1022 64 0 0.89 22 17:21 05.05.2020
3556 Clouds 11 1022 64 0 1.34 22 16:56 05.05.2020
3557 Clouds 10 1022 66 0 1.79 45 16:36 05.05.2020
3558 Clear 11 1022 66 0 0.89 22 16:18 05.05.2020
3559 Clear 11 1022 66 0 0.89 22 16:18 05.05.2020
3560 Clear 11 1022 64 0 0.89 0 15:41 05.05.2020
3561 Clear 11 1022 63 0 1.79 22 15:22 05.05.2020
3562 Clear 11 1022 66 0 0.89 67 14:58 05.05.2020
3563 Clear 11 1022 66 0 0.45 22 14:39 05.05.2020
3564 Clear 11 1022 66 0 0.45 22 14:39 05.05.2020
3565 Clear 11 1022 61 0 6.75 351 14:21 05.05.2020
3566 Clear 11 1022 58 0 0.45 22 13:58 05.05.2020
3567 Clear 11 1022 57 0 0.45 67 13:40 05.05.2020
3568 Clear 11 1021 57 0 8.2 352 13:21 05.05.2020
3569 Clear 11 1021 57 0 8.2 352 13:21 05.05.2020
3570 Clear 12 1021 57 0 0.89 45 12:59 05.05.2020
3571 Clear 12 1021 55 0 0.89 337 12:39 05.05.2020
3572 Clear 11 1021 65 0 0.89 45 12:20 05.05.2020
3573 Clear 11 1021 67 0 0.45 337 11:57 05.05.2020
3574 Clear 10 1022 66 0 8.78 347 11:36 05.05.2020
3575 Clear 9 1022 68 0 9.34 343 11:18 05.05.2020
3576 Clear 9 1022 68 0 9.34 343 11:18 05.05.2020
3577 Clear 8 1021 71 0 1.34 0 10:39 05.05.2020
3578 Clear 8 1021 71 0 1.34 0 10:39 05.05.2020
3579 Clear 9 1021 69 0 1.34 22 10:20 05.05.2020
3580 Clear 9 1021 69 0 0.45 0 09:59 05.05.2020
3581 Clear 9 1021 69 0 0.45 0 09:59 05.05.2020
3582 Clear 8 1021 72 0 0.45 22 09:41 05.05.2020
3583 Clear 7 1021 76 0 1.79 337 09:22 05.05.2020
3584 Clear 9 1021 66 0 1.79 45 08:42 05.05.2020
3585 Clear 8 1020 68 0 1.79 337 08:21 05.05.2020
3586 Clear 8 1021 71 0 8.53 348 07:58 05.05.2020
3587 Clear 8 1021 72 0 0.89 0 07:39 05.05.2020
3588 Clear 8 1021 74 0 0.89 337 07:19 05.05.2020
3589 Clear 7 1021 74 0 1.34 315 06:50 05.05.2020
3590 Clear 8 1017 72 0 8.4 339 06:28 05.05.2020
3591 Clear 8 1017 72 0 8.4 339 06:28 05.05.2020
3592 Clear 8 1017 72 0 8.4 339 06:28 05.05.2020
3593 Clear 8 1017 72 0 8.4 339 05:43 05.05.2020
3594 Clear 8 1016 72 0 8.4 331 03:39 05.05.2020
3595 Clear 8 1017 73 0 8.56 327 02:28 05.05.2020
3596 Clear 8 1017 73 0 8.25 331 00:54 05.05.2020
3597 Clear 8 1017 73 0 8.32 334 00:23 05.05.2020
3598 Clear 8 1017 73 0 8.32 334 23:48 04.05.2020
3599 Clear 8 1016 75 0 7.25 338 23:25 04.05.2020
3600 Clear 8 1016 75 0 7.25 338 22:57 04.05.2020
3601 Clear 8 1016 75 0 7.25 338 22:57 04.05.2020
3602 Clear 9 1020 66 0 7.25 338 22:38 04.05.2020
3603 Clear 9 1020 66 0 7.25 338 22:38 04.05.2020
3604 Clear 9 1020 64 0 6.22 329 22:20 04.05.2020
3605 Clear 9 1016 74 0 6.22 329 21:57 04.05.2020
3606 Clear 10 1020 60 0 6.77 317 21:36 04.05.2020
3607 Clear 11 1020 60 0 6.44 310 21:18 04.05.2020
3608 Clear 12 1020 58 0 0.89 292 20:39 04.05.2020
3609 Clear 12 1020 58 0 0.89 292 20:39 04.05.2020
3610 Clear 12 1020 58 0 0.89 292 20:39 04.05.2020
3611 Clouds 12 1020 58 0 1.79 292 20:18 04.05.2020
3612 Clouds 9 1016 71 0 6.82 309 19:43 04.05.2020
3613 Clouds 10 1015 69 0 6.84 296 19:24 04.05.2020
3614 Clouds 10 1015 69 0 6.84 296 18:59 04.05.2020
3615 Clouds 10 1015 69 0 6.84 296 18:38 04.05.2020
3616 Clouds 10 1015 69 0 6.84 296 18:38 04.05.2020
3617 Clouds 10 1015 69 0 6.74 290 18:19 04.05.2020
3618 Clouds 10 1015 69 0 6.74 290 18:19 04.05.2020
3619 Clouds 10 1015 69 0 6.74 290 17:56 04.05.2020
3620 Clouds 10 1015 69 0 6.74 290 17:37 04.05.2020
3621 Clouds 9 1015 69 0 6.74 289 17:19 04.05.2020
3622 Clouds 9 1015 69 0 6.74 289 16:43 04.05.2020
3623 Clouds 9 1015 70 0 6.46 290 16:23 04.05.2020
3624 Clouds 14 1020 54 0 6.46 290 15:58 04.05.2020
3625 Clouds 14 1019 55 0 0.45 0 15:40 04.05.2020
3626 Clouds 14 1020 52 0 6.23 295 15:21 04.05.2020
3627 Clouds 14 1020 53 0 6.23 295 14:49 04.05.2020
3628 Clouds 13 1020 57 0 0.45 22 14:22 04.05.2020
3629 Clouds 13 1020 57 0 0.45 22 14:22 04.05.2020
3630 Clouds 13 1020 57 0 0.45 22 14:22 04.05.2020
3631 Clouds 13 1020 57 0 0.45 22 14:22 04.05.2020
3632 Clouds 12 1020 60 0 1.34 315 13:21 04.05.2020
3633 Clouds 12 1020 60 0 1.34 315 13:21 04.05.2020
3634 Clouds 12 1020 63 0 1.34 315 12:44 04.05.2020
3635 Clouds 12 1020 63 0 1.34 315 12:44 04.05.2020
3636 Clouds 12 1020 63 0 1.34 315 12:44 04.05.2020
3637 Clouds 12 1020 63 0 1.34 315 12:44 04.05.2020
3638 Clouds 12 1020 63 0 1.34 315 12:44 04.05.2020
3639 Clouds 12 1020 65 0 0.89 292 11:27 04.05.2020
3640 Clouds 12 1020 65 0 0.89 292 11:27 04.05.2020
3641 Clouds 12 1020 65 0 0.89 292 11:27 04.05.2020
3642 Clouds 12 1020 65 0 0.89 292 11:27 04.05.2020
3643 Clouds 12 1020 65 0 0.89 292 11:25 04.05.2020
3644 Clouds 11 1020 77 0 0.89 292 09:28 04.05.2020
3645 Clouds 11 1020 77 0 0.89 292 09:28 04.05.2020
3646 Clouds 9 1020 85 0 0.89 292 07:54 04.05.2020
3647 Clouds 9 1020 86 0 0.45 292 07:34 04.05.2020
3648 Clouds 8 1020 83 0 4.7 304 05:49 04.05.2020
3649 Clouds 8 1020 83 0 4.57 298 04:52 04.05.2020
3650 Clouds 7 1020 78 0 4.66 278 02:54 04.05.2020
3651 Clouds 7 1020 77 0 5.13 282 01:39 04.05.2020
3652 Clouds 8 1020 76 0 5.08 274 00:18 04.05.2020
3653 Clouds 8 1020 76 0 5.08 274 23:44 03.05.2020
3654 Clouds 8 1020 75 0 5.29 265 23:23 03.05.2020
3655 Clouds 8 1020 74 0 5.29 265 22:44 03.05.2020
3656 Clouds 9 1020 72 0 5.53 260 22:25 03.05.2020
3657 Clouds 10 1019 72 0 5.53 260 21:56 03.05.2020
3658 Clouds 11 1019 70 0 0.45 292 21:38 03.05.2020
3659 Clear 11 1019 68 0 0.45 315 21:19 03.05.2020
3660 Clear 11 1019 68 0 0.45 315 21:19 03.05.2020
3661 Clear 11 1019 68 0 0.45 315 21:19 03.05.2020
3662 Clear 11 1019 68 0 0.45 315 21:19 03.05.2020
3663 Clear 12 1019 64 0 5.6 262 20:42 03.05.2020
3664 Clear 12 1019 64 0 5.6 262 20:42 03.05.2020
3665 Clear 12 1019 64 0 5.6 262 20:42 03.05.2020
3666 Clear 14 1019 56 0 5.68 264 20:20 03.05.2020
3667 Clear 9 1015 80 0 5.68 264 19:49 03.05.2020
3668 Clear 16 1019 53 0 0.89 292 19:30 03.05.2020
3669 Clear 16 1019 51 0 0.89 315 18:58 03.05.2020
3670 Clear 16 1019 49 0 0.45 292 18:38 03.05.2020
3671 Clear 16 1019 49 0 0.45 292 18:38 03.05.2020
3672 Clear 16 1019 49 0 0.45 292 18:38 03.05.2020
3673 Clear 16 1019 49 0 0.45 292 18:38 03.05.2020
3674 Clear 16 1019 48 0 6.22 268 18:19 03.05.2020
3675 Clear 16 1019 48 0 6.22 268 18:19 03.05.2020
3676 Clear 16 1019 48 0 6.22 268 18:19 03.05.2020
3677 Clear 16 1019 48 0 6.22 268 18:19 03.05.2020
3678 Clear 10 1014 77 0 6.22 268 17:41 03.05.2020
3679 Clear 17 1019 55 0 0.45 337 17:21 03.05.2020
3680 Clear 16 1019 61 0 6.35 265 16:46 03.05.2020
3681 Clear 16 1019 57 0 0.89 315 16:21 03.05.2020
3682 Clear 16 1018 58 0 0.89 292 15:59 03.05.2020
3683 Clear 15 1019 63 0 0.45 0 15:40 03.05.2020
3684 Clear 14 1019 65 0 6.84 266 15:21 03.05.2020
3685 Clear 14 1018 65 0 0.89 315 14:59 03.05.2020
3686 Clear 14 1018 61 0 1.34 315 14:40 03.05.2020
3687 Clear 14 1018 63 0 0.89 337 14:22 03.05.2020
3688 Clear 15 1018 60 0 1.79 315 13:55 03.05.2020
3689 Clear 15 1018 60 0 1.79 315 13:28 03.05.2020
3690 Clear 15 1018 60 0 1.79 315 13:28 03.05.2020
3691 Clear 15 1018 60 0 1.79 315 13:28 03.05.2020
3692 Clear 15 1018 60 0 1.79 315 13:28 03.05.2020
3693 Clear 14 1018 64 0 7.5 264 12:45 03.05.2020
3694 Clear 9 1014 84 0 7.38 264 12:19 03.05.2020
3695 Clear 9 1014 84 0 7.38 264 11:57 03.05.2020
3696 Clear 9 1014 84 0 7.38 264 11:57 03.05.2020
3697 Clear 9 1014 84 0 7.38 264 11:57 03.05.2020
3698 Clear 13 1018 68 0 0.89 292 11:39 03.05.2020
3699 Clear 13 1018 68 0 0.89 292 11:39 03.05.2020
3700 Clear 13 1018 69 0 2.24 292 11:19 03.05.2020
3701 Clear 13 1018 70 0 0.89 315 10:49 03.05.2020
3702 Clear 13 1018 70 0 0.89 315 10:49 03.05.2020
3703 Clear 13 1018 70 0 0.89 315 10:49 03.05.2020
3704 Clear 12 1017 74 0 1.79 292 10:01 03.05.2020
3705 Clear 12 1017 74 0 1.79 292 10:01 03.05.2020
3706 Clear 12 1017 74 0 1.79 292 10:01 03.05.2020
3707 Clear 12 1017 74 0 1.79 292 10:01 03.05.2020
3708 Clear 12 1017 74 0 1.79 292 10:01 03.05.2020
3709 Clear 8 1013 85 0 6.15 276 09:39 03.05.2020
3710 Clear 11 1016 82 0 2.24 315 08:57 03.05.2020
3711 Clear 11 1016 82 0 2.24 315 08:57 03.05.2020
3712 Clear 11 1016 82 0 2.24 315 08:57 03.05.2020
3713 Clear 10 1016 86 0 1.34 292 08:27 03.05.2020
3714 Clear 9 1016 87 0 0.45 270 07:40 03.05.2020
3715 Clear 9 1016 87 0 0.45 270 07:40 03.05.2020
3716 Clear 8 1015 89 0 6.92 289 06:31 03.05.2020
3717 Clear 8 1014 88 0 6.98 288 05:49 03.05.2020
3718 Clear 8 1014 87 0 0.45 292 05:29 03.05.2020
3719 Clear 9 1013 87 0 0.45 270 04:27 03.05.2020
3720 Clear 9 1013 85 0 6.72 291 03:30 03.05.2020
3721 Clouds 8 1012 86 0 0.89 292 02:31 03.05.2020
3722 Clouds 8 1012 86 0 6.66 296 01:48 03.05.2020
3723 Clouds 8 1012 85 0 0.45 247 01:27 03.05.2020
3724 Clouds 8 1012 84 0 1.34 292 00:57 03.05.2020
3725 Clouds 8 1012 82 0 6.19 296 00:38 03.05.2020
3726 Clouds 8 1011 82 0 5.86 292 00:20 03.05.2020
3727 Clouds 8 1011 80 0 5.86 292 23:44 02.05.2020
3728 Clouds 8 1011 79 0 6.1 277 23:26 02.05.2020
3729 Clouds 8 1011 77 0 6.1 277 22:56 02.05.2020
3730 Clouds 9 1010 74 0 6.1 277 22:37 02.05.2020
3731 Clouds 9 1010 73 0 6.22 270 22:19 02.05.2020
3732 Clouds 10 1010 71 0 0.45 292 21:40 02.05.2020
3733 Clear 11 1010 69 0 0.45 292 21:20 02.05.2020
3734 Clear 11 1010 69 0 0.45 292 20:58 02.05.2020
3735 Clear 12 1009 64 0 1.34 292 20:38 02.05.2020
3736 Clouds 13 1009 64 0 0.89 292 20:20 02.05.2020
3737 Clouds 14 1009 61 0 0.45 292 19:57 02.05.2020
3738 Clouds 14 1009 60 0 0.89 292 19:39 02.05.2020
3739 Clouds 15 1008 62 0 0.45 292 19:20 02.05.2020
3740 Clouds 15 1008 62 0 0.45 292 19:20 02.05.2020
3741 Clouds 14 1008 63 0 0.45 337 18:56 02.05.2020
3742 Clouds 14 1008 63 0 0.45 337 18:37 02.05.2020
3743 Clouds 14 1008 60 0 0.45 337 18:19 02.05.2020
3744 Clouds 14 1008 60 0 0.89 292 17:55 02.05.2020
3745 Clouds 14 1007 60 0 0.89 315 17:37 02.05.2020
3746 Clouds 14 1007 60 0 0.45 292 17:19 02.05.2020
3747 Clouds 15 1007 59 0 0.89 292 16:44 02.05.2020
3748 Clear 16 1007 62 0 0.89 292 16:25 02.05.2020
3749 Clear 14 1007 65 0 0.89 270 15:55 02.05.2020
3750 Clear 14 1007 65 0 0.89 315 15:36 02.05.2020
3751 Clear 15 1007 61 0 0.89 292 15:18 02.05.2020
3752 Clear 12 1007 69 0 0.89 270 14:41 02.05.2020
3753 Clouds 13 1006 64 0 2.68 315 14:23 02.05.2020
3754 Clouds 14 1006 65 0 0.89 292 13:58 02.05.2020
3755 Clouds 14 1006 66 0 0.89 292 13:38 02.05.2020
3756 Clouds 14 1006 65 0 0.45 292 13:18 02.05.2020
3757 Clouds 14 1006 68 0 5.53 255 12:40 02.05.2020
3758 Clouds 14 1006 71 0 1.34 225 12:20 02.05.2020
3759 Clouds 14 1006 72 0 1.34 292 11:57 02.05.2020
3760 Clouds 12 1006 76 0 0.45 315 11:39 02.05.2020
3761 Clouds 13 1006 71 0 0.45 315 11:20 02.05.2020
3762 Clouds 14 1006 68 0 0.45 270 10:40 02.05.2020
3763 Clouds 14 1006 68 0 0.45 270 10:40 02.05.2020
3764 Clear 13 1006 74 0 1.34 225 10:22 02.05.2020
3765 Clear 13 1006 73 0 0.45 247 09:59 02.05.2020
3766 Clear 13 1006 74 0 0.45 270 09:41 02.05.2020
3767 Clear 9 1001 85 0 5.14 235 09:23 02.05.2020
3768 Clear 9 1001 87 0 4.94 232 09:23 02.05.2020
3769 Clear 9 1001 85 0 5.14 235 08:57 02.05.2020
3770 Clear 10 1005 82 0 0.89 247 08:38 02.05.2020
3771 Clouds 9 1006 83 0 5.72 238 08:19 02.05.2020
3772 Clouds 9 1005 83 0 0.45 202 07:45 02.05.2020
3773 Clouds 8 1005 83 0 5.8 236 07:27 02.05.2020
3774 Clouds 8 1005 83 0 5.8 236 07:27 02.05.2020
3775 Clouds 8 1005 83 0 5.8 236 06:47 02.05.2020
3776 Clouds 7 1005 81 0 5.38 233 05:28 02.05.2020
3777 Clouds 6 1004 80 0 5.38 233 04:37 02.05.2020
3778 Clouds 7 1004 80 0 4.82 227 03:59 02.05.2020
3779 Clouds 8 1004 80 0 4.75 220 02:43 02.05.2020
3780 Rain 9 1004 79 0 5.02 190 02:19 02.05.2020
3781 Rain 10 1003 81 0 5.02 190 01:33 02.05.2020
3782 Rain 10 1003 82 0 4.84 175 00:45 02.05.2020
3783 Clouds 10 1004 81 0 0.45 45 00:24 02.05.2020
3784 Clouds 10 1003 79 0 4.44 160 23:57 01.05.2020
3785 Clouds 10 1004 79 0 4.44 160 23:38 01.05.2020
3786 Clouds 10 1004 77 0 3.85 150 23:19 01.05.2020
3787 Clouds 9 1003 73 0 0.45 135 22:54 01.05.2020
3788 Clouds 9 1003 73 0 0.45 135 22:36 01.05.2020
3789 Rain 10 1003 72 0 3.46 148 22:18 01.05.2020
3790 Rain 10 1003 71 0 0.45 112 21:41 01.05.2020
3791 Rain 11 1003 67 0 3.34 185 21:21 01.05.2020
3792 Rain 12 1003 66 0 3.34 185 20:58 01.05.2020
3793 Rain 13 1003 65 0 3.34 185 20:40 01.05.2020
3794 Rain 15 1003 63 0 2.12 177 20:20 01.05.2020
3795 Rain 15 1003 63 0 2.12 177 20:20 01.05.2020
3796 Rain 16 1003 63 0 2.12 177 19:59 01.05.2020
3797 Rain 16 1003 61 0 2.12 177 19:41 01.05.2020
3798 Clouds 11 999 82 0 1.72 184 19:22 01.05.2020
3799 Clouds 11 999 82 0 1.72 184 19:22 01.05.2020
3800 Clouds 11 999 82 0 1.72 184 18:56 01.05.2020
3801 Clouds 11 999 82 0 1.72 184 18:38 01.05.2020
3802 Clouds 10 999 82 0 1.43 201 18:19 01.05.2020
3803 Clouds 10 999 82 0 1.43 201 18:19 01.05.2020
3804 Clouds 10 999 82 0 1.43 201 17:54 01.05.2020
3805 Clouds 10 999 82 0 1.43 201 17:36 01.05.2020
3806 Rain 10 999 82 0 1.69 243 17:18 01.05.2020
3807 Rain 17 1003 62 0 0.89 157 16:40 01.05.2020
3808 Rain 16 1004 67 0 1.79 180 16:21 01.05.2020
3809 Rain 14 1004 63 0 0.89 202 15:58 01.05.2020
3810 Rain 16 1004 56 0 0.45 135 15:40 01.05.2020
3811 Rain 10 1000 81 0 3.75 254 15:20 01.05.2020
3812 Rain 10 1000 81 0 3.75 254 14:54 01.05.2020
3813 Rain 10 1000 81 0 3.75 254 14:36 01.05.2020
3814 Clouds 10 1000 84 0 4.87 257 14:18 01.05.2020
3815 Clouds 10 1000 84 0 4.87 257 13:40 01.05.2020
3816 Clouds 10 1000 84 0 4.57 249 13:22 01.05.2020
3817 Clouds 17 1003 58 0 1.34 247 12:56 01.05.2020
3818 Clouds 10 1000 84 0 4.57 249 12:37 01.05.2020
3819 Clouds 14 1004 72 0 1.34 225 12:19 01.05.2020
3820 Clouds 13 1003 73 0 4.76 241 11:56 01.05.2020
3821 Clouds 13 1004 74 0 0.45 225 11:38 01.05.2020
3822 Clouds 13 1003 73 0 1.34 225 11:18 01.05.2020
3823 Clouds 12 1003 77 0 0.89 180 10:40 01.05.2020
3824 Clouds 12 1003 75 0 0.89 225 10:20 01.05.2020
3825 Clouds 12 1003 77 0 0.45 225 09:54 01.05.2020
3826 Clouds 12 1003 78 0 0.89 225 09:36 01.05.2020
3827 Clouds 12 1003 80 0 1.34 225 09:18 01.05.2020
3828 Clouds 11 1003 81 0 1.34 225 08:42 01.05.2020
3829 Clouds 10 1003 82 0 0.89 225 08:24 01.05.2020
3830 Clouds 10 1002 82 0 1.79 225 07:47 01.05.2020
3831 Clouds 9 1002 83 0 1.34 202 07:23 01.05.2020
3832 Clouds 9 1002 83 0 0.89 202 06:56 01.05.2020
3833 Clouds 10 1002 84 0 0.89 225 05:39 01.05.2020
3834 Clouds 11 1002 85 0 0.89 202 05:19 01.05.2020
3835 Rain 10 1002 86 0 0.45 157 03:41 01.05.2020
3836 Rain 10 1002 84 0 0.89 135 02:50 01.05.2020
3837 Rain 10 1003 84 0 0.45 135 02:32 01.05.2020
3838 Clouds 10 1004 82 0 2.62 88 01:42 01.05.2020
3839 Clouds 10 1004 82 0 1.85 60 01:24 01.05.2020
3840 Clouds 10 1004 82 0 1.85 60 00:39 01.05.2020
3841 Clouds 10 1004 82 0 1.92 353 00:20 01.05.2020
3842 Clouds 10 1004 81 0 1.92 353 23:57 30.04.2020
3843 Clouds 10 1005 80 0 1.92 353 23:38 30.04.2020
3844 Clouds 10 1005 80 0 3.49 309 23:19 30.04.2020
3845 Clouds 10 1005 79 0 3.49 309 22:54 30.04.2020
3846 Clouds 11 1005 78 0 3.49 309 22:36 30.04.2020
3847 Clouds 11 1006 78 0 5.55 278 22:18 30.04.2020
3848 Clouds 12 1006 78 0 5.55 278 21:41 30.04.2020
3849 Clouds 13 1006 75 0 4.56 285 21:21 30.04.2020
3850 Clouds 13 1006 75 0 4.56 285 20:58 30.04.2020
3851 Clouds 16 1006 70 0 4.56 285 20:39 30.04.2020
3852 Rain 16 1006 72 0 6.83 266 20:18 30.04.2020
3853 Rain 16 1006 72 0 6.83 266 20:18 30.04.2020
3854 Rain 10 1002 88 0 6.83 266 19:46 30.04.2020
3855 Rain 17 1005 67 0 6.13 243 19:26 30.04.2020
3856 Rain 17 1005 67 0 6.13 243 19:26 30.04.2020
3857 Rain 17 1004 68 0 0.45 225 18:59 30.04.2020
3858 Rain 17 1005 66 0 0.89 202 18:39 30.04.2020
3859 Rain 12 1001 87 0 4.74 221 18:21 30.04.2020
3860 Rain 12 1001 87 0 4.74 221 17:58 30.04.2020
3861 Rain 12 1001 87 0 4.74 221 17:39 30.04.2020
3862 Rain 17 1004 79 0 1.34 180 17:20 30.04.2020
3863 Rain 15 1004 80 0 0.89 180 16:57 30.04.2020
3864 Rain 15 1005 78 0 1.34 180 16:38 30.04.2020
3865 Rain 16 1005 75 0 1.34 202 16:19 30.04.2020
3866 Rain 17 1005 77 0 1.79 180 15:48 30.04.2020
3867 Rain 17 1005 77 0 1.79 180 15:48 30.04.2020
3868 Rain 14 1005 81 0 0.89 180 15:25 30.04.2020
3869 Rain 14 1005 80 0 0.89 180 14:57 30.04.2020
3870 Rain 16 1005 80 0 0.45 180 14:39 30.04.2020
3871 Rain 16 1005 80 0 0.89 157 14:19 30.04.2020
3872 Rain 16 1005 79 0 0.45 157 13:55 30.04.2020
3873 Rain 16 1005 77 0 1.34 202 13:37 30.04.2020
3874 Rain 16 1006 79 0 1.34 157 13:19 30.04.2020
3875 Rain 15 1006 82 0 1.79 180 12:41 30.04.2020
3876 Rain 14 1006 83 0 1.34 135 12:20 30.04.2020
3877 Rain 14 1006 83 0 0.89 135 11:58 30.04.2020
3878 Rain 14 1006 83 0 1.34 157 11:37 30.04.2020
3879 Clouds 14 1007 82 0 1.34 157 11:18 30.04.2020
3880 Clouds 14 1007 84 0 1.34 157 10:54 30.04.2020
3881 Clouds 13 1007 85 0 0.89 135 10:36 30.04.2020
3882 Clouds 13 1007 86 0 1.34 135 10:18 30.04.2020
3883 Clouds 12 1007 87 0 1.34 157 09:41 30.04.2020
3884 Clouds 12 1007 89 0 1.79 135 09:22 30.04.2020
3885 Clouds 11 1008 90 0 1.34 157 08:49 30.04.2020
3886 Clouds 11 1008 90 0 0.89 135 08:27 30.04.2020
3887 Clouds 10 1008 90 0 0.45 157 07:58 30.04.2020
3888 Clouds 9 1008 91 0 1.34 157 07:40 30.04.2020
3889 Clouds 9 1008 91 0 0.45 157 07:21 30.04.2020
3890 Clouds 9 1008 90 0 0.45 157 06:39 30.04.2020
3891 Clouds 9 1008 90 0 0.89 135 05:49 30.04.2020
3892 Clouds 9 1008 90 0 0.45 157 05:27 30.04.2020
3893 Clouds 8 1009 89 0 0.89 157 04:29 30.04.2020
3894 Clouds 8 1009 89 0 0.45 135 02:57 30.04.2020
3895 Clouds 8 1009 89 0 0.45 135 02:57 30.04.2020
3896 Clouds 8 1009 89 0 0.89 135 02:29 30.04.2020
3897 Clouds 9 1009 88 0 0.45 135 01:56 30.04.2020
3898 Rain 9 1009 87 0 0.45 135 01:20 30.04.2020
3899 Rain 9 1010 87 0 0.89 157 00:37 30.04.2020
3900 Clouds 9 1010 87 0 0.45 135 00:18 30.04.2020
3901 Clouds 9 1010 87 0 0.89 135 23:54 29.04.2020
3902 Clouds 9 1010 86 0 0.45 135 23:36 29.04.2020
3903 Clouds 9 1010 86 0 0.45 135 23:18 29.04.2020
3904 Clouds 9 1010 87 0 0.89 135 22:39 29.04.2020
3905 Clouds 9 1010 87 0 0.89 135 22:20 29.04.2020
3906 Clouds 9 1010 87 0 0.45 135 21:56 29.04.2020
3907 Clouds 9 1010 87 0 0.45 135 21:36 29.04.2020
3908 Rain 9 1010 87 0 0.45 135 21:18 29.04.2020
3909 Rain 9 1010 87 0 0.45 135 20:40 29.04.2020
3910 Rain 9 1009 87 0 0.45 135 20:20 29.04.2020
3911 Rain 9 1010 87 0 0.45 112 19:58 29.04.2020
3912 Rain 9 1010 87 0 11.24 106 19:40 29.04.2020
3913 Rain 9 1010 87 0 0.45 135 19:19 29.04.2020
3914 Rain 9 1010 86 0 11.09 104 18:43 29.04.2020
3915 Rain 9 1010 86 0 0.89 135 18:24 29.04.2020
3916 Rain 9 1009 86 0 0.89 135 17:57 29.04.2020
3917 Rain 9 1010 85 0 0.45 112 17:39 29.04.2020
3918 Clouds 9 1010 85 0 0.45 112 17:20 29.04.2020
3919 Clouds 9 1010 85 0 10.24 106 16:38 29.04.2020
3920 Clouds 9 1009 85 0 1.34 135 16:19 29.04.2020
3921 Clouds 9 1010 84 0 0.45 112 15:57 29.04.2020
3922 Clouds 9 1010 83 0 10.36 102 15:39 29.04.2020
3923 Rain 9 1010 82 0 9.96 102 15:21 29.04.2020
3924 Rain 10 1010 82 0 9.96 102 14:57 29.04.2020
3925 Clouds 10 1009 81 0 9.64 102 14:38 29.04.2020
3926 Rain 10 1009 81 0 9.91 102 14:20 29.04.2020
3927 Rain 10 1009 80 0 0.89 135 13:42 29.04.2020
3928 Rain 11 1009 79 0 0.45 135 13:20 29.04.2020
3929 Rain 11 1009 79 0 0.45 135 13:20 29.04.2020
3930 Rain 11 1009 79 0 0.45 112 12:59 29.04.2020
3931 Rain 11 1009 79 0 1.34 135 12:40 29.04.2020
3932 Rain 8 1007 87 0 6.37 106 12:19 29.04.2020
3933 Rain 8 1007 87 0 6.37 106 11:58 29.04.2020
3934 Rain 8 1007 87 0 6.37 106 11:36 29.04.2020
3935 Rain 9 1006 86 0 4.77 109 11:18 29.04.2020
3936 Rain 11 1009 73 0 0.89 112 10:37 29.04.2020
3937 Clouds 11 1009 72 0 4.43 118 10:19 29.04.2020
3938 Clouds 11 1009 72 0 0.45 112 09:58 29.04.2020
3939 Clouds 9 1006 85 0 4.43 118 09:40 29.04.2020
3940 Clouds 9 1006 85 0 5.76 85 09:18 29.04.2020
3941 Clouds 9 1006 85 0 5.76 85 08:43 29.04.2020
3942 Clouds 11 1009 76 0 0.89 135 08:24 29.04.2020
3943 Clouds 11 1009 77 0 0.45 112 07:50 29.04.2020
3944 Clouds 10 1008 77 0 5.77 78 07:27 29.04.2020
3945 Clouds 9 1008 77 0 5.77 78 06:52 29.04.2020
3946 Clouds 9 1008 76 0 5.77 78 06:31 29.04.2020
3947 Clouds 9 1008 73 0 0.45 45 05:42 29.04.2020
3948 Clouds 9 1008 71 0 4.52 41 05:18 29.04.2020
3949 Clouds 9 1008 70 0 0.89 67 04:19 29.04.2020
3950 Clouds 10 1008 72 0 5.38 34 02:56 29.04.2020
3951 Clouds 10 1008 71 0 3.31 22 01:47 29.04.2020
3952 Clouds 10 1008 71 0 1.94 29 01:27 29.04.2020
3953 Clouds 10 1008 71 0 1.94 29 00:55 29.04.2020
3954 Clouds 10 1008 70 0 1.94 29 00:36 29.04.2020
3955 Rain 10 1008 69 0 2.26 35 00:18 29.04.2020
3956 Rain 10 1008 67 0 2.26 35 23:43 28.04.2020
3957 Rain 11 1008 66 0 1.49 39 23:20 28.04.2020
3958 Rain 11 1008 65 0 1.49 39 22:39 28.04.2020
3959 Clouds 11 1008 66 0 0.83 38 22:20 28.04.2020
3960 Clouds 11 1008 65 0 0.83 38 21:59 28.04.2020
3961 Clouds 11 1008 66 0 0.45 45 21:40 28.04.2020
3962 Clouds 11 1008 66 0 0.45 45 21:40 28.04.2020
3963 Clouds 11 1009 65 0 0.45 22 21:22 28.04.2020
3964 Clouds 11 1009 64 0 0.45 45 20:59 28.04.2020
3965 Clouds 11 1009 66 0 0.45 22 20:40 28.04.2020
3966 Clouds 11 1009 66 0 0.45 22 20:40 28.04.2020
3967 Clouds 11 1009 66 0 0.45 22 20:20 28.04.2020
3968 Clouds 11 1009 66 0 0.45 45 19:56 28.04.2020
3969 Clouds 12 1009 64 0 0.45 45 19:38 28.04.2020
3970 Clouds 12 1008 64 0 0.45 45 19:19 28.04.2020
3971 Clouds 12 1008 64 0 0.45 45 19:19 28.04.2020
3972 Clouds 12 1008 62 0 1.49 316 18:56 28.04.2020
3973 Clouds 12 1009 62 0 1.49 316 18:37 28.04.2020
3974 Clouds 12 1009 62 0 1.49 316 18:37 28.04.2020
3975 Clouds 12 1009 63 0 1.65 283 18:18 28.04.2020
3976 Clouds 13 1009 63 0 0.45 45 17:37 28.04.2020
3977 Clouds 13 1009 62 0 0.45 45 17:19 28.04.2020
3978 Clouds 13 1009 62 0 0.45 45 16:58 28.04.2020
3979 Clouds 14 1009 60 0 1.41 289 16:39 28.04.2020
3980 Clouds 14 1009 57 0 1.63 295 16:21 28.04.2020
3981 Clouds 14 1009 57 0 0.89 22 15:56 28.04.2020
3982 Clouds 14 1009 60 0 1.63 295 15:38 28.04.2020
3983 Clouds 14 1009 60 0 2.1 310 15:20 28.04.2020
3984 Clouds 14 1009 59 0 0.45 22 14:55 28.04.2020
3985 Clouds 14 1009 61 0 2.1 310 14:36 28.04.2020
3986 Clouds 14 1009 63 0 3.13 299 14:18 28.04.2020
3987 Clouds 13 1009 62 0 0.45 292 13:55 28.04.2020
3988 Clouds 13 1009 63 0 0.89 0 13:36 28.04.2020
3989 Clouds 13 1009 65 0 3.81 313 13:18 28.04.2020
3990 Clouds 13 1009 66 0 0.45 22 12:43 28.04.2020
3991 Clouds 13 1009 68 0 0.89 337 12:23 28.04.2020
3992 Clouds 13 1009 68 0 0.89 315 11:43 28.04.2020
3993 Clouds 13 1009 72 0 0.45 22 11:23 28.04.2020
3994 Clouds 13 1009 73 0 0.45 0 10:58 28.04.2020
3995 Clouds 12 1008 76 0 5.15 327 10:38 28.04.2020
3996 Clouds 12 1008 76 0 5.15 327 10:38 28.04.2020
3997 Clouds 12 1008 77 0 5.75 326 10:19 28.04.2020
3998 Clouds 12 1008 77 0 5.75 326 10:19 28.04.2020
3999 Clouds 12 1008 78 0 1.79 315 09:55 28.04.2020
4000 Clouds 11 1008 79 0 0.45 292 09:36 28.04.2020
4001 Clouds 11 1008 79 0 0.45 315 09:18 28.04.2020
4002 Clouds 12 1007 78 0 1.34 315 08:40 28.04.2020
4003 Clouds 12 1007 77 0 0.89 315 08:22 28.04.2020
4004 Clouds 11 1007 75 0 0.89 292 07:44 28.04.2020
4005 Clouds 11 1007 75 0 0.89 292 07:44 28.04.2020
4006 Clouds 11 1007 75 0 0.89 292 07:44 28.04.2020
4007 Clouds 11 1007 77 0 0.89 292 07:19 28.04.2020
4008 Clouds 10 1007 76 0 0.45 292 06:44 28.04.2020
4009 Clouds 9 1006 74 0 3.99 286 05:57 28.04.2020
4010 Clouds 9 1006 74 0 3.99 286 05:38 28.04.2020
4011 Clouds 10 1006 73 0 0.45 157 04:39 28.04.2020
4012 Clouds 11 1006 71 0 3.51 187 02:59 28.04.2020
4013 Clouds 11 1007 71 0 0.45 135 02:27 28.04.2020
4014 Clouds 11 1008 71 0 4.06 165 01:23 28.04.2020
4015 Clouds 11 1008 73 0 0.45 135 00:51 28.04.2020
4016 Clouds 11 1008 74 0 0.89 135 00:20 28.04.2020
4017 Clouds 11 1008 73 0 0.89 135 23:44 27.04.2020
4018 Clouds 11 1008 72 0 0.45 135 23:23 27.04.2020
4019 Clouds 11 1008 72 0 0.45 135 23:23 27.04.2020
4020 Clouds 11 1009 72 0 0.45 135 22:55 27.04.2020
4021 Clouds 11 1009 72 0 0.45 135 22:37 27.04.2020
4022 Clouds 11 1009 72 0 0.45 135 22:18 27.04.2020
4023 Clouds 11 1009 70 0 0.89 135 21:55 27.04.2020
4024 Clouds 11 1009 69 0 0.89 135 21:37 27.04.2020
4025 Clouds 12 1009 67 0 0.45 135 21:18 27.04.2020
4026 Clouds 12 1009 65 0 0.89 135 20:43 27.04.2020
4027 Clouds 14 1009 60 0 0.45 135 20:22 27.04.2020
4028 Clouds 15 1009 57 0 4.12 105 19:58 27.04.2020
4029 Clouds 11 1006 76 0 4.12 105 19:39 27.04.2020
4030 Clouds 11 1006 75 0 2.88 89 19:20 27.04.2020
4031 Clouds 11 1006 75 0 2.88 89 18:57 27.04.2020
4032 Clouds 11 1006 75 0 2.88 89 18:39 27.04.2020
4033 Clouds 11 1006 75 0 2.24 75 18:19 27.04.2020
4034 Clouds 11 1006 75 0 2.24 75 17:43 27.04.2020
4035 Clear 11 1007 74 0 1.96 75 17:21 27.04.2020
4036 Clear 11 1007 74 0 1.96 75 16:58 27.04.2020
4037 Clear 11 1007 74 0 1.96 75 16:39 27.04.2020
4038 Clouds 11 1007 73 0 1.89 80 16:21 27.04.2020
4039 Clouds 11 1007 73 0 1.89 80 15:56 27.04.2020
4040 Clouds 11 1007 73 0 1.89 80 15:38 27.04.2020
4041 Clouds 10 1008 68 0 1.55 82 15:18 27.04.2020
4042 Clouds 16 1011 59 0 1.55 82 14:42 27.04.2020
4043 Clouds 14 1012 63 0 0.43 101 14:23 27.04.2020
4044 Clouds 14 1012 61 0 1.34 45 13:59 27.04.2020
4045 Clouds 14 1012 62 0 0.89 45 13:41 27.04.2020
4046 Clouds 14 1012 62 0 0.45 22 13:20 27.04.2020
4047 Clouds 13 1013 63 0 1.34 45 12:56 27.04.2020
4048 Clouds 13 1013 67 0 0.45 22 12:38 27.04.2020
4049 Clouds 13 1013 65 0 0.45 45 12:19 27.04.2020
4050 Clouds 14 1013 61 0 0.45 22 11:41 27.04.2020
4051 Clouds 14 1013 63 0 1.81 239 11:19 27.04.2020
4052 Clouds 13 1013 63 0 1.81 239 10:57 27.04.2020
4053 Clouds 12 1013 65 0 0.45 180 10:38 27.04.2020
4054 Clouds 12 1013 67 0 0.45 180 10:20 27.04.2020
4055 Clouds 11 1013 70 0 1.81 239 09:44 27.04.2020
4056 Clouds 9 1014 74 0 3.22 230 09:19 27.04.2020
4057 Clouds 9 1014 75 0 3.22 230 08:58 27.04.2020
4058 Clouds 3 1014 78 0 3.22 230 08:40 27.04.2020
4059 Clouds 3 1014 78 0 3.22 230 08:22 27.04.2020
4060 Clouds 3 1014 78 0 3.22 230 07:44 27.04.2020
4061 Clouds 3 1014 78 0 3.22 230 07:20 27.04.2020
4062 Clouds 3 1014 78 0 3.22 230 06:56 27.04.2020
4063 Clouds 2 1014 77 0 3.55 223 06:27 27.04.2020
4064 Clouds 2 1014 77 0 3.55 223 06:27 27.04.2020
4065 Clouds 2 1014 76 0 3.55 223 05:50 27.04.2020
4066 Clouds 2 1014 76 0 3.55 223 04:49 27.04.2020
4067 Clouds 2 1014 74 0 3.55 223 03:59 27.04.2020
4068 Clouds 2 1014 74 0 3.55 223 03:59 27.04.2020
4069 Clouds 3 1014 74 0 3.55 223 03:35 27.04.2020
4070 Clear 3 1014 72 0 3.06 236 01:43 27.04.2020
4071 Clear 4 1014 72 0 3.06 236 00:59 27.04.2020
4072 Clear 5 1014 70 0 4.1 278 00:20 27.04.2020
4073 Clear 5 1014 69 0 4.1 278 23:58 26.04.2020
4074 Clear 6 1014 68 0 4.1 278 23:40 26.04.2020
4075 Clear 7 1014 68 0 4.1 278 23:21 26.04.2020
4076 Clear 7 1014 68 0 4.1 278 22:58 26.04.2020
4077 Clear 8 1014 68 0 4.1 278 22:39 26.04.2020
4078 Clear 8 1014 67 0 4.1 278 22:21 26.04.2020
4079 Clear 8 1014 67 0 4.1 278 21:58 26.04.2020
4080 Clear 8 1014 66 0 0.45 22 21:38 26.04.2020
4081 Clouds 9 1014 65 0 6.42 274 21:18 26.04.2020
4082 Clouds 9 1014 65 0 6.42 274 21:18 26.04.2020
4083 Clouds 9 1014 64 0 6.42 274 20:55 26.04.2020
4084 Clouds 10 1014 63 0 6.42 274 20:37 26.04.2020
4085 Clouds 10 1014 63 0 6.42 274 20:37 26.04.2020
4086 Clouds 11 1014 62 0 6.42 274 20:18 26.04.2020
4087 Clouds 12 1014 62 0 6.42 274 19:57 26.04.2020
4088 Clouds 12 1014 63 0 0.89 22 19:36 26.04.2020
4089 Clouds 12 1014 64 0 6.42 274 19:18 26.04.2020
4090 Clouds 11 1014 67 0 0.45 22 18:43 26.04.2020
4091 Clouds 11 1014 66 0 0.45 22 18:24 26.04.2020
4092 Clouds 11 1014 66 0 0.45 22 18:24 26.04.2020
4093 Clouds 12 1014 64 0 1.34 45 17:44 26.04.2020
4094 Clouds 12 1014 65 0 0.89 22 17:23 26.04.2020
4095 Clouds 12 1014 64 0 0.89 45 16:59 26.04.2020
4096 Clouds 13 1014 63 0 0.89 337 16:40 26.04.2020
4097 Clouds 12 1014 66 0 0.89 45 16:20 26.04.2020
4098 Clouds 13 1014 64 0 1.34 45 15:58 26.04.2020
4099 Clouds 13 1014 65 0 0.89 22 15:38 26.04.2020
4100 Clouds 14 1014 64 0 1.34 45 15:20 26.04.2020
4101 Clouds 14 1014 65 0 0.89 22 14:54 26.04.2020
4102 Clouds 14 1014 66 0 0.89 0 14:36 26.04.2020
4103 Clouds 13 1014 68 0 0.45 22 14:18 26.04.2020
4104 Clouds 13 1014 68 0 0.45 67 13:41 26.04.2020
4105 Clouds 15 1014 57 0 6.94 268 13:23 26.04.2020
4106 Clouds 14 1014 58 0 6.94 268 12:58 26.04.2020
4107 Clouds 8 1011 81 0 6.94 268 12:40 26.04.2020
4108 Rain 8 1011 83 0 4.99 284 12:20 26.04.2020
4109 Rain 8 1011 83 0 4.99 284 11:57 26.04.2020
4110 Rain 8 1011 83 0 4.99 284 11:39 26.04.2020
4111 Rain 8 1011 83 0 4.99 284 11:21 26.04.2020
4112 Rain 13 1015 66 0 4.99 284 10:55 26.04.2020
4113 Rain 13 1014 69 0 4.99 284 10:37 26.04.2020
4114 Rain 13 1015 69 0 4.99 284 10:18 26.04.2020
4115 Rain 8 1011 83 0 4.99 284 09:39 26.04.2020
4116 Clouds 8 1011 80 0 3.93 247 09:21 26.04.2020
4117 Clouds 10 1014 74 0 3.93 247 08:56 26.04.2020
4118 Clouds 9 1014 76 0 3.93 247 08:37 26.04.2020
4119 Clouds 9 1014 77 0 3.93 247 08:18 26.04.2020
4120 Clouds 8 1014 77 0 3.93 247 07:46 26.04.2020
4121 Clouds 7 1014 77 0 3.93 247 07:21 26.04.2020
4122 Clouds 6 1014 76 0 3.93 247 06:43 26.04.2020
4123 Clouds 6 1014 76 0 2.55 283 05:57 26.04.2020
4124 Clouds 5 1014 75 0 2.55 283 05:38 26.04.2020
4125 Clouds 4 1014 75 0 2.55 283 04:56 26.04.2020
4126 Clouds 4 1014 74 0 2.55 283 04:22 26.04.2020
4127 Clear 4 1014 72 0 4.38 317 02:51 26.04.2020
4128 Clear 4 1014 71 0 4.38 317 02:31 26.04.2020
4129 Clear 4 1014 70 0 3.55 305 01:51 26.04.2020
4130 Clear 5 1014 70 0 3.55 305 01:27 26.04.2020
4131 Clear 6 1014 70 0 3.55 305 00:40 26.04.2020
4132 Clear 6 1014 70 0 0.45 292 00:19 26.04.2020
4133 Clear 6 1013 68 0 5 316 23:39 25.04.2020
4134 Clear 6 1013 67 0 5 316 23:21 25.04.2020
4135 Clear 6 1014 67 0 5 316 22:58 25.04.2020
4136 Clear 7 1014 64 0 5 316 22:40 25.04.2020
4137 Clear 7 1014 63 0 5 316 22:19 25.04.2020
4138 Clear 8 1013 61 0 5 316 21:56 25.04.2020
4139 Clear 9 1014 59 0 5 316 21:36 25.04.2020
4140 Clear 10 1014 56 0 5.55 325 21:18 25.04.2020
4141 Clear 11 1014 54 0 5.55 325 20:42 25.04.2020
4142 Clear 13 1013 50 0 5.55 325 20:22 25.04.2020
4143 Clear 9 1009 67 0 5.55 325 19:58 25.04.2020
4144 Clear 9 1009 67 0 5.55 325 19:38 25.04.2020
4145 Clear 14 1013 52 0 5.55 325 19:19 25.04.2020
4146 Clear 13 1013 58 0 5.55 325 18:43 25.04.2020
4147 Clear 12 1013 65 0 6.04 309 18:22 25.04.2020
4148 Clear 13 1013 62 0 6.04 309 17:59 25.04.2020
4149 Clear 13 1013 61 0 0.45 22 17:39 25.04.2020
4150 Clear 13 1013 60 0 6.04 309 17:21 25.04.2020
4151 Clear 13 1013 60 0 6.04 309 17:21 25.04.2020
4152 Clear 14 1013 58 0 6.04 309 16:59 25.04.2020
4153 Clear 14 1013 59 0 6.04 309 16:41 25.04.2020
4154 Clear 13 1014 62 0 6.04 309 16:21 25.04.2020
4155 Clear 14 1014 53 0 6.04 309 15:55 25.04.2020
4156 Clear 14 1014 50 0 6.04 309 15:37 25.04.2020
4157 Clear 14 1014 47 0 0.89 315 15:18 25.04.2020
4158 Clear 15 1014 45 0 1.79 22 14:56 25.04.2020
4159 Clear 15 1014 46 0 1.34 0 14:37 25.04.2020
4160 Clear 15 1014 47 0 1.34 337 14:18 25.04.2020
4161 Clear 14 1014 45 0 0.45 45 13:41 25.04.2020
4162 Clear 14 1014 45 0 0.45 337 13:19 25.04.2020
4163 Clear 14 1015 50 0 1.34 315 12:56 25.04.2020
4164 Clear 9 1011 79 0 6.03 264 12:38 25.04.2020
4165 Clear 9 1011 79 0 6.03 264 12:38 25.04.2020
4166 Clear 13 1015 53 0 0.89 337 12:19 25.04.2020
4167 Clear 13 1015 55 0 3.65 288 11:43 25.04.2020
4168 Clear 12 1015 59 0 0.45 292 11:25 25.04.2020
4169 Clear 12 1015 58 0 0.45 0 10:59 25.04.2020
4170 Clear 11 1014 60 0 3.65 288 10:41 25.04.2020
4171 Clear 11 1014 63 0 3.65 288 10:21 25.04.2020
4172 Clear 10 1014 68 0 0.45 0 09:45 25.04.2020
4173 Clouds 9 1014 70 0 0.89 45 09:26 25.04.2020
4174 Clouds 9 1013 73 0 0.89 22 08:57 25.04.2020
4175 Clouds 9 1013 76 0 0.45 22 08:38 25.04.2020
4176 Clouds 8 1013 77 0 0.89 22 08:20 25.04.2020
4177 Clouds 8 1013 71 0 0.89 22 07:45 25.04.2020
4178 Clouds 8 1012 72 0 1.79 45 07:23 25.04.2020
4179 Clouds 8 1012 73 0 1.34 22 06:44 25.04.2020
4180 Clouds 8 1011 74 0 0.45 45 05:56 25.04.2020
4181 Rain 8 1010 79 0 0.89 45 05:30 25.04.2020
4182 Rain 8 1010 80 0 1.34 0 04:42 25.04.2020
4183 Rain 8 1009 85 0 1.34 45 02:59 25.04.2020
4184 Rain 9 1008 85 0 0.89 45 02:20 25.04.2020
4185 Rain 9 1008 84 0 0.45 292 01:51 25.04.2020
4186 Rain 8 1008 84 0 0.45 315 01:27 25.04.2020
4187 Rain 8 1007 82 0 0.89 292 00:52 25.04.2020
4188 Rain 8 1008 82 0 0.89 315 00:31 25.04.2020
4189 Clear 8 1008 80 0 1.34 315 23:44 24.04.2020
4190 Clear 8 1008 80 0 1.34 315 23:44 24.04.2020
4191 Clear 8 1008 80 0 0.89 315 23:23 24.04.2020
4192 Clear 9 1008 79 0 1.34 292 22:58 24.04.2020
4193 Clear 9 1008 77 0 1.34 292 22:38 24.04.2020
4194 Clear 9 1008 76 0 1.34 292 22:19 24.04.2020
4195 Clear 10 1008 74 0 0.89 292 21:55 24.04.2020
4196 Clouds 11 1008 72 0 0.45 270 21:36 24.04.2020
4197 Clouds 11 1008 72 0 0.89 292 21:18 24.04.2020
4198 Clouds 12 1008 69 0 1.79 315 20:55 24.04.2020
4199 Clouds 12 1008 68 0 1.34 315 20:37 24.04.2020
4200 Clouds 13 1008 66 0 1.79 315 20:18 24.04.2020
4201 Clouds 13 1008 63 0 2.24 315 19:40 24.04.2020
4202 Clouds 13 1008 62 0 0.89 292 19:21 24.04.2020
4203 Clouds 14 1008 61 0 0.89 315 18:45 24.04.2020
4204 Clouds 14 1008 59 0 0.89 292 18:26 24.04.2020
4205 Clouds 16 1009 57 0 1.34 315 17:58 24.04.2020
4206 Clouds 16 1009 57 0 1.34 315 17:58 24.04.2020
4207 Clouds 16 1009 57 0 1.34 315 17:38 24.04.2020
4208 Clouds 16 1009 45 0 0.45 292 17:19 24.04.2020
4209 Clouds 16 1009 45 0 2.24 337 16:58 24.04.2020
4210 Clouds 17 1009 46 0 1.34 292 16:40 24.04.2020
4211 Clouds 17 1009 46 0 1.34 0 16:21 24.04.2020
4212 Clouds 10 1004 77 0 8.12 266 15:42 24.04.2020
4213 Clouds 10 1007 77 0 7.79 266 15:21 24.04.2020
4214 Clouds 10 1007 77 0 7.79 266 14:59 24.04.2020
4215 Clouds 10 1007 77 0 7.79 266 14:38 24.04.2020
4216 Clouds 9 1006 77 0 8.73 264 14:19 24.04.2020
4217 Clouds 9 1006 77 0 8.73 264 13:42 24.04.2020
4218 Clouds 18 1010 46 0 0.45 315 13:22 24.04.2020
4219 Clouds 18 1010 47 0 8.73 264 12:59 24.04.2020
4220 Clouds 17 1010 47 0 8.73 264 12:40 24.04.2020
4221 Clear 17 1010 49 0 0.45 337 12:20 24.04.2020
4222 Clear 17 1010 53 0 0.89 337 11:56 24.04.2020
4223 Clear 16 1011 57 0 0.89 337 11:37 24.04.2020
4224 Clear 16 1011 59 0 0.89 315 11:18 24.04.2020
4225 Clear 16 1011 59 0 0.89 315 11:18 24.04.2020
4226 Clear 15 1011 61 0 1.34 315 10:38 24.04.2020
4227 Clear 14 1011 63 0 0.89 292 10:20 24.04.2020
4228 Clear 14 1011 65 0 4.99 283 09:58 24.04.2020
4229 Clouds 13 1011 67 0 4.09 304 09:39 24.04.2020
4230 Clouds 13 1012 69 0 3.51 275 09:21 24.04.2020
4231 Clouds 11 1012 73 0 0.45 292 08:54 24.04.2020
4232 Clouds 11 1012 75 0 3.51 275 08:36 24.04.2020
4233 Clouds 9 1013 75 0 3.51 275 08:18 24.04.2020
4234 Clouds 8 1012 74 0 3.51 275 07:43 24.04.2020
4235 Clouds 8 1013 75 0 3.51 275 07:23 24.04.2020
4236 Clouds 8 1013 75 0 3.51 275 06:49 24.04.2020
4237 Clouds 7 1013 75 0 3.51 275 06:30 24.04.2020
4238 Clouds 7 1014 74 0 2.85 247 05:42 24.04.2020
4239 Clouds 7 1016 73 0 2.85 247 03:57 24.04.2020
4240 Clouds 7 1017 71 0 3.22 232 02:56 24.04.2020
4241 Clouds 7 1017 69 0 3.22 232 02:37 24.04.2020
4242 Clouds 7 1017 67 0 3.58 215 01:57 24.04.2020
4243 Clouds 7 1018 66 0 3.58 215 00:58 24.04.2020
4244 Clouds 8 1019 65 0 2.81 217 00:21 24.04.2020
4245 Clouds 8 1019 65 0 2.81 217 00:21 24.04.2020
4246 Clouds 8 1019 64 0 2.81 217 23:55 23.04.2020
4247 Clouds 8 1019 63 0 2.81 217 23:37 23.04.2020
4248 Clouds 9 1020 63 0 2.81 217 23:18 23.04.2020
4249 Clouds 9 1020 61 0 2.81 217 22:54 23.04.2020
4250 Clouds 10 1020 60 0 2.81 217 22:36 23.04.2020
4251 Clouds 11 1020 59 0 2.81 217 22:18 23.04.2020
4252 Clouds 11 1021 58 0 2.81 217 21:55 23.04.2020
4253 Clouds 12 1021 58 0 2.53 209 21:37 23.04.2020
4254 Clouds 12 1021 57 0 0.45 285 21:18 23.04.2020
4255 Clouds 13 1021 53 0 0.45 285 20:41 23.04.2020
4256 Clouds 16 1021 49 0 0.45 112 20:22 23.04.2020
4257 Clouds 11 1019 66 0 0.45 285 19:58 23.04.2020
4258 Clouds 11 1019 66 0 0.45 285 19:40 23.04.2020
4259 Clouds 11 1019 66 0 0.45 285 19:21 23.04.2020
4260 Clouds 11 1019 66 0 0.45 285 18:56 23.04.2020
4261 Clouds 18 1022 42 0 0.45 285 18:38 23.04.2020
4262 Clouds 19 1022 42 0 1.94 320 18:19 23.04.2020
4263 Clouds 19 1022 42 0 1.94 320 18:19 23.04.2020
4264 Clouds 19 1023 47 0 1.94 320 17:55 23.04.2020
4265 Clouds 18 1023 45 0 1.94 320 17:36 23.04.2020
4266 Clouds 18 1023 46 0 0.45 45 17:18 23.04.2020
4267 Clouds 18 1024 48 0 1.94 320 16:43 23.04.2020
4268 Clouds 18 1024 46 0 0.45 45 16:19 23.04.2020
4269 Clouds 19 1025 40 0 0.45 45 15:43 23.04.2020
4270 Clouds 19 1025 40 0 0.45 45 15:43 23.04.2020
4271 Clouds 19 1025 42 0 0.45 45 15:23 23.04.2020
4272 Clouds 19 1025 41 0 0.45 45 14:59 23.04.2020
4273 Clouds 19 1026 43 0 2.16 298 14:39 23.04.2020
4274 Clouds 19 1026 42 0 2.16 298 14:21 23.04.2020
4275 Clouds 18 1026 44 0 2.16 298 13:57 23.04.2020
4276 Clouds 18 1027 44 0 0.45 45 13:38 23.04.2020
4277 Clouds 18 1027 45 0 2.16 298 13:19 23.04.2020
4278 Clouds 18 1027 42 0 0.89 67 12:56 23.04.2020
4279 Clouds 12 1023 62 0 2.16 298 12:38 23.04.2020
4280 Clouds 11 1024 63 0 2.52 300 12:19 23.04.2020
4281 Clouds 17 1028 54 0 0.45 22 11:46 23.04.2020
4282 Clouds 17 1028 55 0 0.45 337 11:27 23.04.2020
4283 Clouds 16 1028 54 0 2.52 300 10:57 23.04.2020
4284 Clouds 15 1029 66 0 2.52 300 10:39 23.04.2020
4285 Clouds 14 1029 69 0 2.52 300 10:19 23.04.2020
4286 Clouds 12 1029 82 0 0.45 0 09:38 23.04.2020
4287 Clear 11 1029 83 0 2.35 278 09:18 23.04.2020
4288 Clear 9 1029 85 0 2.35 278 08:47 23.04.2020
4289 Clear 8 1030 85 0 2.35 278 08:29 23.04.2020
4290 Clear 6 1029 85 0 2.35 278 07:47 23.04.2020
4291 Clear 4 1030 84 0 2.35 278 07:24 23.04.2020
4292 Clear 3 1030 84 0 2.35 278 06:58 23.04.2020
4293 Clear 3 1030 84 0 2.35 278 06:40 23.04.2020
4294 Clear 3 1030 84 0 0.98 159 05:37 23.04.2020
4295 Clear 3 1030 84 0 0.98 159 05:18 23.04.2020
4296 Clear 5 1030 83 0 3.36 81 02:48 23.04.2020
4297 Clear 5 1030 83 0 2.89 86 02:23 23.04.2020
4298 Clear 4 1030 79 0 2.89 86 01:38 23.04.2020
4299 Clear 4 1030 79 0 2.89 86 00:54 23.04.2020
4300 Clear 4 1030 79 0 2.7 71 00:26 23.04.2020
4301 Clear 4 1030 77 0 2.7 71 23:57 22.04.2020
4302 Clear 6 1030 77 0 2.7 71 23:38 22.04.2020
4303 Clear 6 1030 77 0 2.7 71 23:19 22.04.2020
4304 Clear 7 1030 76 0 2.7 71 22:40 22.04.2020
4305 Clear 7 1030 76 0 2.7 71 22:20 22.04.2020
4306 Clear 7 1030 74 0 2.7 71 21:59 22.04.2020
4307 Clear 8 1030 73 0 2.7 71 21:40 22.04.2020
4308 Clear 8 1030 72 0 4.75 81 21:22 22.04.2020
4309 Clear 9 1030 72 0 4.75 81 20:59 22.04.2020
4310 Clear 11 1030 68 0 4.75 81 20:41 22.04.2020
4311 Clear 12 1030 66 0 4.75 81 20:18 22.04.2020
4312 Clear 9 1027 73 0 4.75 81 19:57 22.04.2020
4313 Clear 13 1030 70 0 4.75 81 19:37 22.04.2020
4314 Clear 12 1030 73 0 4.75 81 19:18 22.04.2020
4315 Clear 11 1030 73 0 4.75 81 18:56 22.04.2020
4316 Clear 11 1030 74 0 0.45 67 18:38 22.04.2020
4317 Clear 11 1030 73 0 0.45 67 18:20 22.04.2020
4318 Clear 11 1031 72 0 6.33 68 17:43 22.04.2020
4319 Clear 11 1031 74 0 0.45 67 17:25 22.04.2020
4320 Clear 11 1031 75 0 1.34 45 16:58 22.04.2020
4321 Clear 12 1031 74 0 1.34 45 16:39 22.04.2020
4322 Clear 11 1031 74 0 0.89 22 16:20 22.04.2020
4323 Clear 11 1032 73 0 6.33 68 15:41 22.04.2020
4324 Clear 11 1032 75 0 0.45 45 15:22 22.04.2020
4325 Clear 11 1032 76 0 0.89 45 14:58 22.04.2020
4326 Clear 12 1032 75 0 1.79 45 14:38 22.04.2020
4327 Clear 11 1032 76 0 1.79 67 14:19 22.04.2020
4328 Clear 11 1033 75 0 2.24 22 13:55 22.04.2020
4329 Clear 11 1033 74 0 1.79 0 13:36 22.04.2020
4330 Clear 11 1033 75 0 0.89 45 13:18 22.04.2020
4331 Clear 11 1033 74 0 1.79 22 12:39 22.04.2020
4332 Clear 11 1034 74 0 0.89 45 12:21 22.04.2020
4333 Clear 11 1034 74 0 0.45 22 11:40 22.04.2020
4334 Clear 11 1034 72 0 0.89 45 11:22 22.04.2020
4335 Clear 10 1033 74 0 1.34 45 10:59 22.04.2020
4336 Clear 9 1034 76 0 0.89 45 10:39 22.04.2020
4337 Clear 9 1034 76 0 0.89 22 10:20 22.04.2020
4338 Clear 9 1034 76 0 0.89 45 09:39 22.04.2020
4339 Clear 9 1033 77 0 0.45 67 09:21 22.04.2020
4340 Clear 9 1033 77 0 0.45 67 09:21 22.04.2020
4341 Clear 9 1034 79 0 0.89 67 08:58 22.04.2020
4342 Clear 8 1034 82 0 0.89 67 08:40 22.04.2020
4343 Clear 8 1034 84 0 6.44 72 08:21 22.04.2020
4344 Clear 7 1034 88 0 6.44 72 07:53 22.04.2020
4345 Clear 6 1033 88 0 6.44 72 07:28 22.04.2020
4346 Clear 5 1033 86 0 6.44 72 06:53 22.04.2020
4347 Clear 5 1033 86 0 6.44 72 06:53 22.04.2020
4348 Clear 5 1033 86 0 6.35 80 06:21 22.04.2020
4349 Clear 5 1033 85 0 6.35 80 05:37 22.04.2020
4350 Clear 5 1033 83 0 6.35 80 04:30 22.04.2020
4351 Clear 6 1033 81 0 6.82 89 02:51 22.04.2020
4352 Clear 6 1033 78 0 6.26 90 01:53 22.04.2020
4353 Clear 6 1033 78 0 6.26 90 01:27 22.04.2020
4354 Clear 6 1033 78 0 6.26 90 00:59 22.04.2020
4355 Clear 6 1032 77 0 6.26 90 00:41 22.04.2020
4356 Clear 6 1032 77 0 7.85 82 00:19 22.04.2020
4357 Clear 7 1032 76 0 7.85 82 23:41 21.04.2020
4358 Clear 7 1032 75 0 7.85 82 23:19 21.04.2020
4359 Clear 7 1032 75 0 0.89 45 22:41 21.04.2020
4360 Clear 7 1032 74 0 7.85 82 22:22 21.04.2020
4361 Clear 8 1032 74 0 0.45 67 21:59 21.04.2020
4362 Clear 8 1032 74 0 0.45 67 21:59 21.04.2020
4363 Clear 8 1032 74 0 0.45 67 21:59 21.04.2020
4364 Clear 8 1032 72 0 7.85 82 21:41 21.04.2020
4365 Clear 8 1032 71 0 6.96 77 21:23 21.04.2020
4366 Clear 8 1032 71 0 6.96 77 20:57 21.04.2020
4367 Clear 9 1032 70 0 0.45 45 20:39 21.04.2020
4368 Clear 10 1032 66 0 6.96 77 20:21 21.04.2020
4369 Clear 8 1029 76 0 7.04 77 19:41 21.04.2020
4370 Clear 12 1032 59 0 0.89 45 19:20 21.04.2020
4371 Clear 12 1032 58 0 0.45 67 18:59 21.04.2020
4372 Clear 12 1032 59 0 1.79 67 18:39 21.04.2020
4373 Clear 12 1032 59 0 1.79 67 18:39 21.04.2020
4374 Clear 12 1032 61 0 6.79 78 18:19 21.04.2020
4375 Clear 13 1032 60 0 0.89 90 17:59 21.04.2020
4376 Clear 13 1032 51 0 0.45 45 17:39 21.04.2020
4377 Clear 13 1032 51 0 0.45 67 17:19 21.04.2020
4378 Clear 13 1032 55 0 0.89 67 16:54 21.04.2020
4379 Clear 13 1032 52 0 0.89 45 16:36 21.04.2020
4380 Clear 13 1033 54 0 0.45 67 16:18 21.04.2020
4381 Clear 13 1033 56 0 6.79 78 15:54 21.04.2020
4382 Clear 13 1033 53 0 1.34 45 15:36 21.04.2020
4383 Clear 13 1033 54 0 0.89 67 15:18 21.04.2020
4384 Clear 13 1033 54 0 0.45 67 14:43 21.04.2020
4385 Clear 13 1033 59 0 0.89 45 14:23 21.04.2020
4386 Clear 13 1034 63 0 1.34 45 13:54 21.04.2020
4387 Clear 13 1034 63 0 0.89 67 13:36 21.04.2020
4388 Clear 13 1034 63 0 0.89 45 13:18 21.04.2020
4389 Clear 12 1033 69 0 0.89 45 12:38 21.04.2020
4390 Clear 12 1033 69 0 0.89 45 12:38 21.04.2020
4391 Clear 12 1034 65 0 1.79 22 12:19 21.04.2020
4392 Clear 13 1033 60 0 7.8 78 11:57 21.04.2020
4393 Clear 13 1034 61 0 7.8 78 11:38 21.04.2020
4394 Clear 12 1034 62 0 0.45 90 11:19 21.04.2020
4395 Clear 12 1034 65 0 0.45 112 10:58 21.04.2020
4396 Clear 11 1033 64 0 0.89 45 10:39 21.04.2020
4397 Clear 11 1033 64 0 0.89 45 10:39 21.04.2020
4398 Clear 11 1034 66 0 7.8 78 10:20 21.04.2020
4399 Clear 10 1034 65 0 1.34 90 09:55 21.04.2020
4400 Clear 8 1030 72 0 7.65 83 09:36 21.04.2020
4401 Clear 9 1034 69 0 1.79 67 09:18 21.04.2020
4402 Clear 9 1034 70 0 0.45 90 08:43 21.04.2020
4403 Clear 8 1034 77 0 7.21 85 08:24 21.04.2020
4404 Clear 7 1033 81 0 0.45 112 07:51 21.04.2020
4405 Clear 6 1033 81 0 7.21 85 07:27 21.04.2020
4406 Clear 4 1033 78 0 7.21 85 06:50 21.04.2020
4407 Clear 4 1033 78 0 7.21 85 06:32 21.04.2020
4408 Clear 4 1033 78 0 6.64 87 05:50 21.04.2020
4409 Clear 4 1033 77 0 6.64 87 04:57 21.04.2020
4410 Clear 6 1033 78 0 0.45 112 03:46 21.04.2020
4411 Clear 6 1033 78 0 6.83 88 02:41 21.04.2020
4412 Clear 6 1033 77 0 6.21 80 01:30 21.04.2020
4413 Clear 6 1032 74 0 6.21 80 00:38 21.04.2020
4414 Clear 6 1032 74 0 5.71 69 00:18 21.04.2020
4415 Clear 6 1032 72 0 5.71 69 23:43 20.04.2020
4416 Clear 6 1032 69 0 5.71 69 23:21 20.04.2020
4417 Clear 7 1032 66 0 5.71 69 22:55 20.04.2020
4418 Clear 7 1032 66 0 5.71 69 22:36 20.04.2020
4419 Clear 7 1032 66 0 5.71 69 22:18 20.04.2020
4420 Clear 7 1032 66 0 5.71 69 22:18 20.04.2020
4421 Clear 8 1032 65 0 5.71 69 21:54 20.04.2020
4422 Clear 8 1032 65 0 5.71 69 21:36 20.04.2020
4423 Clear 8 1032 63 0 3.34 87 21:18 20.04.2020
4424 Clear 9 1032 61 0 0.45 67 20:42 20.04.2020
4425 Clear 10 1031 56 0 3.34 87 20:20 20.04.2020
4426 Clear 9 1028 67 0 3.34 87 19:59 20.04.2020
4427 Clear 12 1031 54 0 3.34 87 19:41 20.04.2020
4428 Clear 11 1032 57 0 0.89 45 19:22 20.04.2020
4429 Clear 11 1032 58 0 0.45 45 18:58 20.04.2020
4430 Clear 11 1031 56 0 0.89 45 18:39 20.04.2020
4431 Clear 12 1032 54 0 1.34 22 18:20 20.04.2020
4432 Clear 12 1032 54 0 1.34 22 18:20 20.04.2020
4433 Clear 12 1032 51 0 3.71 68 17:54 20.04.2020
4434 Clear 12 1031 53 0 0.45 45 17:36 20.04.2020
4435 Clear 12 1032 52 0 0.45 67 17:18 20.04.2020
4436 Clear 12 1032 51 0 0.89 22 16:42 20.04.2020
4437 Clear 13 1032 47 0 0.45 45 16:20 20.04.2020
4438 Clear 13 1032 46 0 0.45 45 15:56 20.04.2020
4439 Clear 13 1032 47 0 0.45 45 15:38 20.04.2020
4440 Clear 13 1032 48 0 1.34 22 15:20 20.04.2020
4441 Clear 13 1032 51 0 0.89 22 14:42 20.04.2020
4442 Clear 13 1033 49 0 1.79 45 14:20 20.04.2020
4443 Clear 12 1033 49 0 0.45 45 13:58 20.04.2020
4444 Clear 13 1033 50 0 0.89 22 13:39 20.04.2020
4445 Clear 13 1033 49 0 1.34 22 13:20 20.04.2020
4446 Clear 13 1033 52 0 0.45 45 12:44 20.04.2020
4447 Clear 12 1033 50 0 0.45 45 12:24 20.04.2020
4448 Clear 12 1033 56 0 0.45 67 11:58 20.04.2020
4449 Clear 12 1033 56 0 0.89 45 11:39 20.04.2020
4450 Clear 12 1033 52 0 0.89 45 11:20 20.04.2020
4451 Clear 12 1033 55 0 0.89 135 10:55 20.04.2020
4452 Clear 11 1033 57 0 0.45 135 10:37 20.04.2020
4453 Clear 11 1033 57 0 0.45 135 10:37 20.04.2020
4454 Clear 11 1033 58 0 1.52 51 10:19 20.04.2020
4455 Clear 10 1033 61 0 0.45 45 09:44 20.04.2020
4456 Clear 8 1029 60 0 1.02 61 09:26 20.04.2020
4457 Clear 9 1033 71 0 1.02 61 08:59 20.04.2020
4458 Clear 7 1033 79 0 1.02 61 08:41 20.04.2020
4459 Clear 6 1033 80 0 1.02 61 08:19 20.04.2020
4460 Clear 3 1032 78 0 1.02 61 07:52 20.04.2020
4461 Clear 3 1032 77 0 1.02 61 07:29 20.04.2020
4462 Clear 2 1032 77 0 1.02 61 06:55 20.04.2020
4463 Clear 2 1032 76 0 1.02 61 06:36 20.04.2020
4464 Clear 2 1032 75 0 0.94 86 05:38 20.04.2020
4465 Clear 3 1032 75 0 0.94 86 03:49 20.04.2020
4466 Clear 3 1031 74 0 2.43 87 02:44 20.04.2020
4467 Clear 4 1031 73 0 1.51 47 01:51 20.04.2020
4468 Clear 4 1031 73 0 1.51 47 01:28 20.04.2020
4469 Clear 4 1031 70 0 1.51 47 00:36 20.04.2020
4470 Clear 4 1030 68 0 3.01 58 23:59 19.04.2020
4471 Clear 4 1030 69 0 3.01 58 23:39 19.04.2020
4472 Clear 4 1030 69 0 3.01 58 23:20 19.04.2020
4473 Clear 4 1030 65 0 3.01 58 22:41 19.04.2020
4474 Clear 4 1030 65 0 3.01 58 22:41 19.04.2020
4475 Clear 5 1030 65 0 3.01 58 22:23 19.04.2020
4476 Clear 5 1030 64 0 3.01 58 21:59 19.04.2020
4477 Clear 6 1030 62 0 2.2 59 21:41 19.04.2020
4478 Clear 6 1030 61 0 2.77 16 21:21 19.04.2020
4479 Clear 8 1029 57 0 2.77 16 20:55 19.04.2020
4480 Clear 9 1029 55 0 2.77 16 20:37 19.04.2020
4481 Clear 7 1027 66 0 2.77 16 20:19 19.04.2020
4482 Clear 7 1027 66 0 2.77 16 19:55 19.04.2020
4483 Clear 11 1029 59 0 2.77 16 19:37 19.04.2020
4484 Clear 11 1029 60 0 2.77 16 19:19 19.04.2020
4485 Clear 10 1029 62 0 2.77 16 18:54 19.04.2020
4486 Clear 10 1029 62 0 0.45 45 18:36 19.04.2020
4487 Clear 10 1029 61 0 0.89 45 18:18 19.04.2020
4488 Clear 10 1029 61 0 0.45 45 17:41 19.04.2020
4489 Clear 11 1029 58 0 0.89 45 17:23 19.04.2020
4490 Clear 11 1029 58 0 3.51 16 16:59 19.04.2020
4491 Clear 11 1030 52 0 0.89 45 16:39 19.04.2020
4492 Clear 11 1030 52 0 0.89 45 16:39 19.04.2020
4493 Clear 11 1030 52 0 0.89 45 16:21 19.04.2020
4494 Clear 11 1030 52 0 0.89 45 16:21 19.04.2020
4495 Clear 11 1030 51 0 1.34 45 15:55 19.04.2020
4496 Clear 11 1030 54 0 0.89 67 15:36 19.04.2020
4497 Clear 11 1030 52 0 0.89 22 15:18 19.04.2020
4498 Clear 10 1030 53 0 0.89 45 14:38 19.04.2020
4499 Clear 10 1030 53 0 1.34 22 14:20 19.04.2020
4500 Clear 11 1030 57 0 0.89 22 13:56 19.04.2020
4501 Clear 11 1030 52 0 1.34 22 13:36 19.04.2020
4502 Clear 11 1030 51 0 0.89 45 13:18 19.04.2020
4503 Clear 10 1030 50 0 0.89 45 12:43 19.04.2020
4504 Clear 10 1029 53 0 0.45 22 12:24 19.04.2020
4505 Clear 10 1029 48 0 0.45 45 11:39 19.04.2020
4506 Clear 11 1029 47 0 0.45 90 11:20 19.04.2020
4507 Clear 10 1029 48 0 0.45 45 10:59 19.04.2020
4508 Clear 9 1029 49 0 0.45 90 10:41 19.04.2020
4509 Clear 9 1029 50 0 0.89 45 10:20 19.04.2020
4510 Clear 9 1029 53 0 0.45 90 09:56 19.04.2020
4511 Clear 9 1029 56 0 0.45 112 09:38 19.04.2020
4512 Clear 8 1029 57 0 3.64 88 09:18 19.04.2020
4513 Clear 7 1028 62 0 0.45 135 08:40 19.04.2020
4514 Clear 7 1028 65 0 0.45 135 08:21 19.04.2020
4515 Clear 4 1028 72 0 3.64 88 07:45 19.04.2020
4516 Clear 3 1027 75 0 3.64 88 07:25 19.04.2020
4517 Clear 2 1027 74 0 2.36 99 06:56 19.04.2020
4518 Clear 2 1027 73 0 3.63 133 06:22 19.04.2020
4519 Clear 3 1026 73 0 4.66 131 05:34 19.04.2020
4520 Clear 4 1025 74 0 0.89 135 03:40 19.04.2020
4521 Clear 5 1025 73 0 2.67 140 02:23 19.04.2020
4522 Clear 6 1025 74 0 2.67 140 01:58 19.04.2020
4523 Clear 6 1025 74 0 2.67 140 01:22 19.04.2020
4524 Clear 6 1025 74 0 2.67 140 00:41 19.04.2020
4525 Clear 6 1025 74 0 2.67 140 00:41 19.04.2020
4526 Clear 6 1025 74 0 0.77 41 00:20 19.04.2020
4527 Clear 6 1024 73 0 0.77 41 23:43 18.04.2020
4528 Clear 6 1024 72 0 0.77 41 23:20 18.04.2020
4529 Clear 7 1022 70 0 0.77 41 22:55 18.04.2020
4530 Clear 7 1024 70 0 0.77 41 22:37 18.04.2020
4531 Clear 7 1022 70 0 0.77 41 22:18 18.04.2020
4532 Clear 7 1022 70 0 2.22 357 21:42 18.04.2020
4533 Clouds 8 1024 70 0 2.65 44 21:22 18.04.2020
4534 Clouds 8 1024 70 0 2.65 44 20:59 18.04.2020
4535 Clouds 8 1023 69 0 2.65 44 20:40 18.04.2020
4536 Clouds 9 1023 66 0 2.65 44 20:21 18.04.2020
4537 Clouds 7 1020 60 0 2.65 44 19:43 18.04.2020
4538 Clouds 11 1023 56 0 2.65 44 19:25 18.04.2020
4539 Clouds 11 1023 58 0 2.65 44 18:58 18.04.2020
4540 Clouds 10 1023 59 0 0.45 90 18:36 18.04.2020
4541 Clouds 10 1023 59 0 3.51 49 18:18 18.04.2020
4542 Clouds 10 1023 56 0 0.45 45 17:41 18.04.2020
4543 Clouds 10 1023 56 0 0.45 45 17:41 18.04.2020
4544 Clouds 10 1023 59 0 3.51 49 17:21 18.04.2020
4545 Clouds 11 1023 53 0 0.89 45 16:56 18.04.2020
4546 Clouds 11 1023 55 0 0.45 22 16:37 18.04.2020
4547 Clouds 11 1023 55 0 0.45 67 16:19 18.04.2020
4548 Clouds 11 1024 59 0 1.34 45 15:38 18.04.2020
4549 Clouds 11 1024 59 0 1.34 45 15:20 18.04.2020
4550 Clouds 13 1024 47 0 0.45 45 14:46 18.04.2020
4551 Clouds 13 1024 44 0 0.45 67 14:27 18.04.2020
4552 Clouds 13 1024 45 0 4.72 51 13:56 18.04.2020
4553 Clouds 12 1024 48 0 0.45 45 13:38 18.04.2020
4554 Clouds 12 1024 47 0 0.89 45 13:19 18.04.2020
4555 Clouds 11 1025 50 0 0.89 45 12:41 18.04.2020
4556 Clouds 11 1025 54 0 0.45 45 12:22 18.04.2020
4557 Clouds 10 1025 51 0 0.45 45 11:43 18.04.2020
4558 Clouds 10 1025 58 0 0.45 22 11:25 18.04.2020
4559 Clouds 10 1025 61 0 0.45 0 10:58 18.04.2020
4560 Clouds 10 1025 63 0 3.9 54 10:39 18.04.2020
4561 Clouds 10 1025 65 0 3.9 54 10:19 18.04.2020
4562 Clouds 9 1025 65 0 3.9 54 09:58 18.04.2020
4563 Clouds 8 1025 74 0 3.9 54 09:38 18.04.2020
4564 Clear 8 1025 77 0 3.27 69 09:20 18.04.2020
4565 Clear 6 1025 80 0 3.27 69 08:42 18.04.2020
4566 Clear 3 1025 79 0 3.27 69 08:21 18.04.2020
4567 Clear 2 1025 79 0 3.27 69 07:42 18.04.2020
4568 Clear 1 1025 79 0 3.27 69 07:20 18.04.2020
4569 Clear -1 1024 78 0 3.27 69 06:39 18.04.2020
4570 Clear -1 1024 77 0 4.03 64 05:48 18.04.2020
4571 Clear 0 1024 78 0 4.03 64 04:54 18.04.2020
4572 Clear 1 1024 78 0 4.03 64 04:30 18.04.2020
4573 Clouds 1 1024 77 0 2.9 37 02:59 18.04.2020
4574 Clouds 1 1024 76 0 2.9 37 02:40 18.04.2020
4575 Clouds 1 1024 76 0 2.9 37 02:40 18.04.2020
4576 Clouds 2 1024 75 0 3.95 43 02:20 18.04.2020
4577 Clouds 2 1024 75 0 3.95 43 01:37 18.04.2020
4578 Clouds 2 1023 74 0 3.95 43 00:59 18.04.2020
4579 Clouds 2 1023 74 0 2.98 19 00:24 18.04.2020
4580 Clouds 3 1023 73 0 2.98 19 23:58 17.04.2020
4581 Clouds 3 1023 74 0 2.98 19 23:40 17.04.2020
4582 Clouds 3 1023 73 0 2.98 19 23:19 17.04.2020
4583 Clouds 3 1023 73 0 2.98 19 22:58 17.04.2020
4584 Clouds 4 1023 71 0 2.98 19 22:40 17.04.2020
4585 Clouds 4 1023 70 0 2.98 19 22:20 17.04.2020
4586 Clouds 5 1023 69 0 2.98 19 21:58 17.04.2020
4587 Clouds 6 1023 68 0 2.98 19 21:39 17.04.2020
4588 Clouds 6 1023 66 0 1.89 22 21:19 17.04.2020
4589 Clouds 8 1023 62 0 1.89 22 20:55 17.04.2020
4590 Clouds 9 1023 61 0 1.89 22 20:36 17.04.2020
4591 Clouds 10 1023 59 0 1.89 22 20:18 17.04.2020
4592 Clouds 7 1019 68 0 1.89 22 19:44 17.04.2020
4593 Clouds 12 1022 62 0 1.89 22 19:24 17.04.2020
4594 Clouds 11 1022 64 0 0.45 67 18:47 17.04.2020
4595 Clouds 11 1022 64 0 0.45 67 18:47 17.04.2020
4596 Clouds 11 1022 61 0 0.45 45 18:25 17.04.2020
4597 Clouds 11 1022 60 0 0.45 22 17:59 17.04.2020
4598 Clouds 12 1022 59 0 2.15 5 17:37 17.04.2020
4599 Clouds 12 1022 62 0 0.45 45 17:19 17.04.2020
4600 Clouds 12 1022 62 0 0.45 45 17:19 17.04.2020
4601 Clouds 12 1022 61 0 0.45 22 16:44 17.04.2020
4602 Clouds 12 1022 61 0 2.15 5 16:24 17.04.2020
4603 Clouds 12 1022 63 0 2.15 5 15:59 17.04.2020
4604 Clouds 11 1023 64 0 0.45 45 15:38 17.04.2020
4605 Clouds 11 1023 62 0 0.89 45 15:20 17.04.2020
4606 Clouds 11 1023 67 0 0.45 45 14:41 17.04.2020
4607 Clouds 10 1023 72 0 0.45 45 14:23 17.04.2020
4608 Clouds 11 1023 71 0 0.89 22 13:58 17.04.2020
4609 Clouds 11 1023 70 0 0.45 45 13:39 17.04.2020
4610 Clouds 11 1023 70 0 2.84 32 13:20 17.04.2020
4611 Clouds 11 1023 70 0 2.84 32 12:48 17.04.2020
4612 Clouds 11 1023 71 0 3.3 14 12:27 17.04.2020
4613 Clouds 11 1023 70 0 3.3 14 11:58 17.04.2020
4614 Clouds 11 1023 71 0 0.45 45 11:38 17.04.2020
4615 Clouds 11 1023 71 0 0.45 45 11:19 17.04.2020
4616 Clouds 9 1023 77 0 3.3 14 10:40 17.04.2020
4617 Clouds 9 1023 78 0 0.89 337 10:20 17.04.2020
4618 Clouds 9 1023 81 0 3.3 14 09:55 17.04.2020
4619 Clouds 8 1023 81 0 3.3 14 09:36 17.04.2020
4620 Clouds 8 1023 82 0 3.95 352 09:18 17.04.2020
4621 Clouds 7 1023 85 0 3.95 352 08:46 17.04.2020
4622 Clouds 5 1022 82 0 0.45 292 08:26 17.04.2020
4623 Clouds 4 1022 81 0 3.95 352 07:57 17.04.2020
4624 Clouds 3 1022 80 0 3.95 352 07:39 17.04.2020
4625 Clouds 2 1022 79 0 3.95 352 07:18 17.04.2020
4626 Clouds 2 1022 79 0 3.95 352 06:43 17.04.2020
4627 Clear 2 1021 78 0 4.35 358 05:58 17.04.2020
4628 Clouds 3 1020 77 0 3.86 355 03:24 17.04.2020
4629 Clouds 3 1020 76 0 3.86 355 02:52 17.04.2020
4630 Clouds 4 1020 76 0 4.67 345 01:46 17.04.2020
4631 Clouds 4 1020 75 0 4.67 345 01:22 17.04.2020
4632 Clouds 5 1019 73 0 3.21 339 00:21 17.04.2020
4633 Clouds 5 1019 73 0 3.21 339 23:55 16.04.2020
4634 Clouds 5 1019 72 0 3.21 339 23:37 16.04.2020
4635 Clouds 6 1019 73 0 3.21 339 23:19 16.04.2020
4636 Clouds 6 1019 72 0 3.21 339 22:41 16.04.2020
4637 Clouds 6 1019 70 0 3.21 339 22:23 16.04.2020
4638 Clouds 7 1019 69 0 3.21 339 21:59 16.04.2020
4639 Clouds 7 1019 68 0 3.21 339 21:41 16.04.2020
4640 Clouds 7 1019 68 0 3.21 339 21:41 16.04.2020
4641 Clouds 7 1019 68 0 3.21 339 21:41 16.04.2020
4642 Clouds 8 1018 67 0 4.64 295 21:20 16.04.2020
4643 Clouds 9 1018 64 0 4.64 295 20:43 16.04.2020
4644 Clouds 12 1018 61 0 4.64 295 20:23 16.04.2020
4645 Clouds 8 1015 73 0 4.64 295 20:00 16.04.2020
4646 Clouds 8 1015 73 0 4.64 295 19:40 16.04.2020
4647 Clouds 13 1018 65 0 4.64 295 19:20 16.04.2020
4648 Clouds 13 1018 64 0 4.64 295 18:58 16.04.2020
4649 Clouds 13 1018 62 0 4.64 295 18:39 16.04.2020
4650 Clouds 13 1018 62 0 6.08 284 18:21 16.04.2020
4651 Clouds 13 1018 62 0 0.45 0 17:55 16.04.2020
4652 Clouds 13 1019 62 0 6.08 284 17:37 16.04.2020
4653 Clouds 13 1018 62 0 0.45 315 17:18 16.04.2020
4654 Clouds 14 1018 61 0 0.45 337 16:42 16.04.2020
4655 Clouds 14 1018 58 0 1.34 22 16:20 16.04.2020
4656 Clouds 14 1018 62 0 0.89 292 15:45 16.04.2020
4657 Clouds 13 1019 64 0 0.45 22 15:20 16.04.2020
4658 Clouds 13 1019 66 0 7.59 285 14:58 16.04.2020
4659 Clouds 13 1019 64 0 7.59 285 14:40 16.04.2020
4660 Clouds 13 1019 64 0 7.59 285 14:40 16.04.2020
4661 Clouds 13 1019 64 0 1.34 315 14:21 16.04.2020
4662 Clouds 13 1019 64 0 1.34 315 14:21 16.04.2020
4663 Clouds 13 1019 66 0 1.34 337 13:57 16.04.2020
4664 Clouds 13 1019 67 0 1.79 337 13:38 16.04.2020
4665 Clouds 12 1019 68 0 0.89 292 13:20 16.04.2020
4666 Clouds 12 1019 69 0 0.45 315 12:57 16.04.2020
4667 Clouds 12 1019 70 0 1.34 0 12:38 16.04.2020
4668 Clouds 11 1019 71 0 1.34 45 12:19 16.04.2020
4669 Clouds 11 1019 73 0 0.89 337 11:56 16.04.2020
4670 Clouds 11 1019 74 0 0.89 315 11:37 16.04.2020
4671 Clouds 11 1019 74 0 1.34 315 11:18 16.04.2020
4672 Clouds 11 1019 74 0 1.34 315 11:18 16.04.2020
4673 Clouds 10 1019 75 0 0.89 292 10:54 16.04.2020
4674 Clouds 11 1019 75 0 2.24 315 10:36 16.04.2020
4675 Clouds 10 1019 76 0 2.24 292 10:18 16.04.2020
4676 Clouds 9 1018 80 0 2.68 315 09:39 16.04.2020
4677 Clouds 9 1018 80 0 2.68 315 09:38 16.04.2020
4678 Clouds 9 1018 80 0 2.68 315 09:38 16.04.2020
4679 Clouds 9 1018 82 0 2.68 315 09:20 16.04.2020
4680 Clouds 8 1018 84 0 2.68 315 08:45 16.04.2020
4681 Clear 7 1018 86 0 0.45 315 08:26 16.04.2020
4682 Clouds 6 1018 87 0 0.89 292 07:59 16.04.2020
4683 Clear 6 1018 87 0 0.89 292 07:41 16.04.2020
4684 Clouds 6 1018 88 0 1.34 270 07:20 16.04.2020
4685 Clouds 6 1018 88 0 1.34 270 07:20 16.04.2020
4686 Clear 5 1018 87 0 0.89 315 06:41 16.04.2020
4687 Clear 5 1018 87 0 0.45 292 06:22 16.04.2020
4688 Clear 5 1019 85 0 0.89 292 04:53 16.04.2020
4689 Clear 6 1019 83 0 1.34 315 03:28 16.04.2020
4690 Clear 6 1019 79 0 0.89 270 02:59 16.04.2020
4691 Clear 6 1019 76 0 1.34 315 02:38 16.04.2020
4692 Clear 7 1019 69 0 0.89 292 01:29 16.04.2020
4693 Clear 7 1019 68 0 1.79 315 00:57 16.04.2020
4694 Clear 8 1019 69 0 1.34 292 00:25 16.04.2020
4695 Clear 8 1019 68 0 0.89 292 23:55 15.04.2020
4696 Clear 8 1019 67 0 1.34 315 23:37 15.04.2020
4697 Clear 8 1019 66 0 0.89 247 23:19 15.04.2020
4698 Clear 9 1020 66 0 0.45 292 22:39 15.04.2020
4699 Clear 9 1020 65 0 0.89 292 22:21 15.04.2020
4700 Clear 9 1020 65 0 0.89 292 21:57 15.04.2020
4701 Clear 9 1020 67 0 1.34 292 21:39 15.04.2020
4702 Clouds 9 1020 68 0 11.59 267 21:21 15.04.2020
4703 Clouds 11 1020 65 0 11.59 267 20:56 15.04.2020
4704 Clouds 11 1020 62 0 0.45 292 20:38 15.04.2020
4705 Clouds 12 1020 60 0 0.45 292 20:20 15.04.2020
4706 Clouds 14 1020 55 0 0.45 292 19:41 15.04.2020
4707 Clouds 14 1021 54 0 0.89 315 19:20 15.04.2020
4708 Clouds 14 1021 54 0 1.79 0 18:54 15.04.2020
4709 Clouds 14 1021 52 0 1.79 292 18:36 15.04.2020
4710 Clear 14 1021 52 0 0.89 315 18:18 15.04.2020
4711 Clear 14 1021 52 0 1.79 292 17:40 15.04.2020
4712 Clear 14 1021 53 0 2.68 315 17:21 15.04.2020
4713 Clear 14 1021 55 0 1.79 292 16:58 15.04.2020
4714 Clear 14 1021 55 0 3.13 315 16:38 15.04.2020
4715 Clear 14 1021 55 0 3.13 315 16:38 15.04.2020
4716 Clear 14 1021 56 0 2.68 315 16:20 15.04.2020
4717 Clear 14 1022 56 0 3.13 315 15:58 15.04.2020
4718 Clear 14 1022 57 0 3.13 315 15:39 15.04.2020
4719 Clouds 13 1022 58 0 2.68 315 15:20 15.04.2020
4720 Clouds 13 1022 59 0 3.58 315 14:58 15.04.2020
4721 Clouds 13 1022 62 0 2.24 292 14:40 15.04.2020
4722 Clouds 12 1022 65 0 1.34 292 14:21 15.04.2020
4723 Clouds 11 1023 66 0 1.79 315 13:58 15.04.2020
4724 Clouds 11 1023 69 0 3.58 315 13:39 15.04.2020
4725 Clouds 11 1023 69 0 0.89 270 13:20 15.04.2020
4726 Clouds 10 1023 71 0 1.34 292 12:56 15.04.2020
4727 Clouds 9 1023 71 0 0.89 315 12:38 15.04.2020
4728 Clouds 9 1023 71 0 2.24 315 12:20 15.04.2020
4729 Clouds 9 1023 72 0 2.68 315 11:44 15.04.2020
4730 Clouds 8 1022 75 0 2.68 292 11:25 15.04.2020
4731 Clouds 8 1022 76 0 2.24 315 10:59 15.04.2020
4732 Clouds 8 1022 73 0 2.68 292 10:37 15.04.2020
4733 Clouds 8 1022 72 0 2.24 292 10:19 15.04.2020
4734 Clouds 8 1022 74 0 1.79 292 09:55 15.04.2020
4735 Clouds 8 1022 74 0 1.79 292 09:37 15.04.2020
4736 Clouds 8 1022 74 0 1.34 292 09:19 15.04.2020
4737 Clouds 7 1022 75 0 1.79 315 08:42 15.04.2020
4738 Clouds 7 1022 76 0 1.79 337 08:23 15.04.2020
4739 Clouds 7 1022 76 0 0.89 315 07:58 15.04.2020
4740 Clouds 7 1022 77 0 1.79 315 07:38 15.04.2020
4741 Clouds 6 1022 76 0 2.24 292 06:59 15.04.2020
4742 Clouds 6 1022 76 0 1.79 315 06:24 15.04.2020
4743 Clouds 6 1022 76 0 1.34 292 05:34 15.04.2020
4744 Clouds 6 1022 77 0 2.24 315 04:47 15.04.2020
4745 Clouds 6 1022 77 0 1.79 292 04:18 15.04.2020
4746 Clouds 6 1023 76 0 1.34 292 03:22 15.04.2020
4747 Clouds 6 1023 76 0 2.68 315 02:49 15.04.2020
4748 Clouds 6 1023 76 0 2.68 292 01:51 15.04.2020
4749 Clouds 6 1023 76 0 1.79 292 01:25 15.04.2020
4750 Clouds 6 1024 77 0 1.34 270 00:48 15.04.2020
4751 Clouds 6 1023 76 0 1.34 292 00:25 15.04.2020
4752 Clouds 6 1023 76 0 2.24 292 23:56 14.04.2020
4753 Clouds 6 1023 76 0 0.45 292 23:38 14.04.2020
4754 Clouds 6 1024 75 0 0.45 292 23:20 14.04.2020
4755 Clouds 6 1023 73 0 1.79 292 22:56 14.04.2020
4756 Clouds 6 1024 72 0 1.34 292 22:38 14.04.2020
4757 Clouds 6 1023 72 0 1.34 292 22:20 14.04.2020
4758 Clouds 6 1023 72 0 1.34 292 22:20 14.04.2020
4759 Clouds 6 1023 69 0 0.45 315 21:56 14.04.2020
4760 Clouds 6 1023 67 0 0.45 315 21:38 14.04.2020
4761 Clear 5 1020 37 0 8.25 281 21:19 14.04.2020
4762 Clear 5 1020 37 0 8.25 281 20:57 14.04.2020
4763 Clear 5 1020 37 0 8.25 281 20:38 14.04.2020
4764 Clear 5 1020 37 0 8.25 281 20:38 14.04.2020
4765 Clear 5 1020 37 0 8.25 281 20:38 14.04.2020
4766 Clear 5 1020 37 0 8.9 277 20:19 14.04.2020
4767 Clear 9 1024 51 0 2.24 315 19:41 14.04.2020
4768 Clear 7 1019 75 0 8.9 277 19:22 14.04.2020
4769 Clear 7 1019 75 0 8.9 277 18:58 14.04.2020
4770 Clear 10 1024 48 0 0.89 315 18:39 14.04.2020
4771 Clear 10 1024 47 0 1.79 292 18:21 14.04.2020
4772 Clear 10 1024 46 0 1.34 315 17:58 14.04.2020
4773 Clear 10 1024 45 0 0.89 292 17:38 14.04.2020
4774 Clear 10 1024 42 0 1.34 292 17:20 14.04.2020
4775 Clear 10 1024 38 0 2.68 292 16:57 14.04.2020
4776 Clear 10 1024 39 0 1.34 292 16:38 14.04.2020
4777 Clear 11 1024 36 0 2.68 337 16:20 14.04.2020
4778 Clear 11 1024 42 0 0.89 315 15:56 14.04.2020
4779 Clear 11 1024 42 0 2.24 315 15:38 14.04.2020
4780 Clear 10 1024 42 0 1.34 292 15:18 14.04.2020
4781 Clouds 10 1024 45 0 1.79 315 14:56 14.04.2020
4782 Clear 11 1024 45 0 1.34 315 14:37 14.04.2020
4783 Clear 11 1024 44 0 1.79 337 14:19 14.04.2020
4784 Clear 10 1025 45 0 0.89 315 13:43 14.04.2020
4785 Clear 10 1025 45 0 0.89 315 13:43 14.04.2020
4786 Clear 9 1024 47 0 0.89 315 13:24 14.04.2020
4787 Clear 9 1024 47 0 0.89 22 12:56 14.04.2020
4788 Clear 9 1024 49 0 0.45 315 12:38 14.04.2020
4789 Clear 9 1024 51 0 2.68 315 12:18 14.04.2020
4790 Clear 8 1024 52 0 0.45 270 11:41 14.04.2020
4791 Clear 8 1024 52 0 1.34 22 11:22 14.04.2020
4792 Clear 8 1024 53 0 0.89 22 10:56 14.04.2020
4793 Clear 8 1024 57 0 0.89 292 10:38 14.04.2020
4794 Clear 7 1024 56 0 0.45 22 10:19 14.04.2020
4795 Clear 6 1023 58 0 0.89 337 09:42 14.04.2020
4796 Clouds 6 1023 59 0 0.45 247 09:22 14.04.2020
4797 Clouds 6 1023 62 0 9.82 322 08:56 14.04.2020
4798 Clouds 5 1023 64 0 9.82 322 08:36 14.04.2020
4799 Clouds 5 1023 64 0 9.82 322 08:36 14.04.2020
4800 Clouds 5 1023 65 0 9.82 322 08:18 14.04.2020
4801 Clouds 4 1023 71 0 9.82 322 07:49 14.04.2020
4802 Clouds 5 1020 66 0 9.82 322 07:26 14.04.2020
4803 Clouds 3 1022 74 0 0.89 315 06:45 14.04.2020
4804 Clear 3 1021 69 0 8.4 337 05:47 14.04.2020
4805 Clear 3 1021 70 0 0.89 292 03:48 14.04.2020
4806 Clouds 4 1020 37 0 8.92 351 02:38 14.04.2020
4807 Clouds 4 1020 37 0 8.68 344 01:28 14.04.2020
4808 Clouds 4 1020 61 0 8.68 344 00:59 14.04.2020
4809 Clouds 4 1020 64 0 1.79 22 00:32 14.04.2020
4810 Clouds 2 1019 76 0 1.34 315 23:59 13.04.2020
4811 Clouds 3 1019 74 0 9.84 342 23:39 13.04.2020
4812 Clouds 5 1018 32 0 9.84 342 23:21 13.04.2020
4813 Clouds 6 1018 32 0 9.84 342 22:56 13.04.2020
4814 Clouds 6 1018 32 0 9.84 342 22:37 13.04.2020
4815 Clouds 6 1018 32 0 9.84 342 22:18 13.04.2020
4816 Clouds 6 1018 32 0 9.84 342 21:54 13.04.2020
4817 Clouds 6 1018 32 0 9.84 342 21:36 13.04.2020
4818 Clouds 6 1018 32 0 9.87 325 21:18 13.04.2020
4819 Clouds 7 1018 32 0 9.87 325 20:41 13.04.2020
4820 Clouds 7 1018 32 0 9.87 325 20:20 13.04.2020
4821 Clouds 7 1018 32 0 9.87 325 20:20 13.04.2020
4822 Clouds 8 1018 32 0 9.87 325 19:59 13.04.2020
4823 Clouds 8 1018 47 0 9.87 325 19:37 13.04.2020
4824 Clouds 8 1018 47 0 9.87 325 19:37 13.04.2020
4825 Clouds 8 1018 47 0 9.87 325 19:37 13.04.2020
4826 Clouds 9 1018 45 0 0.89 315 19:19 13.04.2020
4827 Clouds 6 1014 62 0 9.87 325 18:58 13.04.2020
4828 Clouds 9 1018 46 0 0.89 292 18:38 13.04.2020
4829 Clear 10 1018 46 0 0.45 315 18:19 13.04.2020
4830 Clear 10 1018 47 0 0.89 315 17:58 13.04.2020
4831 Clear 10 1018 44 0 0.45 315 17:37 13.04.2020
4832 Clear 11 1018 46 0 1.34 315 17:19 13.04.2020
4833 Clear 11 1018 46 0 0.89 45 16:58 13.04.2020
4834 Clear 11 1018 46 0 0.89 45 16:58 13.04.2020
4835 Clear 10 1018 46 0 0.45 315 16:39 13.04.2020
4836 Clear 10 1018 47 0 10.54 307 16:20 13.04.2020
4837 Clear 11 1018 45 0 0.89 315 15:57 13.04.2020
4838 Clear 10 1018 44 0 1.34 315 15:38 13.04.2020
4839 Clear 10 1018 48 0 0.89 292 15:20 13.04.2020
4840 Clear 9 1018 51 0 2.68 315 14:54 13.04.2020
4841 Clear 9 1018 54 0 1.79 315 14:36 13.04.2020
4842 Clear 8 1018 65 0 0.45 247 14:18 13.04.2020
4843 Clear 8 1018 65 0 1.79 315 13:54 13.04.2020
4844 Clear 6 1018 70 0 1.34 292 13:36 13.04.2020
4845 Clear 6 1018 69 0 0.89 292 13:18 13.04.2020
4846 Clear 9 1018 57 0 1.79 22 12:55 13.04.2020
4847 Clear 9 1017 54 0 0.89 0 12:37 13.04.2020
4848 Clear 9 1017 53 0 1.34 315 12:18 13.04.2020
4849 Clear 9 1017 53 0 2.24 292 11:41 13.04.2020
4850 Clear 8 1017 56 0 0.89 315 11:18 13.04.2020
4851 Clear 8 1017 57 0 0.45 315 10:56 13.04.2020
4852 Clear 8 1016 57 0 1.79 0 10:37 13.04.2020
4853 Clear 8 1016 58 0 11.92 335 10:19 13.04.2020
4854 Clear 7 1016 60 0 0.89 292 09:45 13.04.2020
4855 Clouds 6 1016 60 0 1.34 315 09:26 13.04.2020
4856 Clouds 6 1015 61 0 11.3 316 08:51 13.04.2020
4857 Clouds 6 1015 61 0 11.3 316 08:31 13.04.2020
4858 Clouds 6 1015 63 0 1.34 0 07:59 13.04.2020
4859 Clouds 6 1014 63 0 11.3 316 07:39 13.04.2020
4860 Clouds 6 1014 64 0 11.3 316 07:20 13.04.2020
4861 Clouds 6 1014 69 0 0.89 0 06:47 13.04.2020
4862 Clouds 6 1013 69 0 12.36 311 06:24 13.04.2020
4863 Clouds 7 1013 70 0 0.89 45 05:31 13.04.2020
4864 Clouds 8 1013 76 0 0.45 315 04:53 13.04.2020
4865 Clouds 8 1012 77 0 2.24 315 04:24 13.04.2020
4866 Clouds 8 1012 78 0 1.34 315 03:47 13.04.2020
4867 Clouds 8 1012 80 0 1.34 337 02:59 13.04.2020
4868 Clouds 8 1012 76 0 0.45 292 02:37 13.04.2020
4869 Clouds 9 1012 75 0 0.89 270 01:43 13.04.2020
4870 Clouds 9 1012 75 0 8.93 294 01:25 13.04.2020
4871 Clouds 8 1012 72 0 0.89 292 00:42 13.04.2020
4872 Clouds 9 1012 71 0 8.23 291 00:20 13.04.2020
4873 Clouds 10 1012 70 0 0.45 292 23:48 12.04.2020
4874 Clouds 9 1013 69 0 0.89 292 23:23 12.04.2020
4875 Clouds 9 1012 68 0 8.23 291 22:59 12.04.2020
4876 Clouds 10 1013 64 0 8.23 291 22:37 12.04.2020
4877 Clouds 11 1013 62 0 8.23 291 22:19 12.04.2020
4878 Clouds 12 1013 59 0 0.45 292 21:54 12.04.2020
4879 Clouds 12 1013 59 0 8.23 291 21:36 12.04.2020
4880 Clouds 12 1013 58 0 7.42 271 21:18 12.04.2020
4881 Clouds 14 1013 57 0 0.45 292 20:41 12.04.2020
4882 Clouds 16 1013 55 0 0.89 292 20:22 12.04.2020
4883 Clouds 16 1013 55 0 0.89 292 20:22 12.04.2020
4884 Clouds 10 1010 76 0 7.42 271 19:56 12.04.2020
4885 Clouds 19 1013 51 0 7.42 271 19:38 12.04.2020
4886 Clouds 18 1013 53 0 7.42 271 19:18 12.04.2020
4887 Clouds 18 1013 53 0 7.42 271 19:18 12.04.2020
4888 Clouds 17 1013 52 0 7.42 271 18:41 12.04.2020
4889 Clouds 16 1014 53 0 6.77 261 18:23 12.04.2020
4890 Clouds 17 1014 51 0 6.77 261 17:58 12.04.2020
4891 Clouds 21 1014 43 0 6.77 261 17:40 12.04.2020
4892 Clouds 21 1014 40 0 0.89 315 17:21 12.04.2020
4893 Clouds 12 1011 69 0 6.77 261 16:58 12.04.2020
4894 Clouds 12 1011 69 0 6.77 261 16:39 12.04.2020
4895 Clouds 12 1011 69 0 6.77 261 16:20 12.04.2020
4896 Clouds 12 1011 69 0 6.77 261 15:48 12.04.2020
4897 Clouds 11 1013 69 0 5.44 253 15:29 12.04.2020
4898 Clouds 11 1013 69 0 5.44 253 14:55 12.04.2020
4899 Clouds 11 1013 69 0 5.44 253 14:36 12.04.2020
4900 Clouds 11 1012 70 0 5.38 252 14:18 12.04.2020
4901 Clouds 11 1012 70 0 5.38 252 13:42 12.04.2020
4902 Clouds 20 1016 43 0 5.38 252 13:23 12.04.2020
4903 Clouds 19 1017 48 0 0.89 225 12:55 12.04.2020
4904 Clouds 11 1012 70 0 5.38 252 12:37 12.04.2020
4905 Clouds 10 1015 72 0 4.99 231 12:18 12.04.2020
4906 Clouds 10 1015 72 0 4.99 231 11:56 12.04.2020
4907 Clouds 16 1018 54 0 0.89 202 11:36 12.04.2020
4908 Clouds 16 1018 56 0 0.45 202 11:18 12.04.2020
4909 Clouds 14 1019 56 0 1.34 225 10:54 12.04.2020
4910 Clouds 14 1019 57 0 1.34 202 10:36 12.04.2020
4911 Clouds 13 1019 59 0 1.79 225 10:18 12.04.2020
4912 Clouds 10 1015 72 0 4.99 231 09:40 12.04.2020
4913 Clouds 10 1020 66 0 1.79 202 09:21 12.04.2020
4914 Clouds 9 1020 69 0 0.89 202 09:00 12.04.2020
4915 Clouds 8 1021 74 0 0.89 180 08:41 12.04.2020
4916 Clouds 7 1021 75 0 0.45 180 08:23 12.04.2020
4917 Clouds 6 1021 76 0 0.45 180 07:45 12.04.2020
4918 Clouds 4 1021 77 0 0.45 180 07:19 12.04.2020
4919 Clouds 4 1021 76 0 0.45 180 06:35 12.04.2020
4920 Clouds 4 1021 75 0 5.82 209 05:58 12.04.2020
4921 Clouds 5 1022 75 0 5.82 209 05:37 12.04.2020
4922 Clouds 5 1023 76 0 5.82 209 03:45 12.04.2020
4923 Clouds 5 1023 76 0 0.45 180 03:25 12.04.2020
4924 Clouds 5 1024 76 0 0.45 180 02:35 12.04.2020
4925 Clouds 6 1024 76 0 0.45 180 01:53 12.04.2020
4926 Clouds 6 1025 75 0 0.45 157 01:19 12.04.2020
4927 Clouds 6 1025 76 0 0.45 157 00:42 12.04.2020
4928 Clouds 6 1025 76 0 0.45 157 00:20 12.04.2020
4929 Clouds 7 1025 76 0 0.45 157 23:47 11.04.2020
4930 Clouds 7 1026 77 0 0.45 157 23:26 11.04.2020
4931 Clouds 7 1026 77 0 0.45 157 22:57 11.04.2020
4932 Clouds 7 1026 77 0 0.45 135 22:36 11.04.2020
4933 Clouds 7 1026 76 0 0.45 135 22:18 11.04.2020
4934 Clouds 7 1027 74 0 0.45 135 21:54 11.04.2020
4935 Clouds 8 1027 73 0 0.45 135 21:36 11.04.2020
4936 Clouds 8 1027 72 0 0.89 135 21:18 11.04.2020
4937 Clouds 8 1027 67 0 0.45 135 20:54 11.04.2020
4938 Clouds 9 1027 65 0 0.45 135 20:36 11.04.2020
4939 Clouds 9 1027 64 0 0.45 135 20:18 11.04.2020
4940 Clouds 10 1027 60 0 0.45 135 19:54 11.04.2020
4941 Clouds 10 1027 60 0 0.45 135 19:54 11.04.2020
4942 Clouds 11 1028 57 0 0.45 135 19:36 11.04.2020
4943 Clouds 13 1027 56 0 0.45 135 19:18 11.04.2020
4944 Clouds 13 1028 55 0 0.89 112 18:55 11.04.2020
4945 Clouds 13 1028 56 0 0.89 135 18:36 11.04.2020
4946 Clouds 13 1028 55 0 0.45 135 18:18 11.04.2020
4947 Clouds 14 1028 55 0 0.89 135 17:56 11.04.2020
4948 Clouds 14 1029 56 0 0.45 135 17:36 11.04.2020
4949 Clouds 13 1029 57 0 0.45 135 17:18 11.04.2020
4950 Clouds 12 1029 55 0 0.73 128 16:42 11.04.2020
4951 Clouds 13 1029 52 0 0.45 45 16:21 11.04.2020
4952 Clouds 12 1030 55 0 0.89 45 15:41 11.04.2020
4953 Clouds 13 1030 54 0 0.89 22 15:21 11.04.2020
4954 Clouds 12 1030 53 0 0.45 45 14:58 11.04.2020
4955 Clouds 12 1031 54 0 0.45 45 14:40 11.04.2020
4956 Clouds 12 1031 53 0 1.09 319 14:22 11.04.2020
4957 Clouds 11 1031 57 0 0.45 22 13:43 11.04.2020
4958 Clouds 11 1031 60 0 1.09 319 13:25 11.04.2020
4959 Clouds 11 1031 60 0 1.09 319 12:59 11.04.2020
4960 Clouds 11 1031 60 0 0.89 45 12:38 11.04.2020
4961 Clouds 11 1032 62 0 0.45 0 12:18 11.04.2020
4962 Clouds 10 1032 66 0 1.21 185 11:43 11.04.2020
4963 Clouds 10 1032 66 0 0.45 45 11:22 11.04.2020
4964 Clouds 10 1032 65 0 0.45 45 10:57 11.04.2020
4965 Clouds 9 1032 71 0 1.21 185 10:39 11.04.2020
4966 Clouds 9 1032 75 0 1.21 185 10:21 11.04.2020
4967 Clouds 8 1032 80 0 1.21 185 09:57 11.04.2020
4968 Clouds 8 1032 82 0 1.06 218 09:38 11.04.2020
4969 Clear 7 1032 83 0 0.52 22 09:20 11.04.2020
4970 Clear 6 1032 84 0 0.52 22 08:43 11.04.2020
4971 Clear 4 1032 82 0 0.52 22 08:25 11.04.2020
4972 Clear 2 1032 80 0 0.52 22 07:49 11.04.2020
4973 Clear 2 1031 80 0 0.52 22 07:28 11.04.2020
4974 Clear 1 1031 79 0 0.52 22 06:47 11.04.2020
4975 Clear 1 1031 79 0 2.84 5 06:18 11.04.2020
4976 Clear 2 1030 78 0 2.84 5 04:35 11.04.2020
4977 Clear 3 1030 78 0 2.84 5 03:40 11.04.2020
4978 Clouds 3 1029 75 0 3.77 337 01:55 11.04.2020
4979 Clouds 3 1029 75 0 3.77 337 01:23 11.04.2020
4980 Clouds 4 1029 74 0 3.77 337 00:44 11.04.2020
4981 Clouds 4 1029 74 0 4.08 321 00:19 11.04.2020
4982 Clouds 4 1029 73 0 4.08 321 23:57 10.04.2020
4983 Clouds 4 1029 72 0 4.08 321 23:38 10.04.2020
4984 Clouds 4 1029 72 0 4.08 321 23:19 10.04.2020
4985 Clouds 4 1029 71 0 4.08 321 22:43 10.04.2020
4986 Clouds 5 1029 69 0 4.08 321 22:22 10.04.2020
4987 Clouds 5 1029 69 0 4.08 321 21:58 10.04.2020
4988 Clouds 6 1029 68 0 4.08 321 21:40 10.04.2020
4989 Clouds 7 1029 69 0 4.43 271 21:20 10.04.2020
4990 Clouds 7 1029 67 0 0.45 292 20:55 10.04.2020
4991 Clouds 8 1028 65 0 0.45 292 20:37 10.04.2020
4992 Clouds 8 1028 63 0 0.45 292 20:18 10.04.2020
4993 Clouds 6 1025 79 0 4.43 271 19:41 10.04.2020
4994 Clouds 6 1025 79 0 4.43 271 19:21 10.04.2020
4995 Clouds 6 1025 79 0 4.43 271 18:58 10.04.2020
4996 Clouds 6 1025 79 0 4.43 271 18:58 10.04.2020
4997 Clouds 12 1028 59 0 4.43 271 18:40 10.04.2020
4998 Clouds 12 1028 59 0 4.43 271 18:40 10.04.2020
4999 Clouds 12 1028 58 0 5.14 282 18:21 10.04.2020
5000 Clouds 12 1028 58 0 5.14 282 17:59 10.04.2020
5001 Clouds 12 1028 58 0 5.14 282 17:40 10.04.2020
5002 Clouds 12 1028 58 0 5.14 282 17:21 10.04.2020
5003 Clouds 12 1028 58 0 0.45 22 16:57 10.04.2020
5004 Clouds 12 1029 58 0 0.45 315 16:38 10.04.2020
5005 Clouds 13 1029 58 0 5.14 282 16:20 10.04.2020
5006 Clouds 12 1029 59 0 0.45 337 15:57 10.04.2020
5007 Clouds 12 1029 59 0 0.45 0 15:38 10.04.2020
5008 Clouds 12 1029 61 0 1.34 45 15:19 10.04.2020
5009 Clouds 11 1029 63 0 0.45 22 14:58 10.04.2020
5010 Clouds 11 1030 64 0 5.16 275 14:39 10.04.2020
5011 Clouds 11 1030 62 0 0.89 337 14:19 10.04.2020
5012 Clouds 11 1030 60 0 0.45 45 13:44 10.04.2020
5013 Clouds 11 1030 63 0 0.45 0 13:22 10.04.2020
5014 Clouds 11 1030 65 0 0.45 0 12:55 10.04.2020
5015 Clouds 11 1030 66 0 0.45 337 12:36 10.04.2020
5016 Clouds 11 1030 69 0 0.45 0 12:18 10.04.2020
5017 Clouds 9 1030 73 0 0.45 0 11:42 10.04.2020
5018 Clouds 9 1030 73 0 3.87 286 11:22 10.04.2020
5019 Clouds 9 1030 73 0 3.87 286 10:56 10.04.2020
5020 Clouds 9 1031 75 0 0.45 315 10:37 10.04.2020
5021 Clouds 9 1030 77 0 3.87 286 10:19 10.04.2020
5022 Clouds 8 1030 80 0 3.87 286 09:43 10.04.2020
5023 Clouds 7 1031 83 0 0.45 315 09:21 10.04.2020
5024 Clouds 7 1031 83 0 0.45 315 09:21 10.04.2020
5025 Clouds 6 1031 84 0 0.45 315 08:47 10.04.2020
5026 Clouds 4 1031 83 0 4.05 308 08:27 10.04.2020
5027 Clouds 3 1030 78 0 4.05 308 07:54 10.04.2020
5028 Clouds 2 1030 78 0 4.05 308 07:36 10.04.2020
5029 Clouds 2 1030 78 0 4.05 308 07:18 10.04.2020
5030 Clouds 1 1030 77 0 4.05 308 06:30 10.04.2020
5031 Clouds 1 1030 77 0 4.56 326 05:59 10.04.2020
5032 Clouds 2 1030 76 0 4.56 326 05:25 10.04.2020
5033 Clouds 2 1029 75 0 4.56 326 04:53 10.04.2020
5034 Clouds 3 1029 75 0 4.56 326 03:35 10.04.2020
5035 Clouds 3 1029 74 0 4.55 321 02:51 10.04.2020
5036 Clouds 4 1029 73 0 5.23 315 02:32 10.04.2020
5037 Clouds 6 1029 74 0 5.23 315 01:46 10.04.2020
5038 Clouds 6 1029 74 0 5.23 315 01:26 10.04.2020
5039 Clouds 6 1029 73 0 5.23 315 00:46 10.04.2020
5040 Clouds 6 1029 73 0 5.62 323 00:20 10.04.2020
5041 Clouds 6 1029 71 0 0.45 292 23:42 09.04.2020
5042 Clouds 6 1029 70 0 5.62 323 23:24 09.04.2020
5043 Clouds 6 1029 70 0 0.45 315 22:57 09.04.2020
5044 Clouds 6 1028 67 0 5.62 323 22:39 09.04.2020
5045 Clouds 7 1028 66 0 5.62 323 22:21 09.04.2020
5046 Clouds 8 1028 63 0 0.89 292 21:38 09.04.2020
5047 Clear 7 1028 63 0 0.45 292 21:20 09.04.2020
5048 Clear 8 1028 56 0 5.77 297 20:54 09.04.2020
5049 Clear 9 1028 54 0 0.45 292 20:36 09.04.2020
5050 Clear 11 1028 53 0 0.45 315 20:18 09.04.2020
5051 Clear 8 1024 67 0 5.77 297 19:39 09.04.2020
5052 Clear 8 1024 67 0 5.77 297 19:21 09.04.2020
5053 Clear 8 1024 67 0 5.77 297 18:42 09.04.2020
5054 Clear 8 1023 65 0 5.56 300 18:21 09.04.2020
5055 Clear 8 1023 65 0 5.56 300 17:58 09.04.2020
5056 Clear 8 1023 65 0 5.56 300 17:39 09.04.2020
5057 Clear 8 1023 65 0 5.56 300 17:19 09.04.2020
5058 Clear 14 1027 53 0 0.45 0 16:40 09.04.2020
5059 Clear 14 1027 55 0 0.45 0 16:20 09.04.2020
5060 Clear 14 1027 56 0 0.89 315 15:57 09.04.2020
5061 Clear 14 1027 56 0 0.45 337 15:38 09.04.2020
5062 Clouds 14 1027 58 0 0.89 0 15:19 09.04.2020
5063 Clouds 14 1026 58 0 0.45 0 14:56 09.04.2020
5064 Clear 14 1026 59 0 1.34 0 14:38 09.04.2020
5065 Clear 14 1026 63 0 1.34 315 14:20 09.04.2020
5066 Clear 14 1026 63 0 1.34 315 14:20 09.04.2020
5067 Clear 14 1026 63 0 1.34 315 14:20 09.04.2020
5068 Clear 13 1026 67 0 0.45 315 13:42 09.04.2020
5069 Clear 13 1026 66 0 0.45 315 13:24 09.04.2020
5070 Clear 13 1026 67 0 1.34 0 12:58 09.04.2020
5071 Clear 12 1026 70 0 0.89 337 12:38 09.04.2020
5072 Clear 12 1026 71 0 0.89 0 12:20 09.04.2020
5073 Clear 12 1026 74 0 0.45 292 11:55 09.04.2020
5074 Clear 11 1026 74 0 1.34 315 11:36 09.04.2020
5075 Clear 11 1026 74 0 0.89 315 11:18 09.04.2020
5076 Clear 11 1025 73 0 0.45 315 10:41 09.04.2020
5077 Clear 11 1025 74 0 0.89 337 10:22 09.04.2020
5078 Clear 11 1025 75 0 0.45 315 09:58 09.04.2020
5079 Clear 11 1025 76 0 1.34 315 09:39 09.04.2020
5080 Clouds 10 1025 77 0 1.79 315 09:21 09.04.2020
5081 Clouds 9 1024 79 0 1.79 292 08:56 09.04.2020
5082 Clouds 9 1024 79 0 0.89 292 08:37 09.04.2020
5083 Clouds 8 1024 80 0 1.79 292 08:18 09.04.2020
5084 Clouds 8 1024 81 0 2.24 315 07:37 09.04.2020
5085 Clouds 7 1024 81 0 1.79 315 07:18 09.04.2020
5086 Clouds 8 1024 79 0 1.34 247 06:35 09.04.2020
5087 Clouds 8 1023 79 0 0.45 292 05:49 09.04.2020
5088 Clouds 8 1023 79 0 0.45 292 05:24 09.04.2020
5089 Clouds 9 1023 77 0 6.22 298 02:35 09.04.2020
5090 Clouds 10 1024 77 0 6.22 298 01:46 09.04.2020
5091 Clouds 10 1024 78 0 1.34 292 01:27 09.04.2020
5092 Clouds 10 1024 74 0 6.22 298 00:54 09.04.2020
5093 Clouds 11 1024 73 0 6.22 298 00:36 09.04.2020
5094 Clouds 11 1024 72 0 5.17 252 00:18 09.04.2020
5095 Clouds 11 1024 72 0 5.17 252 00:18 09.04.2020
5096 Clouds 11 1024 73 0 5.17 252 23:41 08.04.2020
5097 Clouds 11 1024 71 0 5.17 252 23:22 08.04.2020
5098 Clouds 11 1024 70 0 0.45 270 22:54 08.04.2020
5099 Clouds 11 1024 70 0 0.45 292 22:36 08.04.2020
5100 Clouds 11 1024 69 0 0.45 157 22:18 08.04.2020
5101 Clouds 11 1024 66 0 5.17 252 21:54 08.04.2020
5102 Clouds 12 1024 66 0 0.45 157 21:36 08.04.2020
5103 Clouds 12 1024 65 0 2.5 190 21:18 08.04.2020
5104 Clouds 12 1025 64 0 0.45 135 20:40 08.04.2020
5105 Clouds 13 1025 62 0 0.45 135 20:21 08.04.2020
5106 Clouds 13 1025 61 0 0.45 135 19:59 08.04.2020
5107 Clouds 16 1025 56 0 0.45 135 19:40 08.04.2020
5108 Clouds 16 1025 57 0 0.89 135 19:21 08.04.2020
5109 Clouds 17 1025 55 0 0.45 135 18:54 08.04.2020
5110 Clouds 17 1026 54 0 1.34 135 18:36 08.04.2020
5111 Clouds 18 1026 53 0 0.89 135 18:18 08.04.2020
5112 Clouds 19 1026 50 0 0.89 135 17:42 08.04.2020
5113 Clouds 20 1027 50 0 0.89 135 17:20 08.04.2020
5114 Clouds 12 1024 69 0 4.44 140 16:56 08.04.2020
5115 Clouds 12 1024 69 0 4.44 140 16:37 08.04.2020
5116 Clouds 12 1024 69 0 4.44 140 16:19 08.04.2020
5117 Clouds 19 1028 49 0 0.45 135 15:38 08.04.2020
5118 Clouds 18 1029 52 0 3.09 131 15:20 08.04.2020
5119 Clouds 18 1029 50 0 3.09 131 14:57 08.04.2020
5120 Clouds 18 1029 47 0 0.45 45 14:39 08.04.2020
5121 Clouds 19 1030 47 0 3.07 129 14:21 08.04.2020
5122 Clouds 11 1027 64 0 3.07 129 13:44 08.04.2020
5123 Clouds 18 1031 50 0 0.89 180 13:21 08.04.2020
5124 Clouds 17 1031 51 0 0.89 202 12:54 08.04.2020
5125 Clouds 11 1027 64 0 3.07 129 12:36 08.04.2020
5126 Clouds 9 1029 64 0 4.39 156 12:18 08.04.2020
5127 Clouds 9 1029 64 0 4.39 156 12:18 08.04.2020
5128 Clouds 9 1029 64 0 4.39 156 12:18 08.04.2020
5129 Clouds 15 1033 56 0 0.89 135 11:42 08.04.2020
5130 Clouds 14 1033 57 0 0.45 135 11:23 08.04.2020
5131 Clouds 14 1033 63 0 0.45 157 10:58 08.04.2020
5132 Clouds 13 1034 69 0 0.45 157 10:39 08.04.2020
5133 Clouds 12 1034 71 0 0.45 135 10:21 08.04.2020
5134 Clouds 11 1034 73 0 0.89 135 09:57 08.04.2020
5135 Clouds 9 1034 77 0 0.45 135 09:39 08.04.2020
5136 Clouds 9 1034 79 0 0.45 157 09:19 08.04.2020
5137 Clouds 7 1035 82 0 0.89 135 08:57 08.04.2020
5138 Clouds 6 1035 81 0 0.45 112 08:38 08.04.2020
5139 Clouds 6 1035 81 0 4.02 162 08:20 08.04.2020
5140 Clouds 3 1035 79 0 4.02 162 07:42 08.04.2020
5141 Clouds 3 1035 79 0 4.02 162 07:21 08.04.2020
5142 Clouds 2 1035 77 0 3.1 157 06:28 08.04.2020
5143 Clouds 3 1035 77 0 3.1 157 04:58 08.04.2020
5144 Clouds 3 1036 75 0 1.99 157 02:50 08.04.2020
5145 Clouds 4 1036 73 0 1.78 164 02:22 08.04.2020
5146 Clouds 4 1036 74 0 1.78 164 01:56 08.04.2020
5147 Clouds 4 1036 74 0 1.78 164 01:28 08.04.2020
5148 Clouds 5 1036 73 0 1.78 164 00:47 08.04.2020
5149 Clouds 6 1036 70 0 1.49 165 00:26 08.04.2020
5150 Clouds 6 1036 69 0 1.49 165 23:57 07.04.2020
5151 Clouds 6 1036 69 0 1.49 165 23:37 07.04.2020
5152 Clouds 7 1036 69 0 1.49 165 23:18 07.04.2020
5153 Clouds 7 1036 69 0 1.49 165 22:55 07.04.2020
5154 Clouds 7 1036 68 0 1.49 165 22:37 07.04.2020
5155 Clouds 7 1036 66 0 1.49 165 22:18 07.04.2020
5156 Clouds 9 1036 62 0 1.49 165 21:42 07.04.2020
5157 Clouds 9 1036 61 0 1.5 289 21:21 07.04.2020
5158 Clouds 10 1036 61 0 1.5 289 20:59 07.04.2020
5159 Clouds 11 1036 58 0 1.5 289 20:41 07.04.2020
5160 Clouds 12 1036 56 0 1.5 289 20:21 07.04.2020
5161 Clouds 13 1036 54 0 1.5 289 19:58 07.04.2020
5162 Clouds 8 1033 74 0 1.5 289 19:38 07.04.2020
5163 Clouds 8 1033 74 0 1.5 289 19:20 07.04.2020
5164 Clouds 8 1033 74 0 1.5 289 18:59 07.04.2020
5165 Clouds 8 1033 74 0 1.5 289 18:40 07.04.2020
5166 Clouds 9 1032 69 0 4.41 292 18:21 07.04.2020
5167 Clouds 9 1032 69 0 4.41 292 17:55 07.04.2020
5168 Clouds 9 1032 69 0 4.41 292 17:37 07.04.2020
5169 Clouds 9 1032 69 0 4.41 292 17:19 07.04.2020
5170 Clouds 9 1032 69 0 4.41 292 16:43 07.04.2020
5171 Clouds 9 1032 69 0 4.41 292 16:25 07.04.2020
5172 Clouds 9 1032 69 0 4.41 292 15:46 07.04.2020
5173 Clouds 9 1031 70 0 6.14 285 15:26 07.04.2020
5174 Clouds 17 1035 48 0 0.45 315 14:56 07.04.2020
5175 Clouds 16 1035 49 0 0.89 315 14:38 07.04.2020
5176 Clouds 16 1035 50 0 0.45 337 14:19 07.04.2020
5177 Clouds 16 1035 50 0 0.89 315 13:42 07.04.2020
5178 Clouds 15 1035 53 0 0.45 315 13:20 07.04.2020
5179 Clouds 15 1034 55 0 0.89 315 12:58 07.04.2020
5180 Clouds 14 1034 58 0 0.89 292 12:39 07.04.2020
5181 Clouds 14 1034 60 0 0.45 0 12:21 07.04.2020
5182 Clouds 14 1034 63 0 1.34 315 11:58 07.04.2020
5183 Clouds 13 1034 67 0 1.34 337 11:40 07.04.2020
5184 Clouds 13 1034 70 0 0.89 292 11:21 07.04.2020
5185 Clouds 12 1033 74 0 0.45 315 10:55 07.04.2020
5186 Clouds 12 1033 75 0 0.45 0 10:36 07.04.2020
5187 Clouds 12 1033 76 0 0.45 292 10:18 07.04.2020
5188 Clouds 11 1032 78 0 1.34 315 09:43 07.04.2020
5189 Clear 11 1032 79 0 2.68 315 09:18 07.04.2020
5190 Clear 10 1031 81 0 1.34 292 08:41 07.04.2020
5191 Clear 9 1031 80 0 1.34 315 08:23 07.04.2020
5192 Clear 9 1031 79 0 0.89 315 07:58 07.04.2020
5193 Clear 8 1030 78 0 0.89 315 07:40 07.04.2020
5194 Clear 7 1030 73 0 1.34 292 07:21 07.04.2020
5195 Clear 6 1029 71 0 7.32 292 06:47 07.04.2020
5196 Clear 6 1028 69 0 5.61 247 06:20 07.04.2020
5197 Clear 6 1028 68 0 5.61 247 05:32 07.04.2020
5198 Clear 6 1027 67 0 5.61 247 04:35 07.04.2020
5199 Clear 7 1027 67 0 0.45 157 03:24 07.04.2020
5200 Clear 7 1027 65 0 0.45 157 02:48 07.04.2020
5201 Clear 8 1027 63 0 0.45 157 01:48 07.04.2020
5202 Clear 8 1027 63 0 5.08 210 01:24 07.04.2020
5203 Clear 9 1026 62 0 5.8 190 00:28 07.04.2020
5204 Clear 9 1026 61 0 0.45 157 23:50 06.04.2020
5205 Clear 9 1026 60 0 5.8 190 23:24 06.04.2020
5206 Clear 9 1026 60 0 5.8 190 22:58 06.04.2020
5207 Clear 10 1026 58 0 0.45 157 22:38 06.04.2020
5208 Clear 10 1026 58 0 0.45 157 22:20 06.04.2020
5209 Clear 11 1026 56 0 5.8 190 21:57 06.04.2020
5210 Clear 12 1026 55 0 5.8 190 21:38 06.04.2020
5211 Clouds 12 1026 55 0 0.45 157 21:18 06.04.2020
5212 Clouds 13 1026 52 0 0.45 157 20:55 06.04.2020
5213 Clouds 14 1025 49 0 0.45 180 20:37 06.04.2020
5214 Clouds 15 1025 47 0 0.45 180 20:18 06.04.2020
5215 Clouds 12 1022 72 0 5.5 182 19:41 06.04.2020
5216 Clouds 12 1022 72 0 5.5 182 19:23 06.04.2020
5217 Clouds 12 1022 72 0 5.5 182 18:58 06.04.2020
5218 Clouds 12 1022 72 0 5.5 182 18:39 06.04.2020
5219 Clouds 13 1023 63 0 6.28 175 18:21 06.04.2020
5220 Clouds 13 1023 63 0 6.28 175 17:42 06.04.2020
5221 Clouds 13 1023 63 0 6.28 175 17:20 06.04.2020
5222 Clouds 13 1023 63 0 6.28 175 16:50 06.04.2020
5223 Clouds 13 1023 63 0 6.28 175 16:32 06.04.2020
5224 Clouds 13 1023 63 0 6.28 175 16:32 06.04.2020
5225 Clouds 13 1023 63 0 6.28 175 16:00 06.04.2020
5226 Clear 11 1023 66 0 6.74 160 14:44 06.04.2020
5227 Clear 11 1023 66 0 6.74 160 14:44 06.04.2020
5228 Clear 11 1023 66 0 6.74 160 14:44 06.04.2020
5229 Clear 19 1027 44 0 0.89 180 13:43 06.04.2020
5230 Clear 19 1027 44 0 0.89 180 13:43 06.04.2020
5231 Clear 18 1027 44 0 1.34 202 13:20 06.04.2020
5232 Clear 18 1027 44 0 1.34 202 13:20 06.04.2020
5233 Clear 12 1023 66 0 6.91 161 12:26 06.04.2020
5234 Clear 12 1023 66 0 6.91 161 12:26 06.04.2020
5235 Clear 12 1023 66 0 6.91 161 12:26 06.04.2020
5236 Clear 12 1023 66 0 6.91 161 12:26 06.04.2020
5237 Clear 9 1024 69 0 7.45 157 11:56 06.04.2020
5238 Clear 9 1024 69 0 7.45 157 11:34 06.04.2020
5239 Clear 9 1024 69 0 7.45 157 11:33 06.04.2020
5240 Clear 9 1024 69 0 7.45 157 11:33 06.04.2020
5241 Clear 13 1028 52 0 2.68 135 10:52 06.04.2020
5242 Clear 13 1028 52 0 2.68 135 10:52 06.04.2020
5243 Clear 13 1028 52 0 2.68 135 10:52 06.04.2020
5244 Clear 13 1028 52 0 2.68 135 10:52 06.04.2020
5245 Clear 13 1028 52 0 2.68 135 10:52 06.04.2020
5246 Clear 12 1028 55 0 1.34 135 10:22 06.04.2020
5247 Clear 12 1028 55 0 1.34 135 10:22 06.04.2020
5248 Clear 11 1028 58 0 1.34 135 09:51 06.04.2020
5249 Clear 11 1028 58 0 1.34 135 09:51 06.04.2020
5250 Clear 9 1025 70 0 7.54 158 09:23 06.04.2020
5251 Clear 8 1029 65 0 0.89 135 08:55 06.04.2020
5252 Clear 8 1029 66 0 1.34 135 08:33 06.04.2020
5253 Clear 8 1029 66 0 1.34 135 08:33 06.04.2020
5254 Clear 6 1029 69 0 1.79 157 07:54 06.04.2020
5255 Clear 4 1029 71 0 1.34 135 07:18 06.04.2020
5256 Clear 4 1029 70 0 1.34 135 06:25 06.04.2020
5257 Clear 4 1029 69 0 0.89 135 05:00 06.04.2020
5258 Clear 4 1029 69 0 0.89 135 05:00 06.04.2020
5259 Clear 4 1029 69 0 0.89 135 05:00 06.04.2020
5260 Clear 5 1030 66 0 1.34 135 03:28 06.04.2020
5261 Clear 6 1029 65 0 1.34 135 02:48 06.04.2020
5262 Clear 6 1030 66 0 0.89 135 01:52 06.04.2020
5263 Clear 6 1030 63 0 0.89 135 00:49 06.04.2020
5264 Clear 7 1031 61 0 0.89 135 00:26 06.04.2020
5265 Clear 7 1031 61 0 0.89 135 23:48 05.04.2020
5266 Clear 7 1031 61 0 0.89 135 23:30 05.04.2020
5267 Clear 7 1031 61 0 0.89 135 23:30 05.04.2020
5268 Clear 7 1031 62 0 0.89 135 22:56 05.04.2020
5269 Clear 7 1031 63 0 0.89 135 22:38 05.04.2020
5270 Clear 7 1031 63 0 0.89 135 22:19 05.04.2020
5271 Clear 7 1031 63 0 0.45 135 21:58 05.04.2020
5272 Clear 7 1031 62 0 0.45 135 21:39 05.04.2020
5273 Clear 7 1031 62 0 0.45 135 21:21 05.04.2020
5274 Clouds 9 1032 55 0 0.45 112 20:21 05.04.2020
5275 Clouds 8 1029 67 0 6.38 133 19:41 05.04.2020
5276 Clouds 8 1029 67 0 6.38 133 19:22 05.04.2020
5277 Clouds 8 1029 67 0 6.38 133 18:46 05.04.2020
5278 Clouds 8 1029 67 0 6.38 133 18:46 05.04.2020
5279 Clouds 16 1032 42 0 0.45 135 17:59 05.04.2020
5280 Clouds 16 1032 42 0 0.45 135 17:59 05.04.2020
5281 Clouds 16 1032 39 0 1.34 135 17:39 05.04.2020
5282 Clouds 16 1032 39 0 1.34 135 17:20 05.04.2020
5283 Clouds 16 1032 39 0 1.34 135 17:20 05.04.2020
5284 Clouds 10 1029 61 0 6.4 130 16:46 05.04.2020
5285 Clouds 10 1029 61 0 6.4 130 16:46 05.04.2020
5286 Clouds 10 1029 61 0 6.4 130 16:46 05.04.2020
5287 Clouds 10 1029 61 0 6.4 130 16:18 05.04.2020
5288 Clouds 10 1029 61 0 6.4 130 15:45 05.04.2020
5289 Clouds 10 1029 61 0 6.4 130 15:25 05.04.2020
5290 Clouds 9 1031 61 0 6.33 137 14:48 05.04.2020
5291 Clouds 9 1031 61 0 6.33 137 14:48 05.04.2020
5292 Clouds 9 1031 61 0 6.33 137 14:48 05.04.2020
5293 Clouds 9 1031 61 0 6.33 137 14:48 05.04.2020
5294 Clouds 15 1035 48 0 2.68 135 13:47 05.04.2020
5295 Clouds 15 1035 48 0 2.68 135 13:47 05.04.2020
5296 Clouds 15 1035 48 0 2.68 135 13:47 05.04.2020
5297 Clouds 15 1035 48 0 2.68 135 13:47 05.04.2020
5298 Clouds 15 1035 48 0 2.68 135 13:47 05.04.2020
5299 Clouds 14 1035 50 0 0.89 180 12:58 05.04.2020
5300 Clouds 8 1031 66 0 5.13 160 11:58 05.04.2020
5301 Clouds 8 1031 66 0 5.13 160 11:38 05.04.2020
5302 Clouds 8 1031 66 0 5.13 160 11:19 05.04.2020
5303 Clouds 11 1036 60 0 1.34 135 10:45 05.04.2020
5304 Clouds 11 1037 63 0 0.89 157 10:21 05.04.2020
5305 Clouds 9 1037 65 0 0.89 157 09:52 05.04.2020
5306 Clouds 9 1037 65 0 0.89 157 09:52 05.04.2020
5307 Clouds 8 1032 68 0 4.92 161 09:25 05.04.2020
5308 Clouds 8 1032 68 0 4.92 161 09:25 05.04.2020
5309 Clouds 8 1032 68 0 4.92 161 09:25 05.04.2020
5310 Clouds 8 1032 68 0 4.92 161 09:25 05.04.2020
5311 Clouds 3 1037 78 0 0.45 157 07:58 05.04.2020
5312 Clear 2 1035 77 0 0.45 157 05:12 05.04.2020
5313 Clear 2 1034 76 0 0.45 157 03:58 05.04.2020
5314 Clouds 2 1034 76 0 4.86 204 02:56 05.04.2020
5315 Clouds 3 1034 76 0 0.45 157 01:57 05.04.2020
5316 Clouds 3 1034 76 0 4.89 208 01:39 05.04.2020
5317 Clouds 3 1033 75 0 4.89 208 00:52 05.04.2020
5318 Clouds 3 1033 75 0 4.89 208 00:22 05.04.2020
5319 Clouds 4 1033 75 0 0.45 157 23:58 04.04.2020
5320 Clouds 4 1033 75 0 0.45 157 23:39 04.04.2020
5321 Clouds 4 1033 75 0 0.45 157 23:21 04.04.2020
5322 Clouds 4 1033 75 0 0.45 157 22:56 04.04.2020
5323 Clouds 5 1033 75 0 0.45 157 22:38 04.04.2020
5324 Clouds 5 1032 74 0 0.45 157 22:19 04.04.2020
5325 Clouds 5 1032 74 0 0.45 157 21:57 04.04.2020
5326 Clouds 5 1032 73 0 0.45 157 21:38 04.04.2020
5327 Clouds 6 1032 73 0 3.64 219 21:19 04.04.2020
5328 Clear 6 1032 73 0 3.59 226 21:19 04.04.2020
5329 Clear 7 1032 72 0 0.45 315 20:55 04.04.2020
5330 Clear 7 1031 71 0 0.45 315 20:36 04.04.2020
5331 Clear 8 1031 68 0 3.59 226 20:18 04.04.2020
5332 Clear 9 1031 64 0 4.02 231 19:42 04.04.2020
5333 Clear 9 1031 64 0 3.59 226 19:21 04.04.2020
5334 Clear 10 1031 62 0 3.59 226 18:59 04.04.2020
5335 Clear 10 1031 61 0 3.59 226 18:40 04.04.2020
5336 Clear 10 1030 61 0 4.02 231 18:21 04.04.2020
5337 Clear 10 1030 61 0 4.07 254 17:59 04.04.2020
5338 Clear 10 1030 59 0 0.45 292 17:39 04.04.2020
5339 Clear 10 1030 59 0 0.45 292 17:39 04.04.2020
5340 Clear 10 1030 58 0 0.45 292 17:19 04.04.2020
5341 Clear 12 1030 52 0 0.45 292 16:46 04.04.2020
5342 Clear 12 1030 52 0 0.45 292 16:28 04.04.2020
5343 Clear 12 1030 53 0 0.45 247 15:59 04.04.2020
5344 Clear 12 1030 51 0 1.79 292 15:39 04.04.2020
5345 Clear 12 1030 52 0 0.89 292 15:20 04.04.2020
5346 Clear 12 1030 52 0 0.89 292 15:20 04.04.2020
5347 Clouds 12 1029 52 0 0.45 292 14:56 04.04.2020
5348 Clouds 12 1029 52 0 0.89 292 14:38 04.04.2020
5349 Clouds 12 1029 53 0 6.05 261 14:20 04.04.2020
5350 Clear 11 1030 55 0 0.89 292 13:55 04.04.2020
5351 Clear 11 1029 53 0 0.45 292 13:37 04.04.2020
5352 Clear 11 1030 57 0 0.45 292 13:18 04.04.2020
5353 Clear 11 1029 59 0 0.45 270 12:44 04.04.2020
5354 Clear 6 1025 73 0 6.2 258 12:23 04.04.2020
5355 Clouds 9 1029 65 0 0.89 315 11:55 04.04.2020
5356 Clouds 9 1029 67 0 0.45 270 11:37 04.04.2020
5357 Clouds 9 1029 68 0 0.89 315 11:18 04.04.2020
5358 Clouds 8 1029 74 0 0.89 292 10:55 04.04.2020
5359 Clouds 7 1029 76 0 6.49 261 10:37 04.04.2020
5360 Clouds 7 1029 79 0 0.89 270 10:18 04.04.2020
5361 Clouds 6 1028 82 0 6.49 261 09:54 04.04.2020
5362 Clouds 5 1028 83 0 6.49 261 09:36 04.04.2020
5363 Clear 4 1028 85 0 0.89 292 09:18 04.04.2020
5364 Clear 3 1028 87 0 0.45 292 08:38 04.04.2020
5365 Clear 2 1027 87 0 6.09 266 08:20 04.04.2020
5366 Clear 1 1027 86 0 6.09 266 07:44 04.04.2020
5367 Clear 1 1026 85 0 6.09 266 07:26 04.04.2020
5368 Clear 0 1026 85 0 0.45 270 06:47 04.04.2020
5369 Clear 0 1025 85 0 6.07 273 06:19 04.04.2020
5370 Clear 0 1025 84 0 6.07 273 05:41 04.04.2020
5371 Clear 0 1025 83 0 6.07 273 05:23 04.04.2020
5372 Clear 1 1024 84 0 6.07 273 04:30 04.04.2020
5373 Clear 1 1024 83 0 6.07 273 03:49 04.04.2020
5374 Clear 1 1023 81 0 6.32 289 02:51 04.04.2020
5375 Clear 1 1023 80 0 6.32 289 02:32 04.04.2020
5376 Clear 1 1022 78 0 5.89 288 01:53 04.04.2020
5377 Clear 1 1022 77 0 5.89 288 01:25 04.04.2020
5378 Clear 2 1022 79 0 5.89 288 00:48 04.04.2020
5379 Clear 2 1022 78 0 5.89 288 00:29 04.04.2020
5380 Clear 2 1021 73 0 7.77 289 23:40 03.04.2020
5381 Clear 2 1021 73 0 7.77 289 23:21 03.04.2020
5382 Clear 3 1020 74 0 7.77 289 22:58 03.04.2020
5383 Clear 2 1020 74 0 7.77 289 22:39 03.04.2020
5384 Clear 3 1020 73 0 0.45 270 22:18 03.04.2020
5385 Clear 3 1019 71 0 0.89 270 21:44 03.04.2020
5386 Clouds 3 1019 70 0 7.84 289 21:25 03.04.2020
5387 Clear 4 1019 67 0 0.45 292 20:57 03.04.2020
5388 Clear 4 1019 66 0 9.16 278 20:39 03.04.2020
5389 Clear 5 1019 65 0 0.89 292 20:21 03.04.2020
5390 Clear 6 1018 63 0 1.34 315 19:58 03.04.2020
5391 Clear 6 1018 61 0 0.45 292 19:39 03.04.2020
5392 Clear 8 1018 57 0 0.45 292 19:21 03.04.2020
5393 Clear 9 1017 54 0 0.89 292 18:59 03.04.2020
5394 Clear 9 1017 53 0 2.68 315 18:41 03.04.2020
5395 Clear 9 1017 53 0 2.68 315 18:41 03.04.2020
5396 Clear 9 1017 53 0 1.79 315 18:23 03.04.2020
5397 Clear 8 1017 55 0 0.89 292 17:58 03.04.2020
5398 Clear 8 1016 54 0 1.79 292 17:39 03.04.2020
5399 Clear 9 1016 51 0 1.34 292 17:18 03.04.2020
5400 Clear 10 1016 50 0 3.58 292 16:46 03.04.2020
5401 Clear 9 1015 47 0 2.68 315 16:22 03.04.2020
5402 Clear 9 1015 52 0 3.58 292 15:59 03.04.2020
5403 Clear 9 1015 52 0 2.68 247 15:40 03.04.2020
5404 Clear 9 1015 51 0 2.68 337 15:21 03.04.2020
5405 Clouds 9 1014 51 0 2.24 0 14:56 03.04.2020
5406 Clouds 9 1014 51 0 3.58 337 14:38 03.04.2020
5407 Clouds 9 1014 52 0 3.58 315 14:20 03.04.2020
5408 Clouds 8 1014 61 0 2.68 315 13:45 03.04.2020
5409 Clouds 8 1014 58 0 3.13 315 13:26 03.04.2020
5410 Clouds 8 1014 61 0 2.68 315 12:56 03.04.2020
5411 Clouds 8 1013 59 0 2.68 315 12:38 03.04.2020
5412 Clouds 8 1013 61 0 3.13 292 12:18 03.04.2020
5413 Clouds 7 1013 62 0 2.24 337 11:55 03.04.2020
5414 Clouds 7 1013 65 0 2.68 270 11:37 03.04.2020
5415 Clouds 7 1012 72 0 1.79 337 11:18 03.04.2020
5416 Clouds 7 1012 72 0 1.34 315 10:56 03.04.2020
5417 Clouds 7 1012 75 0 1.79 337 10:37 03.04.2020
5418 Clouds 7 1012 75 0 1.79 337 10:37 03.04.2020
5419 Clouds 6 1011 72 0 1.79 292 10:18 03.04.2020
5420 Clouds 6 1011 72 0 1.79 292 10:18 03.04.2020
5421 Clouds 6 1011 74 0 2.24 0 09:55 03.04.2020
5422 Clouds 6 1011 80 0 1.79 292 09:37 03.04.2020
5423 Clear 4 1011 83 0 0.45 292 09:18 03.04.2020
5424 Clear 3 1010 82 0 1.79 315 08:43 03.04.2020
5425 Clear 4 1010 79 0 0.89 292 08:23 03.04.2020
5426 Clear 4 1009 80 0 2.68 292 07:51 03.04.2020
5427 Clear 4 1009 79 0 0.89 315 07:33 03.04.2020
5428 Clear 4 1008 78 0 1.34 270 06:58 03.04.2020
5429 Clear 4 1008 77 0 0.45 292 06:28 03.04.2020
5430 Clear 4 1007 77 0 0.89 315 05:42 03.04.2020
5431 Clear 3 1007 76 0 0.89 270 04:18 03.04.2020
5432 Clear 3 1006 75 0 0.89 292 03:32 03.04.2020
5433 Clouds 4 1006 77 0 0.89 292 02:39 03.04.2020
5434 Snow 5 1005 79 0 1.34 315 01:25 03.04.2020
5435 Snow 5 1005 81 0 0.89 292 00:52 03.04.2020
5436 Snow 5 1005 81 0 1.34 315 00:32 03.04.2020
5437 Rain 6 1005 80 0 0.45 270 23:55 02.04.2020
5438 Rain 7 1005 82 0 3.58 292 23:37 02.04.2020
5439 Rain 7 1004 74 0 0.89 225 23:18 02.04.2020
5440 Rain 7 1004 74 0 0.89 225 23:18 02.04.2020
5441 Rain 7 1005 72 0 0.45 247 22:42 02.04.2020
5442 Rain 7 1005 72 0 0.45 247 22:42 02.04.2020
5443 Rain 7 1005 72 0 0.45 225 22:23 02.04.2020
5444 Rain 8 1005 66 0 1.79 225 21:59 02.04.2020
5445 Rain 8 1005 65 0 0.89 225 21:37 02.04.2020
5446 Rain 8 1005 65 0 1.34 247 21:19 02.04.2020
5447 Rain 8 1005 64 0 2.68 247 20:54 02.04.2020
5448 Rain 8 1006 64 0 0.89 225 20:36 02.04.2020
5449 Rain 8 1006 63 0 1.34 225 20:18 02.04.2020
5450 Rain 8 1006 62 0 1.34 225 19:42 02.04.2020
5451 Rain 8 1006 61 0 1.79 225 19:20 02.04.2020
5452 Rain 9 1007 60 0 0.89 247 18:56 02.04.2020
5453 Rain 9 1007 60 0 0.45 157 18:38 02.04.2020
5454 Clouds 9 1007 59 0 0.45 247 18:19 02.04.2020
5455 Clouds 9 1007 59 0 1.34 225 17:43 02.04.2020
5456 Clouds 9 1008 58 0 0.45 270 17:24 02.04.2020
5457 Clouds 9 1008 60 0 0.89 225 16:59 02.04.2020
5458 Clouds 9 1008 60 0 0.89 225 16:40 02.04.2020
5459 Clouds 9 1009 59 0 1.79 225 16:22 02.04.2020
5460 Clouds 10 1009 58 0 0.89 315 15:57 02.04.2020
5461 Clouds 10 1009 57 0 0.45 247 15:39 02.04.2020
5462 Clouds 10 1009 57 0 0.45 292 15:20 02.04.2020
5463 Clouds 11 1009 55 0 0.89 292 14:58 02.04.2020
5464 Clouds 11 1010 57 0 0.45 247 14:38 02.04.2020
5465 Clouds 10 1010 57 0 13.26 246 14:19 02.04.2020
5466 Clouds 10 1010 57 0 13.08 246 14:19 02.04.2020
5467 Clouds 11 1010 55 0 1.34 292 13:55 02.04.2020
5468 Clouds 11 1010 56 0 1.79 292 13:37 02.04.2020
5469 Clouds 11 1010 58 0 0.89 292 13:18 02.04.2020
5470 Clouds 12 1011 64 0 2.24 225 12:46 02.04.2020
5471 Clouds 6 1006 81 0 11.83 258 12:20 02.04.2020
5472 Clouds 6 1006 81 0 11.83 258 11:58 02.04.2020
5473 Clouds 6 1006 81 0 11.83 258 11:39 02.04.2020
5474 Clouds 6 1006 81 0 11.83 258 11:39 02.04.2020
5475 Clouds 6 1006 81 0 11.83 258 11:39 02.04.2020
5476 Clouds 6 1006 81 0 11.83 258 11:20 02.04.2020
5477 Clouds 6 1006 81 0 11.83 258 10:57 02.04.2020
5478 Clouds 8 1012 75 0 0.89 0 10:39 02.04.2020
5479 Clouds 8 1013 76 0 0.45 315 10:21 02.04.2020
5480 Clouds 7 1013 79 0 0.89 292 09:59 02.04.2020
5481 Clouds 7 1013 81 0 0.89 247 09:41 02.04.2020
5482 Clouds 6 1006 81 0 11.5 252 09:22 02.04.2020
5483 Clouds 6 1013 83 0 0.45 292 08:57 02.04.2020
5484 Clouds 6 1013 84 0 0.89 270 08:38 02.04.2020
5485 Clouds 6 1013 84 0 0.45 270 08:19 02.04.2020
5486 Clouds 5 1013 85 0 0.89 292 07:42 02.04.2020
5487 Clouds 5 1013 85 0 0.89 292 07:19 02.04.2020
5488 Clouds 4 1013 83 0 0.45 22 06:26 02.04.2020
5489 Clouds 4 1014 83 0 10.66 267 05:59 02.04.2020
5490 Clouds 4 1014 83 0 0.45 270 05:41 02.04.2020
5491 Clouds 5 1015 82 0 0.89 292 02:46 02.04.2020
5492 Clouds 5 1015 82 0 0.89 270 01:30 02.04.2020
5493 Clouds 5 1016 83 0 0.89 292 00:42 02.04.2020
5494 Clouds 5 1016 84 0 0.89 270 00:24 02.04.2020
5495 Rain 5 1016 84 0 0.45 315 23:41 01.04.2020
5496 Rain 5 1016 84 0 0.45 292 23:20 01.04.2020
5497 Rain 5 1016 84 0 0.45 315 22:58 01.04.2020
5498 Rain 5 1016 84 0 0.45 315 22:58 01.04.2020
5499 Rain 5 1016 84 0 10.36 272 22:39 01.04.2020
5500 Rain 5 1016 84 0 10.36 272 22:39 01.04.2020
5501 Rain 5 1017 84 0 0.89 270 22:21 01.04.2020
5502 Rain 6 1017 84 0 10.36 272 21:42 01.04.2020
5503 Clouds 6 1017 84 0 10.52 273 21:22 01.04.2020
5504 Rain 6 1017 84 0 10.36 272 21:22 01.04.2020
5505 Clouds 6 1017 84 0 10.52 273 21:21 01.04.2020
5506 Rain 6 1017 84 0 10.36 272 21:21 01.04.2020
5507 Clouds 6 1017 84 0 10.52 273 21:20 01.04.2020
5508 Clouds 6 1017 84 0 0.45 270 20:57 01.04.2020
5509 Clouds 6 1017 83 0 10.14 272 20:39 01.04.2020
5510 Clouds 6 1017 83 0 0.45 247 20:20 01.04.2020
5511 Clouds 6 1017 83 0 0.45 247 20:20 01.04.2020
5512 Clouds 6 1017 79 0 10.14 272 19:59 01.04.2020
5513 Clouds 7 1017 77 0 0.45 292 19:41 01.04.2020
5514 -273 0 0 0 0 0 19:20 01.04.2020
5515 Clouds 7 1017 76 0 0.45 270 19:20 01.04.2020
5516 Clouds 7 1017 76 0 0.89 247 18:44 01.04.2020
5517 Clouds 7 1017 76 0 0.45 292 18:25 01.04.2020
5518 Clouds 7 1018 75 0 1.34 270 17:58 01.04.2020
5519 Clouds 7 1018 73 0 1.79 337 17:38 01.04.2020
5520 Clouds 7 1018 72 0 0.45 0 17:20 01.04.2020
5521 Clouds 8 1018 72 0 1.34 270 16:59 01.04.2020
5522 Clouds 8 1018 75 0 1.79 315 16:40 01.04.2020
5523 Clouds 8 1018 74 0 0.89 225 16:22 01.04.2020
5524 Clouds 8 1018 75 0 0.45 270 15:58 01.04.2020
5525 Clouds 8 1019 75 0 0.45 247 15:38 01.04.2020
5526 Clouds 8 1019 75 0 1.34 225 15:20 01.04.2020
5527 Clouds 8 1019 76 0 0.45 270 14:57 01.04.2020
5528 Clouds 8 1019 76 0 2.24 225 14:38 01.04.2020
5529 Clouds 8 1019 77 0 1.34 292 14:19 01.04.2020
5530 Clouds 7 1020 83 0 0.45 225 13:57 01.04.2020
5531 Clouds 6 1020 83 0 0.45 225 13:37 01.04.2020
5532 Clouds 6 1020 83 0 0.45 315 13:18 01.04.2020
5533 Clouds 6 1021 83 0 0.89 292 12:54 01.04.2020
5534 Clouds 6 1021 82 0 1.79 292 12:36 01.04.2020
5535 Clouds 6 1021 78 0 0.89 270 12:18 01.04.2020
5536 Clouds 7 1021 77 0 1.34 270 11:42 01.04.2020
5537 Clouds 6 1022 79 0 0.89 270 11:23 01.04.2020
5538 Clouds 6 1022 80 0 1.34 270 10:58 01.04.2020
5539 Clouds 5 1022 81 0 1.34 292 10:38 01.04.2020
5540 Clouds 4 1022 82 0 1.34 292 10:19 01.04.2020
5541 Clouds 4 1022 82 0 0.89 292 09:57 01.04.2020
5542 Clouds 4 1022 82 0 0.89 292 09:57 01.04.2020
5543 Clouds 4 1022 83 0 0.45 315 09:38 01.04.2020
5544 Clouds 3 1023 82 0 0.89 292 09:18 01.04.2020
5545 Clouds 3 1023 81 0 0.45 292 08:41 01.04.2020
5546 Clouds 2 1023 81 0 0.45 225 08:18 01.04.2020
5547 Clouds 2 1024 79 0 1.34 292 07:44 01.04.2020
5548 Clouds 2 1023 78 0 0.45 225 07:21 01.04.2020
5549 Clouds 2 1024 77 0 0.45 292 06:52 01.04.2020
5550 Clouds 2 1024 76 0 11.41 260 06:27 01.04.2020
5551 Clouds 2 1024 75 0 1.34 225 05:58 01.04.2020
5552 Clouds 1 1025 75 0 0.45 225 04:33 01.04.2020
5553 Clouds 1 1026 75 0 0.45 247 03:33 01.04.2020
5554 Clouds 1 1026 75 0 1.34 225 02:57 01.04.2020
5555 Clouds 1 1026 74 0 0.45 225 02:21 01.04.2020
5556 Clouds 1 1027 72 0 10.1 259 01:40 01.04.2020
5557 Clouds 1 1027 72 0 0.45 225 01:22 01.04.2020
5558 Clouds 1 1028 70 0 0.45 270 00:46 01.04.2020
5559 Clouds 0 1028 69 0 0.45 247 00:21 01.04.2020
5560 Clear 0 1029 66 0 0.45 247 23:49 31.03.2020
5561 Clear 0 1029 65 0 0.45 247 23:28 31.03.2020
5562 Clear 0 1029 64 0 8.63 266 22:59 31.03.2020
5563 Clear 0 1029 63 0 8.63 266 22:40 31.03.2020
5564 Clear 0 1029 62 0 0.45 270 22:20 31.03.2020
5565 Clear 1 1030 61 0 8.63 266 21:57 31.03.2020
5566 Clear 1 1030 60 0 8.63 266 21:39 31.03.2020
5567 Clear 1 1030 60 0 0.45 292 21:20 31.03.2020
5568 Clear 1 1030 58 0 7.33 258 20:56 31.03.2020
5569 Clear 2 1031 56 0 7.33 258 20:37 31.03.2020
5570 Clear 3 1031 52 0 7.33 258 20:18 31.03.2020
5571 Clear 4 1031 49 0 7.33 258 19:55 31.03.2020
5572 Clear 3 1025 72 0 7.33 258 19:37 31.03.2020
5573 Clear 3 1025 72 0 7.33 258 19:18 31.03.2020
5574 Clear 3 1025 72 0 7.33 258 18:43 31.03.2020
5575 Clear 4 1028 71 0 6.25 264 18:20 31.03.2020
5576 Clear 4 1028 71 0 6.25 264 17:56 31.03.2020
5577 Clear 4 1028 71 0 6.25 264 17:38 31.03.2020
5578 Clear 7 1032 46 0 0.45 315 17:20 31.03.2020
5579 Clear 7 1033 51 0 0.89 315 16:42 31.03.2020
5580 Clear 7 1033 51 0 6.25 264 16:20 31.03.2020
5581 Clear 7 1034 52 0 6.25 264 15:59 31.03.2020
5582 Clear 7 1034 55 0 1.34 337 15:41 31.03.2020
5583 Clear 6 1034 59 0 6.25 264 15:23 31.03.2020
5584 Clear 7 1034 58 0 0.45 315 15:00 31.03.2020
5585 Clear 6 1035 59 0 0.89 292 14:41 31.03.2020
5586 Clear 6 1035 59 0 0.89 315 14:22 31.03.2020
5587 Clear 6 1035 60 0 0.45 337 13:58 31.03.2020
5588 Clear 6 1035 59 0 0.89 315 13:39 31.03.2020
5589 Clear 5 1035 60 0 1.34 22 13:19 31.03.2020
5590 Clear 4 1036 63 0 0.89 337 12:44 31.03.2020
5591 Clear 4 1036 62 0 2.49 293 12:20 31.03.2020
5592 Clear 5 1036 62 0 0.45 337 11:56 31.03.2020
5593 Clear 4 1036 62 0 3.54 10 11:37 31.03.2020
5594 Clear 4 1036 68 0 0.45 315 11:19 31.03.2020
5595 Clear 4 1036 70 0 0.89 315 10:55 31.03.2020
5596 Clear 4 1036 70 0 0.89 315 10:55 31.03.2020
5597 Clear 4 1036 72 0 3.54 10 10:37 31.03.2020
5598 Clear 3 1036 73 0 0.45 337 10:18 31.03.2020
5599 Clear 2 1036 78 0 3.54 10 09:43 31.03.2020
5600 Clear 2 1036 79 0 0.45 315 09:25 31.03.2020
5601 Rain 2 1036 79 0 5.63 1 08:58 31.03.2020
5602 Rain 1 1036 80 0 5.63 1 08:40 31.03.2020
5603 Rain 1 1036 80 0 5.63 1 08:20 31.03.2020
5604 Rain -1 1036 79 0 5.63 1 07:57 31.03.2020
5605 Rain -1 1036 79 0 5.63 1 07:38 31.03.2020
5606 Rain -1 1036 78 0 5.63 1 07:20 31.03.2020
5607 Rain -1 1035 77 0 5.63 1 06:53 31.03.2020
5608 Rain -1 1035 76 0 5.63 1 06:35 31.03.2020
5609 Clouds 0 1035 76 0 0.89 67 05:41 31.03.2020
5610 Clouds 1 1035 73 0 3.11 5 04:33 31.03.2020
5611 Clouds 1 1034 71 0 3.23 68 02:40 31.03.2020
5612 Clouds 1 1034 69 0 4.4 56 01:47 31.03.2020
5613 Clouds 1 1033 70 0 4.4 56 01:19 31.03.2020
5614 Clouds 1 1033 70 0 4.4 56 00:42 31.03.2020
5615 Snow 2 1033 71 0 6.81 75 00:19 31.03.2020
5616 Snow 2 1033 73 0 0.45 90 23:39 30.03.2020
5617 Snow 2 1033 74 0 6.81 75 23:20 30.03.2020
5618 Snow 2 1032 76 0 6.81 75 22:57 30.03.2020
5619 Snow 3 1032 78 0 6.81 75 22:38 30.03.2020
5620 Snow 2 1032 78 0 6.81 75 22:19 30.03.2020
5621 Snow 2 1031 80 0 6.81 75 21:57 30.03.2020
5622 Snow 2 1031 80 0 6.81 75 21:38 30.03.2020
5623 Clouds 2 1031 80 0 6.18 70 21:20 30.03.2020
5624 Clouds 2 1031 80 0 6.18 70 20:57 30.03.2020
5625 Clouds 2 1031 80 0 6.18 70 20:38 30.03.2020
5626 Clouds 3 1030 79 0 1.34 135 20:19 30.03.2020
5627 Clouds 4 1030 74 0 0.45 45 19:54 30.03.2020
5628 Clouds 4 1030 74 0 6.18 70 19:36 30.03.2020
5629 Clouds 4 1029 73 0 6.18 70 19:18 30.03.2020
5630 Clouds 4 1029 72 0 6.18 70 18:41 30.03.2020
5631 Clouds 5 1029 71 0 0.45 45 18:23 30.03.2020
5632 Clear 4 1028 73 0 1.34 22 17:57 30.03.2020
5633 Clear 4 1028 70 0 4.49 47 17:39 30.03.2020
5634 Clear 6 1028 70 0 4.49 47 17:19 30.03.2020
5635 Clear 6 1028 70 0 1.79 22 16:57 30.03.2020
5636 Clear 7 1028 71 0 0.89 22 16:39 30.03.2020
5637 Clear 6 1028 75 0 4.49 47 16:20 30.03.2020
5638 Clear 6 1028 75 0 4.49 47 16:20 30.03.2020
5639 Clear 6 1028 77 0 4.49 47 15:55 30.03.2020
5640 Clear 6 1028 75 0 4.49 47 15:37 30.03.2020
5641 Rain 6 1028 81 0 6.79 42 15:19 30.03.2020
5642 Rain 5 1028 81 0 0.45 292 14:55 30.03.2020
5643 Rain 5 1028 84 0 0.45 315 14:37 30.03.2020
5644 Rain 4 1028 85 0 6.93 31 14:18 30.03.2020
5645 Rain 3 1028 84 0 6.93 31 13:55 30.03.2020
5646 Rain 3 1028 84 0 6.93 31 13:37 30.03.2020
5647 Rain 3 1028 84 0 6.93 31 13:18 30.03.2020
5648 Rain 4 1028 83 0 6.93 31 12:43 30.03.2020
5649 Rain 4 1028 84 0 0.45 292 12:20 30.03.2020
5650 Rain 3 1028 85 0 0.89 270 11:57 30.03.2020
5651 Rain 3 1028 85 0 0.45 315 11:39 30.03.2020
5652 Rain 2 1028 84 0 0.89 292 11:21 30.03.2020
5653 Rain 2 1029 83 0 6.09 324 10:41 30.03.2020
5654 Rain 2 1029 83 0 0.45 247 10:23 30.03.2020
5655 Rain 1 1029 84 0 6.09 324 09:59 30.03.2020
5656 Rain 1 1029 84 0 6.09 324 09:59 30.03.2020
5657 Rain 1 1029 84 0 0.45 225 09:40 30.03.2020
5658 Snow 1 1029 83 0 0.45 225 09:19 30.03.2020
5659 Snow 0 1029 82 0 0.89 225 08:54 30.03.2020
5660 Snow 0 1029 83 0 5.91 255 08:36 30.03.2020
5661 Snow -1 1029 82 0 5.91 255 08:18 30.03.2020
5662 Snow -1 1029 78 0 5.91 255 07:41 30.03.2020
5663 Snow -1 1030 78 0 5.91 255 07:20 30.03.2020
5664 Snow -1 1030 78 0 0.45 247 06:39 30.03.2020
5665 Clouds -1 1030 78 0 6.56 279 06:19 30.03.2020
5666 Clouds -2 1031 77 0 0.45 247 05:39 30.03.2020
5667 Clouds -2 1032 76 0 6.56 279 04:29 30.03.2020
5668 Clouds -1 1032 76 0 0.45 247 03:53 30.03.2020
5669 Clear 0 1033 74 0 0.45 292 02:44 30.03.2020
5670 Clear 1 1033 69 0 0.45 315 01:55 30.03.2020
5671 Clear 2 1033 69 0 6.4 315 00:57 30.03.2020
5672 Clear 3 1028 74 0 6.4 315 00:27 30.03.2020
5673 Clear 3 1029 73 0 9.46 348 23:56 29.03.2020
5674 Clear 3 1029 73 0 9.46 348 23:37 29.03.2020
5675 Clear 2 1034 64 0 0.89 22 23:18 29.03.2020
5676 Clear 2 1034 60 0 0.45 337 22:40 29.03.2020
5677 Clear 2 1034 58 0 9.46 348 22:20 29.03.2020
5678 Clear 2 1034 55 0 9.46 348 21:59 29.03.2020
5679 Clear 2 1034 52 0 9.46 348 21:38 29.03.2020
5680 Clear 2 1034 51 0 7.39 4 21:20 29.03.2020
5681 Clear 2 1034 49 0 6.92 4 20:55 29.03.2020
5682 Clear 2 1034 48 0 0.45 0 20:37 29.03.2020
5683 Clear 2 1034 48 0 0.45 0 20:37 29.03.2020
5684 Clear 2 1034 48 0 0.45 0 20:37 29.03.2020
5685 Clear 2 1034 48 0 0.89 22 20:19 29.03.2020
5686 Clear 2 1034 48 0 0.89 22 20:19 29.03.2020
5687 Clear 2 1034 43 0 0.45 22 19:57 29.03.2020
5688 Clear 3 1034 45 0 0.45 45 19:39 29.03.2020
5689 Clear 4 1034 41 0 0.89 45 19:21 29.03.2020
5690 Clear 4 1034 41 0 1.34 45 18:57 29.03.2020
5691 Clear 4 1034 45 0 1.34 45 18:38 29.03.2020
5692 Clear 3 1034 48 0 1.34 45 18:19 29.03.2020
5693 Clear 4 1034 46 0 0.45 45 17:56 29.03.2020
5694 Clear 4 1034 47 0 1.79 67 17:37 29.03.2020
5695 Clear 4 1033 49 0 2.68 22 17:18 29.03.2020
5696 Clear 4 1033 52 0 2.24 45 16:56 29.03.2020
5697 Clear 4 1033 52 0 0.89 45 16:38 29.03.2020
5698 Clear 4 1033 56 0 1.79 45 16:19 29.03.2020
5699 Clear 4 1033 62 0 2.24 22 15:42 29.03.2020
5700 Clear 4 1033 63 0 2.68 22 15:24 29.03.2020
5701 Clouds 4 1033 65 0 1.79 22 14:59 29.03.2020
5702 Clouds 4 1033 66 0 3.13 45 14:40 29.03.2020
5703 Clouds 4 1033 68 0 1.79 45 14:20 29.03.2020
5704 Clouds 4 1032 70 0 3.58 45 13:58 29.03.2020
5705 Clouds 3 1032 72 0 2.68 67 13:40 29.03.2020
5706 Clouds 3 1032 74 0 1.79 22 13:20 29.03.2020
5707 Clouds 3 1032 75 0 2.24 22 12:57 29.03.2020
5708 Clouds 3 1032 79 0 1.79 45 12:38 29.03.2020
5709 Snow 3 1031 83 0 1.34 22 12:19 29.03.2020
5710 Snow 3 1031 83 0 1.34 22 12:19 29.03.2020
5711 Snow 2 1031 87 0 0.89 22 11:55 29.03.2020
5712 Snow 2 1031 89 0 2.68 45 11:37 29.03.2020
5713 Snow 2 1030 91 0 2.68 45 11:19 29.03.2020
5714 Snow 2 1030 89 0 4.02 45 10:38 29.03.2020
5715 Snow 2 1029 89 0 2.24 45 10:19 29.03.2020
5716 Snow 2 1029 88 0 0.89 45 09:54 29.03.2020
5717 Snow 2 1029 88 0 1.79 45 09:36 29.03.2020
5718 Snow 2 1028 89 0 2.68 22 09:18 29.03.2020
5719 Snow 2 1027 88 0 1.79 45 08:41 29.03.2020
5720 Snow 2 1027 88 0 3.58 45 08:22 29.03.2020
5721 Snow 4 1025 82 0 2.68 45 07:45 29.03.2020
5722 Snow 4 1025 82 0 2.68 90 07:22 29.03.2020
5723 Clouds 4 1023 84 0 0.89 22 05:59 29.03.2020
5724 Clouds 5 1022 85 0 1.34 45 04:56 29.03.2020
5725 Clouds 6 1021 86 0 0.45 22 03:37 29.03.2020
5726 Clouds 6 1021 82 0 6.79 11 01:57 29.03.2020
5727 Clouds 6 1021 81 0 6.79 11 01:39 29.03.2020
5728 Clouds 6 1021 81 0 0.45 0 01:19 29.03.2020
5729 Clouds 6 1021 81 0 6.47 16 00:40 29.03.2020
5730 Clouds 6 1022 80 0 6.47 16 00:18 29.03.2020
5731 Clouds 6 1022 80 0 0.45 292 23:40 28.03.2020
5732 Clouds 6 1022 80 0 0.45 292 23:40 28.03.2020
5733 Clouds 6 1022 81 0 0.45 292 23:22 28.03.2020
5734 Clouds 6 1022 82 0 0.45 292 22:43 28.03.2020
5735 Clouds 6 1022 82 0 5.62 345 22:22 28.03.2020
5736 Clouds 6 1022 82 0 5.62 345 21:57 28.03.2020
5737 Clouds 6 1022 82 0 5.62 345 21:57 28.03.2020
5738 Clouds 6 1022 82 0 5.62 345 21:39 28.03.2020
5739 Clouds 6 1022 82 0 0.45 22 21:20 28.03.2020
5740 Clouds 6 1022 76 0 5.62 345 20:57 28.03.2020
5741 Clouds 6 1022 76 0 5.62 345 20:38 28.03.2020
5742 Clear 6 1022 73 0 2.93 312 20:19 28.03.2020
5743 Clear 6 1022 69 0 2.93 312 19:55 28.03.2020
5744 Clear 6 1022 67 0 2.93 312 19:36 28.03.2020
5745 Clear 7 1022 62 0 2.93 312 19:18 28.03.2020
5746 Clear 9 1022 57 0 2.93 312 18:42 28.03.2020
5747 Clear 11 1022 54 0 2.93 312 18:21 28.03.2020
5748 Clear 6 1017 71 0 2.93 312 17:56 28.03.2020
5749 Clear 6 1017 71 0 2.93 312 17:36 28.03.2020
5750 Clear 11 1022 53 0 0.45 337 17:18 28.03.2020
5751 Clear 11 1022 55 0 3.61 318 16:40 28.03.2020
5752 Clear 11 1022 57 0 3.61 318 16:20 28.03.2020
5753 Clear 12 1022 58 0 3.61 318 15:55 28.03.2020
5754 Clear 12 1022 61 0 0.45 315 15:37 28.03.2020
5755 Clear 12 1023 63 0 3.61 318 15:18 28.03.2020
5756 Clear 7 1018 66 0 3.61 318 14:42 28.03.2020
5757 Clear 12 1023 58 0 3.61 318 14:22 28.03.2020
5758 Clear 11 1024 56 0 0.45 22 13:55 28.03.2020
5759 Clear 11 1024 55 0 3.87 343 13:36 28.03.2020
5760 Clear 11 1024 55 0 0.89 22 13:18 28.03.2020
5761 Clear 11 1025 50 0 0.89 315 12:37 28.03.2020
5762 Clear 11 1024 56 0 3.81 335 12:19 28.03.2020
5763 Clear 10 1025 57 0 0.89 22 11:42 28.03.2020
5764 Clear 10 1025 57 0 0.89 22 11:42 28.03.2020
5765 Clear 9 1025 61 0 0.45 0 11:21 28.03.2020
5766 Clear 9 1025 59 0 1.34 22 10:44 28.03.2020
5767 Clear 9 1025 61 0 0.45 45 10:25 28.03.2020
5768 Clear 8 1025 69 0 0.89 0 09:59 28.03.2020
5769 Clear 7 1026 71 0 0.45 22 09:40 28.03.2020
5770 Clear 7 1026 73 0 0.45 22 09:21 28.03.2020
5771 Clear 6 1026 80 0 3.61 16 08:43 28.03.2020
5772 Clear 6 1026 82 0 0.45 22 08:24 28.03.2020
5773 Clear 6 1026 84 0 0.89 22 07:58 28.03.2020
5774 Clear 5 1026 85 0 5.57 14 07:40 28.03.2020
5775 Clear 4 1026 87 0 0.45 22 06:53 28.03.2020
5776 Clear 4 1026 87 0 5.57 14 06:26 28.03.2020
5777 Clear 3 1026 85 0 5.57 14 05:38 28.03.2020
5778 Clear 3 1026 85 0 5.91 20 05:19 28.03.2020
5779 Clear 3 1026 83 0 5.91 20 04:39 28.03.2020
5780 Clear 4 1026 83 0 5.91 20 02:52 28.03.2020
5781 Clear 4 1027 83 0 5.67 28 01:48 28.03.2020
5782 Clear 4 1027 83 0 5.67 28 01:24 28.03.2020
5783 Clear 4 1027 84 0 0.45 45 00:52 28.03.2020
5784 Clear 4 1027 83 0 5.33 23 00:28 28.03.2020
5785 Clear 5 1028 84 0 0.45 45 23:44 27.03.2020
5786 Clear 5 1028 84 0 0.45 22 23:26 27.03.2020
5787 Clear 4 1028 85 0 5.52 43 22:58 27.03.2020
5788 Clear 4 1028 85 0 5.52 43 22:39 27.03.2020
5789 Clear 4 1028 86 0 5.52 43 22:21 27.03.2020
5790 Clear 5 1028 85 0 0.45 45 21:59 27.03.2020
5791 Clear 5 1028 85 0 5.52 43 21:40 27.03.2020
5792 Clear 5 1028 85 0 5.52 43 21:22 27.03.2020
5793 Clear 5 1028 86 0 5.52 43 20:57 27.03.2020
5794 Clear 5 1028 86 0 0.89 45 20:39 27.03.2020
5795 Clear 5 1028 86 0 5.44 50 20:19 27.03.2020
5796 Clear 5 1028 86 0 5.83 50 20:19 27.03.2020
5797 Clear 5 1028 85 0 0.89 22 19:56 27.03.2020
5798 Clear 6 1028 84 0 0.89 45 19:38 27.03.2020
5799 Clear 6 1028 84 0 5.44 50 19:19 27.03.2020
5800 Clear 6 1028 80 0 5.44 50 18:43 27.03.2020
5801 Clear 7 1028 78 0 0.45 45 18:23 27.03.2020
5802 Clear 8 1028 76 0 0.45 45 17:55 27.03.2020
5803 Clear 8 1028 76 0 0.45 22 17:37 27.03.2020
5804 Clear 8 1028 74 0 0.45 22 17:19 27.03.2020
5805 Clear 8 1028 75 0 0.45 45 16:44 27.03.2020
5806 Clear 8 1028 75 0 0.45 22 16:25 27.03.2020
5807 Clear 8 1028 75 0 0.45 22 16:25 27.03.2020
5808 Clear 9 1029 75 0 0.45 45 15:45 27.03.2020
5809 Clear 8 1029 74 0 1.34 45 15:27 27.03.2020
5810 Clear 6 1024 76 0 5.88 58 14:57 27.03.2020
5811 Clear 6 1024 76 0 5.88 58 14:39 27.03.2020
5812 Clear 6 1024 76 0 5.88 58 14:21 27.03.2020
5813 Clear 6 1026 76 0 6.46 57 13:54 27.03.2020
5814 Clear 6 1026 76 0 6.46 57 13:36 27.03.2020
5815 Clear 6 1026 76 0 6.46 57 13:18 27.03.2020
5816 Clear 6 1026 75 0 6.16 59 12:42 27.03.2020
5817 Clear 6 1026 75 0 6.16 59 12:19 27.03.2020
5818 Clear 6 1026 75 0 6.16 59 11:44 27.03.2020
5819 Clear 6 1026 75 0 6.16 59 11:25 27.03.2020
5820 Clear 7 1027 73 0 5.63 74 10:59 27.03.2020
5821 Clear 7 1027 73 0 5.63 74 10:41 27.03.2020
5822 Clear 7 1027 73 0 5.63 74 10:22 27.03.2020
5823 Clear 7 1027 73 0 5.63 74 09:58 27.03.2020
5824 Clear 7 1027 73 0 5.63 74 09:40 27.03.2020
5825 Clear 7 1027 73 0 5.63 74 09:21 27.03.2020
5826 Clear 7 1027 73 0 5.63 74 08:58 27.03.2020
5827 Clear 7 1027 73 0 5.63 74 08:40 27.03.2020
5828 Clear 7 1027 73 0 5.63 74 08:21 27.03.2020
5829 Clear 5 1027 80 0 4.94 88 07:55 27.03.2020
5830 Clear 5 1027 80 0 4.94 88 07:37 27.03.2020
5831 Clear 5 1027 80 0 4.94 88 07:19 27.03.2020
5832 Clear 5 1027 80 0 4.94 88 06:38 27.03.2020
5833 Clear 5 1027 80 0 4.94 88 05:44 27.03.2020
5834 Clear 5 1028 78 0 4.87 91 03:26 27.03.2020
5835 Clear 5 1028 76 0 4.18 100 01:55 27.03.2020
5836 Clear 5 1028 75 0 4.15 102 00:58 27.03.2020
5837 Clear 5 1028 75 0 4.15 102 00:38 27.03.2020
5838 Clear 5 1028 75 0 4.15 102 00:19 27.03.2020
5839 Clear 5 1028 75 0 4.15 102 23:37 26.03.2020
5840 Clear 5 1029 78 0 5.62 90 23:18 26.03.2020
5841 Clear 5 1029 78 0 5.62 90 22:56 26.03.2020
5842 Clear 5 1029 78 0 5.62 90 22:36 26.03.2020
5843 Clear 5 1029 78 0 5.62 90 22:18 26.03.2020
5844 Clear 5 1029 78 0 5.62 90 21:40 26.03.2020
5845 Clear 5 1029 78 0 5.62 90 21:21 26.03.2020
5846 Clear 5 1029 78 0 5.62 90 20:59 26.03.2020
5847 Clear 5 1029 78 0 5.62 90 20:39 26.03.2020
5848 Clear 5 1029 78 0 5.62 90 20:21 26.03.2020
5849 Clear 5 1029 72 0 7.11 82 19:58 26.03.2020
5850 Clear 5 1029 72 0 7.11 82 19:40 26.03.2020
5851 Clear 5 1029 72 0 7.11 82 19:21 26.03.2020
5852 Clear 5 1029 72 0 7.11 82 18:58 26.03.2020
5853 Clear 5 1029 72 0 7.11 82 18:40 26.03.2020
5854 Clear 5 1029 72 0 7.11 82 18:21 26.03.2020
5855 Clear 5 1029 72 0 7.11 82 17:45 26.03.2020
5856 Clear 6 1029 66 0 6.47 87 17:20 26.03.2020
5857 Clear 6 1029 66 0 6.47 87 16:57 26.03.2020
5858 Clear 6 1029 66 0 6.47 87 16:57 26.03.2020
5859 Clear 6 1029 66 0 6.47 87 16:38 26.03.2020
5860 Clear 6 1029 66 0 6.47 87 16:19 26.03.2020
5861 Clear 6 1029 66 0 6.47 87 15:56 26.03.2020
5862 Clear 6 1029 66 0 6.47 87 15:38 26.03.2020
5863 Clear 6 1029 66 0 6.47 87 15:18 26.03.2020
5864 Clear 6 1029 66 0 6.47 87 14:43 26.03.2020
5865 Clear 6 1029 66 0 6.47 87 14:24 26.03.2020
5866 Clear 6 1031 65 0 6.21 106 13:56 26.03.2020
5867 Clear 6 1031 65 0 6.21 106 13:56 26.03.2020
5868 Clear 6 1031 65 0 6.21 106 13:38 26.03.2020
5869 Clear 5 1031 66 0 5.88 102 13:19 26.03.2020
5870 Clear 5 1031 66 0 5.88 102 12:39 26.03.2020
5871 Clear 5 1031 66 0 5.88 102 12:20 26.03.2020
5872 Clear 5 1031 66 0 5.88 102 11:55 26.03.2020
5873 Clear 5 1031 66 0 5.88 102 11:36 26.03.2020
5874 Clear 5 1031 68 0 5.98 122 11:18 26.03.2020
5875 Clear 5 1031 68 0 5.98 122 10:42 26.03.2020
5876 Clear 5 1031 68 0 5.98 122 10:20 26.03.2020
5877 Clear 5 1031 68 0 5.98 122 09:45 26.03.2020
5878 Clear 5 1031 68 0 5.98 122 09:24 26.03.2020
5879 Clear 5 1031 68 0 5.98 122 08:58 26.03.2020
5880 Clear 5 1031 68 0 5.98 122 08:40 26.03.2020
5881 Clear 5 1031 68 0 5.98 122 08:22 26.03.2020
5882 Clear 3 1031 77 0 4.37 131 07:56 26.03.2020
5883 Clear 3 1031 77 0 4.37 131 07:38 26.03.2020
5884 Clear 3 1031 77 0 4.37 131 07:38 26.03.2020
5885 Clear 3 1031 77 0 4.37 131 07:19 26.03.2020
5886 Clear 3 1031 77 0 4.37 131 06:33 26.03.2020
5887 Clear 3 1031 77 0 4.37 131 05:48 26.03.2020
5888 Clear 3 1031 76 0 4.8 145 03:46 26.03.2020
5889 Clear 3 1031 76 0 4.8 145 03:18 26.03.2020
5890 Clear 3 1031 76 0 4.8 145 02:50 26.03.2020
5891 Clouds 4 1031 73 0 5.88 150 01:19 26.03.2020
5892 Clear 4 1032 73 0 5.58 150 00:33 26.03.2020
5893 Clear 4 1032 73 0 5.58 150 23:44 25.03.2020
5894 Clear 4 1032 73 0 5.58 150 23:26 25.03.2020
5895 Clear 4 1032 71 0 6.07 146 22:56 25.03.2020
5896 Clear 4 1032 71 0 6.07 146 22:37 25.03.2020
5897 Clear 4 1032 71 0 6.07 146 22:19 25.03.2020
5898 Clear 4 1032 71 0 6.07 146 21:54 25.03.2020
5899 Clear 4 1032 71 0 6.07 146 21:36 25.03.2020
5900 Clear 4 1032 71 0 6.07 146 21:18 25.03.2020
5901 Clear 4 1032 71 0 6.07 146 20:39 25.03.2020
5902 Clouds 4 1032 70 0 6.03 115 20:19 25.03.2020
5903 Clouds 4 1032 70 0 6.06 116 19:56 25.03.2020
5904 Clouds 4 1032 71 0 5.96 112 19:38 25.03.2020
5905 Clouds 4 1032 71 0 5.96 112 19:19 25.03.2020
5906 Clouds 4 1032 70 0 6.06 116 18:54 25.03.2020
5907 Clouds 4 1032 70 0 6.06 116 18:36 25.03.2020
5908 Clouds 4 1032 71 0 5.96 112 18:18 25.03.2020
5909 Clouds 4 1032 70 0 6.06 116 17:41 25.03.2020
5910 Clouds 4 1032 71 0 5.96 112 17:22 25.03.2020
5911 Clouds 4 1032 71 0 5.96 112 17:22 25.03.2020
5912 Clouds 5 1033 66 0 6.06 121 16:59 25.03.2020
5913 Clouds 5 1033 66 0 6.06 121 16:39 25.03.2020
5914 Clouds 5 1033 66 0 5.89 122 16:21 25.03.2020
5915 Clouds 5 1033 66 0 5.89 122 15:44 25.03.2020
5916 Clouds 5 1033 66 0 6.06 121 15:21 25.03.2020
5917 Clouds 5 1033 66 0 6.06 121 14:59 25.03.2020
5918 Clouds 5 1033 66 0 6.06 121 14:40 25.03.2020
5919 Clouds 5 1033 66 0 5.89 122 14:21 25.03.2020
5920 Clouds 5 1035 63 0 4.24 132 13:46 25.03.2020
5921 Clouds 5 1035 63 0 4.24 132 13:26 25.03.2020
5922 Clouds 5 1034 62 0 4.06 131 12:57 25.03.2020
5923 Clouds 5 1034 62 0 4.06 131 12:37 25.03.2020
5924 Clouds 5 1034 62 0 4.06 131 12:18 25.03.2020
5925 Clouds 5 1034 62 0 4.06 131 11:43 25.03.2020
5926 Clouds 5 1034 62 0 4.06 131 11:21 25.03.2020
5927 Clouds 5 1034 62 0 4.06 131 11:21 25.03.2020
5928 Clouds 4 1035 68 0 5.51 174 10:59 25.03.2020
5929 Clouds 4 1035 68 0 5.51 174 10:40 25.03.2020
5930 Clouds 4 1035 68 0 5.51 174 10:19 25.03.2020
5931 Clouds 4 1035 68 0 5.51 174 09:59 25.03.2020
5932 Clouds 4 1035 68 0 5.51 174 09:40 25.03.2020
5933 Clouds 4 1035 68 0 5.51 174 09:22 25.03.2020
5934 Clouds 4 1035 68 0 5.51 174 08:55 25.03.2020
5935 Clouds 4 1035 68 0 5.51 174 08:37 25.03.2020
5936 Clouds 2 1035 78 0 5.81 179 08:18 25.03.2020
5937 Clouds 2 1035 79 0 6.09 180 07:39 25.03.2020
5938 Clouds 2 1035 79 0 6.09 180 07:20 25.03.2020
5939 Clouds 2 1035 79 0 6.09 180 07:20 25.03.2020
5940 Clouds 2 1035 79 0 6.09 180 06:46 25.03.2020
5941 Clouds 2 1035 79 0 6.09 180 06:25 25.03.2020
5942 Clouds 2 1035 79 0 6.09 180 05:50 25.03.2020
5943 Clouds 2 1035 78 0 7.29 183 04:59 25.03.2020
5944 Clouds 2 1035 78 0 7.29 183 04:39 25.03.2020
5945 Clouds 2 1035 78 0 7.29 183 03:36 25.03.2020
5946 Clear 3 1036 75 0 7.13 177 01:58 25.03.2020
5947 Clear 3 1036 75 0 7.13 177 01:21 25.03.2020
5948 Clear 2 1036 75 0 7.52 179 00:48 25.03.2020
5949 Clear 2 1036 75 0 7.52 179 00:19 25.03.2020
5950 Clear 2 1036 75 0 7.52 179 23:45 24.03.2020
5951 Clear 2 1036 75 0 7.52 179 23:26 24.03.2020
5952 Clear 3 1036 72 0 6.74 173 22:56 24.03.2020
5953 Clear 3 1036 72 0 6.74 173 22:37 24.03.2020
5954 Clear 3 1036 72 0 6.74 173 22:19 24.03.2020
5955 Clear 3 1036 72 0 6.74 173 22:19 24.03.2020
5956 Clear 3 1036 72 0 6.74 173 21:56 24.03.2020
5957 Clear 3 1036 72 0 6.74 173 21:37 24.03.2020
5958 Clear 3 1036 72 0 6.74 173 21:18 24.03.2020
5959 Clear 3 1036 72 0 6.74 173 20:56 24.03.2020
5960 Clear 3 1036 72 0 6.74 173 20:38 24.03.2020
5961 Clear 4 1036 69 0 5.43 161 20:19 24.03.2020
5962 Clear 4 1036 69 0 5.37 157 19:41 24.03.2020
5963 Clear 4 1036 69 0 5.37 157 19:19 24.03.2020
5964 Clear 4 1036 69 0 5.37 157 18:55 24.03.2020
5965 Clear 4 1036 69 0 5.37 157 18:37 24.03.2020
5966 Clear 4 1036 69 0 5.37 157 18:18 24.03.2020
5967 Clear 4 1036 69 0 5.37 157 18:18 24.03.2020
5968 Clear 4 1036 69 0 5.37 157 17:42 24.03.2020
5969 Clear 4 1036 69 0 5.37 157 17:23 24.03.2020
5970 Clear 6 1037 55 0 4.28 170 16:58 24.03.2020
5971 Clear 9 1040 42 0 0.45 157 16:40 24.03.2020
5972 Clear 6 1037 55 0 4.28 170 16:22 24.03.2020
5973 Clear 6 1037 55 0 4.28 170 15:58 24.03.2020
5974 Clear 6 1037 55 0 4.28 170 15:38 24.03.2020
5975 Clear 6 1037 55 0 4.28 170 15:20 24.03.2020
5976 Clear 9 1041 41 0 1.34 202 14:43 24.03.2020
5977 Clear 5 1038 64 0 4.58 164 14:20 24.03.2020
5978 Clear 5 1038 64 0 4.58 164 13:55 24.03.2020
5979 Clear 5 1038 64 0 4.58 164 13:36 24.03.2020
5980 Clear 5 1038 63 0 4.51 163 13:18 24.03.2020
5981 Clear 5 1038 63 0 4.51 163 12:41 24.03.2020
5982 Clear 5 1038 63 0 4.51 163 12:22 24.03.2020
5983 Clear 5 1038 63 0 4.51 163 11:40 24.03.2020
5984 Clear 7 1043 47 0 1.34 180 11:20 24.03.2020
5985 Clear 7 1043 47 0 1.34 180 11:20 24.03.2020
5986 Clear 6 1043 49 0 1.34 180 10:55 24.03.2020
5987 Clear 6 1043 50 0 1.34 180 10:36 24.03.2020
5988 Clear 5 1044 53 0 1.79 157 10:18 24.03.2020
5989 Clear 4 1044 59 0 0.89 180 09:43 24.03.2020
5990 Clear 4 1044 62 0 0.45 180 09:24 24.03.2020
5991 Clear 2 1044 72 0 0.45 157 08:40 24.03.2020
5992 Clear 1 1044 73 0 0.45 157 08:21 24.03.2020
5993 Clouds 0 1044 75 0 0.45 135 07:59 24.03.2020
5994 Clouds -1 1044 75 0 0.45 135 07:41 24.03.2020
5995 Clouds -1 1044 76 0 0.45 157 07:21 24.03.2020
5996 Clouds -2 1044 75 0 0.45 135 06:35 24.03.2020
5997 Clouds -3 1044 74 0 5.85 183 05:36 24.03.2020
5998 Clear -2 1043 74 0 5.89 195 04:51 24.03.2020
5999 Clear -2 1043 74 0 5.89 195 03:21 24.03.2020
6000 Clear -2 1043 74 0 5.89 195 02:41 24.03.2020
6001 Clear -1 1042 75 0 6.25 171 00:54 24.03.2020
6002 Clear -2 1043 73 0 6.25 171 00:27 24.03.2020
6003 Clear -1 1043 73 0 6.25 171 23:56 23.03.2020
6004 Clear -1 1043 72 0 0.45 135 23:38 23.03.2020
6005 Clear -1 1043 71 0 6.51 142 23:19 23.03.2020
6006 Clear -1 1043 71 0 0.45 135 22:44 23.03.2020
6007 Clear -1 1043 71 0 0.45 135 22:23 23.03.2020
6008 Clear 0 1043 70 0 0.45 135 21:55 23.03.2020
6009 Clear 0 1043 69 0 0.45 135 21:37 23.03.2020
6010 Clear -1 1043 67 0 0.45 135 21:18 23.03.2020
6011 Clear -1 1043 67 0 0.45 135 21:18 23.03.2020
6012 Clear 0 1043 66 0 6.51 142 20:55 23.03.2020
6013 Clear 0 1043 65 0 6.51 142 20:36 23.03.2020
6014 Clear 1 1043 63 0 5.97 121 20:18 23.03.2020
6015 Clear 1 1043 63 0 5.97 121 20:18 23.03.2020
6016 Clear 1 1043 62 0 6.23 124 19:41 23.03.2020
6017 Clear 1 1043 62 0 6.23 124 19:22 23.03.2020
6018 Clear 2 1043 59 0 0.45 135 18:56 23.03.2020
6019 Clear 3 1043 56 0 6.23 124 18:38 23.03.2020
6020 Clear 2 1039 64 0 6.23 124 18:19 23.03.2020
6021 Clear 2 1039 64 0 6.23 124 17:41 23.03.2020
6022 Clear 7 1043 50 0 0.89 135 17:20 23.03.2020
6023 Clear 6 1043 49 0 0.89 135 16:56 23.03.2020
6024 Clear 6 1043 48 0 0.89 135 16:37 23.03.2020
6025 Clear 7 1043 46 0 0.45 67 16:18 23.03.2020
6026 Clear 7 1043 44 0 0.45 135 15:41 23.03.2020
6027 Clear 7 1044 43 0 1.34 112 15:19 23.03.2020
6028 Clear 8 1044 42 0 1.79 135 14:38 23.03.2020
6029 Clear 7 1044 42 0 1.34 135 14:20 23.03.2020
6030 Clear 8 1045 41 0 0.89 135 13:58 23.03.2020
6031 Clear 7 1045 41 0 0.45 135 13:40 23.03.2020
6032 Clear 7 1045 41 0 0.45 135 13:40 23.03.2020
6033 Clear 7 1045 41 0 1.34 135 13:20 23.03.2020
6034 Clear 7 1045 45 0 0.45 67 12:44 23.03.2020
6035 Clear 7 1046 44 0 0.89 112 12:25 23.03.2020
6036 Clear 6 1045 46 0 3.62 120 11:59 23.03.2020
6037 Clear 6 1045 46 0 3.62 120 11:59 23.03.2020
6038 Clear 6 1046 48 0 1.34 135 11:40 23.03.2020
6039 Clear 6 1046 48 0 0.89 135 11:20 23.03.2020
6040 Clear 6 1046 48 0 0.89 135 11:20 23.03.2020
6041 Clear 6 1046 52 0 0.45 180 10:58 23.03.2020
6042 Clear 5 1046 55 0 0.89 202 10:38 23.03.2020
6043 Clear 4 1046 56 0 0.45 67 10:20 23.03.2020
6044 Clear 3 1047 61 0 1.34 157 09:44 23.03.2020
6045 Clear 3 1046 65 0 0.89 135 09:21 23.03.2020
6046 Clear 2 1047 70 0 0.45 135 08:57 23.03.2020
6047 Clear 1 1047 71 0 0.45 135 08:36 23.03.2020
6048 Clear 1 1047 74 0 0.45 157 08:18 23.03.2020
6049 Clear -1 1047 73 0 4.77 159 07:45 23.03.2020
6050 Clear -2 1047 73 0 4.77 159 07:27 23.03.2020
6051 Clear -3 1047 73 0 4.77 159 06:52 23.03.2020
6052 Clear -3 1046 71 0 4.77 159 05:55 23.03.2020
6053 Clear -3 1046 71 0 4.77 159 05:29 23.03.2020
6054 Clear -2 1046 70 0 6.2 158 03:41 23.03.2020
6055 Clear -1 1046 71 0 0.89 135 02:29 23.03.2020
6056 Clear -1 1045 69 0 0.89 135 01:34 23.03.2020
6057 Clear -1 1045 69 0 0.89 135 01:34 23.03.2020
6058 Clear -1 1045 69 0 0.89 135 00:40 23.03.2020
6059 Clear -1 1045 67 0 0.45 135 23:53 22.03.2020
6060 Clear 0 1045 67 0 0.89 135 23:27 22.03.2020
6061 Clear 0 1045 67 0 0.89 135 22:56 22.03.2020
6062 Clear 0 1045 67 0 0.45 135 22:36 22.03.2020
6063 Clear 0 1045 65 0 0.45 112 22:18 22.03.2020
6064 Clear 0 1045 63 0 7.57 112 21:39 22.03.2020
6065 Clear 1 1045 62 0 7.57 112 21:20 22.03.2020
6066 Clear 1 1044 61 0 7.57 112 20:58 22.03.2020
6067 Clear 1 1044 60 0 0.45 112 20:39 22.03.2020
6068 Clear 1 1044 60 0 7.65 110 20:20 22.03.2020
6069 Clear 1 1044 58 0 7.29 93 19:55 22.03.2020
6070 Clear 1 1044 57 0 7.29 93 19:37 22.03.2020
6071 Clear 2 1044 55 0 7.29 93 19:18 22.03.2020
6072 Clear 2 1044 53 0 7.29 93 18:56 22.03.2020
6073 Clear 3 1044 51 0 7.29 93 18:37 22.03.2020
6074 Clear 2 1040 57 0 7.29 93 18:18 22.03.2020
6075 Clear 2 1040 57 0 7.29 93 17:56 22.03.2020
6076 Clear 2 1040 57 0 7.29 93 17:36 22.03.2020
6077 Clear 2 1040 57 0 7.29 93 17:36 22.03.2020
6078 Clear 2 1040 57 0 7.29 93 17:36 22.03.2020
6079 Clear 6 1043 48 0 7.38 94 17:18 22.03.2020
6080 Clear 6 1043 49 0 7.38 94 16:54 22.03.2020
6081 Clear 6 1043 48 0 7.38 94 16:36 22.03.2020
6082 Clear 6 1043 45 0 0.89 135 16:18 22.03.2020
6083 Clear 6 1043 44 0 1.79 135 15:39 22.03.2020
6084 Clear 6 1043 46 0 0.45 45 14:55 22.03.2020
6085 Clear 6 1043 46 0 1.79 135 14:37 22.03.2020
6086 Clouds 5 1044 49 0 0.45 90 14:18 22.03.2020
6087 Clouds 6 1044 48 0 7.85 101 13:41 22.03.2020
6088 Clouds 6 1044 51 0 1.34 112 13:19 22.03.2020
6089 Clouds 7 1044 50 0 1.34 112 12:47 22.03.2020
6090 Clouds 7 1044 50 0 7.59 98 12:23 22.03.2020
6091 Clouds 7 1044 50 0 7.59 98 12:23 22.03.2020
6092 Clouds 6 1044 53 0 1.79 135 11:59 22.03.2020
6093 Clouds 6 1044 53 0 1.79 135 11:41 22.03.2020
6094 Clouds 6 1044 54 0 7.59 98 11:23 22.03.2020
6095 Clouds 5 1044 54 0 0.89 112 10:57 22.03.2020
6096 Clouds 5 1044 55 0 0.45 135 10:39 22.03.2020
6097 Clouds 5 1044 56 0 1.34 135 10:21 22.03.2020
6098 Clouds 4 1043 62 0 1.79 135 09:43 22.03.2020
6099 Clouds 4 1043 65 0 1.34 135 09:23 22.03.2020
6100 Clouds 4 1043 67 0 1.34 135 08:44 22.03.2020
6101 Clouds 3 1039 63 0 8.3 86 08:25 22.03.2020
6102 Clear 3 1043 66 0 0.45 135 07:53 22.03.2020
6103 Clear 3 1042 66 0 0.89 67 07:32 22.03.2020
6104 Clear 2 1042 64 0 0.45 45 06:40 22.03.2020
6105 Clear 2 1041 63 0 0.89 45 05:37 22.03.2020
6106 Clear 2 1041 60 0 0.89 45 04:34 22.03.2020
6107 Clear 2 1040 63 0 7.58 80 01:36 22.03.2020
6108 Clear 2 1040 67 0 7.57 78 00:49 22.03.2020
6109 Clear 2 1040 69 0 7.57 78 00:30 22.03.2020
6110 Clear 2 1040 70 0 7.57 78 23:45 21.03.2020
6111 Clear 2 1040 70 0 0.45 135 23:22 21.03.2020
6112 Clear 2 1040 71 0 6.75 104 22:58 21.03.2020
6113 Clear 2 1040 71 0 0.45 112 22:38 21.03.2020
6114 Clear 2 1040 70 0 0.45 135 22:19 21.03.2020
6115 Clear 2 1039 69 0 6.75 104 21:58 21.03.2020
6116 Clear 2 1039 68 0 6.75 104 21:38 21.03.2020
6117 Clear 2 1039 68 0 6.75 104 21:19 21.03.2020
6118 Clear 2 1039 67 0 6.75 104 20:42 21.03.2020
6119 Clear 2 1038 66 0 4.82 114 20:22 21.03.2020
6120 Clear 3 1038 64 0 1.6 40 19:55 21.03.2020
6121 Clear 3 1038 62 0 1.6 40 19:37 21.03.2020
6122 Clear 3 1038 59 0 1.6 40 19:18 21.03.2020
6123 Clear 4 1038 56 0 1.6 40 18:41 21.03.2020
6124 Clear 6 1038 53 0 1.6 40 18:21 21.03.2020
6125 Clear 4 1034 48 0 1.6 40 17:59 21.03.2020
6126 Clear 4 1034 48 0 1.6 40 17:41 21.03.2020
6127 Clear 7 1038 53 0 0.45 67 17:22 21.03.2020
6128 Clear 6 1038 54 0 0.45 0 16:43 21.03.2020
6129 Clear 6 1038 54 0 0.89 22 16:24 21.03.2020
6130 Clear 6 1038 54 0 0.89 22 16:24 21.03.2020
6131 Clear 6 1038 55 0 1.34 45 15:59 21.03.2020
6132 Clear 6 1038 52 0 4.74 64 15:40 21.03.2020
6133 Clear 6 1038 54 0 1.34 45 15:22 21.03.2020
6134 Clear 6 1038 54 0 0.45 22 14:57 21.03.2020
6135 Clear 6 1038 54 0 0.89 45 14:39 21.03.2020
6136 Clouds 6 1039 55 0 6.98 45 14:20 21.03.2020
6137 Clouds 6 1038 53 0 2.24 45 13:58 21.03.2020
6138 Clouds 6 1039 54 0 0.89 45 13:39 21.03.2020
6139 Clear 6 1039 54 0 0.89 67 13:21 21.03.2020
6140 Clear 6 1039 54 0 0.89 112 12:57 21.03.2020
6141 Clear 6 1039 56 0 0.89 45 12:37 21.03.2020
6142 Clear 6 1039 57 0 0.45 45 12:19 21.03.2020
6143 Clear 5 1039 58 0 1.79 67 11:55 21.03.2020
6144 Clear 6 1039 54 0 1.79 22 11:37 21.03.2020
6145 Clouds 5 1039 55 0 2.68 45 11:18 21.03.2020
6146 Clouds 5 1039 56 0 0.89 45 10:56 21.03.2020
6147 Clouds 5 1039 64 0 1.79 45 10:38 21.03.2020
6148 Clouds 4 1039 64 0 1.79 45 10:19 21.03.2020
6149 Clouds 4 1039 60 0 1.34 67 09:55 21.03.2020
6150 Clouds 4 1038 64 0 0.89 45 09:37 21.03.2020
6151 Clouds 4 1038 70 0 2.68 45 09:18 21.03.2020
6152 Clouds 3 1038 70 0 0.89 67 08:43 21.03.2020
6153 Clouds 3 1038 70 0 0.45 67 08:24 21.03.2020
6154 Clouds 3 1037 72 0 1.79 22 07:45 21.03.2020
6155 Clouds 3 1037 71 0 1.34 45 07:27 21.03.2020
6156 Clouds 3 1037 78 0 1.34 45 06:48 21.03.2020
6157 Clouds 3 1037 78 0 0.89 45 06:28 21.03.2020
6158 Clouds 3 1036 77 0 0.45 45 05:46 21.03.2020
6159 Clear 3 1036 76 0 0.89 45 04:47 21.03.2020
6160 Clear 4 1035 79 0 0.45 45 02:55 21.03.2020
6161 Clear 4 1035 79 0 0.89 45 02:33 21.03.2020
6162 Clouds 4 1034 82 0 0.45 45 01:38 21.03.2020
6163 Clouds 4 1034 81 0 8.58 62 01:18 21.03.2020
6164 Clouds 4 1034 84 0 0.45 67 00:38 21.03.2020
6165 Clouds 4 1033 86 0 8.58 62 23:58 20.03.2020
6166 Clouds 4 1033 86 0 8.58 62 23:40 20.03.2020
6167 Clear 5 1033 86 0 0.89 45 23:18 20.03.2020
6168 Clear 5 1032 83 0 0.45 45 22:42 20.03.2020
6169 Clear 5 1032 81 0 0.89 22 22:24 20.03.2020
6170 Clear 5 1032 81 0 0.45 45 21:57 20.03.2020
6171 Clear 5 1032 80 0 0.89 45 21:39 20.03.2020
6172 Clear 5 1031 81 0 0.89 315 21:19 20.03.2020
6173 Clear 5 1031 82 0 10.16 36 20:57 20.03.2020
6174 Clear 6 1031 83 0 10.16 36 20:39 20.03.2020
6175 Clouds 6 1031 82 0 7.36 6 20:18 20.03.2020
6176 Clouds 5 1031 81 0 5.69 33 19:46 20.03.2020
6177 Clouds 6 1031 80 0 5.69 33 19:19 20.03.2020
6178 Clouds 6 1031 80 0 5.69 33 18:57 20.03.2020
6179 Clouds 6 1031 80 0 5.69 33 18:37 20.03.2020
6180 Clouds 6 1031 81 0 5.69 33 18:19 20.03.2020
6181 Clouds 6 1031 81 0 5.69 33 17:56 20.03.2020
6182 Clouds 6 1031 80 0 5.69 33 17:37 20.03.2020
6183 Clouds 7 1030 80 0 3.73 329 17:18 20.03.2020
6184 Clouds 6 1030 80 0 0.45 22 16:41 20.03.2020
6185 Clouds 6 1030 80 0 0.45 22 16:41 20.03.2020
6186 Clouds 6 1030 80 0 0.45 22 16:21 20.03.2020
6187 Clouds 7 1030 80 0 0.89 45 15:44 20.03.2020
6188 Clouds 7 1031 79 0 0.89 45 15:23 20.03.2020
6189 Clouds 8 1030 75 0 3.73 329 14:59 20.03.2020
6190 Clouds 9 1030 74 0 0.89 45 14:41 20.03.2020
6191 Clouds 9 1030 73 0 0.45 315 14:20 20.03.2020
6192 Clouds 9 1030 73 0 0.45 337 13:48 20.03.2020
6193 Clouds 9 1030 74 0 0.89 315 13:24 20.03.2020
6194 Clouds 9 1030 74 0 0.89 315 13:24 20.03.2020
6195 Clouds 9 1030 74 0 4.21 314 12:58 20.03.2020
6196 Clouds 9 1030 76 0 4.21 314 12:38 20.03.2020
6197 Clouds 8 1030 77 0 0.45 315 12:19 20.03.2020
6198 Clouds 8 1030 79 0 4.21 314 11:39 20.03.2020
6199 -273 0 0 0 0 0 11:20 20.03.2020
6200 Clouds 8 1030 80 0 1.34 337 10:56 20.03.2020
6201 Clouds 8 1030 81 0 0.89 315 10:38 20.03.2020
6202 Clouds 8 1030 82 0 4.85 306 10:18 20.03.2020
6203 Clouds 8 1030 82 0 4.85 306 10:18 20.03.2020
6204 Clouds 8 1030 82 0 4.85 306 10:18 20.03.2020
6205 Clouds 7 1030 84 0 0.89 292 09:45 20.03.2020
6206 Clouds 7 1030 85 0 0.45 292 09:21 20.03.2020
6207 Clouds 6 1030 86 0 0.89 315 08:58 20.03.2020
6208 Clouds 6 1030 86 0 4.85 306 08:39 20.03.2020
6209 Clouds 6 1030 87 0 0.45 292 08:19 20.03.2020
6210 Clouds 5 1030 86 0 4.17 302 07:41 20.03.2020
6211 Clouds 5 1030 85 0 4.17 302 07:23 20.03.2020
6212 Clouds 4 1030 84 0 4.17 302 06:42 20.03.2020
6213 Clouds 4 1030 83 0 4.17 302 06:22 20.03.2020
6214 Clouds 4 1029 83 0 3.49 306 04:48 20.03.2020
6215 Clouds 4 1030 82 0 3.49 306 02:54 20.03.2020
6216 Clouds 4 1030 81 0 4.28 284 01:50 20.03.2020
6217 Clouds 3 1030 80 0 4.35 281 00:46 20.03.2020
6218 Clouds 3 1030 80 0 4.35 281 00:24 20.03.2020
6219 Clouds 3 1030 79 0 4.35 281 23:42 19.03.2020
6220 Clouds 3 1030 79 0 4.35 281 23:23 19.03.2020
6221 Clouds 3 1030 79 0 3.88 267 22:55 19.03.2020
6222 Clouds 3 1030 79 0 3.88 267 22:37 19.03.2020
6223 Clouds 4 1029 77 0 3.88 267 22:18 19.03.2020
6224 Clouds 5 1029 77 0 3.88 267 21:40 19.03.2020
6225 Clouds 6 1029 77 0 3.88 267 21:20 19.03.2020
6226 Clouds 6 1029 77 0 3.88 267 20:56 19.03.2020
6227 Clouds 6 1029 76 0 3.88 267 20:38 19.03.2020
6228 Clouds 6 1029 76 0 4.12 263 20:19 19.03.2020
6229 Clouds 7 1029 75 0 4.12 263 19:55 19.03.2020
6230 Clouds 7 1029 75 0 4.12 263 19:37 19.03.2020
6231 Clouds 7 1029 75 0 4.12 263 19:18 19.03.2020
6232 Clouds 7 1029 74 0 4.12 263 18:42 19.03.2020
6233 Clouds 7 1029 73 0 4.12 263 18:22 19.03.2020
6234 Clouds 8 1029 70 0 4.12 263 17:58 19.03.2020
6235 Clouds 11 1029 67 0 0.45 22 17:39 19.03.2020
6236 Clouds 9 1029 68 0 0.45 22 17:18 19.03.2020
6237 Clouds 9 1029 67 0 0.45 0 16:43 19.03.2020
6238 Clouds 9 1029 66 0 0.45 45 16:22 19.03.2020
6239 Clouds 10 1029 64 0 0.45 0 15:45 19.03.2020
6240 Clouds 10 1029 63 0 0.45 45 15:26 19.03.2020
6241 Clouds 11 1029 62 0 4.84 263 14:55 19.03.2020
6242 Clouds 11 1029 61 0 0.45 22 14:37 19.03.2020
6243 Clouds 11 1029 61 0 0.45 22 14:37 19.03.2020
6244 Clouds 11 1029 63 0 0.45 0 14:18 19.03.2020
6245 Clouds 11 1029 66 0 0.45 337 13:39 19.03.2020
6246 Clouds 10 1029 65 0 0.89 315 13:19 19.03.2020
6247 Clouds 10 1029 67 0 0.89 315 12:55 19.03.2020
6248 Clouds 11 1029 67 0 0.89 315 12:37 19.03.2020
6249 Clouds 10 1029 72 0 3.24 292 12:18 19.03.2020
6250 Clouds 9 1029 74 0 0.45 0 11:41 19.03.2020
6251 Clouds 6 1026 80 0 3.24 292 11:23 19.03.2020
6252 Clouds 6 1025 87 0 4.9 292 10:56 19.03.2020
6253 Clouds 9 1029 80 0 1.34 0 10:36 19.03.2020
6254 Clouds 8 1029 80 0 0.45 337 10:18 19.03.2020
6255 Clouds 8 1028 82 0 0.45 315 09:44 19.03.2020
6256 Clouds 8 1029 83 0 0.45 292 09:25 19.03.2020
6257 Clouds 7 1028 84 0 0.45 292 08:57 19.03.2020
6258 Clouds 7 1028 85 0 4.9 292 08:37 19.03.2020
6259 Clouds 7 1028 85 0 5.34 291 08:18 19.03.2020
6260 Clouds 7 1028 86 0 5.34 291 07:42 19.03.2020
6261 Clouds 7 1028 87 0 0.45 315 07:22 19.03.2020
6262 Clouds 7 1027 87 0 0.45 315 06:27 19.03.2020
6263 Clouds 7 1026 89 0 0.45 292 05:25 19.03.2020
6264 Rain 7 1026 89 0 5.54 289 04:51 19.03.2020
6265 Rain 7 1026 89 0 0.45 315 04:22 19.03.2020
6266 Rain 7 1026 87 0 0.89 315 02:33 19.03.2020
6267 Clouds 8 1026 86 0 0.45 315 00:53 19.03.2020
6268 Clouds 9 1025 87 0 0.89 315 00:20 19.03.2020
6269 Clouds 9 1025 85 0 0.45 315 23:45 18.03.2020
6270 Clouds 9 1026 85 0 5.18 274 23:26 18.03.2020
6271 Rain 10 1025 84 0 6.53 283 22:43 18.03.2020
6272 Rain 11 1025 83 0 0.45 292 22:24 18.03.2020
6273 Rain 11 1025 83 0 0.89 315 21:59 18.03.2020
6274 Rain 11 1026 82 0 0.89 292 21:40 18.03.2020
6275 Rain 11 1026 82 0 1.34 292 21:21 18.03.2020
6276 Rain 11 1026 82 0 1.34 292 21:21 18.03.2020
6277 Rain 11 1025 81 0 0.45 292 20:57 18.03.2020
6278 Rain 11 1025 81 0 0.45 292 20:38 18.03.2020
6279 Rain 11 1025 80 0 0.45 292 20:19 18.03.2020
6280 Rain 11 1025 80 0 0.89 292 19:55 18.03.2020
6281 Rain 11 1025 79 0 0.89 292 19:36 18.03.2020
6282 Rain 11 1025 78 0 0.45 270 19:18 18.03.2020
6283 Rain 12 1025 77 0 0.89 0 18:41 18.03.2020
6284 Rain 12 1025 76 0 0.89 315 18:20 18.03.2020
6285 Rain 12 1025 75 0 0.45 315 17:57 18.03.2020
6286 Rain 12 1025 74 0 0.89 292 17:39 18.03.2020
6287 Clouds 12 1025 72 0 1.34 315 17:20 18.03.2020
6288 Clouds 13 1025 72 0 0.45 315 16:54 18.03.2020
6289 Clouds 13 1025 72 0 0.45 247 16:36 18.03.2020
6290 Clouds 13 1025 72 0 0.89 292 16:18 18.03.2020
6291 Clouds 13 1025 71 0 1.34 292 15:44 18.03.2020
6292 Clouds 13 1025 70 0 1.34 315 15:20 18.03.2020
6293 Clouds 13 1025 69 0 1.34 315 14:45 18.03.2020
6294 Clouds 14 1025 67 0 10.91 251 14:22 18.03.2020
6295 Clouds 14 1025 67 0 0.89 202 13:58 18.03.2020
6296 Clouds 13 1025 68 0 2.24 225 13:36 18.03.2020
6297 Clouds 13 1025 68 0 1.79 315 13:18 18.03.2020
6298 Clouds 13 1025 67 0 10.68 248 12:41 18.03.2020
6299 Clouds 14 1025 64 0 0.45 270 12:19 18.03.2020
6300 Clouds 14 1026 63 0 0.45 292 11:40 18.03.2020
6301 Clouds 8 1021 78 0 10.68 248 11:21 18.03.2020
6302 Clouds 12 1026 66 0 1.34 292 10:58 18.03.2020
6303 Clouds 12 1026 66 0 0.89 202 10:39 18.03.2020
6304 Clouds 12 1026 65 0 2.68 225 10:20 18.03.2020
6305 Clouds 11 1026 66 0 1.34 225 09:59 18.03.2020
6306 Clouds 10 1026 67 0 1.79 247 09:39 18.03.2020
6307 Clouds 10 1026 68 0 1.79 225 09:21 18.03.2020
6308 Clouds 9 1026 70 0 2.24 225 08:40 18.03.2020
6309 Clouds 8 1026 72 0 1.79 225 08:21 18.03.2020
6310 Clouds 7 1026 74 0 1.79 225 07:49 18.03.2020
6311 Clouds 7 1026 75 0 1.34 225 07:31 18.03.2020
6312 Clouds 7 1027 76 0 0.89 202 06:54 18.03.2020
6313 Clouds 6 1027 76 0 1.34 225 06:35 18.03.2020
6314 Clouds 7 1027 76 0 1.79 225 05:37 18.03.2020
6315 Clouds 7 1028 77 0 0.89 225 04:29 18.03.2020
6316 Clouds 7 1028 77 0 0.89 225 03:21 18.03.2020
6317 Clouds 8 1028 76 0 0.89 225 02:35 18.03.2020
6318 Clouds 7 1029 77 0 0.89 225 01:42 18.03.2020
6319 Clouds 8 1029 76 0 0.89 225 00:43 18.03.2020
6320 Clouds 8 1029 76 0 0.45 225 00:21 18.03.2020
6321 Clouds 8 1029 75 0 0.89 225 23:42 17.03.2020
6322 Clouds 8 1029 74 0 0.89 225 23:20 17.03.2020
6323 Clouds 9 1030 73 0 0.45 202 22:45 17.03.2020
6324 Clouds 9 1030 73 0 7.31 238 22:26 17.03.2020
6325 Clouds 9 1030 72 0 8.06 245 21:44 17.03.2020
6326 Clouds 9 1030 71 0 8.06 245 21:25 17.03.2020
6327 Clouds 9 1030 72 0 8.06 245 20:58 17.03.2020
6328 Clouds 9 1030 71 0 0.45 270 20:38 17.03.2020
6329 Clouds 9 1030 71 0 0.45 270 20:38 17.03.2020
6330 Clouds 9 1030 71 0 7.07 250 20:19 17.03.2020
6331 Clouds 9 1030 71 0 7.07 250 20:19 17.03.2020
6332 Clouds 10 1030 68 0 0.89 247 19:42 17.03.2020
6333 Clouds 10 1030 67 0 6.75 252 19:20 17.03.2020
6334 Clouds 10 1030 67 0 0.45 247 18:58 17.03.2020
6335 Clouds 10 1029 66 0 0.45 247 18:39 17.03.2020
6336 Clouds 10 1029 66 0 0.45 247 18:21 17.03.2020
6337 Clouds 11 1029 65 0 0.45 292 17:56 17.03.2020
6338 Clouds 11 1029 65 0 0.45 270 17:38 17.03.2020
6339 Clouds 12 1029 64 0 8.55 244 17:19 17.03.2020
6340 Clouds 12 1029 61 0 8.55 244 16:42 17.03.2020
6341 Clouds 12 1029 57 0 0.45 292 16:19 17.03.2020
6342 Clouds 12 1029 60 0 0.89 292 15:47 17.03.2020
6343 Clouds 13 1029 59 0 8.55 244 15:23 17.03.2020
6344 Clouds 13 1029 61 0 8.55 244 14:49 17.03.2020
6345 Clouds 13 1029 59 0 1.34 247 14:30 17.03.2020
6346 Clouds 13 1029 60 0 0.45 247 13:59 17.03.2020
6347 Clouds 14 1029 62 0 7.37 260 13:41 17.03.2020
6348 Clouds 14 1029 63 0 1.79 270 13:22 17.03.2020
6349 Clouds 13 1030 66 0 0.45 315 12:48 17.03.2020
6350 Clouds 13 1030 69 0 0.89 292 12:26 17.03.2020
6351 Clouds 12 1030 71 0 7.69 255 11:59 17.03.2020
6352 Clouds 12 1030 72 0 7.69 255 11:39 17.03.2020
6353 Clouds 12 1030 72 0 7.69 255 11:39 17.03.2020
6354 Clouds 12 1030 73 0 0.89 292 11:21 17.03.2020
6355 Clouds 11 1030 78 0 0.89 225 10:55 17.03.2020
6356 Clouds 10 1030 80 0 0.89 225 10:36 17.03.2020
6357 Clouds 9 1031 82 0 0.89 247 10:18 17.03.2020
6358 Clouds 8 1031 86 0 0.89 225 09:45 17.03.2020
6359 Clouds 7 1031 86 0 0.45 247 09:20 17.03.2020
6360 Clouds 6 1031 86 0 6.14 245 08:58 17.03.2020
6361 Clouds 6 1031 87 0 6.14 245 08:40 17.03.2020
6362 Clear 5 1031 86 0 0.89 225 08:18 17.03.2020
6363 Clear 4 1030 85 0 5.61 236 07:49 17.03.2020
6364 Clear 3 1030 85 0 5.61 236 07:21 17.03.2020
6365 Clear 2 1030 84 0 5.61 236 06:51 17.03.2020
6366 Clear 2 1029 84 0 0.45 225 06:25 17.03.2020
6367 Clear 3 1029 84 0 5.61 236 05:34 17.03.2020
6368 Clear 3 1029 82 0 4.57 234 03:36 17.03.2020
6369 Clear 2 1029 81 0 4.57 234 02:31 17.03.2020
6370 Clear 2 1028 81 0 3.94 255 01:39 17.03.2020
6371 Clear 2 1028 80 0 4.33 259 01:18 17.03.2020
6372 Clear 2 1028 80 0 4.33 259 00:19 17.03.2020
6373 Clear 2 1027 80 0 4.33 259 23:44 16.03.2020
6374 Clear 3 1028 79 0 4.33 259 23:23 16.03.2020
6375 Clear 3 1028 79 0 4.93 267 22:40 16.03.2020
6376 Clear 4 1028 79 0 4.93 267 22:22 16.03.2020
6377 Clear 4 1027 79 0 4.93 267 21:55 16.03.2020
6378 Clear 4 1027 79 0 4.93 267 21:36 16.03.2020
6379 Clear 4 1027 78 0 4.93 267 21:18 16.03.2020
6380 Clear 4 1027 77 0 4.93 267 20:55 16.03.2020
6381 Clear 4 1027 77 0 4.93 267 20:37 16.03.2020
6382 Clear 5 1026 76 0 5.68 259 20:18 16.03.2020
6383 Clear 6 1026 76 0 5.68 259 19:40 16.03.2020
6384 Clear 6 1026 74 0 5.68 259 19:20 16.03.2020
6385 Clear 7 1025 73 0 5.68 259 18:41 16.03.2020
6386 Clear 9 1025 70 0 5.68 259 18:20 16.03.2020
6387 Clear 10 1025 69 0 5.68 259 17:55 16.03.2020
6388 Clear 11 1025 67 0 5.68 259 17:36 16.03.2020
6389 Clear 11 1024 70 0 0.45 315 17:18 16.03.2020
6390 Clear 11 1024 69 0 0.45 337 16:42 16.03.2020
6391 Clear 12 1024 69 0 6.83 265 16:24 16.03.2020
6392 Clear 12 1023 69 0 6.83 265 15:44 16.03.2020
6393 Clear 12 1023 70 0 6.83 265 15:26 16.03.2020
6394 Clear 11 1022 69 0 6.83 265 14:49 16.03.2020
6395 Clear 12 1022 67 0 0.45 337 14:27 16.03.2020
6396 Clouds 14 1022 66 0 0.89 292 13:58 16.03.2020
6397 Clouds 13 1022 67 0 0.89 270 13:40 16.03.2020
6398 Clouds 13 1022 69 0 0.45 292 13:21 16.03.2020
6399 Clouds 11 1021 70 0 8.07 263 12:44 16.03.2020
6400 Clouds 11 1021 69 0 8.07 263 12:23 16.03.2020
6401 Clouds 10 1021 69 0 8.07 263 11:46 16.03.2020
6402 Clouds 9 1021 69 0 0.45 225 11:27 16.03.2020
6403 Clouds 9 1021 69 0 0.45 225 11:27 16.03.2020
6404 Clouds 9 1020 70 0 0.89 225 10:56 16.03.2020
6405 Clouds 9 1020 69 0 1.34 225 10:37 16.03.2020
6406 Clouds 9 1020 68 0 1.34 225 10:18 16.03.2020
6407 Clouds 8 1020 69 0 1.79 225 09:42 16.03.2020
6408 Clouds 7 1020 68 0 1.79 225 09:21 16.03.2020
6409 Clouds 6 1019 68 0 1.79 225 08:52 16.03.2020
6410 Clouds 6 1019 68 0 1.79 202 08:25 16.03.2020
6411 Clouds 6 1019 68 0 1.79 202 08:25 16.03.2020
6412 Clouds 5 1019 68 0 1.34 225 07:48 16.03.2020
6413 Clouds 5 1019 68 0 2.24 225 07:25 16.03.2020
6414 Clouds 5 1018 67 0 1.34 225 06:54 16.03.2020
6415 Clouds 4 1018 67 0 0.89 202 06:25 16.03.2020
6416 Clouds 4 1018 67 0 0.89 202 04:55 16.03.2020
6417 Clouds 4 1018 65 0 0.89 180 02:42 16.03.2020
6418 Clouds 4 1018 64 0 1.34 180 01:20 16.03.2020
6419 Clouds 4 1018 63 0 0.89 180 00:39 16.03.2020
6420 Clouds 5 1018 61 0 2.24 202 23:47 15.03.2020
6421 Clouds 5 1018 61 0 1.34 180 23:20 15.03.2020
6422 Clouds 4 1018 61 0 1.79 180 22:43 15.03.2020
6423 Clouds 4 1018 61 0 1.34 180 22:23 15.03.2020
6424 Clouds 4 1018 61 0 1.34 180 22:23 15.03.2020
6425 Clouds 5 1018 59 0 1.79 180 21:58 15.03.2020
6426 Clouds 5 1018 59 0 1.34 180 21:38 15.03.2020
6427 Clouds 6 1018 58 0 1.34 180 21:18 15.03.2020
6428 Clouds 6 1018 58 0 1.34 180 20:42 15.03.2020
6429 Clouds 6 1019 58 0 0.89 157 20:21 15.03.2020
6430 Clouds 6 1019 59 0 0.89 180 19:58 15.03.2020
6431 Clouds 7 1019 59 0 0.89 180 19:40 15.03.2020
6432 Clouds 7 1019 60 0 1.34 180 19:21 15.03.2020
6433 Clouds 7 1019 61 0 0.89 157 18:56 15.03.2020
6434 Clouds 8 1019 62 0 0.89 157 18:37 15.03.2020
6435 Clouds 8 1019 62 0 0.89 157 18:37 15.03.2020
6436 Clouds 9 1019 61 0 0.89 157 18:19 15.03.2020
6437 Clouds 11 1019 57 0 1.79 180 17:41 15.03.2020
6438 Clouds 11 1019 57 0 1.34 180 17:21 15.03.2020
6439 Clouds 11 1019 59 0 2.24 180 16:59 15.03.2020
6440 Clouds 11 1019 59 0 1.79 180 16:40 15.03.2020
6441 Clouds 11 1019 58 0 2.24 202 16:21 15.03.2020
6442 Clouds 11 1019 58 0 2.68 180 15:56 15.03.2020
6443 Clouds 11 1019 58 0 2.68 180 15:38 15.03.2020
6444 Clouds 12 1020 58 0 3.13 180 15:19 15.03.2020
6445 Clouds 11 1020 58 0 2.68 180 14:40 15.03.2020
6446 Clouds 11 1020 59 0 2.68 202 14:22 15.03.2020
6447 Clouds 11 1020 58 0 3.58 180 13:56 15.03.2020
6448 Clouds 11 1020 59 0 2.24 180 13:38 15.03.2020
6449 Clouds 11 1020 59 0 2.24 180 13:38 15.03.2020
6450 Clouds 11 1021 60 0 2.68 180 13:19 15.03.2020
6451 Clouds 10 1021 60 0 2.24 180 12:41 15.03.2020
6452 Clouds 10 1021 61 0 1.79 180 12:23 15.03.2020
6453 Clouds 9 1022 63 0 2.68 180 11:45 15.03.2020
6454 Clouds 9 1023 63 0 3.13 180 11:26 15.03.2020
6455 Clouds 7 1023 65 0 1.79 180 11:00 15.03.2020
6456 Clouds 7 1023 66 0 2.68 180 10:41 15.03.2020
6457 Clouds 6 1024 66 0 2.68 180 10:23 15.03.2020
6458 Clouds 6 1024 66 0 2.24 180 09:59 15.03.2020
6459 Clouds 5 1024 66 0 2.24 180 09:39 15.03.2020
6460 Clouds 4 1024 68 0 2.24 202 09:20 15.03.2020
6461 Clouds 3 1024 70 0 2.24 180 08:41 15.03.2020
6462 Clouds 2 1024 70 0 1.79 157 08:20 15.03.2020
6463 Clouds 2 1024 71 0 1.34 157 07:50 15.03.2020
6464 Clouds 1 1025 71 0 1.79 180 07:23 15.03.2020
6465 Clouds 1 1025 72 0 1.34 180 06:45 15.03.2020
6466 Clouds 1 1025 72 0 1.79 157 05:50 15.03.2020
6467 Clouds 1 1026 73 0 1.79 180 05:18 15.03.2020
6468 Clouds 1 1026 73 0 1.34 157 04:41 15.03.2020
6469 Clouds 0 1026 74 0 1.79 157 04:23 15.03.2020
6470 Clouds 0 1027 74 0 1.34 135 03:30 15.03.2020
6471 Clouds 1 1028 73 0 0.45 157 02:37 15.03.2020
6472 Clouds 0 1028 74 0 0.89 180 01:34 15.03.2020
6473 Clouds 1 1028 74 0 0.89 157 00:45 15.03.2020
6474 Clouds 1 1028 75 0 1.34 157 00:22 15.03.2020
6475 Clouds 0 1028 76 0 0.89 157 23:42 14.03.2020
6476 Clouds 0 1029 76 0 0.89 157 23:22 14.03.2020
6477 Clouds 0 1029 76 0 0.89 157 22:59 14.03.2020
6478 Clouds 0 1029 76 0 0.89 157 22:41 14.03.2020
6479 Clouds 0 1029 76 0 0.45 135 22:23 14.03.2020
6480 Clouds 0 1029 74 0 0.89 135 21:56 14.03.2020
6481 Clouds 1 1029 73 0 0.89 135 21:36 14.03.2020
6482 Clouds 1 1029 73 0 0.89 135 21:36 14.03.2020
6483 Clouds 1 1029 73 0 0.89 135 21:18 14.03.2020
6484 Clouds 1 1029 73 0 1.34 135 20:58 14.03.2020
6485 Clouds 1 1029 73 0 0.89 135 20:40 14.03.2020
6486 Clear 1 1029 73 0 1.34 157 20:19 14.03.2020
6487 Clear 1 1029 70 0 0.89 135 19:43 14.03.2020
6488 Clear 1 1029 68 0 0.89 135 19:25 14.03.2020
6489 Clear 2 1029 63 0 0.45 135 18:42 14.03.2020
6490 Clear 2 1029 61 0 0.45 135 18:24 14.03.2020
6491 Clear 4 1029 56 0 0.45 135 17:58 14.03.2020
6492 Clear 6 1029 52 0 0.89 135 17:38 14.03.2020
6493 Clear 6 1029 52 0 0.89 135 17:38 14.03.2020
6494 Clear 7 1029 52 0 0.89 135 17:20 14.03.2020
6495 Clear 7 1029 52 0 0.89 135 17:20 14.03.2020
6496 Clear 6 1029 51 0 1.34 135 16:41 14.03.2020
6497 Clear 7 1029 49 0 0.89 135 16:23 14.03.2020
6498 Clear 7 1029 46 0 1.79 135 15:58 14.03.2020
6499 Clear 7 1029 45 0 5.28 135 15:27 14.03.2020
6500 Clear 6 1030 46 0 0.45 67 14:59 14.03.2020
6501 Clear 6 1030 44 0 0.45 45 14:37 14.03.2020
6502 Clear 6 1030 41 0 1.34 45 14:19 14.03.2020
6503 Clear 6 1030 40 0 2.02 75 13:43 14.03.2020
6504 Clear 6 1030 41 0 1.34 45 13:24 14.03.2020
6505 Clear 6 1030 47 0 0.79 62 12:58 14.03.2020
6506 Clear 6 1030 47 0 0.45 45 12:38 14.03.2020
6507 Clear 6 1030 48 0 0.79 62 12:20 14.03.2020
6508 Clear 6 1030 49 0 0.79 62 11:42 14.03.2020
6509 Clear 6 1030 57 0 0.79 62 11:24 14.03.2020
6510 Clear 5 1029 62 0 0.45 22 10:47 14.03.2020
6511 Clear 4 1029 64 0 0.45 45 10:28 14.03.2020
6512 Clear 4 1029 72 0 2.14 349 09:59 14.03.2020
6513 Clear 4 1029 75 0 0.45 22 09:40 14.03.2020
6514 -273 0 0 0 0 0 09:21 14.03.2020
6515 Clear 2 1028 83 0 0.45 337 08:46 14.03.2020
6516 Clear 2 1028 83 0 2.14 349 08:26 14.03.2020
6517 Clear 0 1028 83 0 4.82 325 07:40 14.03.2020
6518 Clear 0 1027 83 0 4.82 325 07:21 14.03.2020
6519 Clear -1 1027 83 0 4.82 325 06:55 14.03.2020
6520 Clear -1 1027 83 0 0.45 315 06:36 14.03.2020
6521 Clear -1 1025 81 0 0.45 292 04:56 14.03.2020
6522 Clear 1 1025 76 0 0.45 247 03:37 14.03.2020
6523 Clear 2 1024 73 0 6.13 327 02:53 14.03.2020
6524 Clouds 3 1023 65 0 9.67 333 01:47 14.03.2020
6525 Clouds 2 1022 75 0 9.54 331 00:34 14.03.2020
6526 Clouds 2 1021 73 0 9.54 331 23:44 13.03.2020
6527 Clouds 2 1021 73 0 9.54 331 23:23 13.03.2020
6528 Clouds 3 1020 77 0 0.89 0 22:46 13.03.2020
6529 Clouds 3 1020 77 0 0.89 0 22:24 13.03.2020
6530 Clouds 3 1019 80 0 1.79 0 21:42 13.03.2020
6531 -273 0 0 0 0 0 21:21 13.03.2020
6532 Clouds 3 1018 81 0 10.9 334 20:56 13.03.2020
6533 Clouds 3 1017 81 0 0.45 0 20:37 13.03.2020
6534 Rain 4 1016 82 0 0.45 315 20:18 13.03.2020
6535 Rain 4 1015 83 0 0.89 292 19:42 13.03.2020
6536 Rain 4 1015 84 0 0.45 67 19:23 13.03.2020
6537 Rain 5 1013 82 0 2.24 270 18:44 13.03.2020
6538 Rain 6 1013 80 0 3.58 292 18:25 13.03.2020
6539 Rain 6 1012 76 0 1.34 315 17:55 13.03.2020
6540 Rain 6 1012 76 0 2.24 292 17:37 13.03.2020
6541 Clouds 6 1011 78 0 1.34 292 17:18 13.03.2020
6542 Clouds 6 1010 78 0 2.24 315 16:40 13.03.2020
6543 Clouds 6 1010 80 0 3.58 337 16:22 13.03.2020
6544 Clouds 7 1010 79 0 2.68 315 15:55 13.03.2020
6545 Clouds 7 1009 79 0 1.79 292 15:37 13.03.2020
6546 Clouds 7 1009 81 0 2.24 292 15:18 13.03.2020
6547 Clouds 7 1008 86 0 3.13 337 14:41 13.03.2020
6548 -273 0 0 0 0 0 14:22 13.03.2020
6549 Rain 6 1007 89 0 1.79 315 13:56 13.03.2020
6550 Rain 6 1007 88 0 1.34 292 13:38 13.03.2020
6551 Rain 6 1006 85 0 1.34 247 13:18 13.03.2020
6552 Rain 6 1006 83 0 2.24 225 12:40 13.03.2020
6553 Rain 6 1006 81 0 1.79 225 12:21 13.03.2020
6554 Rain 7 1006 77 0 2.68 225 11:57 13.03.2020
6555 Rain 7 1007 76 0 1.79 180 11:39 13.03.2020
6556 Rain 7 1007 76 0 1.79 247 11:21 13.03.2020
6557 Rain 7 1007 77 0 2.24 247 10:47 13.03.2020
6558 Rain 7 1007 78 0 1.34 247 10:27 13.03.2020
6559 Rain 7 1007 79 0 1.34 225 09:57 13.03.2020
6560 Rain 7 1007 80 0 2.68 225 09:39 13.03.2020
6561 Rain 7 1008 81 0 2.24 225 09:20 13.03.2020
6562 Rain 6 1008 83 0 1.79 247 08:45 13.03.2020
6563 Rain 6 1008 84 0 0.89 225 08:22 13.03.2020
6564 Clouds 4 1008 86 0 0.89 247 07:49 13.03.2020
6565 Clouds 4 1008 86 0 1.79 225 07:28 13.03.2020
6566 Clouds 3 1008 86 0 1.79 225 06:47 13.03.2020
6567 Clouds 3 1008 86 0 1.34 225 06:28 13.03.2020
6568 Clouds 4 1008 86 0 1.79 225 05:54 13.03.2020
6569 Clouds 3 1008 86 0 0.89 225 05:22 13.03.2020
6570 Clouds 3 1008 86 0 0.45 247 04:37 13.03.2020
6571 Clouds 3 1008 84 0 0.45 225 03:37 13.03.2020
6572 Clouds 3 1009 79 0 0.45 225 01:46 13.03.2020
6573 Clouds 4 1009 78 0 11.76 250 01:19 13.03.2020
6574 Clouds 4 1009 77 0 11.04 247 00:53 13.03.2020
6575 Clouds 4 1009 77 0 1.34 247 00:24 13.03.2020
6576 Clouds 4 1008 77 0 0.45 225 23:55 12.03.2020
6577 Clouds 4 1009 78 0 0.45 247 23:28 12.03.2020
6578 Clear 4 1009 78 0 0.45 225 22:57 12.03.2020
6579 Clear 4 1009 77 0 0.45 225 22:39 12.03.2020
6580 -273 0 0 0 0 0 22:21 12.03.2020
6581 Clear 4 1009 76 0 0.45 225 21:44 12.03.2020
6582 Clear 4 1009 76 0 0.89 225 21:26 12.03.2020
6583 Clear 4 1009 74 0 1.34 225 20:57 12.03.2020
6584 Clear 4 1009 74 0 0.89 225 20:38 12.03.2020
6585 Clear 5 1009 73 0 0.45 270 20:19 12.03.2020
6586 Clear 5 1008 71 0 0.89 337 19:41 12.03.2020
6587 Clear 5 1008 70 0 1.34 270 19:20 12.03.2020
6588 Clear 6 1008 69 0 1.34 292 18:44 12.03.2020
6589 Clear 6 1008 67 0 2.68 292 18:24 12.03.2020
6590 Clear 6 1008 66 0 1.34 292 17:57 12.03.2020
6591 Clear 7 1008 64 0 1.79 292 17:39 12.03.2020
6592 Clear 7 1008 69 0 2.24 292 17:20 12.03.2020
6593 Clear 6 1007 68 0 4.47 337 16:56 12.03.2020
6594 Clear 7 1007 70 0 2.68 315 16:38 12.03.2020
6595 Clear 6 1007 75 0 3.58 315 16:19 12.03.2020
6596 Clear 7 1006 73 0 1.79 270 15:45 12.03.2020
6597 Clear 7 1006 78 0 2.68 315 15:27 12.03.2020
6598 Clear 5 1006 78 0 0.89 292 14:42 12.03.2020
6599 Clear 8 1005 66 0 4.92 315 14:24 12.03.2020
6600 Rain 7 1005 73 0 2.24 270 13:57 12.03.2020
6601 Rain 7 1004 73 0 4.02 292 13:37 12.03.2020
6602 Rain 6 1004 79 0 3.58 270 13:19 12.03.2020
6603 Rain 8 1003 66 0 2.68 292 12:41 12.03.2020
6604 Rain 9 1003 66 0 0.89 157 12:22 12.03.2020
6605 Rain 8 1002 63 0 3.58 270 11:57 12.03.2020
6606 Rain 9 1001 60 0 2.68 270 11:39 12.03.2020
6607 Clouds 8 1001 65 0 1.79 337 11:20 12.03.2020
6608 Clouds 8 1000 69 0 3.58 270 10:59 12.03.2020
6609 Clouds 8 1000 69 0 3.58 315 10:41 12.03.2020
6610 Clouds 8 1000 69 0 1.34 225 10:22 12.03.2020
6611 Clouds 8 1000 80 0 4.02 292 09:48 12.03.2020
6612 Clouds 11 999 78 0 3.13 247 09:28 12.03.2020
6613 Clouds 11 999 78 0 3.13 247 09:28 12.03.2020
6614 Clouds 10 998 85 0 0.89 247 08:54 12.03.2020
6615 Clouds 10 999 86 0 0.89 225 08:36 12.03.2020
6616 Rain 9 999 87 0 0.45 247 08:18 12.03.2020
6617 Rain 9 999 88 0 13.12 236 07:45 12.03.2020
6618 Rain 9 1000 89 0 1.34 202 07:21 12.03.2020
6619 Rain 8 1000 90 0 0.89 225 05:59 12.03.2020
6620 Rain 8 1001 90 0 2.24 225 05:27 12.03.2020
6621 Rain 8 1004 87 0 1.34 202 02:54 12.03.2020
6622 Clouds 7 1006 85 0 0.89 202 01:43 12.03.2020
6623 Clouds 7 1006 85 0 1.34 225 01:21 12.03.2020
6624 Rain 7 1008 84 0 1.34 225 00:42 12.03.2020
6625 Rain 6 1008 82 0 0.89 225 23:57 11.03.2020
6626 Rain 6 1009 81 0 0.89 202 23:28 11.03.2020
6627 Clouds 6 1009 80 0 0.89 202 22:59 11.03.2020
6628 Clouds 6 1010 80 0 0.89 202 22:39 11.03.2020
6629 Clouds 6 1010 79 0 0.89 202 22:21 11.03.2020
6630 Clouds 6 1010 79 0 1.34 202 21:57 11.03.2020
6631 Clouds 6 1010 79 0 0.89 180 21:39 11.03.2020
6632 Clouds 5 1010 79 0 0.89 180 21:21 11.03.2020
6633 Clouds 5 1011 77 0 0.45 180 20:56 11.03.2020
6634 Clouds 6 1011 77 0 0.45 202 20:37 11.03.2020
6635 Clouds 5 1011 75 0 0.45 202 20:19 11.03.2020
6636 Clouds 6 1011 74 0 0.45 247 19:42 11.03.2020
6637 Clouds 6 1012 73 0 0.45 247 19:24 11.03.2020
6638 Clouds 7 1012 70 0 7.12 241 18:57 11.03.2020
6639 Clouds 7 1012 70 0 7.12 241 18:38 11.03.2020
6640 Clouds 8 1012 68 0 0.89 292 18:18 11.03.2020
6641 Clouds 9 1012 66 0 0.45 270 17:55 11.03.2020
6642 Clouds 10 1012 64 0 7.12 241 17:37 11.03.2020
6643 Clear 11 1012 60 0 0.45 270 17:18 11.03.2020
6644 Clear 11 1011 57 0 0.89 292 16:43 11.03.2020
6645 Clear 11 1011 57 0 0.89 292 16:20 11.03.2020
6646 Clear 11 1011 60 0 1.34 292 15:43 11.03.2020
6647 Clear 11 1011 61 0 2.24 292 15:23 11.03.2020
6648 Clear 11 1011 62 0 2.24 270 14:56 11.03.2020
6649 Clear 11 1011 63 0 2.68 315 14:38 11.03.2020
6650 Clear 10 1010 66 0 1.34 292 14:19 11.03.2020
6651 Clear 9 1010 65 0 2.24 292 13:44 11.03.2020
6652 Clear 9 1010 65 0 3.58 315 13:25 11.03.2020
6653 Clear 10 1010 67 0 1.79 292 12:58 11.03.2020
6654 Clear 10 1010 68 0 1.79 337 12:39 11.03.2020
6655 Clear 10 1009 67 0 3.58 292 12:19 11.03.2020
6656 Clear 8 1009 74 0 2.68 292 11:42 11.03.2020
6657 Clear 9 1009 72 0 2.68 292 11:23 11.03.2020
6658 Clear 8 1009 77 0 0.89 292 10:56 11.03.2020
6659 Clear 8 1008 78 0 1.79 270 10:37 11.03.2020
6660 Clear 7 1008 79 0 1.34 292 10:18 11.03.2020
6661 Clear 8 1007 83 0 2.24 315 09:42 11.03.2020
6662 Clear 8 1007 83 0 1.34 247 09:24 11.03.2020
6663 Clear 7 1007 84 0 1.79 292 08:45 11.03.2020
6664 Clear 7 1007 85 0 0.89 270 08:27 11.03.2020
6665 Clouds 6 1006 85 0 1.79 292 07:56 11.03.2020
6666 Clouds 6 1006 85 0 0.89 292 07:37 11.03.2020
6667 Clouds 6 1006 85 0 0.89 292 07:18 11.03.2020
6668 Clouds 7 1005 85 0 1.79 292 06:37 11.03.2020
6669 Clouds 7 1003 84 0 4.47 292 05:33 11.03.2020
6670 Rain 8 1001 91 0 1.34 292 03:59 11.03.2020
6671 Rain 8 1000 91 0 11.57 268 01:59 11.03.2020
6672 Rain 8 1000 91 0 0.89 292 01:26 11.03.2020
6673 Rain 8 999 91 0 1.34 270 00:45 11.03.2020
6674 Rain 8 999 91 0 2.68 292 23:57 10.03.2020
6675 Rain 8 998 91 0 0.89 292 23:39 10.03.2020
6676 Rain 8 998 91 0 1.79 292 23:20 10.03.2020
6677 Rain 9 998 92 0 2.68 315 22:38 10.03.2020
6678 Rain 9 998 93 0 1.34 315 22:20 10.03.2020
6679 Rain 9 997 93 0 0.45 225 21:57 10.03.2020
6680 Rain 9 997 93 0 1.79 247 21:38 10.03.2020
6681 Rain 9 997 93 0 1.79 225 21:20 10.03.2020
6682 Rain 8 998 93 0 2.24 225 20:58 10.03.2020
6683 Rain 8 998 93 0 2.68 225 20:40 10.03.2020
6684 Rain 8 998 93 0 1.79 202 20:18 10.03.2020
6685 Rain 8 999 93 0 1.34 202 19:56 10.03.2020
6686 Rain 8 999 93 0 1.79 225 19:37 10.03.2020
6687 Rain 8 999 93 0 1.79 202 19:19 10.03.2020
6688 Rain 7 1000 92 0 2.24 202 18:44 10.03.2020
6689 Rain 7 1000 92 0 2.24 202 18:26 10.03.2020
6690 Rain 7 1001 92 0 2.68 180 17:57 10.03.2020
6691 Rain 7 1001 91 0 1.79 202 17:39 10.03.2020
6692 Rain 7 1001 91 0 1.34 202 17:21 10.03.2020
6693 Rain 7 1002 91 0 1.79 202 16:39 10.03.2020
6694 Rain 7 1002 90 0 1.79 202 16:19 10.03.2020
6695 Rain 7 1002 90 0 2.24 202 15:57 10.03.2020
6696 Rain 7 1002 90 0 1.79 202 15:39 10.03.2020
6697 Rain 7 1003 90 0 1.34 180 15:19 10.03.2020
6698 Rain 7 1003 89 0 2.24 202 14:54 10.03.2020
6699 Rain 7 1003 88 0 2.68 180 14:36 10.03.2020
6700 Rain 7 1003 88 0 1.34 202 14:18 10.03.2020
6701 Rain 7 1004 86 0 1.79 180 13:42 10.03.2020
6702 Rain 7 1004 85 0 2.68 202 13:24 10.03.2020
6703 Rain 7 1005 85 0 2.68 202 12:42 10.03.2020
6704 Rain 7 1005 85 0 2.24 180 12:21 10.03.2020
6705 Rain 7 1005 85 0 2.68 202 11:59 10.03.2020
6706 Rain 7 1005 85 0 2.24 180 11:41 10.03.2020
6707 Rain 7 1006 85 0 2.68 202 11:22 10.03.2020
6708 Clouds 7 1006 84 0 2.24 202 10:43 10.03.2020
6709 Clouds 7 1007 84 0 2.68 180 10:43 10.03.2020
6710 Clouds 7 1007 85 0 1.79 180 10:23 10.03.2020
6711 Clouds 6 1008 86 0 2.24 202 09:58 10.03.2020
6712 Clouds 6 1008 87 0 1.79 202 09:40 10.03.2020
6713 Clouds 6 1008 89 0 2.24 180 09:19 10.03.2020
6714 Clouds 5 1009 90 0 1.34 180 08:51 10.03.2020
6715 Clouds 4 1009 90 0 1.34 157 08:32 10.03.2020
6716 Clouds 4 1009 91 0 1.34 180 07:51 10.03.2020
6717 Clouds 4 1010 91 0 1.34 180 07:32 10.03.2020
6718 Clouds 3 1010 91 0 0.89 180 06:50 10.03.2020
6719 Clouds 3 1011 91 0 0.89 180 06:31 10.03.2020
6720 Clouds 3 1012 91 0 1.34 180 05:42 10.03.2020
6721 Clouds 3 1012 90 0 0.89 180 04:56 10.03.2020
6722 Clouds 3 1012 90 0 0.89 180 04:25 10.03.2020
6723 Clouds 3 1012 90 0 0.89 180 04:25 10.03.2020
6724 Clouds 3 1013 89 0 0.45 202 02:46 10.03.2020
6725 Clear 3 1014 89 0 0.45 225 01:32 10.03.2020
6726 Clear 4 1014 88 0 0.45 225 00:50 10.03.2020
6727 Clear 4 1014 88 0 0.45 225 00:28 10.03.2020
6728 Clear 4 1015 88 0 0.45 225 23:42 09.03.2020
6729 Clear 4 1015 87 0 0.45 225 23:22 09.03.2020
6730 Clear 5 1014 87 0 0.45 225 22:57 09.03.2020
6731 Clear 6 1014 86 0 0.45 225 22:38 09.03.2020
6732 Clear 6 1014 87 0 0.45 270 22:19 09.03.2020
6733 Clear 6 1015 87 0 0.45 247 21:43 09.03.2020
6734 Clear 6 1015 87 0 0.45 247 21:22 09.03.2020
6735 Clear 6 1014 85 0 0.45 225 20:58 09.03.2020
6736 Clear 6 1014 85 0 0.45 247 20:40 09.03.2020
6737 Clear 6 1014 85 0 0.45 247 20:40 09.03.2020
6738 Clear 7 1014 85 0 6.78 240 20:21 09.03.2020
6739 Clouds 7 1015 85 0 7.48 244 19:56 09.03.2020
6740 Clouds 7 1014 85 0 0.45 247 19:38 09.03.2020
6741 Clouds 7 1014 85 0 0.45 315 19:18 09.03.2020
6742 Clouds 7 1014 83 0 0.45 270 18:55 09.03.2020
6743 Clouds 8 1014 83 0 7.48 244 18:37 09.03.2020
6744 Clouds 8 1014 83 0 7.48 244 18:18 09.03.2020
6745 Clouds 8 1014 83 0 1.79 315 17:55 09.03.2020
6746 Clouds 8 1014 81 0 0.45 315 17:36 09.03.2020
6747 Clouds 9 1014 81 0 0.45 0 17:18 09.03.2020
6748 Clouds 10 1013 80 0 0.45 292 16:42 09.03.2020
6749 Clouds 10 1013 82 0 0.45 292 16:22 09.03.2020
6750 Clouds 9 1013 81 0 7.07 268 15:59 09.03.2020
6751 Clouds 10 1013 80 0 7.07 268 15:40 09.03.2020
6752 Clouds 10 1013 79 0 0.89 315 15:21 09.03.2020
6753 Clouds 10 1013 79 0 0.89 315 15:21 09.03.2020
6754 Clouds 11 1013 79 0 0.45 292 14:59 09.03.2020
6755 Clouds 12 1013 80 0 7.07 268 14:38 09.03.2020
6756 Rain 12 1013 82 0 0.45 292 14:20 09.03.2020
6757 Rain 11 1013 85 0 6.98 263 13:58 09.03.2020
6758 Rain 10 1013 84 0 6.98 263 13:39 09.03.2020
6759 Rain 10 1013 84 0 0.45 225 13:20 09.03.2020
6760 Clouds 10 1013 84 0 7.18 261 12:58 09.03.2020
6761 Clouds 10 1013 85 0 7.18 261 12:39 09.03.2020
6762 Clouds 9 1013 86 0 7.18 261 12:18 09.03.2020
6763 Clouds 9 1013 87 0 7.18 261 11:40 09.03.2020
6764 Rain 10 1012 88 0 0.45 202 11:20 09.03.2020
6765 Rain 8 1012 89 0 0.45 225 10:57 09.03.2020
6766 Rain 8 1012 88 0 0.89 202 10:39 09.03.2020
6767 Rain 8 1012 88 0 0.89 202 10:19 09.03.2020
6768 Rain 8 1012 88 0 0.89 225 09:42 09.03.2020
6769 Rain 7 1012 88 0 0.89 225 09:24 09.03.2020
6770 Rain 7 1012 88 0 0.89 180 08:47 09.03.2020
6771 Rain 7 1012 88 0 0.89 180 08:29 09.03.2020
6772 Rain 7 1012 89 0 0.45 180 07:58 09.03.2020
6773 Rain 6 1012 89 0 0.89 157 07:37 09.03.2020
6774 Rain 6 1012 89 0 0.45 135 07:18 09.03.2020
6775 Rain 6 1012 89 0 0.45 180 06:40 09.03.2020
6776 Rain 6 1012 89 0 0.45 180 06:21 09.03.2020
6777 Rain 6 1012 89 0 0.45 157 05:45 09.03.2020
6778 Rain 6 1012 88 0 0.45 157 04:59 09.03.2020
6779 Rain 6 1012 88 0 0.45 157 04:40 09.03.2020
6780 Rain 6 1012 88 0 0.45 157 04:21 09.03.2020
6781 Rain 6 1013 87 0 0.89 157 02:55 09.03.2020
6782 Clouds 6 1013 87 0 0.45 180 00:46 09.03.2020
6783 Clouds 6 1013 87 0 0.45 180 00:27 09.03.2020
6784 Clouds 6 1013 87 0 0.89 180 23:59 08.03.2020
6785 Clouds 7 1013 86 0 0.89 180 23:41 08.03.2020
6786 Clouds 7 1013 86 0 0.89 180 23:21 08.03.2020
6787 Clouds 7 1014 86 0 1.34 202 22:55 08.03.2020
6788 Clouds 7 1013 85 0 0.89 180 22:37 08.03.2020
6789 Clouds 7 1014 85 0 0.89 180 22:18 08.03.2020
6790 Clouds 7 1014 85 0 0.89 180 21:42 08.03.2020
6791 Clouds 7 1014 85 0 1.79 180 21:23 08.03.2020
6792 Clouds 7 1014 85 0 1.79 202 20:59 08.03.2020
6793 Clouds 7 1014 84 0 1.34 202 20:39 08.03.2020
6794 Clouds 7 1014 84 0 1.34 202 20:39 08.03.2020
6795 Clouds 7 1014 84 0 1.34 180 20:20 08.03.2020
6796 Clouds 7 1014 83 0 1.34 180 19:41 08.03.2020
6797 Clouds 7 1014 83 0 0.89 180 19:21 08.03.2020
6798 Clouds 7 1015 83 0 1.79 180 18:58 08.03.2020
6799 Clouds 8 1014 82 0 2.24 180 18:40 08.03.2020
6800 Clouds 8 1014 82 0 1.79 180 18:21 08.03.2020
6801 Clouds 8 1014 81 0 1.79 202 17:55 08.03.2020
6802 Clouds 8 1014 81 0 1.34 202 17:37 08.03.2020
6803 Clouds 8 1014 81 0 1.34 202 17:37 08.03.2020
6804 Clouds 8 1014 81 0 1.79 180 17:18 08.03.2020
6805 Clouds 9 1014 80 0 1.79 180 16:42 08.03.2020
6806 Clouds 9 1014 80 0 1.79 180 16:23 08.03.2020
6807 Clouds 9 1014 79 0 1.34 180 15:56 08.03.2020
6808 Clouds 9 1014 78 0 1.79 180 15:37 08.03.2020
6809 Clouds 10 1015 78 0 1.79 180 15:18 08.03.2020
6810 Clouds 10 1015 77 0 1.79 202 14:40 08.03.2020
6811 Clouds 10 1015 76 0 2.68 180 14:21 08.03.2020
6812 Clouds 9 1016 78 0 1.34 180 13:57 08.03.2020
6813 Clouds 9 1016 78 0 2.24 180 13:38 08.03.2020
6814 Clouds 9 1016 79 0 1.79 202 13:19 08.03.2020
6815 Clouds 8 1017 79 0 1.79 180 12:39 08.03.2020
6816 Clouds 8 1018 79 0 2.24 202 12:20 08.03.2020
6817 Clouds 7 1018 80 0 1.79 202 11:54 08.03.2020
6818 Clouds 7 1018 81 0 2.24 180 11:36 08.03.2020
6819 Clouds 7 1018 83 0 2.24